<?xml version="1.0" encoding="UTF-8" standalone="no" ?>
<gpx xmlns="http://www.topografix.com/GPX/1/1" xmlns:xsi="http://www.w3.org/2001/XMLSchema-instance" xsi:schemaLocation="http://www.topografix.com/GPX/1/1 http://www.topografix.com/GPX/1/1/gpx.xsd" version="1.1" creator="VisuGPX - https://www.visugpx.com">
  <metadata>
    <name>brenac-la fage-callong-belvis-la peyre-carach</name>
    <desc><![CDATA[villages, chemins roulants, forêts, lac...
grosses montées, et longues descentes, ]]></desc>
  </metadata>
  <trk>
    <name><![CDATA[Col de brenac-lafage-callong-belvis-lapeyre-traverse…]]></name>
    <trkseg>
      <trkpt lat="42.8702" lon="2.18407">
        <ele>288</ele>
        <time>2024-09-30T08:58:17.000Z</time>
      </trkpt>
      <trkpt lat="42.8702" lon="2.18407">
        <ele>288</ele>
        <time>2024-09-30T08:58:18.000Z</time>
      </trkpt>
      <trkpt lat="42.87015" lon="2.18415">
        <ele>288</ele>
        <time>2024-09-30T09:02:59.000Z</time>
      </trkpt>
      <trkpt lat="42.87012" lon="2.18412">
        <ele>288</ele>
        <time>2024-09-30T09:03:01.000Z</time>
      </trkpt>
      <trkpt lat="42.87012" lon="2.18402">
        <ele>288</ele>
        <time>2024-09-30T09:03:04.000Z</time>
      </trkpt>
      <trkpt lat="42.87009" lon="2.18384">
        <ele>288</ele>
        <time>2024-09-30T09:03:08.000Z</time>
      </trkpt>
      <trkpt lat="42.87002" lon="2.1836">
        <ele>289</ele>
        <time>2024-09-30T09:03:14.000Z</time>
      </trkpt>
      <trkpt lat="42.87001" lon="2.18345">
        <ele>289</ele>
        <time>2024-09-30T09:03:18.000Z</time>
      </trkpt>
      <trkpt lat="42.86992" lon="2.1834">
        <ele>289.20001220703</ele>
        <time>2024-09-30T09:03:22.000Z</time>
      </trkpt>
      <trkpt lat="42.8698" lon="2.1834">
        <ele>289.60000610352</ele>
        <time>2024-09-30T09:03:25.000Z</time>
      </trkpt>
      <trkpt lat="42.86976" lon="2.18341">
        <ele>290</ele>
        <time>2024-09-30T09:03:26.000Z</time>
      </trkpt>
      <trkpt lat="42.86972" lon="2.18342">
        <ele>290.39999389648</ele>
        <time>2024-09-30T09:03:27.000Z</time>
      </trkpt>
      <trkpt lat="42.86964" lon="2.18338">
        <ele>290.79998779297</ele>
        <time>2024-09-30T09:03:29.000Z</time>
      </trkpt>
      <trkpt lat="42.86958" lon="2.18328">
        <ele>291</ele>
        <time>2024-09-30T09:03:31.000Z</time>
      </trkpt>
      <trkpt lat="42.86953" lon="2.18316">
        <ele>290.79998779297</ele>
        <time>2024-09-30T09:03:33.000Z</time>
      </trkpt>
      <trkpt lat="42.86946" lon="2.18273">
        <ele>291.79998779297</ele>
        <time>2024-09-30T09:03:40.000Z</time>
      </trkpt>
      <trkpt lat="42.86943" lon="2.18249">
        <ele>291.79998779297</ele>
        <time>2024-09-30T09:03:44.000Z</time>
      </trkpt>
      <trkpt lat="42.86942" lon="2.18235">
        <ele>291.79998779297</ele>
        <time>2024-09-30T09:03:46.000Z</time>
      </trkpt>
      <trkpt lat="42.86941" lon="2.18221">
        <ele>291.79998779297</ele>
        <time>2024-09-30T09:03:48.000Z</time>
      </trkpt>
      <trkpt lat="42.8694" lon="2.18208">
        <ele>292.20001220703</ele>
        <time>2024-09-30T09:03:50.000Z</time>
      </trkpt>
      <trkpt lat="42.8694" lon="2.18202">
        <ele>292.39999389648</ele>
        <time>2024-09-30T09:03:51.000Z</time>
      </trkpt>
      <trkpt lat="42.86941" lon="2.18195">
        <ele>292.60000610352</ele>
        <time>2024-09-30T09:03:52.000Z</time>
      </trkpt>
      <trkpt lat="42.86946" lon="2.18184">
        <ele>292.39999389648</ele>
        <time>2024-09-30T09:03:54.000Z</time>
      </trkpt>
      <trkpt lat="42.86954" lon="2.18173">
        <ele>292</ele>
        <time>2024-09-30T09:03:56.000Z</time>
      </trkpt>
      <trkpt lat="42.86963" lon="2.18165">
        <ele>292</ele>
        <time>2024-09-30T09:03:58.000Z</time>
      </trkpt>
      <trkpt lat="42.86968" lon="2.18162">
        <ele>292.39999389648</ele>
        <time>2024-09-30T09:03:59.000Z</time>
      </trkpt>
      <trkpt lat="42.86985" lon="2.18157">
        <ele>293</ele>
        <time>2024-09-30T09:04:02.000Z</time>
      </trkpt>
      <trkpt lat="42.86997" lon="2.18158">
        <ele>293</ele>
        <time>2024-09-30T09:04:04.000Z</time>
      </trkpt>
      <trkpt lat="42.87032" lon="2.18164">
        <ele>293.39999389648</ele>
        <time>2024-09-30T09:04:10.000Z</time>
      </trkpt>
      <trkpt lat="42.87074" lon="2.18172">
        <ele>292.60000610352</ele>
        <time>2024-09-30T09:04:17.000Z</time>
      </trkpt>
      <trkpt lat="42.87116" lon="2.18176">
        <ele>291.60000610352</ele>
        <time>2024-09-30T09:04:24.000Z</time>
      </trkpt>
      <trkpt lat="42.87163" lon="2.18169">
        <ele>291.60000610352</ele>
        <time>2024-09-30T09:04:32.000Z</time>
      </trkpt>
      <trkpt lat="42.87218" lon="2.18159">
        <ele>292</ele>
        <time>2024-09-30T09:04:41.000Z</time>
      </trkpt>
      <trkpt lat="42.87266" lon="2.18149">
        <ele>293.39999389648</ele>
        <time>2024-09-30T09:04:49.000Z</time>
      </trkpt>
      <trkpt lat="42.87303" lon="2.1814">
        <ele>293.79998779297</ele>
        <time>2024-09-30T09:04:55.000Z</time>
      </trkpt>
      <trkpt lat="42.87358" lon="2.18129">
        <ele>291.39999389648</ele>
        <time>2024-09-30T09:05:04.000Z</time>
      </trkpt>
      <trkpt lat="42.8739" lon="2.18123">
        <ele>290.79998779297</ele>
        <time>2024-09-30T09:05:10.000Z</time>
      </trkpt>
      <trkpt lat="42.8743" lon="2.18116">
        <ele>291.39999389648</ele>
        <time>2024-09-30T09:05:17.000Z</time>
      </trkpt>
      <trkpt lat="42.87449" lon="2.18114">
        <ele>291.79998779297</ele>
        <time>2024-09-30T09:05:20.000Z</time>
      </trkpt>
      <trkpt lat="42.87461" lon="2.18111">
        <ele>291.79998779297</ele>
        <time>2024-09-30T09:05:22.000Z</time>
      </trkpt>
      <trkpt lat="42.87489" lon="2.18095">
        <ele>291.79998779297</ele>
        <time>2024-09-30T09:05:27.000Z</time>
      </trkpt>
      <trkpt lat="42.87509" lon="2.18086">
        <ele>292.20001220703</ele>
        <time>2024-09-30T09:05:31.000Z</time>
      </trkpt>
      <trkpt lat="42.87514" lon="2.18085">
        <ele>292.20001220703</ele>
        <time>2024-09-30T09:05:32.000Z</time>
      </trkpt>
      <trkpt lat="42.87519" lon="2.18086">
        <ele>292.20001220703</ele>
        <time>2024-09-30T09:05:33.000Z</time>
      </trkpt>
      <trkpt lat="42.87527" lon="2.18091">
        <ele>291.79998779297</ele>
        <time>2024-09-30T09:05:35.000Z</time>
      </trkpt>
      <trkpt lat="42.87534" lon="2.18098">
        <ele>291.20001220703</ele>
        <time>2024-09-30T09:05:37.000Z</time>
      </trkpt>
      <trkpt lat="42.87544" lon="2.18099">
        <ele>290.79998779297</ele>
        <time>2024-09-30T09:05:39.000Z</time>
      </trkpt>
      <trkpt lat="42.8757" lon="2.18086">
        <ele>290.20001220703</ele>
        <time>2024-09-30T09:05:44.000Z</time>
      </trkpt>
      <trkpt lat="42.87581" lon="2.1808">
        <ele>290.20001220703</ele>
        <time>2024-09-30T09:05:46.000Z</time>
      </trkpt>
      <trkpt lat="42.87597" lon="2.18072">
        <ele>290</ele>
        <time>2024-09-30T09:05:49.000Z</time>
      </trkpt>
      <trkpt lat="42.87632" lon="2.18051">
        <ele>290.60000610352</ele>
        <time>2024-09-30T09:05:56.000Z</time>
      </trkpt>
      <trkpt lat="42.87667" lon="2.18029">
        <ele>294</ele>
        <time>2024-09-30T09:06:03.000Z</time>
      </trkpt>
      <trkpt lat="42.87705" lon="2.18006">
        <ele>296.39999389648</ele>
        <time>2024-09-30T09:06:11.000Z</time>
      </trkpt>
      <trkpt lat="42.87733" lon="2.17991">
        <ele>299</ele>
        <time>2024-09-30T09:06:17.000Z</time>
      </trkpt>
      <trkpt lat="42.87763" lon="2.17973">
        <ele>302.20001220703</ele>
        <time>2024-09-30T09:06:24.000Z</time>
      </trkpt>
      <trkpt lat="42.87766" lon="2.17973">
        <ele>302.39999389648</ele>
        <time>2024-09-30T09:06:25.000Z</time>
      </trkpt>
      <trkpt lat="42.8777" lon="2.17978">
        <ele>302.60000610352</ele>
        <time>2024-09-30T09:06:27.000Z</time>
      </trkpt>
      <trkpt lat="42.87777" lon="2.17997">
        <ele>303</ele>
        <time>2024-09-30T09:06:31.000Z</time>
      </trkpt>
      <trkpt lat="42.87778" lon="2.18003">
        <ele>302.79998779297</ele>
        <time>2024-09-30T09:06:32.000Z</time>
      </trkpt>
      <trkpt lat="42.87788" lon="2.18037">
        <ele>303.60000610352</ele>
        <time>2024-09-30T09:06:39.000Z</time>
      </trkpt>
      <trkpt lat="42.8779" lon="2.1804">
        <ele>304</ele>
        <time>2024-09-30T09:06:41.000Z</time>
      </trkpt>
      <trkpt lat="42.87794" lon="2.18042">
        <ele>304.20001220703</ele>
        <time>2024-09-30T09:06:43.000Z</time>
      </trkpt>
      <trkpt lat="42.87798" lon="2.18042">
        <ele>304.39999389648</ele>
        <time>2024-09-30T09:06:44.000Z</time>
      </trkpt>
      <trkpt lat="42.87804" lon="2.18035">
        <ele>304.79998779297</ele>
        <time>2024-09-30T09:06:46.000Z</time>
      </trkpt>
      <trkpt lat="42.87808" lon="2.18023">
        <ele>305</ele>
        <time>2024-09-30T09:06:48.000Z</time>
      </trkpt>
      <trkpt lat="42.87811" lon="2.1801">
        <ele>305.79998779297</ele>
        <time>2024-09-30T09:06:50.000Z</time>
      </trkpt>
      <trkpt lat="42.87815" lon="2.17997">
        <ele>306.79998779297</ele>
        <time>2024-09-30T09:06:52.000Z</time>
      </trkpt>
      <trkpt lat="42.87824" lon="2.17972">
        <ele>311</ele>
        <time>2024-09-30T09:06:56.000Z</time>
      </trkpt>
      <trkpt lat="42.87837" lon="2.17954">
        <ele>315</ele>
        <time>2024-09-30T09:07:00.000Z</time>
      </trkpt>
      <trkpt lat="42.87855" lon="2.17927">
        <ele>315.79998779297</ele>
        <time>2024-09-30T09:07:06.000Z</time>
      </trkpt>
      <trkpt lat="42.87863" lon="2.1792">
        <ele>315.39999389648</ele>
        <time>2024-09-30T09:07:08.000Z</time>
      </trkpt>
      <trkpt lat="42.87871" lon="2.17915">
        <ele>316</ele>
        <time>2024-09-30T09:07:10.000Z</time>
      </trkpt>
      <trkpt lat="42.87884" lon="2.1791">
        <ele>317.60000610352</ele>
        <time>2024-09-30T09:07:13.000Z</time>
      </trkpt>
      <trkpt lat="42.87914" lon="2.17904">
        <ele>322.20001220703</ele>
        <time>2024-09-30T09:07:20.000Z</time>
      </trkpt>
      <trkpt lat="42.87919" lon="2.17904">
        <ele>323</ele>
        <time>2024-09-30T09:07:21.000Z</time>
      </trkpt>
      <trkpt lat="42.87923" lon="2.17906">
        <ele>324</ele>
        <time>2024-09-30T09:07:22.000Z</time>
      </trkpt>
      <trkpt lat="42.87942" lon="2.1792">
        <ele>327.79998779297</ele>
        <time>2024-09-30T09:07:27.000Z</time>
      </trkpt>
      <trkpt lat="42.8797" lon="2.17945">
        <ele>331.39999389648</ele>
        <time>2024-09-30T09:07:35.000Z</time>
      </trkpt>
      <trkpt lat="42.87983" lon="2.17957">
        <ele>331.79998779297</ele>
        <time>2024-09-30T09:07:40.000Z</time>
      </trkpt>
      <trkpt lat="42.87991" lon="2.1797">
        <ele>332.79998779297</ele>
        <time>2024-09-30T09:07:45.000Z</time>
      </trkpt>
      <trkpt lat="42.87993" lon="2.17971">
        <ele>333</ele>
        <time>2024-09-30T09:07:46.000Z</time>
      </trkpt>
      <trkpt lat="42.87996" lon="2.17971">
        <ele>333</ele>
        <time>2024-09-30T09:07:49.000Z</time>
      </trkpt>
      <trkpt lat="42.87996" lon="2.17966">
        <ele>332.60000610352</ele>
        <time>2024-09-30T09:11:18.000Z</time>
      </trkpt>
      <trkpt lat="42.87992" lon="2.17964">
        <ele>332.39999389648</ele>
        <time>2024-09-30T09:11:20.000Z</time>
      </trkpt>
      <trkpt lat="42.87987" lon="2.17957">
        <ele>332</ele>
        <time>2024-09-30T09:11:24.000Z</time>
      </trkpt>
      <trkpt lat="42.87986" lon="2.17956">
        <ele>331.79998779297</ele>
        <time>2024-09-30T09:11:25.000Z</time>
      </trkpt>
      <trkpt lat="42.87985" lon="2.17955">
        <ele>331.79998779297</ele>
        <time>2024-09-30T09:11:26.000Z</time>
      </trkpt>
      <trkpt lat="42.87982" lon="2.17956">
        <ele>331.79998779297</ele>
        <time>2024-09-30T09:11:29.000Z</time>
      </trkpt>
      <trkpt lat="42.8798" lon="2.17962">
        <ele>332.20001220703</ele>
        <time>2024-09-30T09:11:31.000Z</time>
      </trkpt>
      <trkpt lat="42.87974" lon="2.1798">
        <ele>335.39999389648</ele>
        <time>2024-09-30T09:11:36.000Z</time>
      </trkpt>
      <trkpt lat="42.87971" lon="2.17982">
        <ele>335.79998779297</ele>
        <time>2024-09-30T09:11:37.000Z</time>
      </trkpt>
      <trkpt lat="42.87964" lon="2.17983">
        <ele>336.39999389648</ele>
        <time>2024-09-30T09:11:40.000Z</time>
      </trkpt>
      <trkpt lat="42.87952" lon="2.17974">
        <ele>336.39999389648</ele>
        <time>2024-09-30T09:11:45.000Z</time>
      </trkpt>
      <trkpt lat="42.87937" lon="2.17957">
        <ele>334.60000610352</ele>
        <time>2024-09-30T09:11:51.000Z</time>
      </trkpt>
      <trkpt lat="42.87926" lon="2.1795">
        <ele>333.39999389648</ele>
        <time>2024-09-30T09:11:55.000Z</time>
      </trkpt>
      <trkpt lat="42.87913" lon="2.1795">
        <ele>330.39999389648</ele>
        <time>2024-09-30T09:12:00.000Z</time>
      </trkpt>
      <trkpt lat="42.87911" lon="2.17953">
        <ele>330.39999389648</ele>
        <time>2024-09-30T09:12:01.000Z</time>
      </trkpt>
      <trkpt lat="42.87909" lon="2.17962">
        <ele>331.20001220703</ele>
        <time>2024-09-30T09:12:03.000Z</time>
      </trkpt>
      <trkpt lat="42.87917" lon="2.17977">
        <ele>334.39999389648</ele>
        <time>2024-09-30T09:12:07.000Z</time>
      </trkpt>
      <trkpt lat="42.87928" lon="2.17997">
        <ele>338.20001220703</ele>
        <time>2024-09-30T09:12:13.000Z</time>
      </trkpt>
      <trkpt lat="42.87932" lon="2.18026">
        <ele>340</ele>
        <time>2024-09-30T09:12:20.000Z</time>
      </trkpt>
      <trkpt lat="42.87936" lon="2.18052">
        <ele>341.39999389648</ele>
        <time>2024-09-30T09:12:26.000Z</time>
      </trkpt>
      <trkpt lat="42.87942" lon="2.18092">
        <ele>342.79998779297</ele>
        <time>2024-09-30T09:12:34.000Z</time>
      </trkpt>
      <trkpt lat="42.87943" lon="2.18096">
        <ele>342.79998779297</ele>
        <time>2024-09-30T09:12:35.000Z</time>
      </trkpt>
      <trkpt lat="42.87951" lon="2.18107">
        <ele>343.79998779297</ele>
        <time>2024-09-30T09:12:38.000Z</time>
      </trkpt>
      <trkpt lat="42.87967" lon="2.1811">
        <ele>346.79998779297</ele>
        <time>2024-09-30T09:12:43.000Z</time>
      </trkpt>
      <trkpt lat="42.87982" lon="2.18103">
        <ele>349</ele>
        <time>2024-09-30T09:12:48.000Z</time>
      </trkpt>
      <trkpt lat="42.88002" lon="2.18084">
        <ele>351</ele>
        <time>2024-09-30T09:12:55.000Z</time>
      </trkpt>
      <trkpt lat="42.88024" lon="2.18062">
        <ele>350.20001220703</ele>
        <time>2024-09-30T09:13:03.000Z</time>
      </trkpt>
      <trkpt lat="42.88044" lon="2.18044">
        <ele>351.60000610352</ele>
        <time>2024-09-30T09:13:10.000Z</time>
      </trkpt>
      <trkpt lat="42.8806" lon="2.18028">
        <ele>353.20001220703</ele>
        <time>2024-09-30T09:13:16.000Z</time>
      </trkpt>
      <trkpt lat="42.88075" lon="2.18006">
        <ele>354.79998779297</ele>
        <time>2024-09-30T09:13:23.000Z</time>
      </trkpt>
      <trkpt lat="42.88083" lon="2.17981">
        <ele>355</ele>
        <time>2024-09-30T09:13:29.000Z</time>
      </trkpt>
      <trkpt lat="42.88086" lon="2.17948">
        <ele>355.79998779297</ele>
        <time>2024-09-30T09:13:36.000Z</time>
      </trkpt>
      <trkpt lat="42.88085" lon="2.17921">
        <ele>355.20001220703</ele>
        <time>2024-09-30T09:13:42.000Z</time>
      </trkpt>
      <trkpt lat="42.88093" lon="2.179">
        <ele>357.79998779297</ele>
        <time>2024-09-30T09:13:47.000Z</time>
      </trkpt>
      <trkpt lat="42.88109" lon="2.17872">
        <ele>361.60000610352</ele>
        <time>2024-09-30T09:13:55.000Z</time>
      </trkpt>
      <trkpt lat="42.8812" lon="2.17843">
        <ele>364.39999389648</ele>
        <time>2024-09-30T09:14:02.000Z</time>
      </trkpt>
      <trkpt lat="42.88128" lon="2.17812">
        <ele>366.39999389648</ele>
        <time>2024-09-30T09:14:09.000Z</time>
      </trkpt>
      <trkpt lat="42.88137" lon="2.1778">
        <ele>368.20001220703</ele>
        <time>2024-09-30T09:14:16.000Z</time>
      </trkpt>
      <trkpt lat="42.88137" lon="2.17776">
        <ele>368.60000610352</ele>
        <time>2024-09-30T09:14:17.000Z</time>
      </trkpt>
      <trkpt lat="42.88136" lon="2.17769">
        <ele>369.39999389648</ele>
        <time>2024-09-30T09:14:19.000Z</time>
      </trkpt>
      <trkpt lat="42.88136" lon="2.17766">
        <ele>369.60000610352</ele>
        <time>2024-09-30T09:14:20.000Z</time>
      </trkpt>
      <trkpt lat="42.8814" lon="2.17755">
        <ele>370</ele>
        <time>2024-09-30T09:14:22.000Z</time>
      </trkpt>
      <trkpt lat="42.88157" lon="2.17729">
        <ele>371</ele>
        <time>2024-09-30T09:14:28.000Z</time>
      </trkpt>
      <trkpt lat="42.88175" lon="2.17713">
        <ele>372</ele>
        <time>2024-09-30T09:14:34.000Z</time>
      </trkpt>
      <trkpt lat="42.88189" lon="2.17705">
        <ele>372.20001220703</ele>
        <time>2024-09-30T09:14:39.000Z</time>
      </trkpt>
      <trkpt lat="42.88208" lon="2.17686">
        <ele>373.79998779297</ele>
        <time>2024-09-30T09:14:47.000Z</time>
      </trkpt>
      <trkpt lat="42.88223" lon="2.17666">
        <ele>374.39999389648</ele>
        <time>2024-09-30T09:14:53.000Z</time>
      </trkpt>
      <trkpt lat="42.88234" lon="2.17648">
        <ele>375</ele>
        <time>2024-09-30T09:14:59.000Z</time>
      </trkpt>
      <trkpt lat="42.88242" lon="2.17628">
        <ele>375.20001220703</ele>
        <time>2024-09-30T09:15:05.000Z</time>
      </trkpt>
      <trkpt lat="42.88251" lon="2.17605">
        <ele>377.20001220703</ele>
        <time>2024-09-30T09:15:11.000Z</time>
      </trkpt>
      <trkpt lat="42.88258" lon="2.17586">
        <ele>379.39999389648</ele>
        <time>2024-09-30T09:15:16.000Z</time>
      </trkpt>
      <trkpt lat="42.88266" lon="2.1757">
        <ele>381.39999389648</ele>
        <time>2024-09-30T09:15:21.000Z</time>
      </trkpt>
      <trkpt lat="42.88277" lon="2.17545">
        <ele>383.39999389648</ele>
        <time>2024-09-30T09:15:28.000Z</time>
      </trkpt>
      <trkpt lat="42.8829" lon="2.17517">
        <ele>384.20001220703</ele>
        <time>2024-09-30T09:15:36.000Z</time>
      </trkpt>
      <trkpt lat="42.88305" lon="2.17494">
        <ele>386.79998779297</ele>
        <time>2024-09-30T09:15:43.000Z</time>
      </trkpt>
      <trkpt lat="42.88322" lon="2.17473">
        <ele>389.39999389648</ele>
        <time>2024-09-30T09:15:50.000Z</time>
      </trkpt>
      <trkpt lat="42.88336" lon="2.17449">
        <ele>391.20001220703</ele>
        <time>2024-09-30T09:15:57.000Z</time>
      </trkpt>
      <trkpt lat="42.88343" lon="2.17422">
        <ele>394</ele>
        <time>2024-09-30T09:16:04.000Z</time>
      </trkpt>
      <trkpt lat="42.88347" lon="2.17401">
        <ele>398.39999389648</ele>
        <time>2024-09-30T09:16:10.000Z</time>
      </trkpt>
      <trkpt lat="42.8835" lon="2.17378">
        <ele>404.60000610352</ele>
        <time>2024-09-30T09:16:17.000Z</time>
      </trkpt>
      <trkpt lat="42.88354" lon="2.17355">
        <ele>409.39999389648</ele>
        <time>2024-09-30T09:16:24.000Z</time>
      </trkpt>
      <trkpt lat="42.88365" lon="2.17341">
        <ele>409.39999389648</ele>
        <time>2024-09-30T09:16:30.000Z</time>
      </trkpt>
      <trkpt lat="42.88386" lon="2.17324">
        <ele>410</ele>
        <time>2024-09-30T09:16:38.000Z</time>
      </trkpt>
      <trkpt lat="42.884" lon="2.17315">
        <ele>410.20001220703</ele>
        <time>2024-09-30T09:16:43.000Z</time>
      </trkpt>
      <trkpt lat="42.88421" lon="2.17299">
        <ele>410.39999389648</ele>
        <time>2024-09-30T09:16:51.000Z</time>
      </trkpt>
      <trkpt lat="42.88437" lon="2.17282">
        <ele>409.39999389648</ele>
        <time>2024-09-30T09:16:58.000Z</time>
      </trkpt>
      <trkpt lat="42.88457" lon="2.17261">
        <ele>410.79998779297</ele>
        <time>2024-09-30T09:17:06.000Z</time>
      </trkpt>
      <trkpt lat="42.88476" lon="2.17233">
        <ele>417.20001220703</ele>
        <time>2024-09-30T09:17:15.000Z</time>
      </trkpt>
      <trkpt lat="42.88489" lon="2.17215">
        <ele>419.39999389648</ele>
        <time>2024-09-30T09:17:21.000Z</time>
      </trkpt>
      <trkpt lat="42.88505" lon="2.17191">
        <ele>422.20001220703</ele>
        <time>2024-09-30T09:17:29.000Z</time>
      </trkpt>
      <trkpt lat="42.88518" lon="2.17171">
        <ele>423.60000610352</ele>
        <time>2024-09-30T09:17:36.000Z</time>
      </trkpt>
      <trkpt lat="42.88531" lon="2.17151">
        <ele>425.39999389648</ele>
        <time>2024-09-30T09:17:43.000Z</time>
      </trkpt>
      <trkpt lat="42.88544" lon="2.17127">
        <ele>427.39999389648</ele>
        <time>2024-09-30T09:17:51.000Z</time>
      </trkpt>
      <trkpt lat="42.88548" lon="2.17105">
        <ele>431.20001220703</ele>
        <time>2024-09-30T09:17:57.000Z</time>
      </trkpt>
      <trkpt lat="42.88555" lon="2.1708">
        <ele>434.39999389648</ele>
        <time>2024-09-30T09:18:04.000Z</time>
      </trkpt>
      <trkpt lat="42.88564" lon="2.17065">
        <ele>436.60000610352</ele>
        <time>2024-09-30T09:18:10.000Z</time>
      </trkpt>
      <trkpt lat="42.88576" lon="2.17059">
        <ele>437.39999389648</ele>
        <time>2024-09-30T09:18:15.000Z</time>
      </trkpt>
      <trkpt lat="42.88594" lon="2.17053">
        <ele>438</ele>
        <time>2024-09-30T09:18:20.000Z</time>
      </trkpt>
      <trkpt lat="42.88605" lon="2.17045">
        <ele>440.79998779297</ele>
        <time>2024-09-30T09:18:25.000Z</time>
      </trkpt>
      <trkpt lat="42.88616" lon="2.17029">
        <ele>446</ele>
        <time>2024-09-30T09:18:33.000Z</time>
      </trkpt>
      <trkpt lat="42.88622" lon="2.17018">
        <ele>447.20001220703</ele>
        <time>2024-09-30T09:18:38.000Z</time>
      </trkpt>
      <trkpt lat="42.88628" lon="2.17008">
        <ele>450</ele>
        <time>2024-09-30T09:18:42.000Z</time>
      </trkpt>
      <trkpt lat="42.8863" lon="2.17006">
        <ele>450.39999389648</ele>
        <time>2024-09-30T09:18:43.000Z</time>
      </trkpt>
      <trkpt lat="42.88632" lon="2.17002">
        <ele>451.39999389648</ele>
        <time>2024-09-30T09:18:45.000Z</time>
      </trkpt>
      <trkpt lat="42.88634" lon="2.16999">
        <ele>452.39999389648</ele>
        <time>2024-09-30T09:18:47.000Z</time>
      </trkpt>
      <trkpt lat="42.88639" lon="2.16989">
        <ele>454.60000610352</ele>
        <time>2024-09-30T09:18:52.000Z</time>
      </trkpt>
      <trkpt lat="42.8864" lon="2.16987">
        <ele>455.20001220703</ele>
        <time>2024-09-30T09:18:53.000Z</time>
      </trkpt>
      <trkpt lat="42.88644" lon="2.16979">
        <ele>457.60000610352</ele>
        <time>2024-09-30T09:18:56.000Z</time>
      </trkpt>
      <trkpt lat="42.88648" lon="2.16974">
        <ele>459.60000610352</ele>
        <time>2024-09-30T09:18:59.000Z</time>
      </trkpt>
      <trkpt lat="42.88647" lon="2.1697">
        <ele>461.20001220703</ele>
        <time>2024-09-30T09:19:01.000Z</time>
      </trkpt>
      <trkpt lat="42.88647" lon="2.16968">
        <ele>462</ele>
        <time>2024-09-30T09:19:03.000Z</time>
      </trkpt>
      <trkpt lat="42.88647" lon="2.16968">
        <ele>462.20001220703</ele>
        <time>2024-09-30T09:19:05.000Z</time>
      </trkpt>
      <trkpt lat="42.88644" lon="2.16969">
        <ele>462</ele>
        <time>2024-09-30T09:19:07.000Z</time>
      </trkpt>
      <trkpt lat="42.88643" lon="2.16964">
        <ele>464.20001220703</ele>
        <time>2024-09-30T09:19:10.000Z</time>
      </trkpt>
      <trkpt lat="42.88648" lon="2.16956">
        <ele>467.79998779297</ele>
        <time>2024-09-30T09:19:14.000Z</time>
      </trkpt>
      <trkpt lat="42.88654" lon="2.16942">
        <ele>473.20001220703</ele>
        <time>2024-09-30T09:19:19.000Z</time>
      </trkpt>
      <trkpt lat="42.88657" lon="2.16925">
        <ele>478.60000610352</ele>
        <time>2024-09-30T09:19:25.000Z</time>
      </trkpt>
      <trkpt lat="42.88658" lon="2.16924">
        <ele>479</ele>
        <time>2024-09-30T09:19:26.000Z</time>
      </trkpt>
      <trkpt lat="42.88663" lon="2.16918">
        <ele>479.39999389648</ele>
        <time>2024-09-30T09:19:29.000Z</time>
      </trkpt>
      <trkpt lat="42.8867" lon="2.16912">
        <ele>478.60000610352</ele>
        <time>2024-09-30T09:19:33.000Z</time>
      </trkpt>
      <trkpt lat="42.88678" lon="2.16901">
        <ele>479</ele>
        <time>2024-09-30T09:19:38.000Z</time>
      </trkpt>
      <trkpt lat="42.8869" lon="2.16881">
        <ele>482.79998779297</ele>
        <time>2024-09-30T09:19:46.000Z</time>
      </trkpt>
      <trkpt lat="42.88696" lon="2.16869">
        <ele>485</ele>
        <time>2024-09-30T09:19:51.000Z</time>
      </trkpt>
      <trkpt lat="42.88698" lon="2.16867">
        <ele>485.20001220703</ele>
        <time>2024-09-30T09:19:52.000Z</time>
      </trkpt>
      <trkpt lat="42.88699" lon="2.16865">
        <ele>485.39999389648</ele>
        <time>2024-09-30T09:19:53.000Z</time>
      </trkpt>
      <trkpt lat="42.88703" lon="2.16859">
        <ele>486.20001220703</ele>
        <time>2024-09-30T09:19:56.000Z</time>
      </trkpt>
      <trkpt lat="42.88704" lon="2.16857">
        <ele>486.60000610352</ele>
        <time>2024-09-30T09:19:57.000Z</time>
      </trkpt>
      <trkpt lat="42.88705" lon="2.16855">
        <ele>487</ele>
        <time>2024-09-30T09:19:58.000Z</time>
      </trkpt>
      <trkpt lat="42.88709" lon="2.16849">
        <ele>488.60000610352</ele>
        <time>2024-09-30T09:20:01.000Z</time>
      </trkpt>
      <trkpt lat="42.88719" lon="2.16837">
        <ele>491.39999389648</ele>
        <time>2024-09-30T09:20:08.000Z</time>
      </trkpt>
      <trkpt lat="42.88734" lon="2.16831">
        <ele>491.79998779297</ele>
        <time>2024-09-30T09:20:14.000Z</time>
      </trkpt>
      <trkpt lat="42.88747" lon="2.16826">
        <ele>494.60000610352</ele>
        <time>2024-09-30T09:20:19.000Z</time>
      </trkpt>
      <trkpt lat="42.88747" lon="2.16826">
        <ele>494.60000610352</ele>
        <time>2024-09-30T09:20:20.000Z</time>
      </trkpt>
      <trkpt lat="42.88932" lon="2.16684">
        <ele>555.20001220703</ele>
        <time>2024-09-30T09:30:31.000Z</time>
      </trkpt>
      <trkpt lat="42.88934" lon="2.16679">
        <ele>555.79998779297</ele>
        <time>2024-09-30T09:30:33.000Z</time>
      </trkpt>
      <trkpt lat="42.8894" lon="2.16668">
        <ele>557.20001220703</ele>
        <time>2024-09-30T09:30:37.000Z</time>
      </trkpt>
      <trkpt lat="42.88949" lon="2.16649">
        <ele>557.20001220703</ele>
        <time>2024-09-30T09:30:42.000Z</time>
      </trkpt>
      <trkpt lat="42.88951" lon="2.1664">
        <ele>556.79998779297</ele>
        <time>2024-09-30T09:30:44.000Z</time>
      </trkpt>
      <trkpt lat="42.88953" lon="2.16636">
        <ele>556.40002441406</ele>
        <time>2024-09-30T09:30:45.000Z</time>
      </trkpt>
      <trkpt lat="42.8896" lon="2.16617">
        <ele>553.59997558594</ele>
        <time>2024-09-30T09:30:50.000Z</time>
      </trkpt>
      <trkpt lat="42.88962" lon="2.16614">
        <ele>552.79998779297</ele>
        <time>2024-09-30T09:30:51.000Z</time>
      </trkpt>
      <trkpt lat="42.88967" lon="2.16605">
        <ele>550.59997558594</ele>
        <time>2024-09-30T09:30:54.000Z</time>
      </trkpt>
      <trkpt lat="42.88974" lon="2.16589">
        <ele>546.59997558594</ele>
        <time>2024-09-30T09:30:58.000Z</time>
      </trkpt>
      <trkpt lat="42.88978" lon="2.16562">
        <ele>539.59997558594</ele>
        <time>2024-09-30T09:31:03.000Z</time>
      </trkpt>
      <trkpt lat="42.88974" lon="2.16547">
        <ele>537.59997558594</ele>
        <time>2024-09-30T09:31:07.000Z</time>
      </trkpt>
      <trkpt lat="42.88961" lon="2.16531">
        <ele>539.20001220703</ele>
        <time>2024-09-30T09:31:14.000Z</time>
      </trkpt>
      <trkpt lat="42.88951" lon="2.16508">
        <ele>538</ele>
        <time>2024-09-30T09:31:21.000Z</time>
      </trkpt>
      <trkpt lat="42.88943" lon="2.16486">
        <ele>537.40002441406</ele>
        <time>2024-09-30T09:31:27.000Z</time>
      </trkpt>
      <trkpt lat="42.88942" lon="2.16483">
        <ele>537</ele>
        <time>2024-09-30T09:31:28.000Z</time>
      </trkpt>
      <trkpt lat="42.88938" lon="2.16474">
        <ele>536.40002441406</ele>
        <time>2024-09-30T09:31:32.000Z</time>
      </trkpt>
      <trkpt lat="42.88933" lon="2.16454">
        <ele>534</ele>
        <time>2024-09-30T09:31:37.000Z</time>
      </trkpt>
      <trkpt lat="42.8893" lon="2.16441">
        <ele>532.40002441406</ele>
        <time>2024-09-30T09:31:40.000Z</time>
      </trkpt>
      <trkpt lat="42.88927" lon="2.16436">
        <ele>532.20001220703</ele>
        <time>2024-09-30T09:31:42.000Z</time>
      </trkpt>
      <trkpt lat="42.88924" lon="2.1642">
        <ele>530.79998779297</ele>
        <time>2024-09-30T09:31:47.000Z</time>
      </trkpt>
      <trkpt lat="42.88924" lon="2.16415">
        <ele>529.20001220703</ele>
        <time>2024-09-30T09:31:50.000Z</time>
      </trkpt>
      <trkpt lat="42.88921" lon="2.16404">
        <ele>528.59997558594</ele>
        <time>2024-09-30T09:31:55.000Z</time>
      </trkpt>
      <trkpt lat="42.88917" lon="2.16387">
        <ele>528.59997558594</ele>
        <time>2024-09-30T09:32:02.000Z</time>
      </trkpt>
      <trkpt lat="42.88913" lon="2.16372">
        <ele>529</ele>
        <time>2024-09-30T09:32:05.000Z</time>
      </trkpt>
      <trkpt lat="42.88911" lon="2.16367">
        <ele>529.20001220703</ele>
        <time>2024-09-30T09:32:06.000Z</time>
      </trkpt>
      <trkpt lat="42.88905" lon="2.16346">
        <ele>529</ele>
        <time>2024-09-30T09:32:11.000Z</time>
      </trkpt>
      <trkpt lat="42.889" lon="2.16333">
        <ele>528.79998779297</ele>
        <time>2024-09-30T09:32:14.000Z</time>
      </trkpt>
      <trkpt lat="42.88899" lon="2.1632">
        <ele>527</ele>
        <time>2024-09-30T09:32:16.000Z</time>
      </trkpt>
      <trkpt lat="42.88898" lon="2.16315">
        <ele>527.20001220703</ele>
        <time>2024-09-30T09:32:17.000Z</time>
      </trkpt>
      <trkpt lat="42.88898" lon="2.16301">
        <ele>526</ele>
        <time>2024-09-30T09:32:20.000Z</time>
      </trkpt>
      <trkpt lat="42.88898" lon="2.16281">
        <ele>523.59997558594</ele>
        <time>2024-09-30T09:32:25.000Z</time>
      </trkpt>
      <trkpt lat="42.88898" lon="2.16259">
        <ele>520.20001220703</ele>
        <time>2024-09-30T09:32:29.000Z</time>
      </trkpt>
      <trkpt lat="42.88897" lon="2.16239">
        <ele>517.20001220703</ele>
        <time>2024-09-30T09:32:33.000Z</time>
      </trkpt>
      <trkpt lat="42.88895" lon="2.16225">
        <ele>515.20001220703</ele>
        <time>2024-09-30T09:32:37.000Z</time>
      </trkpt>
      <trkpt lat="42.88894" lon="2.16221">
        <ele>515</ele>
        <time>2024-09-30T09:32:38.000Z</time>
      </trkpt>
      <trkpt lat="42.88891" lon="2.16201">
        <ele>513.20001220703</ele>
        <time>2024-09-30T09:32:42.000Z</time>
      </trkpt>
      <trkpt lat="42.88889" lon="2.1619">
        <ele>511.20001220703</ele>
        <time>2024-09-30T09:32:44.000Z</time>
      </trkpt>
      <trkpt lat="42.88888" lon="2.16177">
        <ele>509.60000610352</ele>
        <time>2024-09-30T09:32:46.000Z</time>
      </trkpt>
      <trkpt lat="42.88886" lon="2.16152">
        <ele>506</ele>
        <time>2024-09-30T09:32:51.000Z</time>
      </trkpt>
      <trkpt lat="42.88887" lon="2.16128">
        <ele>501.39999389648</ele>
        <time>2024-09-30T09:32:56.000Z</time>
      </trkpt>
      <trkpt lat="42.88886" lon="2.16102">
        <ele>497</ele>
        <time>2024-09-30T09:33:01.000Z</time>
      </trkpt>
      <trkpt lat="42.88886" lon="2.16078">
        <ele>493</ele>
        <time>2024-09-30T09:33:06.000Z</time>
      </trkpt>
      <trkpt lat="42.88887" lon="2.1605">
        <ele>490</ele>
        <time>2024-09-30T09:33:12.000Z</time>
      </trkpt>
      <trkpt lat="42.88887" lon="2.16041">
        <ele>489</ele>
        <time>2024-09-30T09:33:14.000Z</time>
      </trkpt>
      <trkpt lat="42.88886" lon="2.16036">
        <ele>488.79998779297</ele>
        <time>2024-09-30T09:33:15.000Z</time>
      </trkpt>
      <trkpt lat="42.8889" lon="2.16019">
        <ele>486.20001220703</ele>
        <time>2024-09-30T09:33:20.000Z</time>
      </trkpt>
      <trkpt lat="42.88892" lon="2.16011">
        <ele>484.79998779297</ele>
        <time>2024-09-30T09:33:23.000Z</time>
      </trkpt>
      <trkpt lat="42.88891" lon="2.16004">
        <ele>484.39999389648</ele>
        <time>2024-09-30T09:33:25.000Z</time>
      </trkpt>
      <trkpt lat="42.88893" lon="2.15984">
        <ele>481.79998779297</ele>
        <time>2024-09-30T09:33:30.000Z</time>
      </trkpt>
      <trkpt lat="42.88893" lon="2.15965">
        <ele>478.20001220703</ele>
        <time>2024-09-30T09:33:35.000Z</time>
      </trkpt>
      <trkpt lat="42.88891" lon="2.15947">
        <ele>474.39999389648</ele>
        <time>2024-09-30T09:33:40.000Z</time>
      </trkpt>
      <trkpt lat="42.8889" lon="2.1594">
        <ele>473.20001220703</ele>
        <time>2024-09-30T09:33:42.000Z</time>
      </trkpt>
      <trkpt lat="42.88888" lon="2.15934">
        <ele>472.39999389648</ele>
        <time>2024-09-30T09:33:44.000Z</time>
      </trkpt>
      <trkpt lat="42.88888" lon="2.15931">
        <ele>471.79998779297</ele>
        <time>2024-09-30T09:33:45.000Z</time>
      </trkpt>
      <trkpt lat="42.88886" lon="2.15928">
        <ele>471.60000610352</ele>
        <time>2024-09-30T09:33:46.000Z</time>
      </trkpt>
      <trkpt lat="42.88881" lon="2.15919">
        <ele>471.20001220703</ele>
        <time>2024-09-30T09:33:49.000Z</time>
      </trkpt>
      <trkpt lat="42.88876" lon="2.15906">
        <ele>469.60000610352</ele>
        <time>2024-09-30T09:33:53.000Z</time>
      </trkpt>
      <trkpt lat="42.88871" lon="2.15889">
        <ele>467.39999389648</ele>
        <time>2024-09-30T09:33:58.000Z</time>
      </trkpt>
      <trkpt lat="42.8887" lon="2.15886">
        <ele>467</ele>
        <time>2024-09-30T09:33:59.000Z</time>
      </trkpt>
      <trkpt lat="42.88867" lon="2.15878">
        <ele>465.79998779297</ele>
        <time>2024-09-30T09:34:02.000Z</time>
      </trkpt>
      <trkpt lat="42.88866" lon="2.15875">
        <ele>465.39999389648</ele>
        <time>2024-09-30T09:34:03.000Z</time>
      </trkpt>
      <trkpt lat="42.88862" lon="2.15866">
        <ele>464.79998779297</ele>
        <time>2024-09-30T09:34:07.000Z</time>
      </trkpt>
      <trkpt lat="42.88862" lon="2.15862">
        <ele>463.60000610352</ele>
        <time>2024-09-30T09:34:09.000Z</time>
      </trkpt>
      <trkpt lat="42.88862" lon="2.15847">
        <ele>460.39999389648</ele>
        <time>2024-09-30T09:34:14.000Z</time>
      </trkpt>
      <trkpt lat="42.8886" lon="2.15831">
        <ele>456.79998779297</ele>
        <time>2024-09-30T09:34:18.000Z</time>
      </trkpt>
      <trkpt lat="42.88859" lon="2.15826">
        <ele>456</ele>
        <time>2024-09-30T09:34:19.000Z</time>
      </trkpt>
      <trkpt lat="42.88855" lon="2.15809">
        <ele>453.20001220703</ele>
        <time>2024-09-30T09:34:24.000Z</time>
      </trkpt>
      <trkpt lat="42.88847" lon="2.15794">
        <ele>452.20001220703</ele>
        <time>2024-09-30T09:34:29.000Z</time>
      </trkpt>
      <trkpt lat="42.88844" lon="2.1579">
        <ele>452.20001220703</ele>
        <time>2024-09-30T09:34:30.000Z</time>
      </trkpt>
      <trkpt lat="42.88838" lon="2.1578">
        <ele>452.39999389648</ele>
        <time>2024-09-30T09:34:33.000Z</time>
      </trkpt>
      <trkpt lat="42.88832" lon="2.15761">
        <ele>452</ele>
        <time>2024-09-30T09:34:38.000Z</time>
      </trkpt>
      <trkpt lat="42.88837" lon="2.15741">
        <ele>448.39999389648</ele>
        <time>2024-09-30T09:34:42.000Z</time>
      </trkpt>
      <trkpt lat="42.8884" lon="2.15722">
        <ele>446.20001220703</ele>
        <time>2024-09-30T09:34:46.000Z</time>
      </trkpt>
      <trkpt lat="42.88835" lon="2.15695">
        <ele>448</ele>
        <time>2024-09-30T09:34:51.000Z</time>
      </trkpt>
      <trkpt lat="42.88832" lon="2.15677">
        <ele>449.20001220703</ele>
        <time>2024-09-30T09:34:56.000Z</time>
      </trkpt>
      <trkpt lat="42.88831" lon="2.15654">
        <ele>449.20001220703</ele>
        <time>2024-09-30T09:35:02.000Z</time>
      </trkpt>
      <trkpt lat="42.88839" lon="2.15632">
        <ele>446.39999389648</ele>
        <time>2024-09-30T09:35:09.000Z</time>
      </trkpt>
      <trkpt lat="42.88845" lon="2.15612">
        <ele>444.60000610352</ele>
        <time>2024-09-30T09:35:14.000Z</time>
      </trkpt>
      <trkpt lat="42.88849" lon="2.15591">
        <ele>443.20001220703</ele>
        <time>2024-09-30T09:35:19.000Z</time>
      </trkpt>
      <trkpt lat="42.88853" lon="2.15577">
        <ele>442</ele>
        <time>2024-09-30T09:35:22.000Z</time>
      </trkpt>
      <trkpt lat="42.8886" lon="2.1557">
        <ele>440.79998779297</ele>
        <time>2024-09-30T09:35:24.000Z</time>
      </trkpt>
      <trkpt lat="42.8888" lon="2.15561">
        <ele>437.60000610352</ele>
        <time>2024-09-30T09:35:29.000Z</time>
      </trkpt>
      <trkpt lat="42.88896" lon="2.15554">
        <ele>434.20001220703</ele>
        <time>2024-09-30T09:35:34.000Z</time>
      </trkpt>
      <trkpt lat="42.88912" lon="2.15549">
        <ele>430</ele>
        <time>2024-09-30T09:35:41.000Z</time>
      </trkpt>
      <trkpt lat="42.88923" lon="2.15545">
        <ele>428</ele>
        <time>2024-09-30T09:35:46.000Z</time>
      </trkpt>
      <trkpt lat="42.88934" lon="2.15538">
        <ele>425.20001220703</ele>
        <time>2024-09-30T09:35:51.000Z</time>
      </trkpt>
      <trkpt lat="42.88946" lon="2.15525">
        <ele>422.20001220703</ele>
        <time>2024-09-30T09:35:57.000Z</time>
      </trkpt>
      <trkpt lat="42.88952" lon="2.15518">
        <ele>421</ele>
        <time>2024-09-30T09:36:00.000Z</time>
      </trkpt>
      <trkpt lat="42.88953" lon="2.1551">
        <ele>420.79998779297</ele>
        <time>2024-09-30T09:36:02.000Z</time>
      </trkpt>
      <trkpt lat="42.88955" lon="2.15502">
        <ele>420.60000610352</ele>
        <time>2024-09-30T09:36:05.000Z</time>
      </trkpt>
      <trkpt lat="42.88956" lon="2.15499">
        <ele>420.60000610352</ele>
        <time>2024-09-30T09:36:06.000Z</time>
      </trkpt>
      <trkpt lat="42.8896" lon="2.15483">
        <ele>419.20001220703</ele>
        <time>2024-09-30T09:36:11.000Z</time>
      </trkpt>
      <trkpt lat="42.88968" lon="2.15469">
        <ele>416.39999389648</ele>
        <time>2024-09-30T09:36:16.000Z</time>
      </trkpt>
      <trkpt lat="42.88978" lon="2.15459">
        <ele>413.20001220703</ele>
        <time>2024-09-30T09:36:21.000Z</time>
      </trkpt>
      <trkpt lat="42.88988" lon="2.15447">
        <ele>410.39999389648</ele>
        <time>2024-09-30T09:36:27.000Z</time>
      </trkpt>
      <trkpt lat="42.88997" lon="2.15435">
        <ele>407.79998779297</ele>
        <time>2024-09-30T09:36:32.000Z</time>
      </trkpt>
      <trkpt lat="42.89008" lon="2.15417">
        <ele>404.79998779297</ele>
        <time>2024-09-30T09:36:38.000Z</time>
      </trkpt>
      <trkpt lat="42.89016" lon="2.15404">
        <ele>403.60000610352</ele>
        <time>2024-09-30T09:36:43.000Z</time>
      </trkpt>
      <trkpt lat="42.89021" lon="2.15393">
        <ele>403.20001220703</ele>
        <time>2024-09-30T09:36:47.000Z</time>
      </trkpt>
      <trkpt lat="42.89022" lon="2.1539">
        <ele>403.20001220703</ele>
        <time>2024-09-30T09:36:48.000Z</time>
      </trkpt>
      <trkpt lat="42.89029" lon="2.15377">
        <ele>403.20001220703</ele>
        <time>2024-09-30T09:36:52.000Z</time>
      </trkpt>
      <trkpt lat="42.89041" lon="2.15355">
        <ele>402.79998779297</ele>
        <time>2024-09-30T09:36:57.000Z</time>
      </trkpt>
      <trkpt lat="42.89054" lon="2.1535">
        <ele>400.79998779297</ele>
        <time>2024-09-30T09:37:01.000Z</time>
      </trkpt>
      <trkpt lat="42.89072" lon="2.15348">
        <ele>398.60000610352</ele>
        <time>2024-09-30T09:37:07.000Z</time>
      </trkpt>
      <trkpt lat="42.89074" lon="2.15349">
        <ele>398.20001220703</ele>
        <time>2024-09-30T09:37:09.000Z</time>
      </trkpt>
      <trkpt lat="42.89076" lon="2.15348">
        <ele>398.20001220703</ele>
        <time>2024-09-30T09:37:11.000Z</time>
      </trkpt>
      <trkpt lat="42.89078" lon="2.15348">
        <ele>398</ele>
        <time>2024-09-30T09:37:35.000Z</time>
      </trkpt>
      <trkpt lat="42.89081" lon="2.15348">
        <ele>397.60000610352</ele>
        <time>2024-09-30T09:37:37.000Z</time>
      </trkpt>
      <trkpt lat="42.89086" lon="2.1535">
        <ele>397</ele>
        <time>2024-09-30T09:37:39.000Z</time>
      </trkpt>
      <trkpt lat="42.89106" lon="2.1536">
        <ele>394.79998779297</ele>
        <time>2024-09-30T09:37:46.000Z</time>
      </trkpt>
      <trkpt lat="42.89123" lon="2.15358">
        <ele>393.79998779297</ele>
        <time>2024-09-30T09:37:51.000Z</time>
      </trkpt>
      <trkpt lat="42.89126" lon="2.15356">
        <ele>393.79998779297</ele>
        <time>2024-09-30T09:37:52.000Z</time>
      </trkpt>
      <trkpt lat="42.89128" lon="2.15347">
        <ele>394.79998779297</ele>
        <time>2024-09-30T09:37:54.000Z</time>
      </trkpt>
      <trkpt lat="42.89122" lon="2.15333">
        <ele>396</ele>
        <time>2024-09-30T09:37:58.000Z</time>
      </trkpt>
      <trkpt lat="42.89112" lon="2.15309">
        <ele>398</ele>
        <time>2024-09-30T09:38:04.000Z</time>
      </trkpt>
      <trkpt lat="42.89106" lon="2.15285">
        <ele>400.20001220703</ele>
        <time>2024-09-30T09:38:10.000Z</time>
      </trkpt>
      <trkpt lat="42.89097" lon="2.15274">
        <ele>401.39999389648</ele>
        <time>2024-09-30T09:38:14.000Z</time>
      </trkpt>
      <trkpt lat="42.89088" lon="2.15268">
        <ele>401.79998779297</ele>
        <time>2024-09-30T09:38:18.000Z</time>
      </trkpt>
      <trkpt lat="42.89085" lon="2.15266">
        <ele>401.79998779297</ele>
        <time>2024-09-30T09:38:19.000Z</time>
      </trkpt>
      <trkpt lat="42.8908" lon="2.1526">
        <ele>401.79998779297</ele>
        <time>2024-09-30T09:38:21.000Z</time>
      </trkpt>
      <trkpt lat="42.89078" lon="2.15251">
        <ele>402</ele>
        <time>2024-09-30T09:38:23.000Z</time>
      </trkpt>
      <trkpt lat="42.89079" lon="2.15243">
        <ele>402.79998779297</ele>
        <time>2024-09-30T09:38:25.000Z</time>
      </trkpt>
      <trkpt lat="42.89088" lon="2.15221">
        <ele>404.20001220703</ele>
        <time>2024-09-30T09:38:32.000Z</time>
      </trkpt>
      <trkpt lat="42.89093" lon="2.15214">
        <ele>404.79998779297</ele>
        <time>2024-09-30T09:38:36.000Z</time>
      </trkpt>
      <trkpt lat="42.89095" lon="2.15214">
        <ele>405</ele>
        <time>2024-09-30T09:38:37.000Z</time>
      </trkpt>
      <trkpt lat="42.89097" lon="2.15214">
        <ele>405</ele>
        <time>2024-09-30T09:38:38.000Z</time>
      </trkpt>
      <trkpt lat="42.89104" lon="2.15217">
        <ele>405.20001220703</ele>
        <time>2024-09-30T09:38:42.000Z</time>
      </trkpt>
      <trkpt lat="42.89111" lon="2.15215">
        <ele>405.60000610352</ele>
        <time>2024-09-30T09:38:47.000Z</time>
      </trkpt>
      <trkpt lat="42.89114" lon="2.15215">
        <ele>405.60000610352</ele>
        <time>2024-09-30T09:39:09.000Z</time>
      </trkpt>
      <trkpt lat="42.89118" lon="2.15212">
        <ele>405.79998779297</ele>
        <time>2024-09-30T09:39:11.000Z</time>
      </trkpt>
      <trkpt lat="42.89124" lon="2.15201">
        <ele>406.39999389648</ele>
        <time>2024-09-30T09:39:15.000Z</time>
      </trkpt>
      <trkpt lat="42.89127" lon="2.15187">
        <ele>407</ele>
        <time>2024-09-30T09:39:19.000Z</time>
      </trkpt>
      <trkpt lat="42.89125" lon="2.15166">
        <ele>407</ele>
        <time>2024-09-30T09:39:24.000Z</time>
      </trkpt>
      <trkpt lat="42.89125" lon="2.15141">
        <ele>407.60000610352</ele>
        <time>2024-09-30T09:39:30.000Z</time>
      </trkpt>
      <trkpt lat="42.89129" lon="2.15113">
        <ele>410.20001220703</ele>
        <time>2024-09-30T09:39:37.000Z</time>
      </trkpt>
      <trkpt lat="42.89136" lon="2.15098">
        <ele>413.20001220703</ele>
        <time>2024-09-30T09:39:42.000Z</time>
      </trkpt>
      <trkpt lat="42.89145" lon="2.15095">
        <ele>415.20001220703</ele>
        <time>2024-09-30T09:39:47.000Z</time>
      </trkpt>
      <trkpt lat="42.89158" lon="2.15093">
        <ele>416.60000610352</ele>
        <time>2024-09-30T09:39:52.000Z</time>
      </trkpt>
      <trkpt lat="42.89167" lon="2.15092">
        <ele>417.60000610352</ele>
        <time>2024-09-30T09:39:56.000Z</time>
      </trkpt>
      <trkpt lat="42.89182" lon="2.15088">
        <ele>419.79998779297</ele>
        <time>2024-09-30T09:40:02.000Z</time>
      </trkpt>
      <trkpt lat="42.89194" lon="2.15083">
        <ele>421.79998779297</ele>
        <time>2024-09-30T09:40:07.000Z</time>
      </trkpt>
      <trkpt lat="42.89208" lon="2.15079">
        <ele>423.79998779297</ele>
        <time>2024-09-30T09:40:13.000Z</time>
      </trkpt>
      <trkpt lat="42.89222" lon="2.15071">
        <ele>426.20001220703</ele>
        <time>2024-09-30T09:40:20.000Z</time>
      </trkpt>
      <trkpt lat="42.89223" lon="2.15069">
        <ele>426.60000610352</ele>
        <time>2024-09-30T09:40:21.000Z</time>
      </trkpt>
      <trkpt lat="42.89223" lon="2.15065">
        <ele>427.60000610352</ele>
        <time>2024-09-30T09:40:23.000Z</time>
      </trkpt>
      <trkpt lat="42.89221" lon="2.15063">
        <ele>428</ele>
        <time>2024-09-30T09:40:24.000Z</time>
      </trkpt>
      <trkpt lat="42.89219" lon="2.15062">
        <ele>428</ele>
        <time>2024-09-30T09:40:25.000Z</time>
      </trkpt>
      <trkpt lat="42.89211" lon="2.15064">
        <ele>427.20001220703</ele>
        <time>2024-09-30T09:40:28.000Z</time>
      </trkpt>
      <trkpt lat="42.89196" lon="2.15063">
        <ele>426.79998779297</ele>
        <time>2024-09-30T09:40:35.000Z</time>
      </trkpt>
      <trkpt lat="42.89181" lon="2.15065">
        <ele>425.60000610352</ele>
        <time>2024-09-30T09:40:41.000Z</time>
      </trkpt>
      <trkpt lat="42.89163" lon="2.15063">
        <ele>424.60000610352</ele>
        <time>2024-09-30T09:40:47.000Z</time>
      </trkpt>
      <trkpt lat="42.89145" lon="2.15057">
        <ele>425</ele>
        <time>2024-09-30T09:40:54.000Z</time>
      </trkpt>
      <trkpt lat="42.89133" lon="2.15044">
        <ele>427.20001220703</ele>
        <time>2024-09-30T09:41:00.000Z</time>
      </trkpt>
      <trkpt lat="42.89129" lon="2.15024">
        <ele>431</ele>
        <time>2024-09-30T09:41:06.000Z</time>
      </trkpt>
      <trkpt lat="42.89127" lon="2.14996">
        <ele>435.20001220703</ele>
        <time>2024-09-30T09:41:14.000Z</time>
      </trkpt>
      <trkpt lat="42.89127" lon="2.14973">
        <ele>437.39999389648</ele>
        <time>2024-09-30T09:41:21.000Z</time>
      </trkpt>
      <trkpt lat="42.89125" lon="2.14968">
        <ele>437.79998779297</ele>
        <time>2024-09-30T09:41:24.000Z</time>
      </trkpt>
      <trkpt lat="42.89123" lon="2.14967">
        <ele>437.79998779297</ele>
        <time>2024-09-30T09:41:26.000Z</time>
      </trkpt>
      <trkpt lat="42.89121" lon="2.14967">
        <ele>437.60000610352</ele>
        <time>2024-09-30T09:42:02.000Z</time>
      </trkpt>
      <trkpt lat="42.89122" lon="2.14969">
        <ele>437.60000610352</ele>
        <time>2024-09-30T09:42:04.000Z</time>
      </trkpt>
      <trkpt lat="42.89124" lon="2.1497">
        <ele>437.60000610352</ele>
        <time>2024-09-30T09:42:06.000Z</time>
      </trkpt>
      <trkpt lat="42.89125" lon="2.14965">
        <ele>438</ele>
        <time>2024-09-30T09:42:12.000Z</time>
      </trkpt>
      <trkpt lat="42.89126" lon="2.14962">
        <ele>438.39999389648</ele>
        <time>2024-09-30T09:42:13.000Z</time>
      </trkpt>
      <trkpt lat="42.89134" lon="2.14943">
        <ele>441.20001220703</ele>
        <time>2024-09-30T09:42:20.000Z</time>
      </trkpt>
      <trkpt lat="42.89143" lon="2.14919">
        <ele>445</ele>
        <time>2024-09-30T09:42:28.000Z</time>
      </trkpt>
      <trkpt lat="42.89151" lon="2.14897">
        <ele>447.79998779297</ele>
        <time>2024-09-30T09:42:35.000Z</time>
      </trkpt>
      <trkpt lat="42.89156" lon="2.14873">
        <ele>450.20001220703</ele>
        <time>2024-09-30T09:42:42.000Z</time>
      </trkpt>
      <trkpt lat="42.89161" lon="2.14844">
        <ele>453.39999389648</ele>
        <time>2024-09-30T09:42:50.000Z</time>
      </trkpt>
      <trkpt lat="42.89164" lon="2.1482">
        <ele>455.79998779297</ele>
        <time>2024-09-30T09:42:57.000Z</time>
      </trkpt>
      <trkpt lat="42.89167" lon="2.14796">
        <ele>457.20001220703</ele>
        <time>2024-09-30T09:43:04.000Z</time>
      </trkpt>
      <trkpt lat="42.89176" lon="2.14773">
        <ele>459.39999389648</ele>
        <time>2024-09-30T09:43:12.000Z</time>
      </trkpt>
      <trkpt lat="42.89183" lon="2.14757">
        <ele>461.60000610352</ele>
        <time>2024-09-30T09:43:18.000Z</time>
      </trkpt>
      <trkpt lat="42.8919" lon="2.1474">
        <ele>463.79998779297</ele>
        <time>2024-09-30T09:43:24.000Z</time>
      </trkpt>
      <trkpt lat="42.89198" lon="2.14725">
        <ele>466.39999389648</ele>
        <time>2024-09-30T09:43:30.000Z</time>
      </trkpt>
      <trkpt lat="42.89202" lon="2.14711">
        <ele>468.60000610352</ele>
        <time>2024-09-30T09:43:35.000Z</time>
      </trkpt>
      <trkpt lat="42.89208" lon="2.14691">
        <ele>470.60000610352</ele>
        <time>2024-09-30T09:43:42.000Z</time>
      </trkpt>
      <trkpt lat="42.89217" lon="2.14677">
        <ele>472.79998779297</ele>
        <time>2024-09-30T09:43:48.000Z</time>
      </trkpt>
      <trkpt lat="42.89227" lon="2.14663">
        <ele>477.79998779297</ele>
        <time>2024-09-30T09:43:55.000Z</time>
      </trkpt>
      <trkpt lat="42.8923" lon="2.14659">
        <ele>479.60000610352</ele>
        <time>2024-09-30T09:43:59.000Z</time>
      </trkpt>
      <trkpt lat="42.8922" lon="2.14602">
        <ele>487.60000610352</ele>
        <time>2024-09-30T09:45:11.000Z</time>
      </trkpt>
      <trkpt lat="42.89211" lon="2.14585">
        <ele>487.39999389648</ele>
        <time>2024-09-30T09:45:19.000Z</time>
      </trkpt>
      <trkpt lat="42.89207" lon="2.14565">
        <ele>489.20001220703</ele>
        <time>2024-09-30T09:45:26.000Z</time>
      </trkpt>
      <trkpt lat="42.89203" lon="2.14551">
        <ele>490.39999389648</ele>
        <time>2024-09-30T09:45:31.000Z</time>
      </trkpt>
      <trkpt lat="42.89193" lon="2.14526">
        <ele>492.60000610352</ele>
        <time>2024-09-30T09:45:40.000Z</time>
      </trkpt>
      <trkpt lat="42.89183" lon="2.14506">
        <ele>494.20001220703</ele>
        <time>2024-09-30T09:45:48.000Z</time>
      </trkpt>
      <trkpt lat="42.89177" lon="2.14492">
        <ele>495.60000610352</ele>
        <time>2024-09-30T09:45:53.000Z</time>
      </trkpt>
      <trkpt lat="42.89172" lon="2.14476">
        <ele>496.60000610352</ele>
        <time>2024-09-30T09:45:59.000Z</time>
      </trkpt>
      <trkpt lat="42.8917" lon="2.14453">
        <ele>499</ele>
        <time>2024-09-30T09:46:07.000Z</time>
      </trkpt>
      <trkpt lat="42.89171" lon="2.14433">
        <ele>501.79998779297</ele>
        <time>2024-09-30T09:46:14.000Z</time>
      </trkpt>
      <trkpt lat="42.89171" lon="2.14414">
        <ele>503</ele>
        <time>2024-09-30T09:46:20.000Z</time>
      </trkpt>
      <trkpt lat="42.89168" lon="2.14387">
        <ele>503</ele>
        <time>2024-09-30T09:46:28.000Z</time>
      </trkpt>
      <trkpt lat="42.89168" lon="2.14362">
        <ele>502.39999389648</ele>
        <time>2024-09-30T09:46:36.000Z</time>
      </trkpt>
      <trkpt lat="42.8917" lon="2.14345">
        <ele>502.20001220703</ele>
        <time>2024-09-30T09:46:42.000Z</time>
      </trkpt>
      <trkpt lat="42.89176" lon="2.14323">
        <ele>504.20001220703</ele>
        <time>2024-09-30T09:46:49.000Z</time>
      </trkpt>
      <trkpt lat="42.8918" lon="2.14304">
        <ele>505</ele>
        <time>2024-09-30T09:46:55.000Z</time>
      </trkpt>
      <trkpt lat="42.8918" lon="2.14279">
        <ele>505</ele>
        <time>2024-09-30T09:47:02.000Z</time>
      </trkpt>
      <trkpt lat="42.8918" lon="2.14258">
        <ele>504.79998779297</ele>
        <time>2024-09-30T09:47:08.000Z</time>
      </trkpt>
      <trkpt lat="42.89178" lon="2.14238">
        <ele>504.20001220703</ele>
        <time>2024-09-30T09:47:14.000Z</time>
      </trkpt>
      <trkpt lat="42.89179" lon="2.1421">
        <ele>503.20001220703</ele>
        <time>2024-09-30T09:47:23.000Z</time>
      </trkpt>
      <trkpt lat="42.89184" lon="2.14199">
        <ele>504.39999389648</ele>
        <time>2024-09-30T09:47:27.000Z</time>
      </trkpt>
      <trkpt lat="42.89188" lon="2.14194">
        <ele>505.39999389648</ele>
        <time>2024-09-30T09:47:29.000Z</time>
      </trkpt>
      <trkpt lat="42.89196" lon="2.14181">
        <ele>508.79998779297</ele>
        <time>2024-09-30T09:47:34.000Z</time>
      </trkpt>
      <trkpt lat="42.89206" lon="2.14166">
        <ele>514.59997558594</ele>
        <time>2024-09-30T09:47:40.000Z</time>
      </trkpt>
      <trkpt lat="42.89211" lon="2.14158">
        <ele>516.59997558594</ele>
        <time>2024-09-30T09:47:45.000Z</time>
      </trkpt>
      <trkpt lat="42.8921" lon="2.14149">
        <ele>516</ele>
        <time>2024-09-30T09:47:48.000Z</time>
      </trkpt>
      <trkpt lat="42.89209" lon="2.14143">
        <ele>516</ele>
        <time>2024-09-30T09:47:50.000Z</time>
      </trkpt>
      <trkpt lat="42.8921" lon="2.1414">
        <ele>516.20001220703</ele>
        <time>2024-09-30T09:47:51.000Z</time>
      </trkpt>
      <trkpt lat="42.89216" lon="2.14132">
        <ele>517.40002441406</ele>
        <time>2024-09-30T09:47:54.000Z</time>
      </trkpt>
      <trkpt lat="42.89226" lon="2.14124">
        <ele>519.20001220703</ele>
        <time>2024-09-30T09:47:59.000Z</time>
      </trkpt>
      <trkpt lat="42.89234" lon="2.14114">
        <ele>520.20001220703</ele>
        <time>2024-09-30T09:48:02.000Z</time>
      </trkpt>
      <trkpt lat="42.89239" lon="2.14101">
        <ele>520.40002441406</ele>
        <time>2024-09-30T09:48:06.000Z</time>
      </trkpt>
      <trkpt lat="42.89245" lon="2.14086">
        <ele>522</ele>
        <time>2024-09-30T09:48:11.000Z</time>
      </trkpt>
      <trkpt lat="42.89248" lon="2.14076">
        <ele>521.79998779297</ele>
        <time>2024-09-30T09:48:15.000Z</time>
      </trkpt>
      <trkpt lat="42.89243" lon="2.1406">
        <ele>520.79998779297</ele>
        <time>2024-09-30T09:48:20.000Z</time>
      </trkpt>
      <trkpt lat="42.89241" lon="2.14047">
        <ele>520.59997558594</ele>
        <time>2024-09-30T09:48:25.000Z</time>
      </trkpt>
      <trkpt lat="42.89235" lon="2.14037">
        <ele>519.59997558594</ele>
        <time>2024-09-30T09:48:29.000Z</time>
      </trkpt>
      <trkpt lat="42.89232" lon="2.14027">
        <ele>519.40002441406</ele>
        <time>2024-09-30T09:48:32.000Z</time>
      </trkpt>
      <trkpt lat="42.89229" lon="2.14019">
        <ele>519</ele>
        <time>2024-09-30T09:48:34.000Z</time>
      </trkpt>
      <trkpt lat="42.89223" lon="2.13999">
        <ele>520</ele>
        <time>2024-09-30T09:48:39.000Z</time>
      </trkpt>
      <trkpt lat="42.89224" lon="2.13979">
        <ele>521.20001220703</ele>
        <time>2024-09-30T09:48:44.000Z</time>
      </trkpt>
      <trkpt lat="42.89227" lon="2.13968">
        <ele>522.59997558594</ele>
        <time>2024-09-30T09:48:48.000Z</time>
      </trkpt>
      <trkpt lat="42.89228" lon="2.13965">
        <ele>523.20001220703</ele>
        <time>2024-09-30T09:48:49.000Z</time>
      </trkpt>
      <trkpt lat="42.89232" lon="2.13954">
        <ele>524.59997558594</ele>
        <time>2024-09-30T09:48:53.000Z</time>
      </trkpt>
      <trkpt lat="42.89233" lon="2.13942">
        <ele>525</ele>
        <time>2024-09-30T09:48:58.000Z</time>
      </trkpt>
      <trkpt lat="42.89235" lon="2.1393">
        <ele>525.79998779297</ele>
        <time>2024-09-30T09:49:03.000Z</time>
      </trkpt>
      <trkpt lat="42.89233" lon="2.13923">
        <ele>525.59997558594</ele>
        <time>2024-09-30T09:49:05.000Z</time>
      </trkpt>
      <trkpt lat="42.89233" lon="2.13916">
        <ele>525.59997558594</ele>
        <time>2024-09-30T09:49:07.000Z</time>
      </trkpt>
      <trkpt lat="42.89233" lon="2.13899">
        <ele>525.79998779297</ele>
        <time>2024-09-30T09:49:12.000Z</time>
      </trkpt>
      <trkpt lat="42.89232" lon="2.13884">
        <ele>524.79998779297</ele>
        <time>2024-09-30T09:49:17.000Z</time>
      </trkpt>
      <trkpt lat="42.89232" lon="2.13874">
        <ele>524.40002441406</ele>
        <time>2024-09-30T09:49:20.000Z</time>
      </trkpt>
      <trkpt lat="42.89231" lon="2.13868">
        <ele>524.20001220703</ele>
        <time>2024-09-30T09:49:22.000Z</time>
      </trkpt>
      <trkpt lat="42.8923" lon="2.13856">
        <ele>523.59997558594</ele>
        <time>2024-09-30T09:49:27.000Z</time>
      </trkpt>
      <trkpt lat="42.89231" lon="2.13854">
        <ele>523.79998779297</ele>
        <time>2024-09-30T09:49:28.000Z</time>
      </trkpt>
      <trkpt lat="42.89232" lon="2.13855">
        <ele>524.20001220703</ele>
        <time>2024-09-30T09:49:30.000Z</time>
      </trkpt>
      <trkpt lat="42.8923" lon="2.13831">
        <ele>524.79998779297</ele>
        <time>2024-09-30T09:50:54.000Z</time>
      </trkpt>
      <trkpt lat="42.8923" lon="2.13829">
        <ele>525</ele>
        <time>2024-09-30T09:50:55.000Z</time>
      </trkpt>
      <trkpt lat="42.89229" lon="2.13822">
        <ele>525.20001220703</ele>
        <time>2024-09-30T09:50:58.000Z</time>
      </trkpt>
      <trkpt lat="42.89228" lon="2.13819">
        <ele>525.20001220703</ele>
        <time>2024-09-30T09:50:59.000Z</time>
      </trkpt>
      <trkpt lat="42.89226" lon="2.13806">
        <ele>525.59997558594</ele>
        <time>2024-09-30T09:51:04.000Z</time>
      </trkpt>
      <trkpt lat="42.89225" lon="2.13801">
        <ele>526</ele>
        <time>2024-09-30T09:51:06.000Z</time>
      </trkpt>
      <trkpt lat="42.89224" lon="2.13797">
        <ele>526</ele>
        <time>2024-09-30T09:51:08.000Z</time>
      </trkpt>
      <trkpt lat="42.89224" lon="2.13792">
        <ele>526.20001220703</ele>
        <time>2024-09-30T09:51:10.000Z</time>
      </trkpt>
      <trkpt lat="42.89223" lon="2.13784">
        <ele>526.20001220703</ele>
        <time>2024-09-30T09:51:13.000Z</time>
      </trkpt>
      <trkpt lat="42.89223" lon="2.13781">
        <ele>526.40002441406</ele>
        <time>2024-09-30T09:51:14.000Z</time>
      </trkpt>
      <trkpt lat="42.89221" lon="2.13773">
        <ele>525.59997558594</ele>
        <time>2024-09-30T09:51:17.000Z</time>
      </trkpt>
      <trkpt lat="42.8922" lon="2.13768">
        <ele>525.20001220703</ele>
        <time>2024-09-30T09:51:19.000Z</time>
      </trkpt>
      <trkpt lat="42.89218" lon="2.13756">
        <ele>526</ele>
        <time>2024-09-30T09:51:23.000Z</time>
      </trkpt>
      <trkpt lat="42.89218" lon="2.13753">
        <ele>526.59997558594</ele>
        <time>2024-09-30T09:51:24.000Z</time>
      </trkpt>
      <trkpt lat="42.89217" lon="2.13744">
        <ele>528</ele>
        <time>2024-09-30T09:51:27.000Z</time>
      </trkpt>
      <trkpt lat="42.89213" lon="2.13734">
        <ele>528.79998779297</ele>
        <time>2024-09-30T09:51:31.000Z</time>
      </trkpt>
      <trkpt lat="42.89211" lon="2.13733">
        <ele>528.40002441406</ele>
        <time>2024-09-30T09:51:32.000Z</time>
      </trkpt>
      <trkpt lat="42.8921" lon="2.13731">
        <ele>528.40002441406</ele>
        <time>2024-09-30T09:51:34.000Z</time>
      </trkpt>
      <trkpt lat="42.89206" lon="2.13715">
        <ele>531.40002441406</ele>
        <time>2024-09-30T09:52:15.000Z</time>
      </trkpt>
      <trkpt lat="42.89206" lon="2.13713">
        <ele>532</ele>
        <time>2024-09-30T09:52:16.000Z</time>
      </trkpt>
      <trkpt lat="42.89206" lon="2.1371">
        <ele>532.20001220703</ele>
        <time>2024-09-30T09:52:18.000Z</time>
      </trkpt>
      <trkpt lat="42.89198" lon="2.13658">
        <ele>535.59997558594</ele>
        <time>2024-09-30T09:53:39.000Z</time>
      </trkpt>
      <trkpt lat="42.89198" lon="2.13657">
        <ele>535.79998779297</ele>
        <time>2024-09-30T09:53:40.000Z</time>
      </trkpt>
      <trkpt lat="42.89198" lon="2.13656">
        <ele>535.79998779297</ele>
        <time>2024-09-30T09:53:41.000Z</time>
      </trkpt>
      <trkpt lat="42.89193" lon="2.13636">
        <ele>536.79998779297</ele>
        <time>2024-09-30T09:55:10.000Z</time>
      </trkpt>
      <trkpt lat="42.8919" lon="2.13634">
        <ele>536.79998779297</ele>
        <time>2024-09-30T09:55:12.000Z</time>
      </trkpt>
      <trkpt lat="42.89186" lon="2.1363">
        <ele>537</ele>
        <time>2024-09-30T09:55:15.000Z</time>
      </trkpt>
      <trkpt lat="42.89184" lon="2.13626">
        <ele>537.20001220703</ele>
        <time>2024-09-30T09:55:18.000Z</time>
      </trkpt>
      <trkpt lat="42.89183" lon="2.13625">
        <ele>537.40002441406</ele>
        <time>2024-09-30T09:55:19.000Z</time>
      </trkpt>
      <trkpt lat="42.89178" lon="2.13619">
        <ele>538.20001220703</ele>
        <time>2024-09-30T09:55:24.000Z</time>
      </trkpt>
      <trkpt lat="42.89176" lon="2.13618">
        <ele>538.20001220703</ele>
        <time>2024-09-30T09:55:25.000Z</time>
      </trkpt>
      <trkpt lat="42.89164" lon="2.13612">
        <ele>540.20001220703</ele>
        <time>2024-09-30T09:55:32.000Z</time>
      </trkpt>
      <trkpt lat="42.89149" lon="2.13603">
        <ele>543</ele>
        <time>2024-09-30T09:55:39.000Z</time>
      </trkpt>
      <trkpt lat="42.89136" lon="2.13599">
        <ele>545.40002441406</ele>
        <time>2024-09-30T09:55:45.000Z</time>
      </trkpt>
      <trkpt lat="42.89118" lon="2.13599">
        <ele>548</ele>
        <time>2024-09-30T09:55:53.000Z</time>
      </trkpt>
      <trkpt lat="42.89104" lon="2.13601">
        <ele>548</ele>
        <time>2024-09-30T09:55:59.000Z</time>
      </trkpt>
      <trkpt lat="42.8909" lon="2.136">
        <ele>548.40002441406</ele>
        <time>2024-09-30T09:56:05.000Z</time>
      </trkpt>
      <trkpt lat="42.89074" lon="2.13593">
        <ele>549.79998779297</ele>
        <time>2024-09-30T09:56:12.000Z</time>
      </trkpt>
      <trkpt lat="42.89061" lon="2.13586">
        <ele>551</ele>
        <time>2024-09-30T09:56:18.000Z</time>
      </trkpt>
      <trkpt lat="42.89047" lon="2.13584">
        <ele>552.79998779297</ele>
        <time>2024-09-30T09:56:24.000Z</time>
      </trkpt>
      <trkpt lat="42.89034" lon="2.13589">
        <ele>554.20001220703</ele>
        <time>2024-09-30T09:56:30.000Z</time>
      </trkpt>
      <trkpt lat="42.8902" lon="2.13592">
        <ele>555</ele>
        <time>2024-09-30T09:56:36.000Z</time>
      </trkpt>
      <trkpt lat="42.89004" lon="2.13592">
        <ele>555.59997558594</ele>
        <time>2024-09-30T09:56:43.000Z</time>
      </trkpt>
      <trkpt lat="42.88987" lon="2.13593">
        <ele>555.79998779297</ele>
        <time>2024-09-30T09:56:50.000Z</time>
      </trkpt>
      <trkpt lat="42.88971" lon="2.13596">
        <ele>555.59997558594</ele>
        <time>2024-09-30T09:56:57.000Z</time>
      </trkpt>
      <trkpt lat="42.88955" lon="2.136">
        <ele>555</ele>
        <time>2024-09-30T09:57:05.000Z</time>
      </trkpt>
      <trkpt lat="42.88949" lon="2.13599">
        <ele>555.40002441406</ele>
        <time>2024-09-30T09:57:08.000Z</time>
      </trkpt>
      <trkpt lat="42.88946" lon="2.13596">
        <ele>555.59997558594</ele>
        <time>2024-09-30T09:57:10.000Z</time>
      </trkpt>
      <trkpt lat="42.88944" lon="2.13594">
        <ele>555.59997558594</ele>
        <time>2024-09-30T09:57:11.000Z</time>
      </trkpt>
      <trkpt lat="42.88939" lon="2.13584">
        <ele>555.59997558594</ele>
        <time>2024-09-30T09:57:16.000Z</time>
      </trkpt>
      <trkpt lat="42.88935" lon="2.13576">
        <ele>555.79998779297</ele>
        <time>2024-09-30T09:57:20.000Z</time>
      </trkpt>
      <trkpt lat="42.88932" lon="2.13573">
        <ele>555.79998779297</ele>
        <time>2024-09-30T09:57:22.000Z</time>
      </trkpt>
      <trkpt lat="42.88921" lon="2.13564">
        <ele>556</ele>
        <time>2024-09-30T09:57:28.000Z</time>
      </trkpt>
      <trkpt lat="42.88912" lon="2.13561">
        <ele>556.20001220703</ele>
        <time>2024-09-30T09:57:31.000Z</time>
      </trkpt>
      <trkpt lat="42.88893" lon="2.13555">
        <ele>556.79998779297</ele>
        <time>2024-09-30T09:57:38.000Z</time>
      </trkpt>
      <trkpt lat="42.88875" lon="2.13551">
        <ele>558</ele>
        <time>2024-09-30T09:57:44.000Z</time>
      </trkpt>
      <trkpt lat="42.88856" lon="2.13547">
        <ele>559.79998779297</ele>
        <time>2024-09-30T09:57:51.000Z</time>
      </trkpt>
      <trkpt lat="42.88837" lon="2.13537">
        <ele>561.20001220703</ele>
        <time>2024-09-30T09:57:58.000Z</time>
      </trkpt>
      <trkpt lat="42.88819" lon="2.13524">
        <ele>562</ele>
        <time>2024-09-30T09:58:05.000Z</time>
      </trkpt>
      <trkpt lat="42.888" lon="2.1351">
        <ele>563</ele>
        <time>2024-09-30T09:58:13.000Z</time>
      </trkpt>
      <trkpt lat="42.88779" lon="2.13493">
        <ele>564.20001220703</ele>
        <time>2024-09-30T09:58:21.000Z</time>
      </trkpt>
      <trkpt lat="42.88751" lon="2.13474">
        <ele>565.79998779297</ele>
        <time>2024-09-30T09:58:30.000Z</time>
      </trkpt>
      <trkpt lat="42.88727" lon="2.13456">
        <ele>566</ele>
        <time>2024-09-30T09:58:38.000Z</time>
      </trkpt>
      <trkpt lat="42.88706" lon="2.13442">
        <ele>566.40002441406</ele>
        <time>2024-09-30T09:58:45.000Z</time>
      </trkpt>
      <trkpt lat="42.88682" lon="2.13428">
        <ele>567.20001220703</ele>
        <time>2024-09-30T09:58:53.000Z</time>
      </trkpt>
      <trkpt lat="42.88662" lon="2.13418">
        <ele>566.79998779297</ele>
        <time>2024-09-30T09:58:59.000Z</time>
      </trkpt>
      <trkpt lat="42.88635" lon="2.13409">
        <ele>568</ele>
        <time>2024-09-30T09:59:06.000Z</time>
      </trkpt>
      <trkpt lat="42.88608" lon="2.13399">
        <ele>568.79998779297</ele>
        <time>2024-09-30T09:59:12.000Z</time>
      </trkpt>
      <trkpt lat="42.88599" lon="2.13394">
        <ele>568.79998779297</ele>
        <time>2024-09-30T09:59:14.000Z</time>
      </trkpt>
      <trkpt lat="42.8857" lon="2.13371">
        <ele>566.20001220703</ele>
        <time>2024-09-30T09:59:21.000Z</time>
      </trkpt>
      <trkpt lat="42.88539" lon="2.13345">
        <ele>566.20001220703</ele>
        <time>2024-09-30T09:59:29.000Z</time>
      </trkpt>
      <trkpt lat="42.88536" lon="2.13342">
        <ele>566.79998779297</ele>
        <time>2024-09-30T09:59:30.000Z</time>
      </trkpt>
      <trkpt lat="42.8851" lon="2.13317">
        <ele>571</ele>
        <time>2024-09-30T09:59:37.000Z</time>
      </trkpt>
      <trkpt lat="42.88507" lon="2.13313">
        <ele>571.40002441406</ele>
        <time>2024-09-30T09:59:38.000Z</time>
      </trkpt>
      <trkpt lat="42.88487" lon="2.13297">
        <ele>573.59997558594</ele>
        <time>2024-09-30T09:59:44.000Z</time>
      </trkpt>
      <trkpt lat="42.88465" lon="2.13285">
        <ele>572.79998779297</ele>
        <time>2024-09-30T09:59:51.000Z</time>
      </trkpt>
      <trkpt lat="42.88435" lon="2.13285">
        <ele>571.79998779297</ele>
        <time>2024-09-30T09:59:58.000Z</time>
      </trkpt>
      <trkpt lat="42.88407" lon="2.13282">
        <ele>571.20001220703</ele>
        <time>2024-09-30T10:00:05.000Z</time>
      </trkpt>
      <trkpt lat="42.88391" lon="2.13282">
        <ele>572.20001220703</ele>
        <time>2024-09-30T10:00:09.000Z</time>
      </trkpt>
      <trkpt lat="42.88386" lon="2.13282">
        <ele>572.40002441406</ele>
        <time>2024-09-30T10:00:10.000Z</time>
      </trkpt>
      <trkpt lat="42.8837" lon="2.1328">
        <ele>573</ele>
        <time>2024-09-30T10:00:14.000Z</time>
      </trkpt>
      <trkpt lat="42.88357" lon="2.13279">
        <ele>573.79998779297</ele>
        <time>2024-09-30T10:00:17.000Z</time>
      </trkpt>
      <trkpt lat="42.88322" lon="2.13276">
        <ele>574.40002441406</ele>
        <time>2024-09-30T10:00:25.000Z</time>
      </trkpt>
      <trkpt lat="42.88288" lon="2.13274">
        <ele>575.59997558594</ele>
        <time>2024-09-30T10:00:33.000Z</time>
      </trkpt>
      <trkpt lat="42.88259" lon="2.13268">
        <ele>578</ele>
        <time>2024-09-30T10:00:40.000Z</time>
      </trkpt>
      <trkpt lat="42.88221" lon="2.13257">
        <ele>579.40002441406</ele>
        <time>2024-09-30T10:00:49.000Z</time>
      </trkpt>
      <trkpt lat="42.88192" lon="2.13251">
        <ele>581.40002441406</ele>
        <time>2024-09-30T10:00:56.000Z</time>
      </trkpt>
      <trkpt lat="42.88166" lon="2.13241">
        <ele>584.59997558594</ele>
        <time>2024-09-30T10:01:03.000Z</time>
      </trkpt>
      <trkpt lat="42.88152" lon="2.1322">
        <ele>587.40002441406</ele>
        <time>2024-09-30T10:01:09.000Z</time>
      </trkpt>
      <trkpt lat="42.88151" lon="2.13192">
        <ele>587.79998779297</ele>
        <time>2024-09-30T10:01:15.000Z</time>
      </trkpt>
      <trkpt lat="42.88155" lon="2.13163">
        <ele>587.20001220703</ele>
        <time>2024-09-30T10:01:21.000Z</time>
      </trkpt>
      <trkpt lat="42.88157" lon="2.13127">
        <ele>589.20001220703</ele>
        <time>2024-09-30T10:01:28.000Z</time>
      </trkpt>
      <trkpt lat="42.88152" lon="2.13091">
        <ele>591.20001220703</ele>
        <time>2024-09-30T10:01:35.000Z</time>
      </trkpt>
      <trkpt lat="42.88142" lon="2.13052">
        <ele>592.59997558594</ele>
        <time>2024-09-30T10:01:43.000Z</time>
      </trkpt>
      <trkpt lat="42.88133" lon="2.13019">
        <ele>595</ele>
        <time>2024-09-30T10:01:50.000Z</time>
      </trkpt>
      <trkpt lat="42.88124" lon="2.12987">
        <ele>599</ele>
        <time>2024-09-30T10:01:57.000Z</time>
      </trkpt>
      <trkpt lat="42.88114" lon="2.12951">
        <ele>602.20001220703</ele>
        <time>2024-09-30T10:02:05.000Z</time>
      </trkpt>
      <trkpt lat="42.88107" lon="2.12917">
        <ele>605.79998779297</ele>
        <time>2024-09-30T10:02:13.000Z</time>
      </trkpt>
      <trkpt lat="42.88111" lon="2.12901">
        <ele>607.59997558594</ele>
        <time>2024-09-30T10:02:17.000Z</time>
      </trkpt>
      <trkpt lat="42.88125" lon="2.12894">
        <ele>608.59997558594</ele>
        <time>2024-09-30T10:02:22.000Z</time>
      </trkpt>
      <trkpt lat="42.88146" lon="2.12896">
        <ele>609.59997558594</ele>
        <time>2024-09-30T10:02:29.000Z</time>
      </trkpt>
      <trkpt lat="42.88159" lon="2.12896">
        <ele>610</ele>
        <time>2024-09-30T10:02:34.000Z</time>
      </trkpt>
      <trkpt lat="42.8817" lon="2.12895">
        <ele>610.59997558594</ele>
        <time>2024-09-30T10:02:39.000Z</time>
      </trkpt>
      <trkpt lat="42.88178" lon="2.12887">
        <ele>611.40002441406</ele>
        <time>2024-09-30T10:02:43.000Z</time>
      </trkpt>
      <trkpt lat="42.88184" lon="2.12867">
        <ele>612.79998779297</ele>
        <time>2024-09-30T10:02:50.000Z</time>
      </trkpt>
      <trkpt lat="42.88186" lon="2.12845">
        <ele>614.20001220703</ele>
        <time>2024-09-30T10:02:57.000Z</time>
      </trkpt>
      <trkpt lat="42.88188" lon="2.12825">
        <ele>614.79998779297</ele>
        <time>2024-09-30T10:03:03.000Z</time>
      </trkpt>
      <trkpt lat="42.88183" lon="2.12817">
        <ele>615.40002441406</ele>
        <time>2024-09-30T10:03:06.000Z</time>
      </trkpt>
      <trkpt lat="42.88181" lon="2.12817">
        <ele>615.59997558594</ele>
        <time>2024-09-30T10:03:07.000Z</time>
      </trkpt>
      <trkpt lat="42.88166" lon="2.12811">
        <ele>616.79998779297</ele>
        <time>2024-09-30T10:03:13.000Z</time>
      </trkpt>
      <trkpt lat="42.88162" lon="2.12809">
        <ele>617</ele>
        <time>2024-09-30T10:03:15.000Z</time>
      </trkpt>
      <trkpt lat="42.88159" lon="2.12807">
        <ele>617.20001220703</ele>
        <time>2024-09-30T10:03:17.000Z</time>
      </trkpt>
      <trkpt lat="42.88146" lon="2.12807">
        <ele>617.20001220703</ele>
        <time>2024-09-30T10:03:23.000Z</time>
      </trkpt>
      <trkpt lat="42.88137" lon="2.12802">
        <ele>617.59997558594</ele>
        <time>2024-09-30T10:03:28.000Z</time>
      </trkpt>
      <trkpt lat="42.88135" lon="2.128">
        <ele>617.59997558594</ele>
        <time>2024-09-30T10:03:29.000Z</time>
      </trkpt>
      <trkpt lat="42.8813" lon="2.12784">
        <ele>618.79998779297</ele>
        <time>2024-09-30T10:03:35.000Z</time>
      </trkpt>
      <trkpt lat="42.88133" lon="2.1277">
        <ele>619.79998779297</ele>
        <time>2024-09-30T10:03:40.000Z</time>
      </trkpt>
      <trkpt lat="42.88133" lon="2.12756">
        <ele>620.79998779297</ele>
        <time>2024-09-30T10:03:45.000Z</time>
      </trkpt>
      <trkpt lat="42.8813" lon="2.12747">
        <ele>621.40002441406</ele>
        <time>2024-09-30T10:03:48.000Z</time>
      </trkpt>
      <trkpt lat="42.88129" lon="2.12744">
        <ele>621.40002441406</ele>
        <time>2024-09-30T10:03:49.000Z</time>
      </trkpt>
      <trkpt lat="42.88128" lon="2.12723">
        <ele>623.40002441406</ele>
        <time>2024-09-30T10:03:55.000Z</time>
      </trkpt>
      <trkpt lat="42.88127" lon="2.12706">
        <ele>624.79998779297</ele>
        <time>2024-09-30T10:04:00.000Z</time>
      </trkpt>
      <trkpt lat="42.88125" lon="2.12686">
        <ele>626.40002441406</ele>
        <time>2024-09-30T10:04:05.000Z</time>
      </trkpt>
      <trkpt lat="42.88121" lon="2.12663">
        <ele>627.79998779297</ele>
        <time>2024-09-30T10:04:11.000Z</time>
      </trkpt>
      <trkpt lat="42.88116" lon="2.12641">
        <ele>629.79998779297</ele>
        <time>2024-09-30T10:04:17.000Z</time>
      </trkpt>
      <trkpt lat="42.8811" lon="2.1262">
        <ele>631.20001220703</ele>
        <time>2024-09-30T10:04:23.000Z</time>
      </trkpt>
      <trkpt lat="42.88105" lon="2.12594">
        <ele>633.59997558594</ele>
        <time>2024-09-30T10:04:30.000Z</time>
      </trkpt>
      <trkpt lat="42.88104" lon="2.12586">
        <ele>634.59997558594</ele>
        <time>2024-09-30T10:04:32.000Z</time>
      </trkpt>
      <trkpt lat="42.88101" lon="2.12563">
        <ele>636.79998779297</ele>
        <time>2024-09-30T10:04:37.000Z</time>
      </trkpt>
      <trkpt lat="42.88099" lon="2.12545">
        <ele>638.79998779297</ele>
        <time>2024-09-30T10:04:41.000Z</time>
      </trkpt>
      <trkpt lat="42.88092" lon="2.12521">
        <ele>641.40002441406</ele>
        <time>2024-09-30T10:04:47.000Z</time>
      </trkpt>
      <trkpt lat="42.88093" lon="2.12503">
        <ele>642.20001220703</ele>
        <time>2024-09-30T10:04:52.000Z</time>
      </trkpt>
      <trkpt lat="42.88092" lon="2.1248">
        <ele>644</ele>
        <time>2024-09-30T10:04:58.000Z</time>
      </trkpt>
      <trkpt lat="42.8809" lon="2.12455">
        <ele>646.20001220703</ele>
        <time>2024-09-30T10:05:04.000Z</time>
      </trkpt>
      <trkpt lat="42.88088" lon="2.12439">
        <ele>649.40002441406</ele>
        <time>2024-09-30T10:05:09.000Z</time>
      </trkpt>
      <trkpt lat="42.88086" lon="2.12422">
        <ele>651</ele>
        <time>2024-09-30T10:05:14.000Z</time>
      </trkpt>
      <trkpt lat="42.88083" lon="2.12402">
        <ele>651.79998779297</ele>
        <time>2024-09-30T10:05:20.000Z</time>
      </trkpt>
      <trkpt lat="42.88075" lon="2.12387">
        <ele>652.40002441406</ele>
        <time>2024-09-30T10:05:25.000Z</time>
      </trkpt>
      <trkpt lat="42.88063" lon="2.12376">
        <ele>654</ele>
        <time>2024-09-30T10:05:30.000Z</time>
      </trkpt>
      <trkpt lat="42.88054" lon="2.12364">
        <ele>657.59997558594</ele>
        <time>2024-09-30T10:05:35.000Z</time>
      </trkpt>
      <trkpt lat="42.88047" lon="2.12351">
        <ele>660.20001220703</ele>
        <time>2024-09-30T10:05:40.000Z</time>
      </trkpt>
      <trkpt lat="42.88047" lon="2.12348">
        <ele>660.59997558594</ele>
        <time>2024-09-30T10:05:41.000Z</time>
      </trkpt>
      <trkpt lat="42.8805" lon="2.12338">
        <ele>661.20001220703</ele>
        <time>2024-09-30T10:05:44.000Z</time>
      </trkpt>
      <trkpt lat="42.88052" lon="2.1233">
        <ele>661.20001220703</ele>
        <time>2024-09-30T10:05:47.000Z</time>
      </trkpt>
      <trkpt lat="42.88054" lon="2.12325">
        <ele>660.59997558594</ele>
        <time>2024-09-30T10:05:49.000Z</time>
      </trkpt>
      <trkpt lat="42.88058" lon="2.1232">
        <ele>659.59997558594</ele>
        <time>2024-09-30T10:05:52.000Z</time>
      </trkpt>
      <trkpt lat="42.88061" lon="2.12313">
        <ele>659</ele>
        <time>2024-09-30T10:05:55.000Z</time>
      </trkpt>
      <trkpt lat="42.88063" lon="2.12312">
        <ele>658.59997558594</ele>
        <time>2024-09-30T10:05:56.000Z</time>
      </trkpt>
      <trkpt lat="42.88065" lon="2.12308">
        <ele>658.40002441406</ele>
        <time>2024-09-30T10:05:57.000Z</time>
      </trkpt>
      <trkpt lat="42.88068" lon="2.12302">
        <ele>658.59997558594</ele>
        <time>2024-09-30T10:05:59.000Z</time>
      </trkpt>
      <trkpt lat="42.88077" lon="2.12286">
        <ele>659.59997558594</ele>
        <time>2024-09-30T10:06:04.000Z</time>
      </trkpt>
      <trkpt lat="42.88091" lon="2.12266">
        <ele>662.40002441406</ele>
        <time>2024-09-30T10:06:10.000Z</time>
      </trkpt>
      <trkpt lat="42.88103" lon="2.1225">
        <ele>666.59997558594</ele>
        <time>2024-09-30T10:06:15.000Z</time>
      </trkpt>
      <trkpt lat="42.88105" lon="2.12248">
        <ele>666.79998779297</ele>
        <time>2024-09-30T10:06:16.000Z</time>
      </trkpt>
      <trkpt lat="42.88112" lon="2.12236">
        <ele>669</ele>
        <time>2024-09-30T10:06:21.000Z</time>
      </trkpt>
      <trkpt lat="42.88116" lon="2.12219">
        <ele>671</ele>
        <time>2024-09-30T10:06:26.000Z</time>
      </trkpt>
      <trkpt lat="42.8811" lon="2.12204">
        <ele>676.79998779297</ele>
        <time>2024-09-30T10:06:31.000Z</time>
      </trkpt>
      <trkpt lat="42.88105" lon="2.12187">
        <ele>681.79998779297</ele>
        <time>2024-09-30T10:06:36.000Z</time>
      </trkpt>
      <trkpt lat="42.88107" lon="2.12167">
        <ele>682.59997558594</ele>
        <time>2024-09-30T10:06:42.000Z</time>
      </trkpt>
      <trkpt lat="42.88107" lon="2.12148">
        <ele>683.79998779297</ele>
        <time>2024-09-30T10:06:48.000Z</time>
      </trkpt>
      <trkpt lat="42.88104" lon="2.1213">
        <ele>687.20001220703</ele>
        <time>2024-09-30T10:06:55.000Z</time>
      </trkpt>
      <trkpt lat="42.88105" lon="2.12109">
        <ele>687.20001220703</ele>
        <time>2024-09-30T10:07:02.000Z</time>
      </trkpt>
      <trkpt lat="42.88106" lon="2.12096">
        <ele>688.79998779297</ele>
        <time>2024-09-30T10:07:07.000Z</time>
      </trkpt>
      <trkpt lat="42.88107" lon="2.12082">
        <ele>689.59997558594</ele>
        <time>2024-09-30T10:07:12.000Z</time>
      </trkpt>
      <trkpt lat="42.88107" lon="2.12066">
        <ele>690.79998779297</ele>
        <time>2024-09-30T10:07:18.000Z</time>
      </trkpt>
      <trkpt lat="42.88108" lon="2.12054">
        <ele>691.59997558594</ele>
        <time>2024-09-30T10:07:23.000Z</time>
      </trkpt>
      <trkpt lat="42.8811" lon="2.12038">
        <ele>692.79998779297</ele>
        <time>2024-09-30T10:07:29.000Z</time>
      </trkpt>
      <trkpt lat="42.88111" lon="2.12018">
        <ele>694.20001220703</ele>
        <time>2024-09-30T10:07:35.000Z</time>
      </trkpt>
      <trkpt lat="42.8811" lon="2.12003">
        <ele>694.40002441406</ele>
        <time>2024-09-30T10:07:40.000Z</time>
      </trkpt>
      <trkpt lat="42.88107" lon="2.11989">
        <ele>695</ele>
        <time>2024-09-30T10:07:45.000Z</time>
      </trkpt>
      <trkpt lat="42.88103" lon="2.11976">
        <ele>694.79998779297</ele>
        <time>2024-09-30T10:07:50.000Z</time>
      </trkpt>
      <trkpt lat="42.88098" lon="2.11955">
        <ele>694.59997558594</ele>
        <time>2024-09-30T10:07:56.000Z</time>
      </trkpt>
      <trkpt lat="42.88103" lon="2.11933">
        <ele>694</ele>
        <time>2024-09-30T10:08:01.000Z</time>
      </trkpt>
      <trkpt lat="42.88109" lon="2.11917">
        <ele>694.20001220703</ele>
        <time>2024-09-30T10:08:05.000Z</time>
      </trkpt>
      <trkpt lat="42.88113" lon="2.11906">
        <ele>693.59997558594</ele>
        <time>2024-09-30T10:08:07.000Z</time>
      </trkpt>
      <trkpt lat="42.88118" lon="2.11896">
        <ele>693.40002441406</ele>
        <time>2024-09-30T10:08:09.000Z</time>
      </trkpt>
      <trkpt lat="42.88124" lon="2.11876">
        <ele>693</ele>
        <time>2024-09-30T10:08:14.000Z</time>
      </trkpt>
      <trkpt lat="42.8813" lon="2.11847">
        <ele>693.59997558594</ele>
        <time>2024-09-30T10:08:19.000Z</time>
      </trkpt>
      <trkpt lat="42.88131" lon="2.11841">
        <ele>694.20001220703</ele>
        <time>2024-09-30T10:08:20.000Z</time>
      </trkpt>
      <trkpt lat="42.88134" lon="2.11831">
        <ele>695</ele>
        <time>2024-09-30T10:08:22.000Z</time>
      </trkpt>
      <trkpt lat="42.88141" lon="2.11814">
        <ele>695.20001220703</ele>
        <time>2024-09-30T10:08:26.000Z</time>
      </trkpt>
      <trkpt lat="42.88147" lon="2.11793">
        <ele>695.20001220703</ele>
        <time>2024-09-30T10:08:31.000Z</time>
      </trkpt>
      <trkpt lat="42.88154" lon="2.11759">
        <ele>697.79998779297</ele>
        <time>2024-09-30T10:08:38.000Z</time>
      </trkpt>
      <trkpt lat="42.8816" lon="2.11727">
        <ele>699.79998779297</ele>
        <time>2024-09-30T10:08:46.000Z</time>
      </trkpt>
      <trkpt lat="42.88163" lon="2.11702">
        <ele>702.40002441406</ele>
        <time>2024-09-30T10:08:53.000Z</time>
      </trkpt>
      <trkpt lat="42.88166" lon="2.11683">
        <ele>703.59997558594</ele>
        <time>2024-09-30T10:08:58.000Z</time>
      </trkpt>
      <trkpt lat="42.88167" lon="2.11664">
        <ele>705.40002441406</ele>
        <time>2024-09-30T10:09:04.000Z</time>
      </trkpt>
      <trkpt lat="42.88168" lon="2.11645">
        <ele>708</ele>
        <time>2024-09-30T10:09:09.000Z</time>
      </trkpt>
      <trkpt lat="42.88165" lon="2.11617">
        <ele>710.40002441406</ele>
        <time>2024-09-30T10:09:16.000Z</time>
      </trkpt>
      <trkpt lat="42.88165" lon="2.11605">
        <ele>712.20001220703</ele>
        <time>2024-09-30T10:09:20.000Z</time>
      </trkpt>
      <trkpt lat="42.88162" lon="2.11585">
        <ele>713.79998779297</ele>
        <time>2024-09-30T10:09:26.000Z</time>
      </trkpt>
      <trkpt lat="42.8816" lon="2.11573">
        <ele>715.20001220703</ele>
        <time>2024-09-30T10:09:30.000Z</time>
      </trkpt>
      <trkpt lat="42.8816" lon="2.11567">
        <ele>715.59997558594</ele>
        <time>2024-09-30T10:09:32.000Z</time>
      </trkpt>
      <trkpt lat="42.88161" lon="2.11557">
        <ele>716.20001220703</ele>
        <time>2024-09-30T10:09:35.000Z</time>
      </trkpt>
      <trkpt lat="42.88159" lon="2.11552">
        <ele>717.20001220703</ele>
        <time>2024-09-30T10:09:37.000Z</time>
      </trkpt>
      <trkpt lat="42.88156" lon="2.11534">
        <ele>718.59997558594</ele>
        <time>2024-09-30T10:09:43.000Z</time>
      </trkpt>
      <trkpt lat="42.88156" lon="2.11531">
        <ele>719</ele>
        <time>2024-09-30T10:09:44.000Z</time>
      </trkpt>
      <trkpt lat="42.88155" lon="2.1152">
        <ele>719.59997558594</ele>
        <time>2024-09-30T10:09:47.000Z</time>
      </trkpt>
      <trkpt lat="42.88154" lon="2.11499">
        <ele>720.59997558594</ele>
        <time>2024-09-30T10:09:53.000Z</time>
      </trkpt>
      <trkpt lat="42.88153" lon="2.11486">
        <ele>721.20001220703</ele>
        <time>2024-09-30T10:09:57.000Z</time>
      </trkpt>
      <trkpt lat="42.88155" lon="2.11472">
        <ele>721.79998779297</ele>
        <time>2024-09-30T10:10:02.000Z</time>
      </trkpt>
      <trkpt lat="42.88152" lon="2.11463">
        <ele>723</ele>
        <time>2024-09-30T10:10:06.000Z</time>
      </trkpt>
      <trkpt lat="42.88152" lon="2.11462">
        <ele>723.20001220703</ele>
        <time>2024-09-30T10:10:07.000Z</time>
      </trkpt>
      <trkpt lat="42.88149" lon="2.11449">
        <ele>726.40002441406</ele>
        <time>2024-09-30T10:10:11.000Z</time>
      </trkpt>
      <trkpt lat="42.88141" lon="2.11432">
        <ele>732.59997558594</ele>
        <time>2024-09-30T10:10:16.000Z</time>
      </trkpt>
      <trkpt lat="42.88124" lon="2.1142">
        <ele>740.20001220703</ele>
        <time>2024-09-30T10:10:22.000Z</time>
      </trkpt>
      <trkpt lat="42.88115" lon="2.11417">
        <ele>743</ele>
        <time>2024-09-30T10:10:27.000Z</time>
      </trkpt>
      <trkpt lat="42.88112" lon="2.11418">
        <ele>743.79998779297</ele>
        <time>2024-09-30T10:10:29.000Z</time>
      </trkpt>
      <trkpt lat="42.88107" lon="2.11417">
        <ele>745.40002441406</ele>
        <time>2024-09-30T10:10:32.000Z</time>
      </trkpt>
      <trkpt lat="42.88099" lon="2.11417">
        <ele>747.79998779297</ele>
        <time>2024-09-30T10:10:37.000Z</time>
      </trkpt>
      <trkpt lat="42.88096" lon="2.11417">
        <ele>748.79998779297</ele>
        <time>2024-09-30T10:10:39.000Z</time>
      </trkpt>
      <trkpt lat="42.8809" lon="2.11423">
        <ele>750.20001220703</ele>
        <time>2024-09-30T10:10:45.000Z</time>
      </trkpt>
      <trkpt lat="42.88088" lon="2.1142">
        <ele>751.20001220703</ele>
        <time>2024-09-30T10:10:49.000Z</time>
      </trkpt>
      <trkpt lat="42.8811" lon="2.11387">
        <ele>745.59997558594</ele>
        <time>2024-09-30T10:10:55.000Z</time>
      </trkpt>
      <trkpt lat="42.88112" lon="2.11365">
        <ele>745</ele>
        <time>2024-09-30T10:11:02.000Z</time>
      </trkpt>
      <trkpt lat="42.88124" lon="2.11338">
        <ele>741.79998779297</ele>
        <time>2024-09-30T10:11:09.000Z</time>
      </trkpt>
      <trkpt lat="42.88128" lon="2.11316">
        <ele>742.20001220703</ele>
        <time>2024-09-30T10:11:15.000Z</time>
      </trkpt>
      <trkpt lat="42.88129" lon="2.11303">
        <ele>742.59997558594</ele>
        <time>2024-09-30T10:11:21.000Z</time>
      </trkpt>
      <trkpt lat="42.88128" lon="2.11298">
        <ele>742.79998779297</ele>
        <time>2024-09-30T10:11:24.000Z</time>
      </trkpt>
      <trkpt lat="42.88127" lon="2.11293">
        <ele>743.40002441406</ele>
        <time>2024-09-30T10:11:26.000Z</time>
      </trkpt>
      <trkpt lat="42.88128" lon="2.1129">
        <ele>743.40002441406</ele>
        <time>2024-09-30T10:11:27.000Z</time>
      </trkpt>
      <trkpt lat="42.88144" lon="2.11265">
        <ele>734.79998779297</ele>
        <time>2024-09-30T10:11:33.000Z</time>
      </trkpt>
      <trkpt lat="42.88157" lon="2.11246">
        <ele>732.79998779297</ele>
        <time>2024-09-30T10:11:39.000Z</time>
      </trkpt>
      <trkpt lat="42.88167" lon="2.11226">
        <ele>732</ele>
        <time>2024-09-30T10:11:45.000Z</time>
      </trkpt>
      <trkpt lat="42.88171" lon="2.11215">
        <ele>731.20001220703</ele>
        <time>2024-09-30T10:11:49.000Z</time>
      </trkpt>
      <trkpt lat="42.88172" lon="2.11212">
        <ele>731.40002441406</ele>
        <time>2024-09-30T10:11:50.000Z</time>
      </trkpt>
      <trkpt lat="42.88172" lon="2.11206">
        <ele>732.20001220703</ele>
        <time>2024-09-30T10:11:52.000Z</time>
      </trkpt>
      <trkpt lat="42.88169" lon="2.11197">
        <ele>734.20001220703</ele>
        <time>2024-09-30T10:11:55.000Z</time>
      </trkpt>
      <trkpt lat="42.88159" lon="2.11175">
        <ele>741</ele>
        <time>2024-09-30T10:12:02.000Z</time>
      </trkpt>
      <trkpt lat="42.88158" lon="2.1115">
        <ele>742.79998779297</ele>
        <time>2024-09-30T10:12:09.000Z</time>
      </trkpt>
      <trkpt lat="42.88159" lon="2.1115">
        <ele>742.59997558594</ele>
        <time>2024-09-30T10:12:10.000Z</time>
      </trkpt>
      <trkpt lat="42.8816" lon="2.11144">
        <ele>742.20001220703</ele>
        <time>2024-09-30T10:12:26.000Z</time>
      </trkpt>
      <trkpt lat="42.88161" lon="2.11137">
        <ele>742.20001220703</ele>
        <time>2024-09-30T10:12:28.000Z</time>
      </trkpt>
      <trkpt lat="42.88164" lon="2.1111">
        <ele>743.59997558594</ele>
        <time>2024-09-30T10:12:35.000Z</time>
      </trkpt>
      <trkpt lat="42.88167" lon="2.11102">
        <ele>743.79998779297</ele>
        <time>2024-09-30T10:12:37.000Z</time>
      </trkpt>
      <trkpt lat="42.88186" lon="2.11066">
        <ele>743.20001220703</ele>
        <time>2024-09-30T10:12:51.000Z</time>
      </trkpt>
      <trkpt lat="42.8819" lon="2.11052">
        <ele>743.40002441406</ele>
        <time>2024-09-30T10:12:56.000Z</time>
      </trkpt>
      <trkpt lat="42.88189" lon="2.11052">
        <ele>743.79998779297</ele>
        <time>2024-09-30T10:12:57.000Z</time>
      </trkpt>
      <trkpt lat="42.88188" lon="2.11047">
        <ele>744.59997558594</ele>
        <time>2024-09-30T10:13:00.000Z</time>
      </trkpt>
      <trkpt lat="42.88187" lon="2.11041">
        <ele>745.20001220703</ele>
        <time>2024-09-30T10:13:02.000Z</time>
      </trkpt>
      <trkpt lat="42.88185" lon="2.11022">
        <ele>747.59997558594</ele>
        <time>2024-09-30T10:13:07.000Z</time>
      </trkpt>
      <trkpt lat="42.8818" lon="2.11005">
        <ele>750.40002441406</ele>
        <time>2024-09-30T10:13:12.000Z</time>
      </trkpt>
      <trkpt lat="42.88174" lon="2.10992">
        <ele>754.20001220703</ele>
        <time>2024-09-30T10:13:16.000Z</time>
      </trkpt>
      <trkpt lat="42.88166" lon="2.10972">
        <ele>760</ele>
        <time>2024-09-30T10:13:22.000Z</time>
      </trkpt>
      <trkpt lat="42.88154" lon="2.10948">
        <ele>768.59997558594</ele>
        <time>2024-09-30T10:13:30.000Z</time>
      </trkpt>
      <trkpt lat="42.88151" lon="2.10933">
        <ele>770.79998779297</ele>
        <time>2024-09-30T10:13:35.000Z</time>
      </trkpt>
      <trkpt lat="42.88152" lon="2.10934">
        <ele>770.59997558594</ele>
        <time>2024-09-30T10:13:36.000Z</time>
      </trkpt>
      <trkpt lat="42.88154" lon="2.10926">
        <ele>768.79998779297</ele>
        <time>2024-09-30T10:13:44.000Z</time>
      </trkpt>
      <trkpt lat="42.88154" lon="2.10924">
        <ele>769.20001220703</ele>
        <time>2024-09-30T10:13:45.000Z</time>
      </trkpt>
      <trkpt lat="42.88147" lon="2.10898">
        <ele>772.59997558594</ele>
        <time>2024-09-30T10:13:53.000Z</time>
      </trkpt>
      <trkpt lat="42.88148" lon="2.10873">
        <ele>773</ele>
        <time>2024-09-30T10:13:58.000Z</time>
      </trkpt>
      <trkpt lat="42.88146" lon="2.10852">
        <ele>774</ele>
        <time>2024-09-30T10:14:03.000Z</time>
      </trkpt>
      <trkpt lat="42.88146" lon="2.10849">
        <ele>773.79998779297</ele>
        <time>2024-09-30T10:14:04.000Z</time>
      </trkpt>
      <trkpt lat="42.88144" lon="2.10826">
        <ele>775.59997558594</ele>
        <time>2024-09-30T10:14:10.000Z</time>
      </trkpt>
      <trkpt lat="42.88143" lon="2.10803">
        <ele>775.59997558594</ele>
        <time>2024-09-30T10:14:16.000Z</time>
      </trkpt>
      <trkpt lat="42.88148" lon="2.10776">
        <ele>771.40002441406</ele>
        <time>2024-09-30T10:14:22.000Z</time>
      </trkpt>
      <trkpt lat="42.88148" lon="2.10745">
        <ele>770.20001220703</ele>
        <time>2024-09-30T10:14:29.000Z</time>
      </trkpt>
      <trkpt lat="42.88152" lon="2.10713">
        <ele>769.40002441406</ele>
        <time>2024-09-30T10:14:36.000Z</time>
      </trkpt>
      <trkpt lat="42.88166" lon="2.10687">
        <ele>762</ele>
        <time>2024-09-30T10:14:42.000Z</time>
      </trkpt>
      <trkpt lat="42.88169" lon="2.10677">
        <ele>760.20001220703</ele>
        <time>2024-09-30T10:14:46.000Z</time>
      </trkpt>
      <trkpt lat="42.88169" lon="2.1067">
        <ele>760</ele>
        <time>2024-09-30T10:18:37.000Z</time>
      </trkpt>
      <trkpt lat="42.88167" lon="2.10655">
        <ele>761</ele>
        <time>2024-09-30T10:18:43.000Z</time>
      </trkpt>
      <trkpt lat="42.88164" lon="2.10636">
        <ele>762.59997558594</ele>
        <time>2024-09-30T10:18:48.000Z</time>
      </trkpt>
      <trkpt lat="42.88157" lon="2.10615">
        <ele>765.20001220703</ele>
        <time>2024-09-30T10:18:55.000Z</time>
      </trkpt>
      <trkpt lat="42.88151" lon="2.10599">
        <ele>768.20001220703</ele>
        <time>2024-09-30T10:19:00.000Z</time>
      </trkpt>
      <trkpt lat="42.88147" lon="2.1058">
        <ele>768.79998779297</ele>
        <time>2024-09-30T10:19:05.000Z</time>
      </trkpt>
      <trkpt lat="42.88138" lon="2.10559">
        <ele>772.79998779297</ele>
        <time>2024-09-30T10:19:11.000Z</time>
      </trkpt>
      <trkpt lat="42.88132" lon="2.10549">
        <ele>775</ele>
        <time>2024-09-30T10:19:15.000Z</time>
      </trkpt>
      <trkpt lat="42.88129" lon="2.1053">
        <ele>776.40002441406</ele>
        <time>2024-09-30T10:19:21.000Z</time>
      </trkpt>
      <trkpt lat="42.88132" lon="2.10516">
        <ele>773.79998779297</ele>
        <time>2024-09-30T10:19:25.000Z</time>
      </trkpt>
      <trkpt lat="42.88133" lon="2.10508">
        <ele>772.40002441406</ele>
        <time>2024-09-30T10:19:27.000Z</time>
      </trkpt>
      <trkpt lat="42.88132" lon="2.10502">
        <ele>772.59997558594</ele>
        <time>2024-09-30T10:19:29.000Z</time>
      </trkpt>
      <trkpt lat="42.88125" lon="2.10488">
        <ele>777.59997558594</ele>
        <time>2024-09-30T10:19:34.000Z</time>
      </trkpt>
      <trkpt lat="42.88114" lon="2.10474">
        <ele>783.20001220703</ele>
        <time>2024-09-30T10:19:39.000Z</time>
      </trkpt>
      <trkpt lat="42.88103" lon="2.10459">
        <ele>787.79998779297</ele>
        <time>2024-09-30T10:19:45.000Z</time>
      </trkpt>
      <trkpt lat="42.881" lon="2.10446">
        <ele>788.59997558594</ele>
        <time>2024-09-30T10:19:49.000Z</time>
      </trkpt>
      <trkpt lat="42.88094" lon="2.10431">
        <ele>789.79998779297</ele>
        <time>2024-09-30T10:19:54.000Z</time>
      </trkpt>
      <trkpt lat="42.88082" lon="2.1042">
        <ele>794.20001220703</ele>
        <time>2024-09-30T10:19:59.000Z</time>
      </trkpt>
      <trkpt lat="42.88071" lon="2.10409">
        <ele>798</ele>
        <time>2024-09-30T10:20:04.000Z</time>
      </trkpt>
      <trkpt lat="42.8806" lon="2.10397">
        <ele>804.40002441406</ele>
        <time>2024-09-30T10:20:09.000Z</time>
      </trkpt>
      <trkpt lat="42.88052" lon="2.10383">
        <ele>809.20001220703</ele>
        <time>2024-09-30T10:20:14.000Z</time>
      </trkpt>
      <trkpt lat="42.88044" lon="2.10375">
        <ele>813.40002441406</ele>
        <time>2024-09-30T10:20:18.000Z</time>
      </trkpt>
      <trkpt lat="42.88041" lon="2.1036">
        <ele>808.40002441406</ele>
        <time>2024-09-30T10:20:23.000Z</time>
      </trkpt>
      <trkpt lat="42.88035" lon="2.1034">
        <ele>811.40002441406</ele>
        <time>2024-09-30T10:20:29.000Z</time>
      </trkpt>
      <trkpt lat="42.88027" lon="2.10318">
        <ele>822.40002441406</ele>
        <time>2024-09-30T10:20:36.000Z</time>
      </trkpt>
      <trkpt lat="42.88023" lon="2.10305">
        <ele>829.40002441406</ele>
        <time>2024-09-30T10:20:41.000Z</time>
      </trkpt>
      <trkpt lat="42.88017" lon="2.10288">
        <ele>837.59997558594</ele>
        <time>2024-09-30T10:20:46.000Z</time>
      </trkpt>
      <trkpt lat="42.88009" lon="2.10264">
        <ele>845.59997558594</ele>
        <time>2024-09-30T10:20:53.000Z</time>
      </trkpt>
      <trkpt lat="42.88005" lon="2.10247">
        <ele>850.20001220703</ele>
        <time>2024-09-30T10:20:58.000Z</time>
      </trkpt>
      <trkpt lat="42.88005" lon="2.10224">
        <ele>848</ele>
        <time>2024-09-30T10:21:03.000Z</time>
      </trkpt>
      <trkpt lat="42.88002" lon="2.10209">
        <ele>847.40002441406</ele>
        <time>2024-09-30T10:21:08.000Z</time>
      </trkpt>
      <trkpt lat="42.88013" lon="2.10186">
        <ele>835.79998779297</ele>
        <time>2024-09-30T10:21:13.000Z</time>
      </trkpt>
      <trkpt lat="42.88019" lon="2.10171">
        <ele>829.20001220703</ele>
        <time>2024-09-30T10:21:17.000Z</time>
      </trkpt>
      <trkpt lat="42.88019" lon="2.10168">
        <ele>829</ele>
        <time>2024-09-30T10:21:19.000Z</time>
      </trkpt>
      <trkpt lat="42.88035" lon="2.10153">
        <ele>819.59997558594</ele>
        <time>2024-09-30T10:21:23.000Z</time>
      </trkpt>
      <trkpt lat="42.88036" lon="2.10152">
        <ele>819.40002441406</ele>
        <time>2024-09-30T10:21:24.000Z</time>
      </trkpt>
      <trkpt lat="42.88043" lon="2.10149">
        <ele>816.59997558594</ele>
        <time>2024-09-30T10:21:28.000Z</time>
      </trkpt>
      <trkpt lat="42.88053" lon="2.10154">
        <ele>813.20001220703</ele>
        <time>2024-09-30T10:21:32.000Z</time>
      </trkpt>
      <trkpt lat="42.88069" lon="2.10169">
        <ele>806.40002441406</ele>
        <time>2024-09-30T10:21:38.000Z</time>
      </trkpt>
      <trkpt lat="42.8807" lon="2.10175">
        <ele>805.20001220703</ele>
        <time>2024-09-30T10:21:40.000Z</time>
      </trkpt>
      <trkpt lat="42.88076" lon="2.10179">
        <ele>804</ele>
        <time>2024-09-30T10:21:43.000Z</time>
      </trkpt>
      <trkpt lat="42.88089" lon="2.10177">
        <ele>803.59997558594</ele>
        <time>2024-09-30T10:21:47.000Z</time>
      </trkpt>
      <trkpt lat="42.88102" lon="2.10174">
        <ele>803</ele>
        <time>2024-09-30T10:21:52.000Z</time>
      </trkpt>
      <trkpt lat="42.88112" lon="2.10171">
        <ele>803.40002441406</ele>
        <time>2024-09-30T10:21:56.000Z</time>
      </trkpt>
      <trkpt lat="42.88128" lon="2.10161">
        <ele>806.20001220703</ele>
        <time>2024-09-30T10:22:01.000Z</time>
      </trkpt>
      <trkpt lat="42.88144" lon="2.10147">
        <ele>810</ele>
        <time>2024-09-30T10:22:05.000Z</time>
      </trkpt>
      <trkpt lat="42.88157" lon="2.10138">
        <ele>812.20001220703</ele>
        <time>2024-09-30T10:22:09.000Z</time>
      </trkpt>
      <trkpt lat="42.88161" lon="2.10136">
        <ele>812.79998779297</ele>
        <time>2024-09-30T10:22:11.000Z</time>
      </trkpt>
      <trkpt lat="42.88161" lon="2.10136">
        <ele>812.79998779297</ele>
        <time>2024-09-30T10:22:13.000Z</time>
      </trkpt>
      <trkpt lat="42.88164" lon="2.10134">
        <ele>813.59997558594</ele>
        <time>2024-09-30T10:22:14.000Z</time>
      </trkpt>
      <trkpt lat="42.88172" lon="2.10127">
        <ele>816</ele>
        <time>2024-09-30T10:22:16.000Z</time>
      </trkpt>
      <trkpt lat="42.88183" lon="2.10116">
        <ele>816</ele>
        <time>2024-09-30T10:22:19.000Z</time>
      </trkpt>
      <trkpt lat="42.88199" lon="2.10096">
        <ele>819.20001220703</ele>
        <time>2024-09-30T10:22:24.000Z</time>
      </trkpt>
      <trkpt lat="42.88205" lon="2.10082">
        <ele>824</ele>
        <time>2024-09-30T10:22:29.000Z</time>
      </trkpt>
      <trkpt lat="42.8821" lon="2.1007">
        <ele>827.40002441406</ele>
        <time>2024-09-30T10:22:33.000Z</time>
      </trkpt>
      <trkpt lat="42.88211" lon="2.10067">
        <ele>828</ele>
        <time>2024-09-30T10:22:34.000Z</time>
      </trkpt>
      <trkpt lat="42.88212" lon="2.10061">
        <ele>829</ele>
        <time>2024-09-30T10:22:36.000Z</time>
      </trkpt>
      <trkpt lat="42.88213" lon="2.10055">
        <ele>830.40002441406</ele>
        <time>2024-09-30T10:22:38.000Z</time>
      </trkpt>
      <trkpt lat="42.88227" lon="2.10027">
        <ele>830.59997558594</ele>
        <time>2024-09-30T10:22:45.000Z</time>
      </trkpt>
      <trkpt lat="42.88245" lon="2.10007">
        <ele>830.59997558594</ele>
        <time>2024-09-30T10:22:52.000Z</time>
      </trkpt>
      <trkpt lat="42.88259" lon="2.09985">
        <ele>832</ele>
        <time>2024-09-30T10:22:57.000Z</time>
      </trkpt>
      <trkpt lat="42.88253" lon="2.09976">
        <ele>835</ele>
        <time>2024-09-30T10:23:01.000Z</time>
      </trkpt>
      <trkpt lat="42.88246" lon="2.09971">
        <ele>837.79998779297</ele>
        <time>2024-09-30T10:23:06.000Z</time>
      </trkpt>
      <trkpt lat="42.88245" lon="2.0997">
        <ele>838.40002441406</ele>
        <time>2024-09-30T10:23:07.000Z</time>
      </trkpt>
      <trkpt lat="42.88243" lon="2.09966">
        <ele>839.40002441406</ele>
        <time>2024-09-30T10:23:09.000Z</time>
      </trkpt>
      <trkpt lat="42.8824" lon="2.09961">
        <ele>840.79998779297</ele>
        <time>2024-09-30T10:23:12.000Z</time>
      </trkpt>
      <trkpt lat="42.88234" lon="2.09957">
        <ele>844</ele>
        <time>2024-09-30T10:23:16.000Z</time>
      </trkpt>
      <trkpt lat="42.8823" lon="2.09957">
        <ele>844.40002441406</ele>
        <time>2024-09-30T10:23:18.000Z</time>
      </trkpt>
      <trkpt lat="42.88226" lon="2.09957">
        <ele>844.79998779297</ele>
        <time>2024-09-30T10:23:20.000Z</time>
      </trkpt>
      <trkpt lat="42.88222" lon="2.09956">
        <ele>845.40002441406</ele>
        <time>2024-09-30T10:23:22.000Z</time>
      </trkpt>
      <trkpt lat="42.88216" lon="2.09955">
        <ele>846</ele>
        <time>2024-09-30T10:23:24.000Z</time>
      </trkpt>
      <trkpt lat="42.88212" lon="2.09954">
        <ele>846.79998779297</ele>
        <time>2024-09-30T10:23:26.000Z</time>
      </trkpt>
      <trkpt lat="42.88208" lon="2.09953">
        <ele>847.40002441406</ele>
        <time>2024-09-30T10:23:28.000Z</time>
      </trkpt>
      <trkpt lat="42.882" lon="2.09951">
        <ele>851</ele>
        <time>2024-09-30T10:23:32.000Z</time>
      </trkpt>
      <trkpt lat="42.88182" lon="2.09952">
        <ele>856.59997558594</ele>
        <time>2024-09-30T10:23:37.000Z</time>
      </trkpt>
      <trkpt lat="42.88166" lon="2.09956">
        <ele>862</ele>
        <time>2024-09-30T10:23:43.000Z</time>
      </trkpt>
      <trkpt lat="42.88146" lon="2.09965">
        <ele>863.20001220703</ele>
        <time>2024-09-30T10:23:51.000Z</time>
      </trkpt>
      <trkpt lat="42.88133" lon="2.09975">
        <ele>862.40002441406</ele>
        <time>2024-09-30T10:23:57.000Z</time>
      </trkpt>
      <trkpt lat="42.88122" lon="2.09982">
        <ele>864.59997558594</ele>
        <time>2024-09-30T10:24:02.000Z</time>
      </trkpt>
      <trkpt lat="42.88107" lon="2.09992">
        <ele>863.59997558594</ele>
        <time>2024-09-30T10:24:09.000Z</time>
      </trkpt>
      <trkpt lat="42.88092" lon="2.09997">
        <ele>865.40002441406</ele>
        <time>2024-09-30T10:24:16.000Z</time>
      </trkpt>
      <trkpt lat="42.88087" lon="2.09999">
        <ele>865.79998779297</ele>
        <time>2024-09-30T10:24:18.000Z</time>
      </trkpt>
      <trkpt lat="42.88084" lon="2.09999">
        <ele>866.40002441406</ele>
        <time>2024-09-30T10:24:19.000Z</time>
      </trkpt>
      <trkpt lat="42.8807" lon="2.10002">
        <ele>868</ele>
        <time>2024-09-30T10:24:25.000Z</time>
      </trkpt>
      <trkpt lat="42.88068" lon="2.10001">
        <ele>868.79998779297</ele>
        <time>2024-09-30T10:24:26.000Z</time>
      </trkpt>
      <trkpt lat="42.88058" lon="2.09996">
        <ele>872.59997558594</ele>
        <time>2024-09-30T10:24:31.000Z</time>
      </trkpt>
      <trkpt lat="42.88048" lon="2.09985">
        <ele>877.59997558594</ele>
        <time>2024-09-30T10:24:37.000Z</time>
      </trkpt>
      <trkpt lat="42.8804" lon="2.09974">
        <ele>881.20001220703</ele>
        <time>2024-09-30T10:24:43.000Z</time>
      </trkpt>
      <trkpt lat="42.88032" lon="2.09955">
        <ele>885</ele>
        <time>2024-09-30T10:24:51.000Z</time>
      </trkpt>
      <trkpt lat="42.88023" lon="2.09938">
        <ele>888.40002441406</ele>
        <time>2024-09-30T10:24:58.000Z</time>
      </trkpt>
      <trkpt lat="42.88015" lon="2.09923">
        <ele>890.79998779297</ele>
        <time>2024-09-30T10:25:04.000Z</time>
      </trkpt>
      <trkpt lat="42.8801" lon="2.09907">
        <ele>894.79998779297</ele>
        <time>2024-09-30T10:25:10.000Z</time>
      </trkpt>
      <trkpt lat="42.88008" lon="2.09896">
        <ele>896.20001220703</ele>
        <time>2024-09-30T10:25:15.000Z</time>
      </trkpt>
      <trkpt lat="42.88005" lon="2.09882">
        <ele>897.20001220703</ele>
        <time>2024-09-30T10:25:20.000Z</time>
      </trkpt>
      <trkpt lat="42.88005" lon="2.09873">
        <ele>897</ele>
        <time>2024-09-30T10:25:24.000Z</time>
      </trkpt>
      <trkpt lat="42.88003" lon="2.09868">
        <ele>897.59997558594</ele>
        <time>2024-09-30T10:25:27.000Z</time>
      </trkpt>
      <trkpt lat="42.87999" lon="2.09867">
        <ele>898.20001220703</ele>
        <time>2024-09-30T10:25:29.000Z</time>
      </trkpt>
      <trkpt lat="42.87995" lon="2.09861">
        <ele>899</ele>
        <time>2024-09-30T10:25:33.000Z</time>
      </trkpt>
      <trkpt lat="42.87994" lon="2.09857">
        <ele>899.40002441406</ele>
        <time>2024-09-30T10:25:35.000Z</time>
      </trkpt>
      <trkpt lat="42.87994" lon="2.09847">
        <ele>899.79998779297</ele>
        <time>2024-09-30T10:25:40.000Z</time>
      </trkpt>
      <trkpt lat="42.87994" lon="2.09842">
        <ele>899.20001220703</ele>
        <time>2024-09-30T10:26:02.000Z</time>
      </trkpt>
      <trkpt lat="42.88" lon="2.09823">
        <ele>899.20001220703</ele>
        <time>2024-09-30T10:26:09.000Z</time>
      </trkpt>
      <trkpt lat="42.88008" lon="2.09811">
        <ele>900.20001220703</ele>
        <time>2024-09-30T10:26:15.000Z</time>
      </trkpt>
      <trkpt lat="42.88012" lon="2.09798">
        <ele>901.40002441406</ele>
        <time>2024-09-30T10:26:21.000Z</time>
      </trkpt>
      <trkpt lat="42.88014" lon="2.09789">
        <ele>902.20001220703</ele>
        <time>2024-09-30T10:26:25.000Z</time>
      </trkpt>
      <trkpt lat="42.88016" lon="2.09771">
        <ele>903.59997558594</ele>
        <time>2024-09-30T10:26:32.000Z</time>
      </trkpt>
      <trkpt lat="42.88014" lon="2.09754">
        <ele>904.40002441406</ele>
        <time>2024-09-30T10:26:39.000Z</time>
      </trkpt>
      <trkpt lat="42.88009" lon="2.09739">
        <ele>904.59997558594</ele>
        <time>2024-09-30T10:26:46.000Z</time>
      </trkpt>
      <trkpt lat="42.88005" lon="2.09726">
        <ele>903.79998779297</ele>
        <time>2024-09-30T10:26:52.000Z</time>
      </trkpt>
      <trkpt lat="42.88" lon="2.09711">
        <ele>903</ele>
        <time>2024-09-30T10:26:59.000Z</time>
      </trkpt>
      <trkpt lat="42.87996" lon="2.09693">
        <ele>902.59997558594</ele>
        <time>2024-09-30T10:27:06.000Z</time>
      </trkpt>
      <trkpt lat="42.87989" lon="2.09672">
        <ele>903.40002441406</ele>
        <time>2024-09-30T10:27:14.000Z</time>
      </trkpt>
      <trkpt lat="42.8798" lon="2.09657">
        <ele>903.20001220703</ele>
        <time>2024-09-30T10:27:20.000Z</time>
      </trkpt>
      <trkpt lat="42.87968" lon="2.09642">
        <ele>901.40002441406</ele>
        <time>2024-09-30T10:27:25.000Z</time>
      </trkpt>
      <trkpt lat="42.87955" lon="2.0963">
        <ele>899</ele>
        <time>2024-09-30T10:27:30.000Z</time>
      </trkpt>
      <trkpt lat="42.87942" lon="2.09623">
        <ele>902</ele>
        <time>2024-09-30T10:27:37.000Z</time>
      </trkpt>
      <trkpt lat="42.87939" lon="2.09621">
        <ele>902.79998779297</ele>
        <time>2024-09-30T10:27:40.000Z</time>
      </trkpt>
      <trkpt lat="42.87942" lon="2.09627">
        <ele>901.79998779297</ele>
        <time>2024-09-30T10:30:19.000Z</time>
      </trkpt>
      <trkpt lat="42.87951" lon="2.09637">
        <ele>899.79998779297</ele>
        <time>2024-09-30T10:30:25.000Z</time>
      </trkpt>
      <trkpt lat="42.87959" lon="2.09645">
        <ele>899.79998779297</ele>
        <time>2024-09-30T10:30:30.000Z</time>
      </trkpt>
      <trkpt lat="42.87971" lon="2.09654">
        <ele>901.79998779297</ele>
        <time>2024-09-30T10:30:37.000Z</time>
      </trkpt>
      <trkpt lat="42.87983" lon="2.0967">
        <ele>901.59997558594</ele>
        <time>2024-09-30T10:30:45.000Z</time>
      </trkpt>
      <trkpt lat="42.87989" lon="2.09682">
        <ele>901.59997558594</ele>
        <time>2024-09-30T10:30:50.000Z</time>
      </trkpt>
      <trkpt lat="42.87994" lon="2.097">
        <ele>901.59997558594</ele>
        <time>2024-09-30T10:30:57.000Z</time>
      </trkpt>
      <trkpt lat="42.87999" lon="2.09716">
        <ele>902.40002441406</ele>
        <time>2024-09-30T10:31:03.000Z</time>
      </trkpt>
      <trkpt lat="42.88007" lon="2.09739">
        <ele>904.20001220703</ele>
        <time>2024-09-30T10:31:11.000Z</time>
      </trkpt>
      <trkpt lat="42.88012" lon="2.09751">
        <ele>904</ele>
        <time>2024-09-30T10:31:17.000Z</time>
      </trkpt>
      <trkpt lat="42.88012" lon="2.09764">
        <ele>902.79998779297</ele>
        <time>2024-09-30T10:31:23.000Z</time>
      </trkpt>
      <trkpt lat="42.88016" lon="2.09766">
        <ele>903.79998779297</ele>
        <time>2024-09-30T10:31:26.000Z</time>
      </trkpt>
      <trkpt lat="42.88017" lon="2.09762">
        <ele>904.20001220703</ele>
        <time>2024-09-30T10:31:28.000Z</time>
      </trkpt>
      <trkpt lat="42.88012" lon="2.09746">
        <ele>904.59997558594</ele>
        <time>2024-09-30T10:31:35.000Z</time>
      </trkpt>
      <trkpt lat="42.88013" lon="2.09731">
        <ele>906.20001220703</ele>
        <time>2024-09-30T10:31:40.000Z</time>
      </trkpt>
      <trkpt lat="42.88015" lon="2.09713">
        <ele>907.79998779297</ele>
        <time>2024-09-30T10:31:46.000Z</time>
      </trkpt>
      <trkpt lat="42.88014" lon="2.09701">
        <ele>909.59997558594</ele>
        <time>2024-09-30T10:31:51.000Z</time>
      </trkpt>
      <trkpt lat="42.88014" lon="2.09699">
        <ele>909.59997558594</ele>
        <time>2024-09-30T10:31:52.000Z</time>
      </trkpt>
      <trkpt lat="42.88015" lon="2.09689">
        <ele>911.79998779297</ele>
        <time>2024-09-30T10:31:57.000Z</time>
      </trkpt>
      <trkpt lat="42.88016" lon="2.09685">
        <ele>912.20001220703</ele>
        <time>2024-09-30T10:31:59.000Z</time>
      </trkpt>
      <trkpt lat="42.88016" lon="2.09681">
        <ele>912.79998779297</ele>
        <time>2024-09-30T10:32:01.000Z</time>
      </trkpt>
      <trkpt lat="42.88018" lon="2.09674">
        <ele>914.40002441406</ele>
        <time>2024-09-30T10:32:04.000Z</time>
      </trkpt>
      <trkpt lat="42.88018" lon="2.09673">
        <ele>915</ele>
        <time>2024-09-30T10:32:05.000Z</time>
      </trkpt>
      <trkpt lat="42.88018" lon="2.09671">
        <ele>915.20001220703</ele>
        <time>2024-09-30T10:32:06.000Z</time>
      </trkpt>
      <trkpt lat="42.88018" lon="2.09656">
        <ele>917.79998779297</ele>
        <time>2024-09-30T10:32:12.000Z</time>
      </trkpt>
      <trkpt lat="42.8802" lon="2.09651">
        <ele>920</ele>
        <time>2024-09-30T10:32:14.000Z</time>
      </trkpt>
      <trkpt lat="42.88022" lon="2.09649">
        <ele>921.20001220703</ele>
        <time>2024-09-30T10:32:15.000Z</time>
      </trkpt>
      <trkpt lat="42.88024" lon="2.09642">
        <ele>923.59997558594</ele>
        <time>2024-09-30T10:32:18.000Z</time>
      </trkpt>
      <trkpt lat="42.88024" lon="2.09639">
        <ele>924.20001220703</ele>
        <time>2024-09-30T10:32:19.000Z</time>
      </trkpt>
      <trkpt lat="42.88023" lon="2.09626">
        <ele>925.79998779297</ele>
        <time>2024-09-30T10:32:23.000Z</time>
      </trkpt>
      <trkpt lat="42.88021" lon="2.09612">
        <ele>927.79998779297</ele>
        <time>2024-09-30T10:32:28.000Z</time>
      </trkpt>
      <trkpt lat="42.88017" lon="2.09602">
        <ele>927.79998779297</ele>
        <time>2024-09-30T10:32:32.000Z</time>
      </trkpt>
      <trkpt lat="42.88015" lon="2.09599">
        <ele>927.40002441406</ele>
        <time>2024-09-30T10:32:34.000Z</time>
      </trkpt>
      <trkpt lat="42.88013" lon="2.09596">
        <ele>927.59997558594</ele>
        <time>2024-09-30T10:32:36.000Z</time>
      </trkpt>
      <trkpt lat="42.88011" lon="2.09594">
        <ele>927.59997558594</ele>
        <time>2024-09-30T10:32:38.000Z</time>
      </trkpt>
      <trkpt lat="42.88004" lon="2.09586">
        <ele>927.20001220703</ele>
        <time>2024-09-30T10:32:44.000Z</time>
      </trkpt>
      <trkpt lat="42.88002" lon="2.09585">
        <ele>927</ele>
        <time>2024-09-30T10:32:45.000Z</time>
      </trkpt>
      <trkpt lat="42.87998" lon="2.09578">
        <ele>927.59997558594</ele>
        <time>2024-09-30T10:32:49.000Z</time>
      </trkpt>
      <trkpt lat="42.87936" lon="2.09477">
        <ele>944.59997558594</ele>
        <time>2024-09-30T10:36:03.000Z</time>
      </trkpt>
      <trkpt lat="42.87931" lon="2.09466">
        <ele>945.59997558594</ele>
        <time>2024-09-30T10:36:08.000Z</time>
      </trkpt>
      <trkpt lat="42.8793" lon="2.09463">
        <ele>946</ele>
        <time>2024-09-30T10:36:09.000Z</time>
      </trkpt>
      <trkpt lat="42.87924" lon="2.09452">
        <ele>949</ele>
        <time>2024-09-30T10:36:14.000Z</time>
      </trkpt>
      <trkpt lat="42.87923" lon="2.0945">
        <ele>949.59997558594</ele>
        <time>2024-09-30T10:36:15.000Z</time>
      </trkpt>
      <trkpt lat="42.87916" lon="2.09442">
        <ele>952</ele>
        <time>2024-09-30T10:36:20.000Z</time>
      </trkpt>
      <trkpt lat="42.87914" lon="2.09439">
        <ele>952.79998779297</ele>
        <time>2024-09-30T10:36:22.000Z</time>
      </trkpt>
      <trkpt lat="42.8791" lon="2.09432">
        <ele>955.20001220703</ele>
        <time>2024-09-30T10:36:25.000Z</time>
      </trkpt>
      <trkpt lat="42.87907" lon="2.09424">
        <ele>957.59997558594</ele>
        <time>2024-09-30T10:36:28.000Z</time>
      </trkpt>
      <trkpt lat="42.87907" lon="2.09421">
        <ele>958.79998779297</ele>
        <time>2024-09-30T10:36:29.000Z</time>
      </trkpt>
      <trkpt lat="42.87905" lon="2.09417">
        <ele>960.20001220703</ele>
        <time>2024-09-30T10:36:31.000Z</time>
      </trkpt>
      <trkpt lat="42.87901" lon="2.09412">
        <ele>961.40002441406</ele>
        <time>2024-09-30T10:36:33.000Z</time>
      </trkpt>
      <trkpt lat="42.87897" lon="2.09403">
        <ele>963.79998779297</ele>
        <time>2024-09-30T10:36:37.000Z</time>
      </trkpt>
      <trkpt lat="42.87896" lon="2.09395">
        <ele>964.59997558594</ele>
        <time>2024-09-30T10:36:40.000Z</time>
      </trkpt>
      <trkpt lat="42.87895" lon="2.09393">
        <ele>964.79998779297</ele>
        <time>2024-09-30T10:36:41.000Z</time>
      </trkpt>
      <trkpt lat="42.8789" lon="2.09379">
        <ele>966</ele>
        <time>2024-09-30T10:36:46.000Z</time>
      </trkpt>
      <trkpt lat="42.87887" lon="2.09371">
        <ele>967.40002441406</ele>
        <time>2024-09-30T10:36:50.000Z</time>
      </trkpt>
      <trkpt lat="42.87885" lon="2.09366">
        <ele>968.59997558594</ele>
        <time>2024-09-30T10:36:52.000Z</time>
      </trkpt>
      <trkpt lat="42.87883" lon="2.09361">
        <ele>969.59997558594</ele>
        <time>2024-09-30T10:36:54.000Z</time>
      </trkpt>
      <trkpt lat="42.87879" lon="2.09352">
        <ele>971</ele>
        <time>2024-09-30T10:36:57.000Z</time>
      </trkpt>
      <trkpt lat="42.87874" lon="2.09342">
        <ele>973.20001220703</ele>
        <time>2024-09-30T10:37:01.000Z</time>
      </trkpt>
      <trkpt lat="42.87867" lon="2.09333">
        <ele>975.20001220703</ele>
        <time>2024-09-30T10:37:06.000Z</time>
      </trkpt>
      <trkpt lat="42.8786" lon="2.09323">
        <ele>977.59997558594</ele>
        <time>2024-09-30T10:37:11.000Z</time>
      </trkpt>
      <trkpt lat="42.8786" lon="2.09321">
        <ele>978</ele>
        <time>2024-09-30T10:37:12.000Z</time>
      </trkpt>
      <trkpt lat="42.87858" lon="2.09316">
        <ele>979</ele>
        <time>2024-09-30T10:37:15.000Z</time>
      </trkpt>
      <trkpt lat="42.87853" lon="2.09301">
        <ele>981.40002441406</ele>
        <time>2024-09-30T10:37:20.000Z</time>
      </trkpt>
      <trkpt lat="42.8785" lon="2.09295">
        <ele>982.40002441406</ele>
        <time>2024-09-30T10:37:22.000Z</time>
      </trkpt>
      <trkpt lat="42.87849" lon="2.09289">
        <ele>983.59997558594</ele>
        <time>2024-09-30T10:37:24.000Z</time>
      </trkpt>
      <trkpt lat="42.87848" lon="2.09278">
        <ele>986.20001220703</ele>
        <time>2024-09-30T10:37:28.000Z</time>
      </trkpt>
      <trkpt lat="42.87848" lon="2.09277">
        <ele>986.40002441406</ele>
        <time>2024-09-30T10:37:29.000Z</time>
      </trkpt>
      <trkpt lat="42.87847" lon="2.09276">
        <ele>986.40002441406</ele>
        <time>2024-09-30T10:37:30.000Z</time>
      </trkpt>
      <trkpt lat="42.8784" lon="2.0927">
        <ele>985.40002441406</ele>
        <time>2024-09-30T10:37:34.000Z</time>
      </trkpt>
      <trkpt lat="42.87839" lon="2.09268">
        <ele>985.40002441406</ele>
        <time>2024-09-30T10:37:35.000Z</time>
      </trkpt>
      <trkpt lat="42.87833" lon="2.09255">
        <ele>985.40002441406</ele>
        <time>2024-09-30T10:37:41.000Z</time>
      </trkpt>
      <trkpt lat="42.87829" lon="2.09246">
        <ele>985.20001220703</ele>
        <time>2024-09-30T10:37:46.000Z</time>
      </trkpt>
      <trkpt lat="42.87824" lon="2.09246">
        <ele>983</ele>
        <time>2024-09-30T10:37:50.000Z</time>
      </trkpt>
      <trkpt lat="42.87822" lon="2.09245">
        <ele>982.59997558594</ele>
        <time>2024-09-30T10:37:51.000Z</time>
      </trkpt>
      <trkpt lat="42.8782" lon="2.09241">
        <ele>982.40002441406</ele>
        <time>2024-09-30T10:37:55.000Z</time>
      </trkpt>
      <trkpt lat="42.87818" lon="2.09233">
        <ele>982.79998779297</ele>
        <time>2024-09-30T10:37:59.000Z</time>
      </trkpt>
      <trkpt lat="42.87816" lon="2.09226">
        <ele>983</ele>
        <time>2024-09-30T10:38:02.000Z</time>
      </trkpt>
      <trkpt lat="42.87815" lon="2.09224">
        <ele>983</ele>
        <time>2024-09-30T10:38:03.000Z</time>
      </trkpt>
      <trkpt lat="42.87812" lon="2.09208">
        <ele>984.40002441406</ele>
        <time>2024-09-30T10:38:07.000Z</time>
      </trkpt>
      <trkpt lat="42.87811" lon="2.09204">
        <ele>984.59997558594</ele>
        <time>2024-09-30T10:38:09.000Z</time>
      </trkpt>
      <trkpt lat="42.87811" lon="2.092">
        <ele>984.79998779297</ele>
        <time>2024-09-30T10:38:11.000Z</time>
      </trkpt>
      <trkpt lat="42.87812" lon="2.09193">
        <ele>985.79998779297</ele>
        <time>2024-09-30T10:38:13.000Z</time>
      </trkpt>
      <trkpt lat="42.87812" lon="2.0919">
        <ele>985.79998779297</ele>
        <time>2024-09-30T10:38:14.000Z</time>
      </trkpt>
      <trkpt lat="42.8781" lon="2.09176">
        <ele>986.20001220703</ele>
        <time>2024-09-30T10:38:19.000Z</time>
      </trkpt>
      <trkpt lat="42.87808" lon="2.09165">
        <ele>987</ele>
        <time>2024-09-30T10:38:22.000Z</time>
      </trkpt>
      <trkpt lat="42.87807" lon="2.09163">
        <ele>987</ele>
        <time>2024-09-30T10:38:23.000Z</time>
      </trkpt>
      <trkpt lat="42.87803" lon="2.09149">
        <ele>987.20001220703</ele>
        <time>2024-09-30T10:38:28.000Z</time>
      </trkpt>
      <trkpt lat="42.87802" lon="2.09147">
        <ele>987.40002441406</ele>
        <time>2024-09-30T10:38:29.000Z</time>
      </trkpt>
      <trkpt lat="42.87802" lon="2.09143">
        <ele>987.40002441406</ele>
        <time>2024-09-30T10:38:31.000Z</time>
      </trkpt>
      <trkpt lat="42.87801" lon="2.09138">
        <ele>987.79998779297</ele>
        <time>2024-09-30T10:38:33.000Z</time>
      </trkpt>
      <trkpt lat="42.87799" lon="2.09131">
        <ele>988.20001220703</ele>
        <time>2024-09-30T10:38:36.000Z</time>
      </trkpt>
      <trkpt lat="42.87797" lon="2.09116">
        <ele>990.20001220703</ele>
        <time>2024-09-30T10:38:41.000Z</time>
      </trkpt>
      <trkpt lat="42.87797" lon="2.09107">
        <ele>992.40002441406</ele>
        <time>2024-09-30T10:38:44.000Z</time>
      </trkpt>
      <trkpt lat="42.87795" lon="2.09096">
        <ele>993.59997558594</ele>
        <time>2024-09-30T10:38:48.000Z</time>
      </trkpt>
      <trkpt lat="42.87794" lon="2.09093">
        <ele>993.79998779297</ele>
        <time>2024-09-30T10:38:49.000Z</time>
      </trkpt>
      <trkpt lat="42.87792" lon="2.09089">
        <ele>993.79998779297</ele>
        <time>2024-09-30T10:38:50.000Z</time>
      </trkpt>
      <trkpt lat="42.87789" lon="2.0908">
        <ele>994</ele>
        <time>2024-09-30T10:38:53.000Z</time>
      </trkpt>
      <trkpt lat="42.87788" lon="2.09078">
        <ele>994</ele>
        <time>2024-09-30T10:38:54.000Z</time>
      </trkpt>
      <trkpt lat="42.87783" lon="2.09066">
        <ele>995.40002441406</ele>
        <time>2024-09-30T10:38:58.000Z</time>
      </trkpt>
      <trkpt lat="42.87776" lon="2.09049">
        <ele>998.40002441406</ele>
        <time>2024-09-30T10:39:03.000Z</time>
      </trkpt>
      <trkpt lat="42.87762" lon="2.09033">
        <ele>999</ele>
        <time>2024-09-30T10:39:08.000Z</time>
      </trkpt>
      <trkpt lat="42.87758" lon="2.09031">
        <ele>998.59997558594</ele>
        <time>2024-09-30T10:39:09.000Z</time>
      </trkpt>
      <trkpt lat="42.87749" lon="2.09028">
        <ele>997.59997558594</ele>
        <time>2024-09-30T10:39:11.000Z</time>
      </trkpt>
      <trkpt lat="42.87744" lon="2.09029">
        <ele>996.79998779297</ele>
        <time>2024-09-30T10:39:12.000Z</time>
      </trkpt>
      <trkpt lat="42.8772" lon="2.09039">
        <ele>990.20001220703</ele>
        <time>2024-09-30T10:39:17.000Z</time>
      </trkpt>
      <trkpt lat="42.87711" lon="2.09043">
        <ele>988.20001220703</ele>
        <time>2024-09-30T10:39:19.000Z</time>
      </trkpt>
      <trkpt lat="42.87701" lon="2.09043">
        <ele>987</ele>
        <time>2024-09-30T10:39:21.000Z</time>
      </trkpt>
      <trkpt lat="42.87692" lon="2.09037">
        <ele>987.40002441406</ele>
        <time>2024-09-30T10:39:23.000Z</time>
      </trkpt>
      <trkpt lat="42.87686" lon="2.09027">
        <ele>989.20001220703</ele>
        <time>2024-09-30T10:39:25.000Z</time>
      </trkpt>
      <trkpt lat="42.87679" lon="2.09008">
        <ele>993</ele>
        <time>2024-09-30T10:39:28.000Z</time>
      </trkpt>
      <trkpt lat="42.8767" lon="2.08999">
        <ele>994.40002441406</ele>
        <time>2024-09-30T10:39:30.000Z</time>
      </trkpt>
      <trkpt lat="42.87658" lon="2.08999">
        <ele>994</ele>
        <time>2024-09-30T10:39:32.000Z</time>
      </trkpt>
      <trkpt lat="42.87652" lon="2.09002">
        <ele>993.20001220703</ele>
        <time>2024-09-30T10:39:33.000Z</time>
      </trkpt>
      <trkpt lat="42.87641" lon="2.09006">
        <ele>991.40002441406</ele>
        <time>2024-09-30T10:39:35.000Z</time>
      </trkpt>
      <trkpt lat="42.8763" lon="2.09006">
        <ele>989.40002441406</ele>
        <time>2024-09-30T10:39:37.000Z</time>
      </trkpt>
      <trkpt lat="42.87625" lon="2.09006">
        <ele>988.79998779297</ele>
        <time>2024-09-30T10:39:38.000Z</time>
      </trkpt>
      <trkpt lat="42.87616" lon="2.09001">
        <ele>988.20001220703</ele>
        <time>2024-09-30T10:39:40.000Z</time>
      </trkpt>
      <trkpt lat="42.87612" lon="2.08998">
        <ele>988</ele>
        <time>2024-09-30T10:39:41.000Z</time>
      </trkpt>
      <trkpt lat="42.87594" lon="2.08988">
        <ele>987.20001220703</ele>
        <time>2024-09-30T10:39:45.000Z</time>
      </trkpt>
      <trkpt lat="42.8759" lon="2.08984">
        <ele>987.40002441406</ele>
        <time>2024-09-30T10:39:46.000Z</time>
      </trkpt>
      <trkpt lat="42.87586" lon="2.08979">
        <ele>987.79998779297</ele>
        <time>2024-09-30T10:39:47.000Z</time>
      </trkpt>
      <trkpt lat="42.87576" lon="2.08977">
        <ele>987.20001220703</ele>
        <time>2024-09-30T10:39:49.000Z</time>
      </trkpt>
      <trkpt lat="42.87569" lon="2.08975">
        <ele>986.79998779297</ele>
        <time>2024-09-30T10:39:52.000Z</time>
      </trkpt>
      <trkpt lat="42.87559" lon="2.08977">
        <ele>986</ele>
        <time>2024-09-30T10:39:59.000Z</time>
      </trkpt>
      <trkpt lat="42.87555" lon="2.08978">
        <ele>985.59997558594</ele>
        <time>2024-09-30T10:40:01.000Z</time>
      </trkpt>
      <trkpt lat="42.87548" lon="2.0898">
        <ele>984.79998779297</ele>
        <time>2024-09-30T10:40:04.000Z</time>
      </trkpt>
      <trkpt lat="42.87532" lon="2.08984">
        <ele>983.20001220703</ele>
        <time>2024-09-30T10:40:09.000Z</time>
      </trkpt>
      <trkpt lat="42.87515" lon="2.08976">
        <ele>982.79998779297</ele>
        <time>2024-09-30T10:40:14.000Z</time>
      </trkpt>
      <trkpt lat="42.87502" lon="2.08972">
        <ele>981.59997558594</ele>
        <time>2024-09-30T10:40:18.000Z</time>
      </trkpt>
      <trkpt lat="42.87488" lon="2.08968">
        <ele>979.79998779297</ele>
        <time>2024-09-30T10:40:23.000Z</time>
      </trkpt>
      <trkpt lat="42.8747" lon="2.0896">
        <ele>979.20001220703</ele>
        <time>2024-09-30T10:40:28.000Z</time>
      </trkpt>
      <trkpt lat="42.87465" lon="2.08952">
        <ele>979</ele>
        <time>2024-09-30T10:40:30.000Z</time>
      </trkpt>
      <trkpt lat="42.87463" lon="2.08947">
        <ele>979.20001220703</ele>
        <time>2024-09-30T10:40:31.000Z</time>
      </trkpt>
      <trkpt lat="42.87457" lon="2.08927">
        <ele>979.40002441406</ele>
        <time>2024-09-30T10:40:35.000Z</time>
      </trkpt>
      <trkpt lat="42.87444" lon="2.08918">
        <ele>979.59997558594</ele>
        <time>2024-09-30T10:40:39.000Z</time>
      </trkpt>
      <trkpt lat="42.87439" lon="2.08918">
        <ele>979.59997558594</ele>
        <time>2024-09-30T10:40:40.000Z</time>
      </trkpt>
      <trkpt lat="42.87429" lon="2.08923">
        <ele>978.79998779297</ele>
        <time>2024-09-30T10:40:43.000Z</time>
      </trkpt>
      <trkpt lat="42.87412" lon="2.08935">
        <ele>979</ele>
        <time>2024-09-30T10:40:49.000Z</time>
      </trkpt>
      <trkpt lat="42.8741" lon="2.08935">
        <ele>979.20001220703</ele>
        <time>2024-09-30T10:40:50.000Z</time>
      </trkpt>
      <trkpt lat="42.87406" lon="2.08936">
        <ele>979.59997558594</ele>
        <time>2024-09-30T10:40:52.000Z</time>
      </trkpt>
      <trkpt lat="42.87403" lon="2.08935">
        <ele>979.79998779297</ele>
        <time>2024-09-30T10:40:53.000Z</time>
      </trkpt>
      <trkpt lat="42.8738" lon="2.08934">
        <ele>981.40002441406</ele>
        <time>2024-09-30T10:41:01.000Z</time>
      </trkpt>
      <trkpt lat="42.87371" lon="2.0892">
        <ele>983</ele>
        <time>2024-09-30T10:41:06.000Z</time>
      </trkpt>
      <trkpt lat="42.87363" lon="2.08908">
        <ele>984.40002441406</ele>
        <time>2024-09-30T10:41:11.000Z</time>
      </trkpt>
      <trkpt lat="42.87361" lon="2.08899">
        <ele>985</ele>
        <time>2024-09-30T10:41:16.000Z</time>
      </trkpt>
      <trkpt lat="42.87359" lon="2.08891">
        <ele>985.40002441406</ele>
        <time>2024-09-30T10:41:20.000Z</time>
      </trkpt>
      <trkpt lat="42.87359" lon="2.08885">
        <ele>985.79998779297</ele>
        <time>2024-09-30T10:41:22.000Z</time>
      </trkpt>
      <trkpt lat="42.87361" lon="2.08876">
        <ele>986.40002441406</ele>
        <time>2024-09-30T10:41:24.000Z</time>
      </trkpt>
      <trkpt lat="42.87368" lon="2.0885">
        <ele>988</ele>
        <time>2024-09-30T10:41:30.000Z</time>
      </trkpt>
      <trkpt lat="42.87369" lon="2.08828">
        <ele>988.79998779297</ele>
        <time>2024-09-30T10:41:35.000Z</time>
      </trkpt>
      <trkpt lat="42.87367" lon="2.08817">
        <ele>989.40002441406</ele>
        <time>2024-09-30T10:41:37.000Z</time>
      </trkpt>
      <trkpt lat="42.87362" lon="2.08807">
        <ele>990</ele>
        <time>2024-09-30T10:41:39.000Z</time>
      </trkpt>
      <trkpt lat="42.87354" lon="2.088">
        <ele>990.59997558594</ele>
        <time>2024-09-30T10:41:41.000Z</time>
      </trkpt>
      <trkpt lat="42.87347" lon="2.08797">
        <ele>990.79998779297</ele>
        <time>2024-09-30T10:41:43.000Z</time>
      </trkpt>
      <trkpt lat="42.87332" lon="2.08803">
        <ele>992.40002441406</ele>
        <time>2024-09-30T10:41:47.000Z</time>
      </trkpt>
      <trkpt lat="42.87329" lon="2.08806">
        <ele>992.79998779297</ele>
        <time>2024-09-30T10:41:48.000Z</time>
      </trkpt>
      <trkpt lat="42.87323" lon="2.08813">
        <ele>993.40002441406</ele>
        <time>2024-09-30T10:41:50.000Z</time>
      </trkpt>
      <trkpt lat="42.87317" lon="2.0882">
        <ele>993.79998779297</ele>
        <time>2024-09-30T10:41:52.000Z</time>
      </trkpt>
      <trkpt lat="42.87305" lon="2.08833">
        <ele>994.40002441406</ele>
        <time>2024-09-30T10:41:56.000Z</time>
      </trkpt>
      <trkpt lat="42.87288" lon="2.08852">
        <ele>994.79998779297</ele>
        <time>2024-09-30T10:42:01.000Z</time>
      </trkpt>
      <trkpt lat="42.87279" lon="2.08864">
        <ele>994.79998779297</ele>
        <time>2024-09-30T10:42:04.000Z</time>
      </trkpt>
      <trkpt lat="42.87276" lon="2.08869">
        <ele>994.59997558594</ele>
        <time>2024-09-30T10:42:05.000Z</time>
      </trkpt>
      <trkpt lat="42.87273" lon="2.08872">
        <ele>994.79998779297</ele>
        <time>2024-09-30T10:42:06.000Z</time>
      </trkpt>
      <trkpt lat="42.87267" lon="2.0888">
        <ele>994.59997558594</ele>
        <time>2024-09-30T10:42:08.000Z</time>
      </trkpt>
      <trkpt lat="42.87262" lon="2.08889">
        <ele>994.59997558594</ele>
        <time>2024-09-30T10:42:10.000Z</time>
      </trkpt>
      <trkpt lat="42.87256" lon="2.08898">
        <ele>994.20001220703</ele>
        <time>2024-09-30T10:42:12.000Z</time>
      </trkpt>
      <trkpt lat="42.87246" lon="2.08914">
        <ele>993.79998779297</ele>
        <time>2024-09-30T10:42:16.000Z</time>
      </trkpt>
      <trkpt lat="42.87243" lon="2.08918">
        <ele>993.59997558594</ele>
        <time>2024-09-30T10:42:17.000Z</time>
      </trkpt>
      <trkpt lat="42.87233" lon="2.08932">
        <ele>993</ele>
        <time>2024-09-30T10:42:21.000Z</time>
      </trkpt>
      <trkpt lat="42.8722" lon="2.08951">
        <ele>990.40002441406</ele>
        <time>2024-09-30T10:42:26.000Z</time>
      </trkpt>
      <trkpt lat="42.87212" lon="2.08962">
        <ele>989.40002441406</ele>
        <time>2024-09-30T10:42:29.000Z</time>
      </trkpt>
      <trkpt lat="42.87209" lon="2.08965">
        <ele>989.20001220703</ele>
        <time>2024-09-30T10:42:30.000Z</time>
      </trkpt>
      <trkpt lat="42.87194" lon="2.08981">
        <ele>989.79998779297</ele>
        <time>2024-09-30T10:42:35.000Z</time>
      </trkpt>
      <trkpt lat="42.8718" lon="2.08995">
        <ele>990</ele>
        <time>2024-09-30T10:42:40.000Z</time>
      </trkpt>
      <trkpt lat="42.8717" lon="2.09013">
        <ele>990.20001220703</ele>
        <time>2024-09-30T10:42:44.000Z</time>
      </trkpt>
      <trkpt lat="42.87161" lon="2.09035">
        <ele>991.20001220703</ele>
        <time>2024-09-30T10:42:49.000Z</time>
      </trkpt>
      <trkpt lat="42.87158" lon="2.09048">
        <ele>991.59997558594</ele>
        <time>2024-09-30T10:42:52.000Z</time>
      </trkpt>
      <trkpt lat="42.87157" lon="2.09052">
        <ele>991.59997558594</ele>
        <time>2024-09-30T10:42:53.000Z</time>
      </trkpt>
      <trkpt lat="42.87153" lon="2.09069">
        <ele>992.40002441406</ele>
        <time>2024-09-30T10:42:57.000Z</time>
      </trkpt>
      <trkpt lat="42.87148" lon="2.09093">
        <ele>992.40002441406</ele>
        <time>2024-09-30T10:43:02.000Z</time>
      </trkpt>
      <trkpt lat="42.87142" lon="2.09116">
        <ele>992.20001220703</ele>
        <time>2024-09-30T10:43:07.000Z</time>
      </trkpt>
      <trkpt lat="42.87134" lon="2.09145">
        <ele>991</ele>
        <time>2024-09-30T10:43:13.000Z</time>
      </trkpt>
      <trkpt lat="42.87126" lon="2.09161">
        <ele>991.20001220703</ele>
        <time>2024-09-30T10:43:17.000Z</time>
      </trkpt>
      <trkpt lat="42.8712" lon="2.09175">
        <ele>990.40002441406</ele>
        <time>2024-09-30T10:43:20.000Z</time>
      </trkpt>
      <trkpt lat="42.87117" lon="2.09177">
        <ele>990.40002441406</ele>
        <time>2024-09-30T10:43:21.000Z</time>
      </trkpt>
      <trkpt lat="42.87108" lon="2.0918">
        <ele>991.79998779297</ele>
        <time>2024-09-30T10:43:25.000Z</time>
      </trkpt>
      <trkpt lat="42.87097" lon="2.09182">
        <ele>993.40002441406</ele>
        <time>2024-09-30T10:43:29.000Z</time>
      </trkpt>
      <trkpt lat="42.87091" lon="2.09186">
        <ele>994.20001220703</ele>
        <time>2024-09-30T10:43:32.000Z</time>
      </trkpt>
      <trkpt lat="42.87089" lon="2.09189">
        <ele>994</ele>
        <time>2024-09-30T10:43:33.000Z</time>
      </trkpt>
      <trkpt lat="42.87089" lon="2.09192">
        <ele>993.79998779297</ele>
        <time>2024-09-30T10:43:34.000Z</time>
      </trkpt>
      <trkpt lat="42.87092" lon="2.092">
        <ele>993</ele>
        <time>2024-09-30T10:43:37.000Z</time>
      </trkpt>
      <trkpt lat="42.87094" lon="2.0921">
        <ele>992</ele>
        <time>2024-09-30T10:43:42.000Z</time>
      </trkpt>
      <trkpt lat="42.87096" lon="2.09211">
        <ele>991.59997558594</ele>
        <time>2024-09-30T10:43:43.000Z</time>
      </trkpt>
      <trkpt lat="42.87099" lon="2.09208">
        <ele>991.40002441406</ele>
        <time>2024-09-30T10:43:45.000Z</time>
      </trkpt>
      <trkpt lat="42.87101" lon="2.09205">
        <ele>991</ele>
        <time>2024-09-30T10:43:47.000Z</time>
      </trkpt>
      <trkpt lat="42.87101" lon="2.09204">
        <ele>991</ele>
        <time>2024-09-30T10:43:49.000Z</time>
      </trkpt>
      <trkpt lat="42.87098" lon="2.09202">
        <ele>991.79998779297</ele>
        <time>2024-09-30T10:46:48.000Z</time>
      </trkpt>
      <trkpt lat="42.87097" lon="2.09201">
        <ele>992.20001220703</ele>
        <time>2024-09-30T10:46:49.000Z</time>
      </trkpt>
      <trkpt lat="42.8709" lon="2.09191">
        <ele>993.79998779297</ele>
        <time>2024-09-30T10:46:55.000Z</time>
      </trkpt>
      <trkpt lat="42.87089" lon="2.0919">
        <ele>994</ele>
        <time>2024-09-30T10:46:56.000Z</time>
      </trkpt>
      <trkpt lat="42.8709" lon="2.09185">
        <ele>994.20001220703</ele>
        <time>2024-09-30T10:46:59.000Z</time>
      </trkpt>
      <trkpt lat="42.87092" lon="2.09183">
        <ele>994.20001220703</ele>
        <time>2024-09-30T10:47:01.000Z</time>
      </trkpt>
      <trkpt lat="42.87094" lon="2.09184">
        <ele>993.79998779297</ele>
        <time>2024-09-30T10:47:03.000Z</time>
      </trkpt>
      <trkpt lat="42.87094" lon="2.09187">
        <ele>993.59997558594</ele>
        <time>2024-09-30T10:47:05.000Z</time>
      </trkpt>
      <trkpt lat="42.8709" lon="2.09189">
        <ele>994</ele>
        <time>2024-09-30T10:47:08.000Z</time>
      </trkpt>
      <trkpt lat="42.87087" lon="2.09189">
        <ele>994.20001220703</ele>
        <time>2024-09-30T10:47:10.000Z</time>
      </trkpt>
      <trkpt lat="42.87081" lon="2.09182">
        <ele>995.40002441406</ele>
        <time>2024-09-30T10:47:15.000Z</time>
      </trkpt>
      <trkpt lat="42.87081" lon="2.09182">
        <ele>995.40002441406</ele>
        <time>2024-09-30T10:52:00.000Z</time>
      </trkpt>
      <trkpt lat="42.87086" lon="2.0919">
        <ele>994.40002441406</ele>
        <time>2024-09-30T10:52:06.000Z</time>
      </trkpt>
      <trkpt lat="42.87088" lon="2.09191">
        <ele>994</ele>
        <time>2024-09-30T10:52:08.000Z</time>
      </trkpt>
      <trkpt lat="42.8709" lon="2.09189">
        <ele>994</ele>
        <time>2024-09-30T10:52:10.000Z</time>
      </trkpt>
      <trkpt lat="42.8709" lon="2.09185">
        <ele>994.20001220703</ele>
        <time>2024-09-30T10:52:12.000Z</time>
      </trkpt>
      <trkpt lat="42.8709" lon="2.09184">
        <ele>994.40002441406</ele>
        <time>2024-09-30T10:52:13.000Z</time>
      </trkpt>
      <trkpt lat="42.87088" lon="2.09173">
        <ele>995.40002441406</ele>
        <time>2024-09-30T10:52:28.000Z</time>
      </trkpt>
      <trkpt lat="42.87088" lon="2.09161">
        <ele>996.79998779297</ele>
        <time>2024-09-30T10:52:31.000Z</time>
      </trkpt>
      <trkpt lat="42.87086" lon="2.09133">
        <ele>998.59997558594</ele>
        <time>2024-09-30T10:52:36.000Z</time>
      </trkpt>
      <trkpt lat="42.87086" lon="2.09127">
        <ele>998.79998779297</ele>
        <time>2024-09-30T10:52:37.000Z</time>
      </trkpt>
      <trkpt lat="42.87088" lon="2.0911">
        <ele>998.59997558594</ele>
        <time>2024-09-30T10:52:40.000Z</time>
      </trkpt>
      <trkpt lat="42.87089" lon="2.09079">
        <ele>998.59997558594</ele>
        <time>2024-09-30T10:52:44.000Z</time>
      </trkpt>
      <trkpt lat="42.8709" lon="2.09061">
        <ele>998.20001220703</ele>
        <time>2024-09-30T10:52:46.000Z</time>
      </trkpt>
      <trkpt lat="42.87091" lon="2.09042">
        <ele>998</ele>
        <time>2024-09-30T10:52:48.000Z</time>
      </trkpt>
      <trkpt lat="42.87093" lon="2.09015">
        <ele>997</ele>
        <time>2024-09-30T10:52:51.000Z</time>
      </trkpt>
      <trkpt lat="42.87093" lon="2.08999">
        <ele>996.40002441406</ele>
        <time>2024-09-30T10:52:53.000Z</time>
      </trkpt>
      <trkpt lat="42.87092" lon="2.08965">
        <ele>995.20001220703</ele>
        <time>2024-09-30T10:52:57.000Z</time>
      </trkpt>
      <trkpt lat="42.87089" lon="2.08923">
        <ele>993.79998779297</ele>
        <time>2024-09-30T10:53:02.000Z</time>
      </trkpt>
      <trkpt lat="42.87084" lon="2.08892">
        <ele>993</ele>
        <time>2024-09-30T10:53:06.000Z</time>
      </trkpt>
      <trkpt lat="42.87081" lon="2.0888">
        <ele>993</ele>
        <time>2024-09-30T10:53:08.000Z</time>
      </trkpt>
      <trkpt lat="42.87082" lon="2.08874">
        <ele>993.20001220703</ele>
        <time>2024-09-30T10:53:09.000Z</time>
      </trkpt>
      <trkpt lat="42.87081" lon="2.08866">
        <ele>993.40002441406</ele>
        <time>2024-09-30T10:53:10.000Z</time>
      </trkpt>
      <trkpt lat="42.87078" lon="2.08852">
        <ele>994</ele>
        <time>2024-09-30T10:53:12.000Z</time>
      </trkpt>
      <trkpt lat="42.87076" lon="2.08845">
        <ele>994.40002441406</ele>
        <time>2024-09-30T10:53:13.000Z</time>
      </trkpt>
      <trkpt lat="42.87076" lon="2.08837">
        <ele>994.79998779297</ele>
        <time>2024-09-30T10:53:14.000Z</time>
      </trkpt>
      <trkpt lat="42.87073" lon="2.08818">
        <ele>996</ele>
        <time>2024-09-30T10:53:17.000Z</time>
      </trkpt>
      <trkpt lat="42.87073" lon="2.08812">
        <ele>996</ele>
        <time>2024-09-30T10:53:18.000Z</time>
      </trkpt>
      <trkpt lat="42.87072" lon="2.0879">
        <ele>995.79998779297</ele>
        <time>2024-09-30T10:53:21.000Z</time>
      </trkpt>
      <trkpt lat="42.87071" lon="2.0876">
        <ele>995.20001220703</ele>
        <time>2024-09-30T10:53:25.000Z</time>
      </trkpt>
      <trkpt lat="42.87074" lon="2.08738">
        <ele>995</ele>
        <time>2024-09-30T10:53:28.000Z</time>
      </trkpt>
      <trkpt lat="42.87079" lon="2.087">
        <ele>996</ele>
        <time>2024-09-30T10:53:34.000Z</time>
      </trkpt>
      <trkpt lat="42.8708" lon="2.08697">
        <ele>996</ele>
        <time>2024-09-30T10:53:35.000Z</time>
      </trkpt>
      <trkpt lat="42.87081" lon="2.08693">
        <ele>996</ele>
        <time>2024-09-30T10:53:37.000Z</time>
      </trkpt>
      <trkpt lat="42.8708" lon="2.08686">
        <ele>996.40002441406</ele>
        <time>2024-09-30T10:53:41.000Z</time>
      </trkpt>
      <trkpt lat="42.87077" lon="2.08692">
        <ele>996.20001220703</ele>
        <time>2024-09-30T10:53:45.000Z</time>
      </trkpt>
      <trkpt lat="42.87076" lon="2.08699">
        <ele>996</ele>
        <time>2024-09-30T10:53:48.000Z</time>
      </trkpt>
      <trkpt lat="42.87073" lon="2.08713">
        <ele>995.79998779297</ele>
        <time>2024-09-30T10:53:52.000Z</time>
      </trkpt>
      <trkpt lat="42.87069" lon="2.08739">
        <ele>995</ele>
        <time>2024-09-30T10:53:57.000Z</time>
      </trkpt>
      <trkpt lat="42.87067" lon="2.08758">
        <ele>995</ele>
        <time>2024-09-30T10:54:01.000Z</time>
      </trkpt>
      <trkpt lat="42.87069" lon="2.08785">
        <ele>995.59997558594</ele>
        <time>2024-09-30T10:54:06.000Z</time>
      </trkpt>
      <trkpt lat="42.87073" lon="2.08806">
        <ele>996</ele>
        <time>2024-09-30T10:54:10.000Z</time>
      </trkpt>
      <trkpt lat="42.87076" lon="2.08826">
        <ele>995.59997558594</ele>
        <time>2024-09-30T10:54:14.000Z</time>
      </trkpt>
      <trkpt lat="42.87078" lon="2.08835">
        <ele>995</ele>
        <time>2024-09-30T10:54:16.000Z</time>
      </trkpt>
      <trkpt lat="42.8708" lon="2.08845">
        <ele>994.40002441406</ele>
        <time>2024-09-30T10:54:18.000Z</time>
      </trkpt>
      <trkpt lat="42.87083" lon="2.08864">
        <ele>993.40002441406</ele>
        <time>2024-09-30T10:54:22.000Z</time>
      </trkpt>
      <trkpt lat="42.87087" lon="2.08899">
        <ele>993</ele>
        <time>2024-09-30T10:54:27.000Z</time>
      </trkpt>
      <trkpt lat="42.87089" lon="2.08927">
        <ele>994</ele>
        <time>2024-09-30T10:54:31.000Z</time>
      </trkpt>
      <trkpt lat="42.87089" lon="2.08934">
        <ele>994.20001220703</ele>
        <time>2024-09-30T10:54:32.000Z</time>
      </trkpt>
      <trkpt lat="42.87092" lon="2.08966">
        <ele>995.20001220703</ele>
        <time>2024-09-30T10:54:38.000Z</time>
      </trkpt>
      <trkpt lat="42.87093" lon="2.08987">
        <ele>996</ele>
        <time>2024-09-30T10:54:42.000Z</time>
      </trkpt>
      <trkpt lat="42.87092" lon="2.0901">
        <ele>996.79998779297</ele>
        <time>2024-09-30T10:54:46.000Z</time>
      </trkpt>
      <trkpt lat="42.87091" lon="2.09028">
        <ele>997.40002441406</ele>
        <time>2024-09-30T10:54:49.000Z</time>
      </trkpt>
      <trkpt lat="42.8709" lon="2.09034">
        <ele>997.59997558594</ele>
        <time>2024-09-30T10:54:50.000Z</time>
      </trkpt>
      <trkpt lat="42.8709" lon="2.09064">
        <ele>998.20001220703</ele>
        <time>2024-09-30T10:54:55.000Z</time>
      </trkpt>
      <trkpt lat="42.87089" lon="2.09076">
        <ele>998.40002441406</ele>
        <time>2024-09-30T10:54:57.000Z</time>
      </trkpt>
      <trkpt lat="42.87088" lon="2.09094">
        <ele>998.59997558594</ele>
        <time>2024-09-30T10:55:00.000Z</time>
      </trkpt>
      <trkpt lat="42.87087" lon="2.09107">
        <ele>998.79998779297</ele>
        <time>2024-09-30T10:55:03.000Z</time>
      </trkpt>
      <trkpt lat="42.87086" lon="2.09127">
        <ele>998.79998779297</ele>
        <time>2024-09-30T10:55:07.000Z</time>
      </trkpt>
      <trkpt lat="42.87089" lon="2.0916">
        <ele>997</ele>
        <time>2024-09-30T10:55:13.000Z</time>
      </trkpt>
      <trkpt lat="42.87087" lon="2.09186">
        <ele>994.40002441406</ele>
        <time>2024-09-30T10:55:20.000Z</time>
      </trkpt>
      <trkpt lat="42.87083" lon="2.09185">
        <ele>995</ele>
        <time>2024-09-30T10:55:23.000Z</time>
      </trkpt>
      <trkpt lat="42.87079" lon="2.09179">
        <ele>996</ele>
        <time>2024-09-30T10:55:26.000Z</time>
      </trkpt>
      <trkpt lat="42.87077" lon="2.09178">
        <ele>996.20001220703</ele>
        <time>2024-09-30T10:55:28.000Z</time>
      </trkpt>
      <trkpt lat="42.87077" lon="2.09182">
        <ele>995.79998779297</ele>
        <time>2024-09-30T11:15:30.000Z</time>
      </trkpt>
      <trkpt lat="42.87082" lon="2.09187">
        <ele>995</ele>
        <time>2024-09-30T11:15:33.000Z</time>
      </trkpt>
      <trkpt lat="42.87085" lon="2.09187">
        <ele>994.59997558594</ele>
        <time>2024-09-30T11:15:35.000Z</time>
      </trkpt>
      <trkpt lat="42.87087" lon="2.09182">
        <ele>994.79998779297</ele>
        <time>2024-09-30T11:15:37.000Z</time>
      </trkpt>
      <trkpt lat="42.87087" lon="2.09158">
        <ele>997.20001220703</ele>
        <time>2024-09-30T11:15:44.000Z</time>
      </trkpt>
      <trkpt lat="42.87086" lon="2.09136">
        <ele>998.59997558594</ele>
        <time>2024-09-30T11:15:49.000Z</time>
      </trkpt>
      <trkpt lat="42.87088" lon="2.0911">
        <ele>998.59997558594</ele>
        <time>2024-09-30T11:15:54.000Z</time>
      </trkpt>
      <trkpt lat="42.87088" lon="2.09103">
        <ele>998.59997558594</ele>
        <time>2024-09-30T11:15:55.000Z</time>
      </trkpt>
      <trkpt lat="42.87091" lon="2.09081">
        <ele>998.40002441406</ele>
        <time>2024-09-30T11:15:58.000Z</time>
      </trkpt>
      <trkpt lat="42.87091" lon="2.09074">
        <ele>998.20001220703</ele>
        <time>2024-09-30T11:15:59.000Z</time>
      </trkpt>
      <trkpt lat="42.87092" lon="2.0905">
        <ele>998</ele>
        <time>2024-09-30T11:16:02.000Z</time>
      </trkpt>
      <trkpt lat="42.87095" lon="2.0901">
        <ele>996.79998779297</ele>
        <time>2024-09-30T11:16:07.000Z</time>
      </trkpt>
      <trkpt lat="42.87095" lon="2.08995">
        <ele>996.20001220703</ele>
        <time>2024-09-30T11:16:09.000Z</time>
      </trkpt>
      <trkpt lat="42.87096" lon="2.08981">
        <ele>995.79998779297</ele>
        <time>2024-09-30T11:16:11.000Z</time>
      </trkpt>
      <trkpt lat="42.87095" lon="2.08973">
        <ele>995.40002441406</ele>
        <time>2024-09-30T11:16:12.000Z</time>
      </trkpt>
      <trkpt lat="42.87093" lon="2.08952">
        <ele>994.59997558594</ele>
        <time>2024-09-30T11:16:15.000Z</time>
      </trkpt>
      <trkpt lat="42.8709" lon="2.0892">
        <ele>993.59997558594</ele>
        <time>2024-09-30T11:16:19.000Z</time>
      </trkpt>
      <trkpt lat="42.87088" lon="2.08912">
        <ele>993.40002441406</ele>
        <time>2024-09-30T11:16:20.000Z</time>
      </trkpt>
      <trkpt lat="42.87083" lon="2.08888">
        <ele>993</ele>
        <time>2024-09-30T11:16:23.000Z</time>
      </trkpt>
      <trkpt lat="42.87082" lon="2.08873">
        <ele>993.20001220703</ele>
        <time>2024-09-30T11:16:25.000Z</time>
      </trkpt>
      <trkpt lat="42.8708" lon="2.08857">
        <ele>993.79998779297</ele>
        <time>2024-09-30T11:16:27.000Z</time>
      </trkpt>
      <trkpt lat="42.87078" lon="2.08842">
        <ele>994.59997558594</ele>
        <time>2024-09-30T11:16:29.000Z</time>
      </trkpt>
      <trkpt lat="42.87078" lon="2.08835">
        <ele>995</ele>
        <time>2024-09-30T11:16:30.000Z</time>
      </trkpt>
      <trkpt lat="42.87072" lon="2.08793">
        <ele>996</ele>
        <time>2024-09-30T11:16:35.000Z</time>
      </trkpt>
      <trkpt lat="42.87071" lon="2.08785">
        <ele>995.59997558594</ele>
        <time>2024-09-30T11:16:36.000Z</time>
      </trkpt>
      <trkpt lat="42.87071" lon="2.08767">
        <ele>995.20001220703</ele>
        <time>2024-09-30T11:16:38.000Z</time>
      </trkpt>
      <trkpt lat="42.87071" lon="2.0875">
        <ele>995.20001220703</ele>
        <time>2024-09-30T11:16:40.000Z</time>
      </trkpt>
      <trkpt lat="42.87075" lon="2.087">
        <ele>996</ele>
        <time>2024-09-30T11:16:46.000Z</time>
      </trkpt>
      <trkpt lat="42.87082" lon="2.08664">
        <ele>997.20001220703</ele>
        <time>2024-09-30T11:16:51.000Z</time>
      </trkpt>
      <trkpt lat="42.87087" lon="2.08635">
        <ele>997.40002441406</ele>
        <time>2024-09-30T11:16:55.000Z</time>
      </trkpt>
      <trkpt lat="42.87089" lon="2.08629">
        <ele>997.40002441406</ele>
        <time>2024-09-30T11:16:56.000Z</time>
      </trkpt>
      <trkpt lat="42.8709" lon="2.08623">
        <ele>997.59997558594</ele>
        <time>2024-09-30T11:16:57.000Z</time>
      </trkpt>
      <trkpt lat="42.87093" lon="2.08611">
        <ele>997.20001220703</ele>
        <time>2024-09-30T11:16:59.000Z</time>
      </trkpt>
      <trkpt lat="42.87094" lon="2.08605">
        <ele>997</ele>
        <time>2024-09-30T11:17:00.000Z</time>
      </trkpt>
      <trkpt lat="42.87101" lon="2.08585">
        <ele>997.59997558594</ele>
        <time>2024-09-30T11:17:04.000Z</time>
      </trkpt>
      <trkpt lat="42.87111" lon="2.08557">
        <ele>997.40002441406</ele>
        <time>2024-09-30T11:17:10.000Z</time>
      </trkpt>
      <trkpt lat="42.87119" lon="2.08532">
        <ele>996.40002441406</ele>
        <time>2024-09-30T11:17:15.000Z</time>
      </trkpt>
      <trkpt lat="42.87125" lon="2.08507">
        <ele>994.40002441406</ele>
        <time>2024-09-30T11:17:20.000Z</time>
      </trkpt>
      <trkpt lat="42.87127" lon="2.08507">
        <ele>994.59997558594</ele>
        <time>2024-09-30T11:17:22.000Z</time>
      </trkpt>
      <trkpt lat="42.87127" lon="2.08509">
        <ele>994.59997558594</ele>
        <time>2024-09-30T11:17:23.000Z</time>
      </trkpt>
      <trkpt lat="42.87125" lon="2.08515">
        <ele>995</ele>
        <time>2024-09-30T11:17:26.000Z</time>
      </trkpt>
      <trkpt lat="42.87122" lon="2.08515">
        <ele>995</ele>
        <time>2024-09-30T11:17:28.000Z</time>
      </trkpt>
      <trkpt lat="42.87122" lon="2.08513">
        <ele>994.79998779297</ele>
        <time>2024-09-30T11:17:29.000Z</time>
      </trkpt>
      <trkpt lat="42.87125" lon="2.08507">
        <ele>994.40002441406</ele>
        <time>2024-09-30T11:17:33.000Z</time>
      </trkpt>
      <trkpt lat="42.87126" lon="2.08501">
        <ele>994.20001220703</ele>
        <time>2024-09-30T11:17:35.000Z</time>
      </trkpt>
      <trkpt lat="42.87135" lon="2.08478">
        <ele>992.79998779297</ele>
        <time>2024-09-30T11:17:41.000Z</time>
      </trkpt>
      <trkpt lat="42.87137" lon="2.08473">
        <ele>992.40002441406</ele>
        <time>2024-09-30T11:17:42.000Z</time>
      </trkpt>
      <trkpt lat="42.87148" lon="2.08457">
        <ele>991.79998779297</ele>
        <time>2024-09-30T11:17:46.000Z</time>
      </trkpt>
      <trkpt lat="42.87162" lon="2.08438">
        <ele>993.79998779297</ele>
        <time>2024-09-30T11:17:51.000Z</time>
      </trkpt>
      <trkpt lat="42.87169" lon="2.08427">
        <ele>994.79998779297</ele>
        <time>2024-09-30T11:17:54.000Z</time>
      </trkpt>
      <trkpt lat="42.87172" lon="2.08424">
        <ele>995.20001220703</ele>
        <time>2024-09-30T11:17:55.000Z</time>
      </trkpt>
      <trkpt lat="42.87191" lon="2.0841">
        <ele>996.20001220703</ele>
        <time>2024-09-30T11:18:00.000Z</time>
      </trkpt>
      <trkpt lat="42.87212" lon="2.08391">
        <ele>996.79998779297</ele>
        <time>2024-09-30T11:18:06.000Z</time>
      </trkpt>
      <trkpt lat="42.87226" lon="2.08378">
        <ele>997.59997558594</ele>
        <time>2024-09-30T11:18:10.000Z</time>
      </trkpt>
      <trkpt lat="42.87229" lon="2.08374">
        <ele>997.59997558594</ele>
        <time>2024-09-30T11:18:11.000Z</time>
      </trkpt>
      <trkpt lat="42.87239" lon="2.08361">
        <ele>998</ele>
        <time>2024-09-30T11:18:14.000Z</time>
      </trkpt>
      <trkpt lat="42.87246" lon="2.08347">
        <ele>997.79998779297</ele>
        <time>2024-09-30T11:18:17.000Z</time>
      </trkpt>
      <trkpt lat="42.87251" lon="2.08336">
        <ele>997.40002441406</ele>
        <time>2024-09-30T11:18:19.000Z</time>
      </trkpt>
      <trkpt lat="42.87257" lon="2.08318">
        <ele>995.59997558594</ele>
        <time>2024-09-30T11:18:22.000Z</time>
      </trkpt>
      <trkpt lat="42.87261" lon="2.08307">
        <ele>995.59997558594</ele>
        <time>2024-09-30T11:18:24.000Z</time>
      </trkpt>
      <trkpt lat="42.87269" lon="2.08283">
        <ele>995.59997558594</ele>
        <time>2024-09-30T11:18:28.000Z</time>
      </trkpt>
      <trkpt lat="42.87271" lon="2.08277">
        <ele>995.59997558594</ele>
        <time>2024-09-30T11:18:29.000Z</time>
      </trkpt>
      <trkpt lat="42.87275" lon="2.08265">
        <ele>996</ele>
        <time>2024-09-30T11:18:31.000Z</time>
      </trkpt>
      <trkpt lat="42.87281" lon="2.08246">
        <ele>996.20001220703</ele>
        <time>2024-09-30T11:18:34.000Z</time>
      </trkpt>
      <trkpt lat="42.87292" lon="2.08222">
        <ele>996.79998779297</ele>
        <time>2024-09-30T11:18:38.000Z</time>
      </trkpt>
      <trkpt lat="42.87297" lon="2.0821">
        <ele>997.20001220703</ele>
        <time>2024-09-30T11:18:40.000Z</time>
      </trkpt>
      <trkpt lat="42.87303" lon="2.082">
        <ele>997.40002441406</ele>
        <time>2024-09-30T11:18:42.000Z</time>
      </trkpt>
      <trkpt lat="42.87313" lon="2.08185">
        <ele>997</ele>
        <time>2024-09-30T11:18:45.000Z</time>
      </trkpt>
      <trkpt lat="42.8732" lon="2.08176">
        <ele>996.79998779297</ele>
        <time>2024-09-30T11:18:47.000Z</time>
      </trkpt>
      <trkpt lat="42.87326" lon="2.08167">
        <ele>996.59997558594</ele>
        <time>2024-09-30T11:18:49.000Z</time>
      </trkpt>
      <trkpt lat="42.87337" lon="2.08149">
        <ele>996.20001220703</ele>
        <time>2024-09-30T11:18:53.000Z</time>
      </trkpt>
      <trkpt lat="42.8734" lon="2.08145">
        <ele>996.40002441406</ele>
        <time>2024-09-30T11:18:54.000Z</time>
      </trkpt>
      <trkpt lat="42.87343" lon="2.08141">
        <ele>996.40002441406</ele>
        <time>2024-09-30T11:18:55.000Z</time>
      </trkpt>
      <trkpt lat="42.87356" lon="2.08122">
        <ele>998</ele>
        <time>2024-09-30T11:18:59.000Z</time>
      </trkpt>
      <trkpt lat="42.87364" lon="2.08106">
        <ele>998.40002441406</ele>
        <time>2024-09-30T11:19:02.000Z</time>
      </trkpt>
      <trkpt lat="42.8737" lon="2.08097">
        <ele>998.59997558594</ele>
        <time>2024-09-30T11:19:04.000Z</time>
      </trkpt>
      <trkpt lat="42.87373" lon="2.08092">
        <ele>998.79998779297</ele>
        <time>2024-09-30T11:19:05.000Z</time>
      </trkpt>
      <trkpt lat="42.87377" lon="2.08082">
        <ele>999</ele>
        <time>2024-09-30T11:19:07.000Z</time>
      </trkpt>
      <trkpt lat="42.87387" lon="2.0806">
        <ele>999</ele>
        <time>2024-09-30T11:19:11.000Z</time>
      </trkpt>
      <trkpt lat="42.8739" lon="2.08054">
        <ele>998.79998779297</ele>
        <time>2024-09-30T11:19:12.000Z</time>
      </trkpt>
      <trkpt lat="42.87398" lon="2.08039">
        <ele>998.59997558594</ele>
        <time>2024-09-30T11:19:15.000Z</time>
      </trkpt>
      <trkpt lat="42.87405" lon="2.08023">
        <ele>998.59997558594</ele>
        <time>2024-09-30T11:19:18.000Z</time>
      </trkpt>
      <trkpt lat="42.87428" lon="2.07987">
        <ele>1001.200012207</ele>
        <time>2024-09-30T11:19:26.000Z</time>
      </trkpt>
      <trkpt lat="42.87441" lon="2.07972">
        <ele>1002.799987793</ele>
        <time>2024-09-30T11:19:30.000Z</time>
      </trkpt>
      <trkpt lat="42.87447" lon="2.07965">
        <ele>1002.799987793</ele>
        <time>2024-09-30T11:19:32.000Z</time>
      </trkpt>
      <trkpt lat="42.8745" lon="2.07961">
        <ele>1002.5999755859</ele>
        <time>2024-09-30T11:19:33.000Z</time>
      </trkpt>
      <trkpt lat="42.87459" lon="2.07947">
        <ele>1003.5999755859</ele>
        <time>2024-09-30T11:19:36.000Z</time>
      </trkpt>
      <trkpt lat="42.87468" lon="2.07933">
        <ele>1003.5999755859</ele>
        <time>2024-09-30T11:19:39.000Z</time>
      </trkpt>
      <trkpt lat="42.87473" lon="2.07921">
        <ele>1003</ele>
        <time>2024-09-30T11:19:41.000Z</time>
      </trkpt>
      <trkpt lat="42.8748" lon="2.07911">
        <ele>1002.4000244141</ele>
        <time>2024-09-30T11:19:43.000Z</time>
      </trkpt>
      <trkpt lat="42.87486" lon="2.07902">
        <ele>1001.5999755859</ele>
        <time>2024-09-30T11:19:45.000Z</time>
      </trkpt>
      <trkpt lat="42.87505" lon="2.07873">
        <ele>1000</ele>
        <time>2024-09-30T11:19:51.000Z</time>
      </trkpt>
      <trkpt lat="42.87511" lon="2.07865">
        <ele>1000</ele>
        <time>2024-09-30T11:19:53.000Z</time>
      </trkpt>
      <trkpt lat="42.87524" lon="2.07849">
        <ele>1000.5999755859</ele>
        <time>2024-09-30T11:19:58.000Z</time>
      </trkpt>
      <trkpt lat="42.87542" lon="2.07832">
        <ele>1001.200012207</ele>
        <time>2024-09-30T11:20:04.000Z</time>
      </trkpt>
      <trkpt lat="42.87553" lon="2.07822">
        <ele>1001.5999755859</ele>
        <time>2024-09-30T11:20:08.000Z</time>
      </trkpt>
      <trkpt lat="42.87565" lon="2.07799">
        <ele>1001.200012207</ele>
        <time>2024-09-30T11:20:13.000Z</time>
      </trkpt>
      <trkpt lat="42.87562" lon="2.0778">
        <ele>1001.799987793</ele>
        <time>2024-09-30T11:20:16.000Z</time>
      </trkpt>
      <trkpt lat="42.87557" lon="2.07768">
        <ele>1002.5999755859</ele>
        <time>2024-09-30T11:20:18.000Z</time>
      </trkpt>
      <trkpt lat="42.8755" lon="2.0776">
        <ele>1003.4000244141</ele>
        <time>2024-09-30T11:20:20.000Z</time>
      </trkpt>
      <trkpt lat="42.8754" lon="2.07753">
        <ele>1004.4000244141</ele>
        <time>2024-09-30T11:20:22.000Z</time>
      </trkpt>
      <trkpt lat="42.87536" lon="2.07751">
        <ele>1004.5999755859</ele>
        <time>2024-09-30T11:20:23.000Z</time>
      </trkpt>
      <trkpt lat="42.87523" lon="2.07748">
        <ele>1005.200012207</ele>
        <time>2024-09-30T11:20:26.000Z</time>
      </trkpt>
      <trkpt lat="42.8752" lon="2.07745">
        <ele>1005.4000244141</ele>
        <time>2024-09-30T11:20:27.000Z</time>
      </trkpt>
      <trkpt lat="42.87517" lon="2.07735">
        <ele>1006</ele>
        <time>2024-09-30T11:20:29.000Z</time>
      </trkpt>
      <trkpt lat="42.87519" lon="2.07725">
        <ele>1006.5999755859</ele>
        <time>2024-09-30T11:20:31.000Z</time>
      </trkpt>
      <trkpt lat="42.87521" lon="2.07721">
        <ele>1006.799987793</ele>
        <time>2024-09-30T11:20:32.000Z</time>
      </trkpt>
      <trkpt lat="42.87529" lon="2.07703">
        <ele>1007.200012207</ele>
        <time>2024-09-30T11:20:36.000Z</time>
      </trkpt>
      <trkpt lat="42.87531" lon="2.07679">
        <ele>1007.799987793</ele>
        <time>2024-09-30T11:20:40.000Z</time>
      </trkpt>
      <trkpt lat="42.87531" lon="2.07674">
        <ele>1008</ele>
        <time>2024-09-30T11:20:41.000Z</time>
      </trkpt>
      <trkpt lat="42.87527" lon="2.07662">
        <ele>1008.5999755859</ele>
        <time>2024-09-30T11:20:43.000Z</time>
      </trkpt>
      <trkpt lat="42.87524" lon="2.07656">
        <ele>1009</ele>
        <time>2024-09-30T11:20:44.000Z</time>
      </trkpt>
      <trkpt lat="42.87512" lon="2.07623">
        <ele>1010.799987793</ele>
        <time>2024-09-30T11:20:49.000Z</time>
      </trkpt>
      <trkpt lat="42.8751" lon="2.07616">
        <ele>1011</ele>
        <time>2024-09-30T11:20:50.000Z</time>
      </trkpt>
      <trkpt lat="42.87509" lon="2.07608">
        <ele>1011.200012207</ele>
        <time>2024-09-30T11:20:51.000Z</time>
      </trkpt>
      <trkpt lat="42.87509" lon="2.07595">
        <ele>1011.4000244141</ele>
        <time>2024-09-30T11:20:53.000Z</time>
      </trkpt>
      <trkpt lat="42.8751" lon="2.0759">
        <ele>1011.4000244141</ele>
        <time>2024-09-30T11:20:54.000Z</time>
      </trkpt>
      <trkpt lat="42.87512" lon="2.07584">
        <ele>1011.4000244141</ele>
        <time>2024-09-30T11:20:55.000Z</time>
      </trkpt>
      <trkpt lat="42.87517" lon="2.07564">
        <ele>1011.200012207</ele>
        <time>2024-09-30T11:20:59.000Z</time>
      </trkpt>
      <trkpt lat="42.87516" lon="2.07552">
        <ele>1011.799987793</ele>
        <time>2024-09-30T11:21:01.000Z</time>
      </trkpt>
      <trkpt lat="42.87513" lon="2.07533">
        <ele>1013</ele>
        <time>2024-09-30T11:21:04.000Z</time>
      </trkpt>
      <trkpt lat="42.87513" lon="2.07514">
        <ele>1013.5999755859</ele>
        <time>2024-09-30T11:21:07.000Z</time>
      </trkpt>
      <trkpt lat="42.87515" lon="2.07502">
        <ele>1013.5999755859</ele>
        <time>2024-09-30T11:21:09.000Z</time>
      </trkpt>
      <trkpt lat="42.87518" lon="2.0749">
        <ele>1013.5999755859</ele>
        <time>2024-09-30T11:21:11.000Z</time>
      </trkpt>
      <trkpt lat="42.87523" lon="2.07479">
        <ele>1013</ele>
        <time>2024-09-30T11:21:13.000Z</time>
      </trkpt>
      <trkpt lat="42.87535" lon="2.07461">
        <ele>1011.4000244141</ele>
        <time>2024-09-30T11:21:17.000Z</time>
      </trkpt>
      <trkpt lat="42.87541" lon="2.07451">
        <ele>1011.200012207</ele>
        <time>2024-09-30T11:21:19.000Z</time>
      </trkpt>
      <trkpt lat="42.87549" lon="2.07433">
        <ele>1010.799987793</ele>
        <time>2024-09-30T11:21:23.000Z</time>
      </trkpt>
      <trkpt lat="42.8755" lon="2.07428">
        <ele>1010.5999755859</ele>
        <time>2024-09-30T11:21:24.000Z</time>
      </trkpt>
      <trkpt lat="42.87554" lon="2.07409">
        <ele>1009.799987793</ele>
        <time>2024-09-30T11:21:27.000Z</time>
      </trkpt>
      <trkpt lat="42.87555" lon="2.07403">
        <ele>1009.5999755859</ele>
        <time>2024-09-30T11:21:28.000Z</time>
      </trkpt>
      <trkpt lat="42.87554" lon="2.07391">
        <ele>1009.200012207</ele>
        <time>2024-09-30T11:21:30.000Z</time>
      </trkpt>
      <trkpt lat="42.87552" lon="2.07379">
        <ele>1009.5999755859</ele>
        <time>2024-09-30T11:21:32.000Z</time>
      </trkpt>
      <trkpt lat="42.87546" lon="2.07366">
        <ele>1009.799987793</ele>
        <time>2024-09-30T11:21:34.000Z</time>
      </trkpt>
      <trkpt lat="42.87538" lon="2.07353">
        <ele>1010.200012207</ele>
        <time>2024-09-30T11:21:36.000Z</time>
      </trkpt>
      <trkpt lat="42.87528" lon="2.07341">
        <ele>1009.799987793</ele>
        <time>2024-09-30T11:21:38.000Z</time>
      </trkpt>
      <trkpt lat="42.87519" lon="2.07329">
        <ele>1009.200012207</ele>
        <time>2024-09-30T11:21:40.000Z</time>
      </trkpt>
      <trkpt lat="42.87501" lon="2.073">
        <ele>1007.4000244141</ele>
        <time>2024-09-30T11:21:45.000Z</time>
      </trkpt>
      <trkpt lat="42.87497" lon="2.07287">
        <ele>1006.799987793</ele>
        <time>2024-09-30T11:21:47.000Z</time>
      </trkpt>
      <trkpt lat="42.87495" lon="2.07272">
        <ele>1005.799987793</ele>
        <time>2024-09-30T11:21:49.000Z</time>
      </trkpt>
      <trkpt lat="42.87491" lon="2.07223">
        <ele>1001</ele>
        <time>2024-09-30T11:21:55.000Z</time>
      </trkpt>
      <trkpt lat="42.87485" lon="2.0718">
        <ele>996.40002441406</ele>
        <time>2024-09-30T11:22:00.000Z</time>
      </trkpt>
      <trkpt lat="42.87483" lon="2.07163">
        <ele>995.59997558594</ele>
        <time>2024-09-30T11:22:02.000Z</time>
      </trkpt>
      <trkpt lat="42.87478" lon="2.07139">
        <ele>995</ele>
        <time>2024-09-30T11:22:05.000Z</time>
      </trkpt>
      <trkpt lat="42.87473" lon="2.07117">
        <ele>994.59997558594</ele>
        <time>2024-09-30T11:22:08.000Z</time>
      </trkpt>
      <trkpt lat="42.87473" lon="2.0711">
        <ele>994.20001220703</ele>
        <time>2024-09-30T11:22:09.000Z</time>
      </trkpt>
      <trkpt lat="42.8747" lon="2.07087">
        <ele>993</ele>
        <time>2024-09-30T11:22:12.000Z</time>
      </trkpt>
      <trkpt lat="42.87467" lon="2.07072">
        <ele>992</ele>
        <time>2024-09-30T11:22:14.000Z</time>
      </trkpt>
      <trkpt lat="42.87461" lon="2.07036">
        <ele>990.20001220703</ele>
        <time>2024-09-30T11:22:19.000Z</time>
      </trkpt>
      <trkpt lat="42.87456" lon="2.06995">
        <ele>989</ele>
        <time>2024-09-30T11:22:25.000Z</time>
      </trkpt>
      <trkpt lat="42.87453" lon="2.0695">
        <ele>988</ele>
        <time>2024-09-30T11:22:31.000Z</time>
      </trkpt>
      <trkpt lat="42.87448" lon="2.06914">
        <ele>986</ele>
        <time>2024-09-30T11:22:36.000Z</time>
      </trkpt>
      <trkpt lat="42.87447" lon="2.06907">
        <ele>985.40002441406</ele>
        <time>2024-09-30T11:22:37.000Z</time>
      </trkpt>
      <trkpt lat="42.87447" lon="2.06899">
        <ele>984.59997558594</ele>
        <time>2024-09-30T11:22:38.000Z</time>
      </trkpt>
      <trkpt lat="42.87443" lon="2.06884">
        <ele>983</ele>
        <time>2024-09-30T11:22:40.000Z</time>
      </trkpt>
      <trkpt lat="42.87441" lon="2.06877">
        <ele>982.40002441406</ele>
        <time>2024-09-30T11:22:41.000Z</time>
      </trkpt>
      <trkpt lat="42.87436" lon="2.06855">
        <ele>981.59997558594</ele>
        <time>2024-09-30T11:22:44.000Z</time>
      </trkpt>
      <trkpt lat="42.87432" lon="2.06841">
        <ele>980.59997558594</ele>
        <time>2024-09-30T11:22:46.000Z</time>
      </trkpt>
      <trkpt lat="42.87427" lon="2.06828">
        <ele>980.40002441406</ele>
        <time>2024-09-30T11:22:48.000Z</time>
      </trkpt>
      <trkpt lat="42.87424" lon="2.06822">
        <ele>981</ele>
        <time>2024-09-30T11:22:49.000Z</time>
      </trkpt>
      <trkpt lat="42.87415" lon="2.06809">
        <ele>984</ele>
        <time>2024-09-30T11:22:52.000Z</time>
      </trkpt>
      <trkpt lat="42.87413" lon="2.068">
        <ele>983.79998779297</ele>
        <time>2024-09-30T11:22:54.000Z</time>
      </trkpt>
      <trkpt lat="42.87413" lon="2.06796">
        <ele>982.79998779297</ele>
        <time>2024-09-30T11:22:55.000Z</time>
      </trkpt>
      <trkpt lat="42.87419" lon="2.06793">
        <ele>978.59997558594</ele>
        <time>2024-09-30T11:22:57.000Z</time>
      </trkpt>
      <trkpt lat="42.87423" lon="2.06794">
        <ele>976.40002441406</ele>
        <time>2024-09-30T11:22:58.000Z</time>
      </trkpt>
      <trkpt lat="42.87427" lon="2.06797">
        <ele>974.79998779297</ele>
        <time>2024-09-30T11:22:59.000Z</time>
      </trkpt>
      <trkpt lat="42.87432" lon="2.06806">
        <ele>974.40002441406</ele>
        <time>2024-09-30T11:23:01.000Z</time>
      </trkpt>
      <trkpt lat="42.8744" lon="2.06815">
        <ele>973</ele>
        <time>2024-09-30T11:23:03.000Z</time>
      </trkpt>
      <trkpt lat="42.87451" lon="2.06822">
        <ele>970.59997558594</ele>
        <time>2024-09-30T11:23:05.000Z</time>
      </trkpt>
      <trkpt lat="42.87477" lon="2.06837">
        <ele>967.20001220703</ele>
        <time>2024-09-30T11:23:10.000Z</time>
      </trkpt>
      <trkpt lat="42.87496" lon="2.06838">
        <ele>964.40002441406</ele>
        <time>2024-09-30T11:23:14.000Z</time>
      </trkpt>
      <trkpt lat="42.87505" lon="2.06831">
        <ele>963</ele>
        <time>2024-09-30T11:23:16.000Z</time>
      </trkpt>
      <trkpt lat="42.87514" lon="2.06821">
        <ele>961.79998779297</ele>
        <time>2024-09-30T11:23:18.000Z</time>
      </trkpt>
      <trkpt lat="42.8754" lon="2.06795">
        <ele>958.40002441406</ele>
        <time>2024-09-30T11:23:24.000Z</time>
      </trkpt>
      <trkpt lat="42.87552" lon="2.0678">
        <ele>958</ele>
        <time>2024-09-30T11:23:27.000Z</time>
      </trkpt>
      <trkpt lat="42.87567" lon="2.0676">
        <ele>956.59997558594</ele>
        <time>2024-09-30T11:23:31.000Z</time>
      </trkpt>
      <trkpt lat="42.87576" lon="2.0675">
        <ele>956.79998779297</ele>
        <time>2024-09-30T11:23:34.000Z</time>
      </trkpt>
      <trkpt lat="42.87582" lon="2.06743">
        <ele>957</ele>
        <time>2024-09-30T11:23:38.000Z</time>
      </trkpt>
      <trkpt lat="42.87598" lon="2.06736">
        <ele>958.20001220703</ele>
        <time>2024-09-30T11:23:43.000Z</time>
      </trkpt>
      <trkpt lat="42.87607" lon="2.06726">
        <ele>958.20001220703</ele>
        <time>2024-09-30T11:23:47.000Z</time>
      </trkpt>
      <trkpt lat="42.87607" lon="2.06723">
        <ele>957.79998779297</ele>
        <time>2024-09-30T11:23:48.000Z</time>
      </trkpt>
      <trkpt lat="42.87604" lon="2.06717">
        <ele>956.40002441406</ele>
        <time>2024-09-30T11:23:50.000Z</time>
      </trkpt>
      <trkpt lat="42.87592" lon="2.06715">
        <ele>954.59997558594</ele>
        <time>2024-09-30T11:23:54.000Z</time>
      </trkpt>
      <trkpt lat="42.87586" lon="2.06717">
        <ele>954.20001220703</ele>
        <time>2024-09-30T11:23:58.000Z</time>
      </trkpt>
      <trkpt lat="42.87578" lon="2.06719">
        <ele>953.59997558594</ele>
        <time>2024-09-30T11:24:25.000Z</time>
      </trkpt>
      <trkpt lat="42.87572" lon="2.06721">
        <ele>953</ele>
        <time>2024-09-30T11:24:28.000Z</time>
      </trkpt>
      <trkpt lat="42.87557" lon="2.06719">
        <ele>951.59997558594</ele>
        <time>2024-09-30T11:24:32.000Z</time>
      </trkpt>
      <trkpt lat="42.87548" lon="2.06717">
        <ele>951</ele>
        <time>2024-09-30T11:24:34.000Z</time>
      </trkpt>
      <trkpt lat="42.87533" lon="2.06714">
        <ele>950.59997558594</ele>
        <time>2024-09-30T11:24:37.000Z</time>
      </trkpt>
      <trkpt lat="42.87507" lon="2.06709">
        <ele>950.40002441406</ele>
        <time>2024-09-30T11:24:43.000Z</time>
      </trkpt>
      <trkpt lat="42.87492" lon="2.06705">
        <ele>952.59997558594</ele>
        <time>2024-09-30T11:24:47.000Z</time>
      </trkpt>
      <trkpt lat="42.87489" lon="2.06702">
        <ele>952.79998779297</ele>
        <time>2024-09-30T11:24:48.000Z</time>
      </trkpt>
      <trkpt lat="42.87482" lon="2.06695">
        <ele>952.79998779297</ele>
        <time>2024-09-30T11:24:50.000Z</time>
      </trkpt>
      <trkpt lat="42.87479" lon="2.06686">
        <ele>952.20001220703</ele>
        <time>2024-09-30T11:24:52.000Z</time>
      </trkpt>
      <trkpt lat="42.87473" lon="2.0667">
        <ele>950.59997558594</ele>
        <time>2024-09-30T11:24:55.000Z</time>
      </trkpt>
      <trkpt lat="42.87471" lon="2.06664">
        <ele>950</ele>
        <time>2024-09-30T11:24:56.000Z</time>
      </trkpt>
      <trkpt lat="42.87466" lon="2.06651">
        <ele>949</ele>
        <time>2024-09-30T11:24:58.000Z</time>
      </trkpt>
      <trkpt lat="42.87458" lon="2.06634">
        <ele>948.40002441406</ele>
        <time>2024-09-30T11:25:01.000Z</time>
      </trkpt>
      <trkpt lat="42.87451" lon="2.06609">
        <ele>949.79998779297</ele>
        <time>2024-09-30T11:25:06.000Z</time>
      </trkpt>
      <trkpt lat="42.87456" lon="2.06596">
        <ele>949.79998779297</ele>
        <time>2024-09-30T11:25:08.000Z</time>
      </trkpt>
      <trkpt lat="42.87462" lon="2.06584">
        <ele>948.59997558594</ele>
        <time>2024-09-30T11:25:10.000Z</time>
      </trkpt>
      <trkpt lat="42.87474" lon="2.06572">
        <ele>944.40002441406</ele>
        <time>2024-09-30T11:25:14.000Z</time>
      </trkpt>
      <trkpt lat="42.8748" lon="2.06565">
        <ele>942.79998779297</ele>
        <time>2024-09-30T11:25:16.000Z</time>
      </trkpt>
      <trkpt lat="42.87486" lon="2.06556">
        <ele>941.20001220703</ele>
        <time>2024-09-30T11:25:18.000Z</time>
      </trkpt>
      <trkpt lat="42.87495" lon="2.06544">
        <ele>939</ele>
        <time>2024-09-30T11:25:20.000Z</time>
      </trkpt>
      <trkpt lat="42.87506" lon="2.06529">
        <ele>935.40002441406</ele>
        <time>2024-09-30T11:25:22.000Z</time>
      </trkpt>
      <trkpt lat="42.87524" lon="2.0649">
        <ele>928</ele>
        <time>2024-09-30T11:25:27.000Z</time>
      </trkpt>
      <trkpt lat="42.87533" lon="2.06448">
        <ele>922.79998779297</ele>
        <time>2024-09-30T11:25:32.000Z</time>
      </trkpt>
      <trkpt lat="42.87535" lon="2.06416">
        <ele>920.40002441406</ele>
        <time>2024-09-30T11:25:36.000Z</time>
      </trkpt>
      <trkpt lat="42.87534" lon="2.06391">
        <ele>920.40002441406</ele>
        <time>2024-09-30T11:25:40.000Z</time>
      </trkpt>
      <trkpt lat="42.87535" lon="2.06376">
        <ele>920.79998779297</ele>
        <time>2024-09-30T11:25:42.000Z</time>
      </trkpt>
      <trkpt lat="42.87538" lon="2.06359">
        <ele>920.79998779297</ele>
        <time>2024-09-30T11:25:44.000Z</time>
      </trkpt>
      <trkpt lat="42.87546" lon="2.06321">
        <ele>918.40002441406</ele>
        <time>2024-09-30T11:25:49.000Z</time>
      </trkpt>
      <trkpt lat="42.8755" lon="2.06295">
        <ele>916.20001220703</ele>
        <time>2024-09-30T11:25:54.000Z</time>
      </trkpt>
      <trkpt lat="42.87554" lon="2.06268">
        <ele>913</ele>
        <time>2024-09-30T11:26:00.000Z</time>
      </trkpt>
      <trkpt lat="42.87557" lon="2.06245">
        <ele>910.40002441406</ele>
        <time>2024-09-30T11:26:06.000Z</time>
      </trkpt>
      <trkpt lat="42.87557" lon="2.06237">
        <ele>909.40002441406</ele>
        <time>2024-09-30T11:26:10.000Z</time>
      </trkpt>
      <trkpt lat="42.87558" lon="2.06234">
        <ele>908.79998779297</ele>
        <time>2024-09-30T11:26:45.000Z</time>
      </trkpt>
      <trkpt lat="42.87559" lon="2.06227">
        <ele>907.20001220703</ele>
        <time>2024-09-30T11:26:47.000Z</time>
      </trkpt>
      <trkpt lat="42.87564" lon="2.06203">
        <ele>903.79998779297</ele>
        <time>2024-09-30T11:26:52.000Z</time>
      </trkpt>
      <trkpt lat="42.87568" lon="2.06175">
        <ele>901.20001220703</ele>
        <time>2024-09-30T11:26:57.000Z</time>
      </trkpt>
      <trkpt lat="42.87569" lon="2.06159">
        <ele>899.79998779297</ele>
        <time>2024-09-30T11:27:01.000Z</time>
      </trkpt>
      <trkpt lat="42.87571" lon="2.06153">
        <ele>899.40002441406</ele>
        <time>2024-09-30T11:27:03.000Z</time>
      </trkpt>
      <trkpt lat="42.87574" lon="2.06151">
        <ele>898.79998779297</ele>
        <time>2024-09-30T11:27:05.000Z</time>
      </trkpt>
      <trkpt lat="42.87582" lon="2.06157">
        <ele>898.40002441406</ele>
        <time>2024-09-30T11:27:09.000Z</time>
      </trkpt>
      <trkpt lat="42.8759" lon="2.06174">
        <ele>898</ele>
        <time>2024-09-30T11:27:14.000Z</time>
      </trkpt>
      <trkpt lat="42.87601" lon="2.06188">
        <ele>896.79998779297</ele>
        <time>2024-09-30T11:27:20.000Z</time>
      </trkpt>
      <trkpt lat="42.87609" lon="2.06198">
        <ele>895.79998779297</ele>
        <time>2024-09-30T11:27:25.000Z</time>
      </trkpt>
      <trkpt lat="42.8761" lon="2.062">
        <ele>895.59997558594</ele>
        <time>2024-09-30T11:27:26.000Z</time>
      </trkpt>
      <trkpt lat="42.87612" lon="2.06207">
        <ele>895.40002441406</ele>
        <time>2024-09-30T11:27:30.000Z</time>
      </trkpt>
      <trkpt lat="42.87613" lon="2.06214">
        <ele>895.40002441406</ele>
        <time>2024-09-30T11:27:33.000Z</time>
      </trkpt>
      <trkpt lat="42.87615" lon="2.06222">
        <ele>895.40002441406</ele>
        <time>2024-09-30T11:27:36.000Z</time>
      </trkpt>
      <trkpt lat="42.8762" lon="2.06239">
        <ele>895.40002441406</ele>
        <time>2024-09-30T11:27:42.000Z</time>
      </trkpt>
      <trkpt lat="42.87627" lon="2.06251">
        <ele>895.79998779297</ele>
        <time>2024-09-30T11:27:47.000Z</time>
      </trkpt>
      <trkpt lat="42.87627" lon="2.06263">
        <ele>896.59997558594</ele>
        <time>2024-09-30T11:27:51.000Z</time>
      </trkpt>
      <trkpt lat="42.87623" lon="2.06276">
        <ele>897.40002441406</ele>
        <time>2024-09-30T11:27:57.000Z</time>
      </trkpt>
      <trkpt lat="42.87623" lon="2.06278">
        <ele>897.40002441406</ele>
        <time>2024-09-30T11:27:58.000Z</time>
      </trkpt>
      <trkpt lat="42.87626" lon="2.06289">
        <ele>897.59997558594</ele>
        <time>2024-09-30T11:28:04.000Z</time>
      </trkpt>
      <trkpt lat="42.87625" lon="2.06306">
        <ele>898.40002441406</ele>
        <time>2024-09-30T11:28:11.000Z</time>
      </trkpt>
      <trkpt lat="42.87625" lon="2.06317">
        <ele>898.79998779297</ele>
        <time>2024-09-30T11:28:16.000Z</time>
      </trkpt>
      <trkpt lat="42.87626" lon="2.06318">
        <ele>898.79998779297</ele>
        <time>2024-09-30T11:28:17.000Z</time>
      </trkpt>
      <trkpt lat="42.87629" lon="2.06313">
        <ele>898.79998779297</ele>
        <time>2024-09-30T11:28:20.000Z</time>
      </trkpt>
      <trkpt lat="42.87628" lon="2.06311">
        <ele>898.59997558594</ele>
        <time>2024-09-30T11:28:21.000Z</time>
      </trkpt>
      <trkpt lat="42.87627" lon="2.06288">
        <ele>897.59997558594</ele>
        <time>2024-09-30T11:28:29.000Z</time>
      </trkpt>
      <trkpt lat="42.87626" lon="2.06268">
        <ele>897</ele>
        <time>2024-09-30T11:28:36.000Z</time>
      </trkpt>
      <trkpt lat="42.87627" lon="2.06252">
        <ele>895.79998779297</ele>
        <time>2024-09-30T11:28:42.000Z</time>
      </trkpt>
      <trkpt lat="42.8762" lon="2.06236">
        <ele>895.20001220703</ele>
        <time>2024-09-30T11:28:47.000Z</time>
      </trkpt>
      <trkpt lat="42.87613" lon="2.06216">
        <ele>895.40002441406</ele>
        <time>2024-09-30T11:28:54.000Z</time>
      </trkpt>
      <trkpt lat="42.87612" lon="2.06209">
        <ele>895.40002441406</ele>
        <time>2024-09-30T11:28:59.000Z</time>
      </trkpt>
      <trkpt lat="42.87613" lon="2.06205">
        <ele>895.20001220703</ele>
        <time>2024-09-30T11:29:24.000Z</time>
      </trkpt>
      <trkpt lat="42.87612" lon="2.062">
        <ele>895.40002441406</ele>
        <time>2024-09-30T11:29:26.000Z</time>
      </trkpt>
      <trkpt lat="42.87605" lon="2.06189">
        <ele>896.40002441406</ele>
        <time>2024-09-30T11:29:31.000Z</time>
      </trkpt>
      <trkpt lat="42.8759" lon="2.06173">
        <ele>898.20001220703</ele>
        <time>2024-09-30T11:29:39.000Z</time>
      </trkpt>
      <trkpt lat="42.87581" lon="2.06153">
        <ele>898.20001220703</ele>
        <time>2024-09-30T11:29:46.000Z</time>
      </trkpt>
      <trkpt lat="42.87575" lon="2.06134">
        <ele>896.79998779297</ele>
        <time>2024-09-30T11:29:52.000Z</time>
      </trkpt>
      <trkpt lat="42.87564" lon="2.06117">
        <ele>896.20001220703</ele>
        <time>2024-09-30T11:29:57.000Z</time>
      </trkpt>
      <trkpt lat="42.87553" lon="2.06108">
        <ele>896.20001220703</ele>
        <time>2024-09-30T11:30:00.000Z</time>
      </trkpt>
      <trkpt lat="42.87545" lon="2.06102">
        <ele>896.59997558594</ele>
        <time>2024-09-30T11:30:02.000Z</time>
      </trkpt>
      <trkpt lat="42.87541" lon="2.06099">
        <ele>896.59997558594</ele>
        <time>2024-09-30T11:30:03.000Z</time>
      </trkpt>
      <trkpt lat="42.87537" lon="2.06096">
        <ele>896.59997558594</ele>
        <time>2024-09-30T11:30:04.000Z</time>
      </trkpt>
      <trkpt lat="42.87517" lon="2.06084">
        <ele>896.40002441406</ele>
        <time>2024-09-30T11:30:09.000Z</time>
      </trkpt>
      <trkpt lat="42.8751" lon="2.06079">
        <ele>896</ele>
        <time>2024-09-30T11:30:11.000Z</time>
      </trkpt>
      <trkpt lat="42.87493" lon="2.0607">
        <ele>894.20001220703</ele>
        <time>2024-09-30T11:30:15.000Z</time>
      </trkpt>
      <trkpt lat="42.87484" lon="2.0607">
        <ele>893.79998779297</ele>
        <time>2024-09-30T11:30:17.000Z</time>
      </trkpt>
      <trkpt lat="42.87474" lon="2.06074">
        <ele>893.59997558594</ele>
        <time>2024-09-30T11:30:19.000Z</time>
      </trkpt>
      <trkpt lat="42.87451" lon="2.06094">
        <ele>894.79998779297</ele>
        <time>2024-09-30T11:30:24.000Z</time>
      </trkpt>
      <trkpt lat="42.8744" lon="2.06098">
        <ele>894.79998779297</ele>
        <time>2024-09-30T11:30:26.000Z</time>
      </trkpt>
      <trkpt lat="42.87429" lon="2.061">
        <ele>894.40002441406</ele>
        <time>2024-09-30T11:30:28.000Z</time>
      </trkpt>
      <trkpt lat="42.8739" lon="2.061">
        <ele>895.40002441406</ele>
        <time>2024-09-30T11:30:35.000Z</time>
      </trkpt>
      <trkpt lat="42.87379" lon="2.061">
        <ele>897.20001220703</ele>
        <time>2024-09-30T11:30:37.000Z</time>
      </trkpt>
      <trkpt lat="42.87368" lon="2.06096">
        <ele>898.20001220703</ele>
        <time>2024-09-30T11:30:39.000Z</time>
      </trkpt>
      <trkpt lat="42.8736" lon="2.06084">
        <ele>897.79998779297</ele>
        <time>2024-09-30T11:30:41.000Z</time>
      </trkpt>
      <trkpt lat="42.87358" lon="2.06076">
        <ele>897.20001220703</ele>
        <time>2024-09-30T11:30:42.000Z</time>
      </trkpt>
      <trkpt lat="42.87352" lon="2.0606">
        <ele>895.40002441406</ele>
        <time>2024-09-30T11:30:44.000Z</time>
      </trkpt>
      <trkpt lat="42.87342" lon="2.06038">
        <ele>893.20001220703</ele>
        <time>2024-09-30T11:30:47.000Z</time>
      </trkpt>
      <trkpt lat="42.87332" lon="2.06027">
        <ele>891.59997558594</ele>
        <time>2024-09-30T11:30:49.000Z</time>
      </trkpt>
      <trkpt lat="42.87322" lon="2.0602">
        <ele>890.59997558594</ele>
        <time>2024-09-30T11:30:51.000Z</time>
      </trkpt>
      <trkpt lat="42.8731" lon="2.06017">
        <ele>889.79998779297</ele>
        <time>2024-09-30T11:30:53.000Z</time>
      </trkpt>
      <trkpt lat="42.87297" lon="2.06017">
        <ele>889</ele>
        <time>2024-09-30T11:30:55.000Z</time>
      </trkpt>
      <trkpt lat="42.87261" lon="2.06027">
        <ele>888</ele>
        <time>2024-09-30T11:31:01.000Z</time>
      </trkpt>
      <trkpt lat="42.8722" lon="2.06053">
        <ele>888</ele>
        <time>2024-09-30T11:31:08.000Z</time>
      </trkpt>
      <trkpt lat="42.87195" lon="2.06064">
        <ele>889.59997558594</ele>
        <time>2024-09-30T11:31:12.000Z</time>
      </trkpt>
      <trkpt lat="42.87188" lon="2.06064">
        <ele>889</ele>
        <time>2024-09-30T11:31:13.000Z</time>
      </trkpt>
      <trkpt lat="42.87182" lon="2.06064">
        <ele>888.20001220703</ele>
        <time>2024-09-30T11:31:14.000Z</time>
      </trkpt>
      <trkpt lat="42.87157" lon="2.06057">
        <ele>886.20001220703</ele>
        <time>2024-09-30T11:31:18.000Z</time>
      </trkpt>
      <trkpt lat="42.87151" lon="2.06055">
        <ele>885.79998779297</ele>
        <time>2024-09-30T11:31:19.000Z</time>
      </trkpt>
      <trkpt lat="42.87139" lon="2.06054">
        <ele>884.79998779297</ele>
        <time>2024-09-30T11:31:21.000Z</time>
      </trkpt>
      <trkpt lat="42.87127" lon="2.06055">
        <ele>884.40002441406</ele>
        <time>2024-09-30T11:31:23.000Z</time>
      </trkpt>
      <trkpt lat="42.87095" lon="2.0607">
        <ele>885.79998779297</ele>
        <time>2024-09-30T11:31:29.000Z</time>
      </trkpt>
      <trkpt lat="42.87063" lon="2.06096">
        <ele>887.79998779297</ele>
        <time>2024-09-30T11:31:36.000Z</time>
      </trkpt>
      <trkpt lat="42.87029" lon="2.06131">
        <ele>887.20001220703</ele>
        <time>2024-09-30T11:31:44.000Z</time>
      </trkpt>
      <trkpt lat="42.86997" lon="2.06158">
        <ele>887.40002441406</ele>
        <time>2024-09-30T11:31:51.000Z</time>
      </trkpt>
      <trkpt lat="42.86969" lon="2.06181">
        <ele>885</ele>
        <time>2024-09-30T11:31:58.000Z</time>
      </trkpt>
      <trkpt lat="42.86956" lon="2.06192">
        <ele>883.40002441406</ele>
        <time>2024-09-30T11:32:03.000Z</time>
      </trkpt>
      <trkpt lat="42.86947" lon="2.06199">
        <ele>882.79998779297</ele>
        <time>2024-09-30T11:32:09.000Z</time>
      </trkpt>
      <trkpt lat="42.86934" lon="2.06212">
        <ele>880.79998779297</ele>
        <time>2024-09-30T11:32:17.000Z</time>
      </trkpt>
      <trkpt lat="42.86917" lon="2.06226">
        <ele>881</ele>
        <time>2024-09-30T11:32:24.000Z</time>
      </trkpt>
      <trkpt lat="42.86893" lon="2.06245">
        <ele>883</ele>
        <time>2024-09-30T11:32:31.000Z</time>
      </trkpt>
      <trkpt lat="42.86859" lon="2.06274">
        <ele>881.40002441406</ele>
        <time>2024-09-30T11:32:39.000Z</time>
      </trkpt>
      <trkpt lat="42.8683" lon="2.06309">
        <ele>881.79998779297</ele>
        <time>2024-09-30T11:32:46.000Z</time>
      </trkpt>
      <trkpt lat="42.86806" lon="2.06347">
        <ele>882.79998779297</ele>
        <time>2024-09-30T11:32:52.000Z</time>
      </trkpt>
      <trkpt lat="42.86802" lon="2.06354">
        <ele>882.79998779297</ele>
        <time>2024-09-30T11:32:53.000Z</time>
      </trkpt>
      <trkpt lat="42.86793" lon="2.06374">
        <ele>883.40002441406</ele>
        <time>2024-09-30T11:32:56.000Z</time>
      </trkpt>
      <trkpt lat="42.86787" lon="2.06388">
        <ele>883.59997558594</ele>
        <time>2024-09-30T11:32:58.000Z</time>
      </trkpt>
      <trkpt lat="42.86778" lon="2.06402">
        <ele>883.20001220703</ele>
        <time>2024-09-30T11:33:00.000Z</time>
      </trkpt>
      <trkpt lat="42.86773" lon="2.06407">
        <ele>882.40002441406</ele>
        <time>2024-09-30T11:33:01.000Z</time>
      </trkpt>
      <trkpt lat="42.86755" lon="2.06421">
        <ele>880.20001220703</ele>
        <time>2024-09-30T11:33:04.000Z</time>
      </trkpt>
      <trkpt lat="42.86744" lon="2.06426">
        <ele>879.59997558594</ele>
        <time>2024-09-30T11:33:06.000Z</time>
      </trkpt>
      <trkpt lat="42.86706" lon="2.06447">
        <ele>878</ele>
        <time>2024-09-30T11:33:14.000Z</time>
      </trkpt>
      <trkpt lat="42.86686" lon="2.06458">
        <ele>876.79998779297</ele>
        <time>2024-09-30T11:33:19.000Z</time>
      </trkpt>
      <trkpt lat="42.86682" lon="2.06459">
        <ele>876.59997558594</ele>
        <time>2024-09-30T11:33:20.000Z</time>
      </trkpt>
      <trkpt lat="42.86675" lon="2.06463">
        <ele>876.59997558594</ele>
        <time>2024-09-30T11:33:22.000Z</time>
      </trkpt>
      <trkpt lat="42.86662" lon="2.06473">
        <ele>878.20001220703</ele>
        <time>2024-09-30T11:33:25.000Z</time>
      </trkpt>
      <trkpt lat="42.86638" lon="2.06498">
        <ele>879.79998779297</ele>
        <time>2024-09-30T11:33:31.000Z</time>
      </trkpt>
      <trkpt lat="42.8661" lon="2.0653">
        <ele>881.20001220703</ele>
        <time>2024-09-30T11:33:38.000Z</time>
      </trkpt>
      <trkpt lat="42.86595" lon="2.06551">
        <ele>881</ele>
        <time>2024-09-30T11:33:42.000Z</time>
      </trkpt>
      <trkpt lat="42.86586" lon="2.0656">
        <ele>881</ele>
        <time>2024-09-30T11:33:44.000Z</time>
      </trkpt>
      <trkpt lat="42.86545" lon="2.06594">
        <ele>880</ele>
        <time>2024-09-30T11:33:53.000Z</time>
      </trkpt>
      <trkpt lat="42.86513" lon="2.06619">
        <ele>879.79998779297</ele>
        <time>2024-09-30T11:34:00.000Z</time>
      </trkpt>
      <trkpt lat="42.86509" lon="2.06622">
        <ele>879.59997558594</ele>
        <time>2024-09-30T11:34:01.000Z</time>
      </trkpt>
      <trkpt lat="42.86497" lon="2.0663">
        <ele>880</ele>
        <time>2024-09-30T11:34:04.000Z</time>
      </trkpt>
      <trkpt lat="42.8648" lon="2.06645">
        <ele>881.59997558594</ele>
        <time>2024-09-30T11:34:09.000Z</time>
      </trkpt>
      <trkpt lat="42.86466" lon="2.06647">
        <ele>881.59997558594</ele>
        <time>2024-09-30T11:34:13.000Z</time>
      </trkpt>
      <trkpt lat="42.86458" lon="2.06633">
        <ele>879.79998779297</ele>
        <time>2024-09-30T11:34:17.000Z</time>
      </trkpt>
      <trkpt lat="42.86452" lon="2.06612">
        <ele>877.79998779297</ele>
        <time>2024-09-30T11:34:23.000Z</time>
      </trkpt>
      <trkpt lat="42.86447" lon="2.06596">
        <ele>876.40002441406</ele>
        <time>2024-09-30T11:34:28.000Z</time>
      </trkpt>
      <trkpt lat="42.86446" lon="2.06591">
        <ele>876.20001220703</ele>
        <time>2024-09-30T11:34:31.000Z</time>
      </trkpt>
      <trkpt lat="42.86447" lon="2.06595">
        <ele>876.20001220703</ele>
        <time>2024-09-30T11:35:38.000Z</time>
      </trkpt>
      <trkpt lat="42.86452" lon="2.06611">
        <ele>877.59997558594</ele>
        <time>2024-09-30T11:35:44.000Z</time>
      </trkpt>
      <trkpt lat="42.86458" lon="2.0663">
        <ele>879.40002441406</ele>
        <time>2024-09-30T11:35:51.000Z</time>
      </trkpt>
      <trkpt lat="42.86462" lon="2.06645">
        <ele>881.20001220703</ele>
        <time>2024-09-30T11:35:56.000Z</time>
      </trkpt>
      <trkpt lat="42.86456" lon="2.06661">
        <ele>883.20001220703</ele>
        <time>2024-09-30T11:36:00.000Z</time>
      </trkpt>
      <trkpt lat="42.86443" lon="2.06671">
        <ele>884.40002441406</ele>
        <time>2024-09-30T11:36:04.000Z</time>
      </trkpt>
      <trkpt lat="42.86427" lon="2.06679">
        <ele>885.40002441406</ele>
        <time>2024-09-30T11:36:08.000Z</time>
      </trkpt>
      <trkpt lat="42.86413" lon="2.06684">
        <ele>885.40002441406</ele>
        <time>2024-09-30T11:36:11.000Z</time>
      </trkpt>
      <trkpt lat="42.86384" lon="2.06695">
        <ele>886.20001220703</ele>
        <time>2024-09-30T11:36:17.000Z</time>
      </trkpt>
      <trkpt lat="42.86351" lon="2.06718">
        <ele>886.59997558594</ele>
        <time>2024-09-30T11:36:24.000Z</time>
      </trkpt>
      <trkpt lat="42.86312" lon="2.06748">
        <ele>886.40002441406</ele>
        <time>2024-09-30T11:36:33.000Z</time>
      </trkpt>
      <trkpt lat="42.86287" lon="2.06771">
        <ele>888.40002441406</ele>
        <time>2024-09-30T11:36:39.000Z</time>
      </trkpt>
      <trkpt lat="42.86256" lon="2.06805">
        <ele>891</ele>
        <time>2024-09-30T11:36:47.000Z</time>
      </trkpt>
      <trkpt lat="42.86232" lon="2.06832">
        <ele>889.79998779297</ele>
        <time>2024-09-30T11:36:53.000Z</time>
      </trkpt>
      <trkpt lat="42.86208" lon="2.06871">
        <ele>885.40002441406</ele>
        <time>2024-09-30T11:37:00.000Z</time>
      </trkpt>
      <trkpt lat="42.86194" lon="2.06913">
        <ele>883.79998779297</ele>
        <time>2024-09-30T11:37:06.000Z</time>
      </trkpt>
      <trkpt lat="42.86191" lon="2.06927">
        <ele>883.79998779297</ele>
        <time>2024-09-30T11:37:08.000Z</time>
      </trkpt>
      <trkpt lat="42.8619" lon="2.06942">
        <ele>884</ele>
        <time>2024-09-30T11:37:10.000Z</time>
      </trkpt>
      <trkpt lat="42.8619" lon="2.06949">
        <ele>884.40002441406</ele>
        <time>2024-09-30T11:37:11.000Z</time>
      </trkpt>
      <trkpt lat="42.86194" lon="2.06979">
        <ele>889.20001220703</ele>
        <time>2024-09-30T11:37:15.000Z</time>
      </trkpt>
      <trkpt lat="42.86195" lon="2.06987">
        <ele>889.59997558594</ele>
        <time>2024-09-30T11:37:16.000Z</time>
      </trkpt>
      <trkpt lat="42.86194" lon="2.06995">
        <ele>890</ele>
        <time>2024-09-30T11:37:17.000Z</time>
      </trkpt>
      <trkpt lat="42.86192" lon="2.07011">
        <ele>890</ele>
        <time>2024-09-30T11:37:19.000Z</time>
      </trkpt>
      <trkpt lat="42.86188" lon="2.07026">
        <ele>889.79998779297</ele>
        <time>2024-09-30T11:37:21.000Z</time>
      </trkpt>
      <trkpt lat="42.86175" lon="2.07077">
        <ele>889.40002441406</ele>
        <time>2024-09-30T11:37:28.000Z</time>
      </trkpt>
      <trkpt lat="42.86164" lon="2.07122">
        <ele>890.79998779297</ele>
        <time>2024-09-30T11:37:34.000Z</time>
      </trkpt>
      <trkpt lat="42.8616" lon="2.07145">
        <ele>890.40002441406</ele>
        <time>2024-09-30T11:37:37.000Z</time>
      </trkpt>
      <trkpt lat="42.86159" lon="2.07169">
        <ele>892</ele>
        <time>2024-09-30T11:37:40.000Z</time>
      </trkpt>
      <trkpt lat="42.86157" lon="2.07199">
        <ele>894.20001220703</ele>
        <time>2024-09-30T11:37:44.000Z</time>
      </trkpt>
      <trkpt lat="42.86154" lon="2.07212">
        <ele>895</ele>
        <time>2024-09-30T11:37:46.000Z</time>
      </trkpt>
      <trkpt lat="42.86143" lon="2.07237">
        <ele>894.20001220703</ele>
        <time>2024-09-30T11:37:50.000Z</time>
      </trkpt>
      <trkpt lat="42.86139" lon="2.07243">
        <ele>893.79998779297</ele>
        <time>2024-09-30T11:37:51.000Z</time>
      </trkpt>
      <trkpt lat="42.86128" lon="2.07269">
        <ele>893.20001220703</ele>
        <time>2024-09-30T11:37:55.000Z</time>
      </trkpt>
      <trkpt lat="42.86123" lon="2.07283">
        <ele>893.40002441406</ele>
        <time>2024-09-30T11:37:57.000Z</time>
      </trkpt>
      <trkpt lat="42.86118" lon="2.07296">
        <ele>893.79998779297</ele>
        <time>2024-09-30T11:37:59.000Z</time>
      </trkpt>
      <trkpt lat="42.86111" lon="2.07308">
        <ele>895</ele>
        <time>2024-09-30T11:38:01.000Z</time>
      </trkpt>
      <trkpt lat="42.86103" lon="2.07319">
        <ele>895</ele>
        <time>2024-09-30T11:38:03.000Z</time>
      </trkpt>
      <trkpt lat="42.8609" lon="2.07331">
        <ele>894.20001220703</ele>
        <time>2024-09-30T11:38:06.000Z</time>
      </trkpt>
      <trkpt lat="42.86057" lon="2.07355">
        <ele>895.40002441406</ele>
        <time>2024-09-30T11:38:13.000Z</time>
      </trkpt>
      <trkpt lat="42.86043" lon="2.07362">
        <ele>897.20001220703</ele>
        <time>2024-09-30T11:38:16.000Z</time>
      </trkpt>
      <trkpt lat="42.86033" lon="2.07363">
        <ele>898</ele>
        <time>2024-09-30T11:38:18.000Z</time>
      </trkpt>
      <trkpt lat="42.85996" lon="2.07357">
        <ele>899.20001220703</ele>
        <time>2024-09-30T11:38:25.000Z</time>
      </trkpt>
      <trkpt lat="42.85981" lon="2.0735">
        <ele>899</ele>
        <time>2024-09-30T11:38:28.000Z</time>
      </trkpt>
      <trkpt lat="42.85972" lon="2.07344">
        <ele>898.20001220703</ele>
        <time>2024-09-30T11:38:30.000Z</time>
      </trkpt>
      <trkpt lat="42.85968" lon="2.0734">
        <ele>897.79998779297</ele>
        <time>2024-09-30T11:38:31.000Z</time>
      </trkpt>
      <trkpt lat="42.85959" lon="2.07333">
        <ele>896.79998779297</ele>
        <time>2024-09-30T11:38:33.000Z</time>
      </trkpt>
      <trkpt lat="42.85954" lon="2.07331">
        <ele>896.40002441406</ele>
        <time>2024-09-30T11:38:34.000Z</time>
      </trkpt>
      <trkpt lat="42.85949" lon="2.0733">
        <ele>895.79998779297</ele>
        <time>2024-09-30T11:38:35.000Z</time>
      </trkpt>
      <trkpt lat="42.85938" lon="2.07331">
        <ele>895.20001220703</ele>
        <time>2024-09-30T11:38:37.000Z</time>
      </trkpt>
      <trkpt lat="42.85933" lon="2.07333">
        <ele>895.20001220703</ele>
        <time>2024-09-30T11:38:38.000Z</time>
      </trkpt>
      <trkpt lat="42.85898" lon="2.0734">
        <ele>896.20001220703</ele>
        <time>2024-09-30T11:38:44.000Z</time>
      </trkpt>
      <trkpt lat="42.85855" lon="2.07337">
        <ele>893</ele>
        <time>2024-09-30T11:38:51.000Z</time>
      </trkpt>
      <trkpt lat="42.85817" lon="2.07343">
        <ele>889.40002441406</ele>
        <time>2024-09-30T11:38:57.000Z</time>
      </trkpt>
      <trkpt lat="42.85775" lon="2.07355">
        <ele>890</ele>
        <time>2024-09-30T11:39:03.000Z</time>
      </trkpt>
      <trkpt lat="42.85747" lon="2.07368">
        <ele>886.79998779297</ele>
        <time>2024-09-30T11:39:07.000Z</time>
      </trkpt>
      <trkpt lat="42.85741" lon="2.07374">
        <ele>886</ele>
        <time>2024-09-30T11:39:08.000Z</time>
      </trkpt>
      <trkpt lat="42.85718" lon="2.074">
        <ele>885</ele>
        <time>2024-09-30T11:39:12.000Z</time>
      </trkpt>
      <trkpt lat="42.85713" lon="2.07406">
        <ele>884.79998779297</ele>
        <time>2024-09-30T11:39:13.000Z</time>
      </trkpt>
      <trkpt lat="42.85695" lon="2.0744">
        <ele>886</ele>
        <time>2024-09-30T11:39:18.000Z</time>
      </trkpt>
      <trkpt lat="42.85691" lon="2.07454">
        <ele>887.40002441406</ele>
        <time>2024-09-30T11:39:20.000Z</time>
      </trkpt>
      <trkpt lat="42.85689" lon="2.07468">
        <ele>889.59997558594</ele>
        <time>2024-09-30T11:39:22.000Z</time>
      </trkpt>
      <trkpt lat="42.85689" lon="2.07475">
        <ele>890.79998779297</ele>
        <time>2024-09-30T11:39:23.000Z</time>
      </trkpt>
      <trkpt lat="42.85683" lon="2.07496">
        <ele>893.40002441406</ele>
        <time>2024-09-30T11:39:26.000Z</time>
      </trkpt>
      <trkpt lat="42.85681" lon="2.07503">
        <ele>894</ele>
        <time>2024-09-30T11:39:27.000Z</time>
      </trkpt>
      <trkpt lat="42.85667" lon="2.07542">
        <ele>900.20001220703</ele>
        <time>2024-09-30T11:39:33.000Z</time>
      </trkpt>
      <trkpt lat="42.85663" lon="2.07547">
        <ele>900.79998779297</ele>
        <time>2024-09-30T11:39:34.000Z</time>
      </trkpt>
      <trkpt lat="42.85659" lon="2.07552">
        <ele>901</ele>
        <time>2024-09-30T11:39:35.000Z</time>
      </trkpt>
      <trkpt lat="42.85649" lon="2.07556">
        <ele>900</ele>
        <time>2024-09-30T11:39:37.000Z</time>
      </trkpt>
      <trkpt lat="42.85624" lon="2.07563">
        <ele>899</ele>
        <time>2024-09-30T11:39:42.000Z</time>
      </trkpt>
      <trkpt lat="42.85619" lon="2.07566">
        <ele>899.40002441406</ele>
        <time>2024-09-30T11:39:43.000Z</time>
      </trkpt>
      <trkpt lat="42.85615" lon="2.0757">
        <ele>899.59997558594</ele>
        <time>2024-09-30T11:39:44.000Z</time>
      </trkpt>
      <trkpt lat="42.85595" lon="2.07588">
        <ele>901</ele>
        <time>2024-09-30T11:39:49.000Z</time>
      </trkpt>
      <trkpt lat="42.85569" lon="2.07598">
        <ele>899.40002441406</ele>
        <time>2024-09-30T11:39:55.000Z</time>
      </trkpt>
      <trkpt lat="42.85531" lon="2.07611">
        <ele>903.59997558594</ele>
        <time>2024-09-30T11:40:03.000Z</time>
      </trkpt>
      <trkpt lat="42.85526" lon="2.07612">
        <ele>904.40002441406</ele>
        <time>2024-09-30T11:40:04.000Z</time>
      </trkpt>
      <trkpt lat="42.8552" lon="2.07612">
        <ele>905</ele>
        <time>2024-09-30T11:40:05.000Z</time>
      </trkpt>
      <trkpt lat="42.85505" lon="2.07607">
        <ele>906</ele>
        <time>2024-09-30T11:40:08.000Z</time>
      </trkpt>
      <trkpt lat="42.85487" lon="2.07596">
        <ele>907.59997558594</ele>
        <time>2024-09-30T11:40:12.000Z</time>
      </trkpt>
      <trkpt lat="42.85483" lon="2.07594">
        <ele>908.20001220703</ele>
        <time>2024-09-30T11:40:13.000Z</time>
      </trkpt>
      <trkpt lat="42.85479" lon="2.07593">
        <ele>907.79998779297</ele>
        <time>2024-09-30T11:40:14.000Z</time>
      </trkpt>
      <trkpt lat="42.85456" lon="2.07588">
        <ele>907.59997558594</ele>
        <time>2024-09-30T11:40:19.000Z</time>
      </trkpt>
      <trkpt lat="42.85431" lon="2.07587">
        <ele>907</ele>
        <time>2024-09-30T11:40:24.000Z</time>
      </trkpt>
      <trkpt lat="42.85427" lon="2.07589">
        <ele>907.20001220703</ele>
        <time>2024-09-30T11:40:25.000Z</time>
      </trkpt>
      <trkpt lat="42.85405" lon="2.07604">
        <ele>908.40002441406</ele>
        <time>2024-09-30T11:40:30.000Z</time>
      </trkpt>
      <trkpt lat="42.85385" lon="2.07617">
        <ele>909</ele>
        <time>2024-09-30T11:40:35.000Z</time>
      </trkpt>
      <trkpt lat="42.85364" lon="2.07637">
        <ele>912</ele>
        <time>2024-09-30T11:40:41.000Z</time>
      </trkpt>
      <trkpt lat="42.85358" lon="2.07645">
        <ele>914.20001220703</ele>
        <time>2024-09-30T11:40:44.000Z</time>
      </trkpt>
      <trkpt lat="42.85356" lon="2.07648">
        <ele>914.40002441406</ele>
        <time>2024-09-30T11:40:45.000Z</time>
      </trkpt>
      <trkpt lat="42.85346" lon="2.07671">
        <ele>917</ele>
        <time>2024-09-30T11:40:52.000Z</time>
      </trkpt>
      <trkpt lat="42.85335" lon="2.07687">
        <ele>919.59997558594</ele>
        <time>2024-09-30T11:40:57.000Z</time>
      </trkpt>
      <trkpt lat="42.85317" lon="2.07696">
        <ele>919.59997558594</ele>
        <time>2024-09-30T11:41:03.000Z</time>
      </trkpt>
      <trkpt lat="42.85306" lon="2.07694">
        <ele>920.59997558594</ele>
        <time>2024-09-30T11:41:08.000Z</time>
      </trkpt>
      <trkpt lat="42.85298" lon="2.07681">
        <ele>920.59997558594</ele>
        <time>2024-09-30T11:41:12.000Z</time>
      </trkpt>
      <trkpt lat="42.85289" lon="2.07655">
        <ele>921.79998779297</ele>
        <time>2024-09-30T11:41:18.000Z</time>
      </trkpt>
      <trkpt lat="42.85276" lon="2.07615">
        <ele>922.20001220703</ele>
        <time>2024-09-30T11:41:26.000Z</time>
      </trkpt>
      <trkpt lat="42.8526" lon="2.07573">
        <ele>925.79998779297</ele>
        <time>2024-09-30T11:41:35.000Z</time>
      </trkpt>
      <trkpt lat="42.85247" lon="2.07541">
        <ele>929.59997558594</ele>
        <time>2024-09-30T11:41:42.000Z</time>
      </trkpt>
      <trkpt lat="42.85237" lon="2.07513">
        <ele>931.20001220703</ele>
        <time>2024-09-30T11:41:48.000Z</time>
      </trkpt>
      <trkpt lat="42.8523" lon="2.07487">
        <ele>930</ele>
        <time>2024-09-30T11:41:53.000Z</time>
      </trkpt>
      <trkpt lat="42.85219" lon="2.07467">
        <ele>928.20001220703</ele>
        <time>2024-09-30T11:41:58.000Z</time>
      </trkpt>
      <trkpt lat="42.852" lon="2.07457">
        <ele>928.20001220703</ele>
        <time>2024-09-30T11:42:04.000Z</time>
      </trkpt>
      <trkpt lat="42.85184" lon="2.07448">
        <ele>929.40002441406</ele>
        <time>2024-09-30T11:42:09.000Z</time>
      </trkpt>
      <trkpt lat="42.85171" lon="2.07436">
        <ele>930</ele>
        <time>2024-09-30T11:42:14.000Z</time>
      </trkpt>
      <trkpt lat="42.85158" lon="2.07421">
        <ele>930.79998779297</ele>
        <time>2024-09-30T11:42:19.000Z</time>
      </trkpt>
      <trkpt lat="42.8514" lon="2.07399">
        <ele>931</ele>
        <time>2024-09-30T11:42:26.000Z</time>
      </trkpt>
      <trkpt lat="42.85123" lon="2.07383">
        <ele>930.40002441406</ele>
        <time>2024-09-30T11:42:33.000Z</time>
      </trkpt>
      <trkpt lat="42.85108" lon="2.07382">
        <ele>930</ele>
        <time>2024-09-30T11:42:38.000Z</time>
      </trkpt>
      <trkpt lat="42.85085" lon="2.07385">
        <ele>929</ele>
        <time>2024-09-30T11:42:44.000Z</time>
      </trkpt>
      <trkpt lat="42.85069" lon="2.07387">
        <ele>927.40002441406</ele>
        <time>2024-09-30T11:42:48.000Z</time>
      </trkpt>
      <trkpt lat="42.85061" lon="2.07389">
        <ele>927</ele>
        <time>2024-09-30T11:42:52.000Z</time>
      </trkpt>
      <trkpt lat="42.85052" lon="2.07391">
        <ele>926.59997558594</ele>
        <time>2024-09-30T11:42:57.000Z</time>
      </trkpt>
      <trkpt lat="42.8505" lon="2.07394">
        <ele>926.59997558594</ele>
        <time>2024-09-30T11:42:59.000Z</time>
      </trkpt>
      <trkpt lat="42.8505" lon="2.07396">
        <ele>926.79998779297</ele>
        <time>2024-09-30T11:43:00.000Z</time>
      </trkpt>
      <trkpt lat="42.85051" lon="2.07407">
        <ele>927.59997558594</ele>
        <time>2024-09-30T11:43:05.000Z</time>
      </trkpt>
      <trkpt lat="42.85047" lon="2.07403">
        <ele>927</ele>
        <time>2024-09-30T11:45:36.000Z</time>
      </trkpt>
      <trkpt lat="42.85046" lon="2.07408">
        <ele>927.20001220703</ele>
        <time>2024-09-30T11:45:38.000Z</time>
      </trkpt>
      <trkpt lat="42.85046" lon="2.07424">
        <ele>929</ele>
        <time>2024-09-30T11:45:45.000Z</time>
      </trkpt>
      <trkpt lat="42.85045" lon="2.07441">
        <ele>930.40002441406</ele>
        <time>2024-09-30T11:45:52.000Z</time>
      </trkpt>
      <trkpt lat="42.8504" lon="2.07467">
        <ele>932</ele>
        <time>2024-09-30T11:46:00.000Z</time>
      </trkpt>
      <trkpt lat="42.85035" lon="2.07493">
        <ele>933.20001220703</ele>
        <time>2024-09-30T11:46:08.000Z</time>
      </trkpt>
      <trkpt lat="42.8503" lon="2.07515">
        <ele>934.79998779297</ele>
        <time>2024-09-30T11:46:16.000Z</time>
      </trkpt>
      <trkpt lat="42.85027" lon="2.07527">
        <ele>935.59997558594</ele>
        <time>2024-09-30T11:46:22.000Z</time>
      </trkpt>
      <trkpt lat="42.85025" lon="2.07529">
        <ele>935.59997558594</ele>
        <time>2024-09-30T11:46:24.000Z</time>
      </trkpt>
      <trkpt lat="42.85022" lon="2.0754">
        <ele>936.40002441406</ele>
        <time>2024-09-30T11:54:57.000Z</time>
      </trkpt>
      <trkpt lat="42.85021" lon="2.07542">
        <ele>936.40002441406</ele>
        <time>2024-09-30T11:54:58.000Z</time>
      </trkpt>
      <trkpt lat="42.85019" lon="2.07544">
        <ele>936.40002441406</ele>
        <time>2024-09-30T11:54:59.000Z</time>
      </trkpt>
      <trkpt lat="42.85011" lon="2.07561">
        <ele>937</ele>
        <time>2024-09-30T11:55:05.000Z</time>
      </trkpt>
      <trkpt lat="42.85005" lon="2.07588">
        <ele>938.40002441406</ele>
        <time>2024-09-30T11:55:12.000Z</time>
      </trkpt>
      <trkpt lat="42.85004" lon="2.07593">
        <ele>938.79998779297</ele>
        <time>2024-09-30T11:55:14.000Z</time>
      </trkpt>
      <trkpt lat="42.85" lon="2.07603">
        <ele>939.20001220703</ele>
        <time>2024-09-30T11:55:17.000Z</time>
      </trkpt>
      <trkpt lat="42.84991" lon="2.07641">
        <ele>940.20001220703</ele>
        <time>2024-09-30T11:55:26.000Z</time>
      </trkpt>
      <trkpt lat="42.84984" lon="2.07664">
        <ele>939.59997558594</ele>
        <time>2024-09-30T11:55:32.000Z</time>
      </trkpt>
      <trkpt lat="42.84981" lon="2.07684">
        <ele>940</ele>
        <time>2024-09-30T11:55:38.000Z</time>
      </trkpt>
      <trkpt lat="42.84986" lon="2.07705">
        <ele>941.40002441406</ele>
        <time>2024-09-30T11:55:44.000Z</time>
      </trkpt>
      <trkpt lat="42.8499" lon="2.0772">
        <ele>943</ele>
        <time>2024-09-30T11:55:50.000Z</time>
      </trkpt>
      <trkpt lat="42.84991" lon="2.07722">
        <ele>943.20001220703</ele>
        <time>2024-09-30T11:55:51.000Z</time>
      </trkpt>
      <trkpt lat="42.84993" lon="2.07719">
        <ele>943.59997558594</ele>
        <time>2024-09-30T11:55:53.000Z</time>
      </trkpt>
      <trkpt lat="42.84993" lon="2.07716">
        <ele>943.40002441406</ele>
        <time>2024-09-30T11:55:54.000Z</time>
      </trkpt>
      <trkpt lat="42.84994" lon="2.07704">
        <ele>943</ele>
        <time>2024-09-30T11:55:58.000Z</time>
      </trkpt>
      <trkpt lat="42.84996" lon="2.07693">
        <ele>943</ele>
        <time>2024-09-30T11:56:04.000Z</time>
      </trkpt>
      <trkpt lat="42.85003" lon="2.0769">
        <ele>944</ele>
        <time>2024-09-30T11:56:58.000Z</time>
      </trkpt>
      <trkpt lat="42.85006" lon="2.07686">
        <ele>944.40002441406</ele>
        <time>2024-09-30T11:57:01.000Z</time>
      </trkpt>
      <trkpt lat="42.85013" lon="2.0768">
        <ele>945.79998779297</ele>
        <time>2024-09-30T11:57:07.000Z</time>
      </trkpt>
      <trkpt lat="42.85014" lon="2.07679">
        <ele>946</ele>
        <time>2024-09-30T11:57:08.000Z</time>
      </trkpt>
      <trkpt lat="42.85011" lon="2.07674">
        <ele>944.79998779297</ele>
        <time>2024-09-30T11:57:11.000Z</time>
      </trkpt>
      <trkpt lat="42.8501" lon="2.07675">
        <ele>944.40002441406</ele>
        <time>2024-09-30T11:57:12.000Z</time>
      </trkpt>
      <trkpt lat="42.85008" lon="2.07678">
        <ele>944.40002441406</ele>
        <time>2024-09-30T11:57:13.000Z</time>
      </trkpt>
      <trkpt lat="42.85006" lon="2.07683">
        <ele>944.40002441406</ele>
        <time>2024-09-30T11:57:15.000Z</time>
      </trkpt>
      <trkpt lat="42.84999" lon="2.07695">
        <ele>943.59997558594</ele>
        <time>2024-09-30T11:57:21.000Z</time>
      </trkpt>
      <trkpt lat="42.84994" lon="2.07698">
        <ele>942.79998779297</ele>
        <time>2024-09-30T11:57:25.000Z</time>
      </trkpt>
      <trkpt lat="42.84994" lon="2.07702">
        <ele>943</ele>
        <time>2024-09-30T11:57:27.000Z</time>
      </trkpt>
      <trkpt lat="42.84994" lon="2.07705">
        <ele>943</ele>
        <time>2024-09-30T11:57:28.000Z</time>
      </trkpt>
      <trkpt lat="42.84992" lon="2.07719">
        <ele>943.40002441406</ele>
        <time>2024-09-30T11:57:33.000Z</time>
      </trkpt>
      <trkpt lat="42.8499" lon="2.07737">
        <ele>943</ele>
        <time>2024-09-30T11:57:38.000Z</time>
      </trkpt>
      <trkpt lat="42.84992" lon="2.07752">
        <ele>943.79998779297</ele>
        <time>2024-09-30T11:57:44.000Z</time>
      </trkpt>
      <trkpt lat="42.8499" lon="2.0777">
        <ele>943.20001220703</ele>
        <time>2024-09-30T11:57:50.000Z</time>
      </trkpt>
      <trkpt lat="42.84985" lon="2.0779">
        <ele>940.20001220703</ele>
        <time>2024-09-30T11:57:55.000Z</time>
      </trkpt>
      <trkpt lat="42.84982" lon="2.07805">
        <ele>938.20001220703</ele>
        <time>2024-09-30T11:57:58.000Z</time>
      </trkpt>
      <trkpt lat="42.8498" lon="2.07817">
        <ele>937</ele>
        <time>2024-09-30T11:58:00.000Z</time>
      </trkpt>
      <trkpt lat="42.84973" lon="2.07852">
        <ele>933.40002441406</ele>
        <time>2024-09-30T11:58:05.000Z</time>
      </trkpt>
      <trkpt lat="42.84971" lon="2.07859">
        <ele>933.20001220703</ele>
        <time>2024-09-30T11:58:06.000Z</time>
      </trkpt>
      <trkpt lat="42.84964" lon="2.07879">
        <ele>932.20001220703</ele>
        <time>2024-09-30T11:58:09.000Z</time>
      </trkpt>
      <trkpt lat="42.84962" lon="2.0789">
        <ele>933</ele>
        <time>2024-09-30T11:58:11.000Z</time>
      </trkpt>
      <trkpt lat="42.84954" lon="2.07921">
        <ele>934.59997558594</ele>
        <time>2024-09-30T11:58:18.000Z</time>
      </trkpt>
      <trkpt lat="42.84939" lon="2.07958">
        <ele>935.20001220703</ele>
        <time>2024-09-30T11:58:26.000Z</time>
      </trkpt>
      <trkpt lat="42.84926" lon="2.07988">
        <ele>933</ele>
        <time>2024-09-30T11:58:32.000Z</time>
      </trkpt>
      <trkpt lat="42.84925" lon="2.07993">
        <ele>932.79998779297</ele>
        <time>2024-09-30T11:58:33.000Z</time>
      </trkpt>
      <trkpt lat="42.84911" lon="2.08038">
        <ele>933.59997558594</ele>
        <time>2024-09-30T11:58:42.000Z</time>
      </trkpt>
      <trkpt lat="42.84899" lon="2.08081">
        <ele>931.79998779297</ele>
        <time>2024-09-30T11:58:49.000Z</time>
      </trkpt>
      <trkpt lat="42.84888" lon="2.08134">
        <ele>930.20001220703</ele>
        <time>2024-09-30T11:58:56.000Z</time>
      </trkpt>
      <trkpt lat="42.84884" lon="2.0817">
        <ele>931</ele>
        <time>2024-09-30T11:59:01.000Z</time>
      </trkpt>
      <trkpt lat="42.84884" lon="2.08189">
        <ele>931.79998779297</ele>
        <time>2024-09-30T11:59:06.000Z</time>
      </trkpt>
      <trkpt lat="42.84883" lon="2.08207">
        <ele>931</ele>
        <time>2024-09-30T11:59:12.000Z</time>
      </trkpt>
      <trkpt lat="42.84881" lon="2.08228">
        <ele>929.59997558594</ele>
        <time>2024-09-30T11:59:18.000Z</time>
      </trkpt>
      <trkpt lat="42.84872" lon="2.08257">
        <ele>926.59997558594</ele>
        <time>2024-09-30T11:59:25.000Z</time>
      </trkpt>
      <trkpt lat="42.84859" lon="2.08291">
        <ele>924.40002441406</ele>
        <time>2024-09-30T11:59:32.000Z</time>
      </trkpt>
      <trkpt lat="42.84847" lon="2.08321">
        <ele>921.20001220703</ele>
        <time>2024-09-30T11:59:38.000Z</time>
      </trkpt>
      <trkpt lat="42.8484" lon="2.08348">
        <ele>918.40002441406</ele>
        <time>2024-09-30T11:59:43.000Z</time>
      </trkpt>
      <trkpt lat="42.84835" lon="2.08376">
        <ele>918</ele>
        <time>2024-09-30T11:59:49.000Z</time>
      </trkpt>
      <trkpt lat="42.84832" lon="2.0839">
        <ele>917.40002441406</ele>
        <time>2024-09-30T11:59:53.000Z</time>
      </trkpt>
      <trkpt lat="42.84829" lon="2.0841">
        <ele>915.59997558594</ele>
        <time>2024-09-30T11:59:57.000Z</time>
      </trkpt>
      <trkpt lat="42.84823" lon="2.08441">
        <ele>912.59997558594</ele>
        <time>2024-09-30T12:00:03.000Z</time>
      </trkpt>
      <trkpt lat="42.84817" lon="2.08467">
        <ele>911.59997558594</ele>
        <time>2024-09-30T12:00:08.000Z</time>
      </trkpt>
      <trkpt lat="42.84812" lon="2.08506">
        <ele>911.59997558594</ele>
        <time>2024-09-30T12:00:14.000Z</time>
      </trkpt>
      <trkpt lat="42.84802" lon="2.08551">
        <ele>910.40002441406</ele>
        <time>2024-09-30T12:00:21.000Z</time>
      </trkpt>
      <trkpt lat="42.84795" lon="2.08587">
        <ele>908.59997558594</ele>
        <time>2024-09-30T12:00:26.000Z</time>
      </trkpt>
      <trkpt lat="42.84785" lon="2.0862">
        <ele>908</ele>
        <time>2024-09-30T12:00:31.000Z</time>
      </trkpt>
      <trkpt lat="42.84783" lon="2.08626">
        <ele>907.79998779297</ele>
        <time>2024-09-30T12:00:32.000Z</time>
      </trkpt>
      <trkpt lat="42.8478" lon="2.08631">
        <ele>907.59997558594</ele>
        <time>2024-09-30T12:00:33.000Z</time>
      </trkpt>
      <trkpt lat="42.84775" lon="2.08643">
        <ele>907.59997558594</ele>
        <time>2024-09-30T12:00:35.000Z</time>
      </trkpt>
      <trkpt lat="42.84771" lon="2.08655">
        <ele>907.20001220703</ele>
        <time>2024-09-30T12:00:37.000Z</time>
      </trkpt>
      <trkpt lat="42.84757" lon="2.0869">
        <ele>906.40002441406</ele>
        <time>2024-09-30T12:00:43.000Z</time>
      </trkpt>
      <trkpt lat="42.84746" lon="2.08706">
        <ele>905.79998779297</ele>
        <time>2024-09-30T12:00:47.000Z</time>
      </trkpt>
      <trkpt lat="42.84742" lon="2.08712">
        <ele>905.20001220703</ele>
        <time>2024-09-30T12:00:48.000Z</time>
      </trkpt>
      <trkpt lat="42.84736" lon="2.08723">
        <ele>904.79998779297</ele>
        <time>2024-09-30T12:00:50.000Z</time>
      </trkpt>
      <trkpt lat="42.84734" lon="2.08729">
        <ele>904.59997558594</ele>
        <time>2024-09-30T12:00:51.000Z</time>
      </trkpt>
      <trkpt lat="42.84732" lon="2.08736">
        <ele>904.79998779297</ele>
        <time>2024-09-30T12:00:52.000Z</time>
      </trkpt>
      <trkpt lat="42.84724" lon="2.08763">
        <ele>906</ele>
        <time>2024-09-30T12:00:56.000Z</time>
      </trkpt>
      <trkpt lat="42.84711" lon="2.08811">
        <ele>905.79998779297</ele>
        <time>2024-09-30T12:01:04.000Z</time>
      </trkpt>
      <trkpt lat="42.84709" lon="2.08817">
        <ele>906</ele>
        <time>2024-09-30T12:01:05.000Z</time>
      </trkpt>
      <trkpt lat="42.84698" lon="2.08844">
        <ele>907</ele>
        <time>2024-09-30T12:01:10.000Z</time>
      </trkpt>
      <trkpt lat="42.84682" lon="2.08883">
        <ele>908.79998779297</ele>
        <time>2024-09-30T12:01:18.000Z</time>
      </trkpt>
      <trkpt lat="42.8467" lon="2.08909">
        <ele>909.40002441406</ele>
        <time>2024-09-30T12:01:24.000Z</time>
      </trkpt>
      <trkpt lat="42.84653" lon="2.08941">
        <ele>908.59997558594</ele>
        <time>2024-09-30T12:01:31.000Z</time>
      </trkpt>
      <trkpt lat="42.84631" lon="2.08988">
        <ele>908.20001220703</ele>
        <time>2024-09-30T12:01:40.000Z</time>
      </trkpt>
      <trkpt lat="42.84625" lon="2.09005">
        <ele>909</ele>
        <time>2024-09-30T12:01:44.000Z</time>
      </trkpt>
      <trkpt lat="42.84605" lon="2.09053">
        <ele>906.79998779297</ele>
        <time>2024-09-30T12:01:52.000Z</time>
      </trkpt>
      <trkpt lat="42.84593" lon="2.09079">
        <ele>905.40002441406</ele>
        <time>2024-09-30T12:01:57.000Z</time>
      </trkpt>
      <trkpt lat="42.84588" lon="2.09093">
        <ele>904.59997558594</ele>
        <time>2024-09-30T12:02:00.000Z</time>
      </trkpt>
      <trkpt lat="42.84582" lon="2.09109">
        <ele>903.20001220703</ele>
        <time>2024-09-30T12:02:03.000Z</time>
      </trkpt>
      <trkpt lat="42.84567" lon="2.09146">
        <ele>900.20001220703</ele>
        <time>2024-09-30T12:02:10.000Z</time>
      </trkpt>
      <trkpt lat="42.84562" lon="2.09156">
        <ele>899.40002441406</ele>
        <time>2024-09-30T12:02:12.000Z</time>
      </trkpt>
      <trkpt lat="42.84555" lon="2.09177">
        <ele>897.59997558594</ele>
        <time>2024-09-30T12:02:16.000Z</time>
      </trkpt>
      <trkpt lat="42.84541" lon="2.09202">
        <ele>894.59997558594</ele>
        <time>2024-09-30T12:02:21.000Z</time>
      </trkpt>
      <trkpt lat="42.84521" lon="2.09239">
        <ele>892.40002441406</ele>
        <time>2024-09-30T12:02:27.000Z</time>
      </trkpt>
      <trkpt lat="42.84499" lon="2.09287">
        <ele>890.59997558594</ele>
        <time>2024-09-30T12:02:35.000Z</time>
      </trkpt>
      <trkpt lat="42.84489" lon="2.09308">
        <ele>890.20001220703</ele>
        <time>2024-09-30T12:02:39.000Z</time>
      </trkpt>
      <trkpt lat="42.8448" lon="2.09327">
        <ele>890.59997558594</ele>
        <time>2024-09-30T12:02:43.000Z</time>
      </trkpt>
      <trkpt lat="42.8446" lon="2.0937">
        <ele>893.59997558594</ele>
        <time>2024-09-30T12:02:52.000Z</time>
      </trkpt>
      <trkpt lat="42.84452" lon="2.0939">
        <ele>895</ele>
        <time>2024-09-30T12:02:57.000Z</time>
      </trkpt>
      <trkpt lat="42.84448" lon="2.09404">
        <ele>896.40002441406</ele>
        <time>2024-09-30T12:03:01.000Z</time>
      </trkpt>
      <trkpt lat="42.84442" lon="2.09423">
        <ele>897.59997558594</ele>
        <time>2024-09-30T12:03:06.000Z</time>
      </trkpt>
      <trkpt lat="42.84439" lon="2.09438">
        <ele>898.20001220703</ele>
        <time>2024-09-30T12:03:10.000Z</time>
      </trkpt>
      <trkpt lat="42.84435" lon="2.09461">
        <ele>898.40002441406</ele>
        <time>2024-09-30T12:03:16.000Z</time>
      </trkpt>
      <trkpt lat="42.84434" lon="2.09464">
        <ele>898.59997558594</ele>
        <time>2024-09-30T12:03:18.000Z</time>
      </trkpt>
      <trkpt lat="42.84433" lon="2.09468">
        <ele>898.79998779297</ele>
        <time>2024-09-30T12:03:20.000Z</time>
      </trkpt>
      <trkpt lat="42.84431" lon="2.09475">
        <ele>898.59997558594</ele>
        <time>2024-09-30T12:03:23.000Z</time>
      </trkpt>
      <trkpt lat="42.84426" lon="2.09494">
        <ele>897.79998779297</ele>
        <time>2024-09-30T12:03:28.000Z</time>
      </trkpt>
      <trkpt lat="42.84417" lon="2.09526">
        <ele>896.40002441406</ele>
        <time>2024-09-30T12:03:35.000Z</time>
      </trkpt>
      <trkpt lat="42.84402" lon="2.09569">
        <ele>894.20001220703</ele>
        <time>2024-09-30T12:03:43.000Z</time>
      </trkpt>
      <trkpt lat="42.84388" lon="2.096">
        <ele>894</ele>
        <time>2024-09-30T12:03:49.000Z</time>
      </trkpt>
      <trkpt lat="42.84384" lon="2.0961">
        <ele>894</ele>
        <time>2024-09-30T12:03:51.000Z</time>
      </trkpt>
      <trkpt lat="42.84368" lon="2.09641">
        <ele>895</ele>
        <time>2024-09-30T12:03:57.000Z</time>
      </trkpt>
      <trkpt lat="42.84363" lon="2.09664">
        <ele>895.59997558594</ele>
        <time>2024-09-30T12:04:01.000Z</time>
      </trkpt>
      <trkpt lat="42.84362" lon="2.09676">
        <ele>896</ele>
        <time>2024-09-30T12:04:03.000Z</time>
      </trkpt>
      <trkpt lat="42.84359" lon="2.09722">
        <ele>897.40002441406</ele>
        <time>2024-09-30T12:04:11.000Z</time>
      </trkpt>
      <trkpt lat="42.8436" lon="2.0976">
        <ele>899.20001220703</ele>
        <time>2024-09-30T12:04:18.000Z</time>
      </trkpt>
      <trkpt lat="42.84358" lon="2.09782">
        <ele>900</ele>
        <time>2024-09-30T12:04:23.000Z</time>
      </trkpt>
      <trkpt lat="42.84348" lon="2.09799">
        <ele>901</ele>
        <time>2024-09-30T12:04:28.000Z</time>
      </trkpt>
      <trkpt lat="42.84336" lon="2.09818">
        <ele>900.59997558594</ele>
        <time>2024-09-30T12:04:33.000Z</time>
      </trkpt>
      <trkpt lat="42.84327" lon="2.09832">
        <ele>900.40002441406</ele>
        <time>2024-09-30T12:04:37.000Z</time>
      </trkpt>
      <trkpt lat="42.84311" lon="2.09864">
        <ele>899.79998779297</ele>
        <time>2024-09-30T12:04:45.000Z</time>
      </trkpt>
      <trkpt lat="42.84304" lon="2.09879">
        <ele>899.20001220703</ele>
        <time>2024-09-30T12:04:50.000Z</time>
      </trkpt>
      <trkpt lat="42.84301" lon="2.09883">
        <ele>899.20001220703</ele>
        <time>2024-09-30T12:04:53.000Z</time>
      </trkpt>
      <trkpt lat="42.843" lon="2.09888">
        <ele>899.20001220703</ele>
        <time>2024-09-30T12:05:00.000Z</time>
      </trkpt>
      <trkpt lat="42.84302" lon="2.09888">
        <ele>899.40002441406</ele>
        <time>2024-09-30T12:05:01.000Z</time>
      </trkpt>
      <trkpt lat="42.84313" lon="2.09899">
        <ele>900.59997558594</ele>
        <time>2024-09-30T12:05:06.000Z</time>
      </trkpt>
      <trkpt lat="42.84325" lon="2.09909">
        <ele>900.59997558594</ele>
        <time>2024-09-30T12:05:11.000Z</time>
      </trkpt>
      <trkpt lat="42.84324" lon="2.09913">
        <ele>900.59997558594</ele>
        <time>2024-09-30T12:05:12.000Z</time>
      </trkpt>
      <trkpt lat="42.84317" lon="2.09926">
        <ele>901</ele>
        <time>2024-09-30T12:05:16.000Z</time>
      </trkpt>
      <trkpt lat="42.84306" lon="2.09958">
        <ele>902</ele>
        <time>2024-09-30T12:05:24.000Z</time>
      </trkpt>
      <trkpt lat="42.84295" lon="2.09986">
        <ele>901.79998779297</ele>
        <time>2024-09-30T12:05:32.000Z</time>
      </trkpt>
      <trkpt lat="42.84285" lon="2.10012">
        <ele>901.59997558594</ele>
        <time>2024-09-30T12:05:39.000Z</time>
      </trkpt>
      <trkpt lat="42.84281" lon="2.10034">
        <ele>901.40002441406</ele>
        <time>2024-09-30T12:05:44.000Z</time>
      </trkpt>
      <trkpt lat="42.84281" lon="2.10054">
        <ele>903</ele>
        <time>2024-09-30T12:05:50.000Z</time>
      </trkpt>
      <trkpt lat="42.84281" lon="2.10073">
        <ele>904.40002441406</ele>
        <time>2024-09-30T12:05:55.000Z</time>
      </trkpt>
      <trkpt lat="42.84283" lon="2.10091">
        <ele>906.59997558594</ele>
        <time>2024-09-30T12:05:59.000Z</time>
      </trkpt>
      <trkpt lat="42.84286" lon="2.10121">
        <ele>909.20001220703</ele>
        <time>2024-09-30T12:06:05.000Z</time>
      </trkpt>
      <trkpt lat="42.84284" lon="2.10152">
        <ele>911.20001220703</ele>
        <time>2024-09-30T12:06:11.000Z</time>
      </trkpt>
      <trkpt lat="42.84277" lon="2.10186">
        <ele>914.79998779297</ele>
        <time>2024-09-30T12:06:18.000Z</time>
      </trkpt>
      <trkpt lat="42.8427" lon="2.1021">
        <ele>916.40002441406</ele>
        <time>2024-09-30T12:06:23.000Z</time>
      </trkpt>
      <trkpt lat="42.84261" lon="2.10234">
        <ele>917.59997558594</ele>
        <time>2024-09-30T12:06:29.000Z</time>
      </trkpt>
      <trkpt lat="42.84252" lon="2.10254">
        <ele>918</ele>
        <time>2024-09-30T12:06:34.000Z</time>
      </trkpt>
      <trkpt lat="42.84243" lon="2.10291">
        <ele>919.79998779297</ele>
        <time>2024-09-30T12:06:42.000Z</time>
      </trkpt>
      <trkpt lat="42.84241" lon="2.10314">
        <ele>920.20001220703</ele>
        <time>2024-09-30T12:06:47.000Z</time>
      </trkpt>
      <trkpt lat="42.84236" lon="2.10341">
        <ele>920.59997558594</ele>
        <time>2024-09-30T12:06:53.000Z</time>
      </trkpt>
      <trkpt lat="42.8423" lon="2.10366">
        <ele>919.40002441406</ele>
        <time>2024-09-30T12:06:59.000Z</time>
      </trkpt>
      <trkpt lat="42.84226" lon="2.10388">
        <ele>916.40002441406</ele>
        <time>2024-09-30T12:07:04.000Z</time>
      </trkpt>
      <trkpt lat="42.84226" lon="2.10413">
        <ele>915.20001220703</ele>
        <time>2024-09-30T12:07:09.000Z</time>
      </trkpt>
      <trkpt lat="42.84228" lon="2.10435">
        <ele>915.40002441406</ele>
        <time>2024-09-30T12:07:14.000Z</time>
      </trkpt>
      <trkpt lat="42.84236" lon="2.1047">
        <ele>918</ele>
        <time>2024-09-30T12:07:22.000Z</time>
      </trkpt>
      <trkpt lat="42.84236" lon="2.10499">
        <ele>919.40002441406</ele>
        <time>2024-09-30T12:07:29.000Z</time>
      </trkpt>
      <trkpt lat="42.84232" lon="2.10515">
        <ele>919.79998779297</ele>
        <time>2024-09-30T12:07:33.000Z</time>
      </trkpt>
      <trkpt lat="42.84228" lon="2.10536">
        <ele>922.20001220703</ele>
        <time>2024-09-30T12:07:38.000Z</time>
      </trkpt>
      <trkpt lat="42.84221" lon="2.10564">
        <ele>924.40002441406</ele>
        <time>2024-09-30T12:07:44.000Z</time>
      </trkpt>
      <trkpt lat="42.84211" lon="2.1059">
        <ele>927.79998779297</ele>
        <time>2024-09-30T12:07:50.000Z</time>
      </trkpt>
      <trkpt lat="42.84202" lon="2.10612">
        <ele>929.79998779297</ele>
        <time>2024-09-30T12:07:55.000Z</time>
      </trkpt>
      <trkpt lat="42.84191" lon="2.10634">
        <ele>931.40002441406</ele>
        <time>2024-09-30T12:08:01.000Z</time>
      </trkpt>
      <trkpt lat="42.84183" lon="2.10647">
        <ele>932.40002441406</ele>
        <time>2024-09-30T12:08:05.000Z</time>
      </trkpt>
      <trkpt lat="42.84177" lon="2.10661">
        <ele>933.79998779297</ele>
        <time>2024-09-30T12:08:09.000Z</time>
      </trkpt>
      <trkpt lat="42.8417" lon="2.10678">
        <ele>933.20001220703</ele>
        <time>2024-09-30T12:08:13.000Z</time>
      </trkpt>
      <trkpt lat="42.84165" lon="2.10689">
        <ele>934</ele>
        <time>2024-09-30T12:08:16.000Z</time>
      </trkpt>
      <trkpt lat="42.84158" lon="2.10718">
        <ele>935.79998779297</ele>
        <time>2024-09-30T12:08:21.000Z</time>
      </trkpt>
      <trkpt lat="42.84153" lon="2.10738">
        <ele>936.40002441406</ele>
        <time>2024-09-30T12:08:25.000Z</time>
      </trkpt>
      <trkpt lat="42.84149" lon="2.10756">
        <ele>936.40002441406</ele>
        <time>2024-09-30T12:08:29.000Z</time>
      </trkpt>
      <trkpt lat="42.84143" lon="2.1078">
        <ele>935.79998779297</ele>
        <time>2024-09-30T12:08:34.000Z</time>
      </trkpt>
      <trkpt lat="42.84141" lon="2.10799">
        <ele>936.40002441406</ele>
        <time>2024-09-30T12:08:38.000Z</time>
      </trkpt>
      <trkpt lat="42.84139" lon="2.10817">
        <ele>936.59997558594</ele>
        <time>2024-09-30T12:08:42.000Z</time>
      </trkpt>
      <trkpt lat="42.8414" lon="2.1085">
        <ele>937.79998779297</ele>
        <time>2024-09-30T12:08:48.000Z</time>
      </trkpt>
      <trkpt lat="42.84145" lon="2.10877">
        <ele>939.20001220703</ele>
        <time>2024-09-30T12:08:54.000Z</time>
      </trkpt>
      <trkpt lat="42.84151" lon="2.109">
        <ele>938.79998779297</ele>
        <time>2024-09-30T12:09:00.000Z</time>
      </trkpt>
      <trkpt lat="42.84154" lon="2.10927">
        <ele>936.79998779297</ele>
        <time>2024-09-30T12:09:06.000Z</time>
      </trkpt>
      <trkpt lat="42.84156" lon="2.10957">
        <ele>936.40002441406</ele>
        <time>2024-09-30T12:09:13.000Z</time>
      </trkpt>
      <trkpt lat="42.84156" lon="2.10962">
        <ele>936.20001220703</ele>
        <time>2024-09-30T12:09:14.000Z</time>
      </trkpt>
      <trkpt lat="42.84152" lon="2.10991">
        <ele>936.40002441406</ele>
        <time>2024-09-30T12:09:20.000Z</time>
      </trkpt>
      <trkpt lat="42.84142" lon="2.11021">
        <ele>933.79998779297</ele>
        <time>2024-09-30T12:09:26.000Z</time>
      </trkpt>
      <trkpt lat="42.84139" lon="2.11031">
        <ele>933.79998779297</ele>
        <time>2024-09-30T12:09:28.000Z</time>
      </trkpt>
      <trkpt lat="42.84134" lon="2.11054">
        <ele>934</ele>
        <time>2024-09-30T12:09:32.000Z</time>
      </trkpt>
      <trkpt lat="42.84131" lon="2.11078">
        <ele>934.59997558594</ele>
        <time>2024-09-30T12:09:36.000Z</time>
      </trkpt>
      <trkpt lat="42.8413" lon="2.1109">
        <ele>936.40002441406</ele>
        <time>2024-09-30T12:09:38.000Z</time>
      </trkpt>
      <trkpt lat="42.8413" lon="2.11096">
        <ele>937.40002441406</ele>
        <time>2024-09-30T12:09:39.000Z</time>
      </trkpt>
      <trkpt lat="42.84127" lon="2.11116">
        <ele>938.20001220703</ele>
        <time>2024-09-30T12:09:43.000Z</time>
      </trkpt>
      <trkpt lat="42.84126" lon="2.1115">
        <ele>941</ele>
        <time>2024-09-30T12:09:50.000Z</time>
      </trkpt>
      <trkpt lat="42.84123" lon="2.11177">
        <ele>944</ele>
        <time>2024-09-30T12:09:56.000Z</time>
      </trkpt>
      <trkpt lat="42.84118" lon="2.112">
        <ele>945.40002441406</ele>
        <time>2024-09-30T12:10:02.000Z</time>
      </trkpt>
      <trkpt lat="42.84117" lon="2.11203">
        <ele>945.40002441406</ele>
        <time>2024-09-30T12:10:03.000Z</time>
      </trkpt>
      <trkpt lat="42.84113" lon="2.11213">
        <ele>944.79998779297</ele>
        <time>2024-09-30T12:10:06.000Z</time>
      </trkpt>
      <trkpt lat="42.84109" lon="2.11233">
        <ele>946.20001220703</ele>
        <time>2024-09-30T12:10:11.000Z</time>
      </trkpt>
      <trkpt lat="42.84106" lon="2.11251">
        <ele>946.79998779297</ele>
        <time>2024-09-30T12:10:16.000Z</time>
      </trkpt>
      <trkpt lat="42.84104" lon="2.11268">
        <ele>947.59997558594</ele>
        <time>2024-09-30T12:10:20.000Z</time>
      </trkpt>
      <trkpt lat="42.841" lon="2.11283">
        <ele>947.59997558594</ele>
        <time>2024-09-30T12:10:24.000Z</time>
      </trkpt>
      <trkpt lat="42.84098" lon="2.11299">
        <ele>947.79998779297</ele>
        <time>2024-09-30T12:10:28.000Z</time>
      </trkpt>
      <trkpt lat="42.84092" lon="2.11329">
        <ele>951.20001220703</ele>
        <time>2024-09-30T12:10:34.000Z</time>
      </trkpt>
      <trkpt lat="42.84088" lon="2.11351">
        <ele>950.20001220703</ele>
        <time>2024-09-30T12:10:39.000Z</time>
      </trkpt>
      <trkpt lat="42.84084" lon="2.11373">
        <ele>949.20001220703</ele>
        <time>2024-09-30T12:10:44.000Z</time>
      </trkpt>
      <trkpt lat="42.84082" lon="2.11398">
        <ele>949.40002441406</ele>
        <time>2024-09-30T12:10:50.000Z</time>
      </trkpt>
      <trkpt lat="42.84083" lon="2.1142">
        <ele>950</ele>
        <time>2024-09-30T12:10:55.000Z</time>
      </trkpt>
      <trkpt lat="42.84081" lon="2.11445">
        <ele>950.40002441406</ele>
        <time>2024-09-30T12:11:01.000Z</time>
      </trkpt>
      <trkpt lat="42.84078" lon="2.11469">
        <ele>952</ele>
        <time>2024-09-30T12:11:06.000Z</time>
      </trkpt>
      <trkpt lat="42.84073" lon="2.11498">
        <ele>954</ele>
        <time>2024-09-30T12:11:12.000Z</time>
      </trkpt>
      <trkpt lat="42.84065" lon="2.11524">
        <ele>955.20001220703</ele>
        <time>2024-09-30T12:11:18.000Z</time>
      </trkpt>
      <trkpt lat="42.84059" lon="2.11545">
        <ele>956.40002441406</ele>
        <time>2024-09-30T12:11:23.000Z</time>
      </trkpt>
      <trkpt lat="42.84049" lon="2.1157">
        <ele>956.20001220703</ele>
        <time>2024-09-30T12:11:29.000Z</time>
      </trkpt>
      <trkpt lat="42.84039" lon="2.11595">
        <ele>956.59997558594</ele>
        <time>2024-09-30T12:11:35.000Z</time>
      </trkpt>
      <trkpt lat="42.84027" lon="2.11615">
        <ele>956.20001220703</ele>
        <time>2024-09-30T12:11:40.000Z</time>
      </trkpt>
      <trkpt lat="42.84009" lon="2.11648">
        <ele>954.40002441406</ele>
        <time>2024-09-30T12:11:48.000Z</time>
      </trkpt>
      <trkpt lat="42.83997" lon="2.11672">
        <ele>949.79998779297</ele>
        <time>2024-09-30T12:11:54.000Z</time>
      </trkpt>
      <trkpt lat="42.83989" lon="2.11691">
        <ele>947</ele>
        <time>2024-09-30T12:11:59.000Z</time>
      </trkpt>
      <trkpt lat="42.83991" lon="2.11709">
        <ele>947.20001220703</ele>
        <time>2024-09-30T12:12:04.000Z</time>
      </trkpt>
      <trkpt lat="42.84002" lon="2.1173">
        <ele>949.59997558594</ele>
        <time>2024-09-30T12:12:09.000Z</time>
      </trkpt>
      <trkpt lat="42.8402" lon="2.11737">
        <ele>954.40002441406</ele>
        <time>2024-09-30T12:12:14.000Z</time>
      </trkpt>
      <trkpt lat="42.8404" lon="2.11742">
        <ele>960.40002441406</ele>
        <time>2024-09-30T12:12:20.000Z</time>
      </trkpt>
      <trkpt lat="42.84052" lon="2.11744">
        <ele>963.40002441406</ele>
        <time>2024-09-30T12:12:24.000Z</time>
      </trkpt>
      <trkpt lat="42.84062" lon="2.11749">
        <ele>965</ele>
        <time>2024-09-30T12:12:28.000Z</time>
      </trkpt>
      <trkpt lat="42.84077" lon="2.11759">
        <ele>967.20001220703</ele>
        <time>2024-09-30T12:12:33.000Z</time>
      </trkpt>
      <trkpt lat="42.84087" lon="2.11768">
        <ele>968.20001220703</ele>
        <time>2024-09-30T12:12:37.000Z</time>
      </trkpt>
      <trkpt lat="42.84089" lon="2.11771">
        <ele>968.40002441406</ele>
        <time>2024-09-30T12:12:38.000Z</time>
      </trkpt>
      <trkpt lat="42.84099" lon="2.11793">
        <ele>968.59997558594</ele>
        <time>2024-09-30T12:12:44.000Z</time>
      </trkpt>
      <trkpt lat="42.84101" lon="2.11811">
        <ele>969</ele>
        <time>2024-09-30T12:12:50.000Z</time>
      </trkpt>
      <trkpt lat="42.84101" lon="2.11815">
        <ele>968.79998779297</ele>
        <time>2024-09-30T12:12:51.000Z</time>
      </trkpt>
      <trkpt lat="42.841" lon="2.11823">
        <ele>968.59997558594</ele>
        <time>2024-09-30T12:12:53.000Z</time>
      </trkpt>
      <trkpt lat="42.84099" lon="2.11841">
        <ele>969.59997558594</ele>
        <time>2024-09-30T12:12:57.000Z</time>
      </trkpt>
      <trkpt lat="42.84099" lon="2.11847">
        <ele>969.59997558594</ele>
        <time>2024-09-30T12:12:59.000Z</time>
      </trkpt>
      <trkpt lat="42.84097" lon="2.11853">
        <ele>969.40002441406</ele>
        <time>2024-09-30T12:13:01.000Z</time>
      </trkpt>
      <trkpt lat="42.84094" lon="2.11863">
        <ele>969.59997558594</ele>
        <time>2024-09-30T12:13:05.000Z</time>
      </trkpt>
      <trkpt lat="42.84094" lon="2.11867">
        <ele>970</ele>
        <time>2024-09-30T12:13:06.000Z</time>
      </trkpt>
      <trkpt lat="42.84085" lon="2.11879">
        <ele>969.20001220703</ele>
        <time>2024-09-30T12:13:10.000Z</time>
      </trkpt>
      <trkpt lat="42.84078" lon="2.1189">
        <ele>968.40002441406</ele>
        <time>2024-09-30T12:13:14.000Z</time>
      </trkpt>
      <trkpt lat="42.84064" lon="2.11915">
        <ele>969.59997558594</ele>
        <time>2024-09-30T12:13:21.000Z</time>
      </trkpt>
      <trkpt lat="42.84052" lon="2.11931">
        <ele>969.79998779297</ele>
        <time>2024-09-30T12:13:26.000Z</time>
      </trkpt>
      <trkpt lat="42.84045" lon="2.11946">
        <ele>969.20001220703</ele>
        <time>2024-09-30T12:13:31.000Z</time>
      </trkpt>
      <trkpt lat="42.84046" lon="2.11965">
        <ele>968.40002441406</ele>
        <time>2024-09-30T12:13:36.000Z</time>
      </trkpt>
      <trkpt lat="42.84051" lon="2.11973">
        <ele>967.79998779297</ele>
        <time>2024-09-30T12:13:38.000Z</time>
      </trkpt>
      <trkpt lat="42.84055" lon="2.11977">
        <ele>967.59997558594</ele>
        <time>2024-09-30T12:13:39.000Z</time>
      </trkpt>
      <trkpt lat="42.84063" lon="2.11984">
        <ele>967.40002441406</ele>
        <time>2024-09-30T12:13:41.000Z</time>
      </trkpt>
      <trkpt lat="42.8408" lon="2.11995">
        <ele>969</ele>
        <time>2024-09-30T12:13:45.000Z</time>
      </trkpt>
      <trkpt lat="42.84092" lon="2.11996">
        <ele>970.59997558594</ele>
        <time>2024-09-30T12:13:48.000Z</time>
      </trkpt>
      <trkpt lat="42.84106" lon="2.11995">
        <ele>974</ele>
        <time>2024-09-30T12:13:52.000Z</time>
      </trkpt>
      <trkpt lat="42.8411" lon="2.12003">
        <ele>974.79998779297</ele>
        <time>2024-09-30T12:13:54.000Z</time>
      </trkpt>
      <trkpt lat="42.84111" lon="2.12008">
        <ele>974.79998779297</ele>
        <time>2024-09-30T12:13:55.000Z</time>
      </trkpt>
      <trkpt lat="42.84111" lon="2.1202">
        <ele>974.40002441406</ele>
        <time>2024-09-30T12:13:57.000Z</time>
      </trkpt>
      <trkpt lat="42.84109" lon="2.12044">
        <ele>971.40002441406</ele>
        <time>2024-09-30T12:14:01.000Z</time>
      </trkpt>
      <trkpt lat="42.8411" lon="2.12079">
        <ele>969.79998779297</ele>
        <time>2024-09-30T12:14:08.000Z</time>
      </trkpt>
      <trkpt lat="42.84109" lon="2.12085">
        <ele>969.40002441406</ele>
        <time>2024-09-30T12:14:09.000Z</time>
      </trkpt>
      <trkpt lat="42.84107" lon="2.12096">
        <ele>968.20001220703</ele>
        <time>2024-09-30T12:14:11.000Z</time>
      </trkpt>
      <trkpt lat="42.84104" lon="2.12107">
        <ele>968.40002441406</ele>
        <time>2024-09-30T12:14:13.000Z</time>
      </trkpt>
      <trkpt lat="42.84097" lon="2.12134">
        <ele>968.59997558594</ele>
        <time>2024-09-30T12:14:18.000Z</time>
      </trkpt>
      <trkpt lat="42.84093" lon="2.12146">
        <ele>967.59997558594</ele>
        <time>2024-09-30T12:14:20.000Z</time>
      </trkpt>
      <trkpt lat="42.84087" lon="2.12164">
        <ele>966.20001220703</ele>
        <time>2024-09-30T12:14:23.000Z</time>
      </trkpt>
      <trkpt lat="42.84084" lon="2.12169">
        <ele>965.79998779297</ele>
        <time>2024-09-30T12:14:24.000Z</time>
      </trkpt>
      <trkpt lat="42.8408" lon="2.12181">
        <ele>965</ele>
        <time>2024-09-30T12:14:26.000Z</time>
      </trkpt>
      <trkpt lat="42.84077" lon="2.1219">
        <ele>964.20001220703</ele>
        <time>2024-09-30T12:14:28.000Z</time>
      </trkpt>
      <trkpt lat="42.84071" lon="2.12217">
        <ele>962.79998779297</ele>
        <time>2024-09-30T12:14:34.000Z</time>
      </trkpt>
      <trkpt lat="42.8407" lon="2.12237">
        <ele>961.59997558594</ele>
        <time>2024-09-30T12:14:39.000Z</time>
      </trkpt>
      <trkpt lat="42.84068" lon="2.12258">
        <ele>961</ele>
        <time>2024-09-30T12:14:44.000Z</time>
      </trkpt>
      <trkpt lat="42.84062" lon="2.1228">
        <ele>958.79998779297</ele>
        <time>2024-09-30T12:14:51.000Z</time>
      </trkpt>
      <trkpt lat="42.84066" lon="2.12301">
        <ele>960.40002441406</ele>
        <time>2024-09-30T12:14:57.000Z</time>
      </trkpt>
      <trkpt lat="42.8408" lon="2.12317">
        <ele>966.40002441406</ele>
        <time>2024-09-30T12:15:03.000Z</time>
      </trkpt>
      <trkpt lat="42.84101" lon="2.12324">
        <ele>973.40002441406</ele>
        <time>2024-09-30T12:15:10.000Z</time>
      </trkpt>
      <trkpt lat="42.84114" lon="2.12336">
        <ele>973.40002441406</ele>
        <time>2024-09-30T12:15:16.000Z</time>
      </trkpt>
      <trkpt lat="42.84127" lon="2.12338">
        <ele>973.79998779297</ele>
        <time>2024-09-30T12:15:21.000Z</time>
      </trkpt>
      <trkpt lat="42.84139" lon="2.12335">
        <ele>973.59997558594</ele>
        <time>2024-09-30T12:15:26.000Z</time>
      </trkpt>
      <trkpt lat="42.84162" lon="2.12336">
        <ele>972.20001220703</ele>
        <time>2024-09-30T12:15:33.000Z</time>
      </trkpt>
      <trkpt lat="42.84186" lon="2.12345">
        <ele>971.79998779297</ele>
        <time>2024-09-30T12:15:40.000Z</time>
      </trkpt>
      <trkpt lat="42.84194" lon="2.12356">
        <ele>971.59997558594</ele>
        <time>2024-09-30T12:15:43.000Z</time>
      </trkpt>
      <trkpt lat="42.84196" lon="2.12361">
        <ele>971.40002441406</ele>
        <time>2024-09-30T12:15:44.000Z</time>
      </trkpt>
      <trkpt lat="42.842" lon="2.12384">
        <ele>970.59997558594</ele>
        <time>2024-09-30T12:15:49.000Z</time>
      </trkpt>
      <trkpt lat="42.84201" lon="2.12409">
        <ele>971.40002441406</ele>
        <time>2024-09-30T12:15:55.000Z</time>
      </trkpt>
      <trkpt lat="42.84196" lon="2.12435">
        <ele>971.79998779297</ele>
        <time>2024-09-30T12:16:00.000Z</time>
      </trkpt>
      <trkpt lat="42.84192" lon="2.12457">
        <ele>972.40002441406</ele>
        <time>2024-09-30T12:16:05.000Z</time>
      </trkpt>
      <trkpt lat="42.84183" lon="2.1248">
        <ele>971.59997558594</ele>
        <time>2024-09-30T12:16:11.000Z</time>
      </trkpt>
      <trkpt lat="42.84175" lon="2.12494">
        <ele>971.40002441406</ele>
        <time>2024-09-30T12:16:15.000Z</time>
      </trkpt>
      <trkpt lat="42.84168" lon="2.12514">
        <ele>973</ele>
        <time>2024-09-30T12:16:19.000Z</time>
      </trkpt>
      <trkpt lat="42.84158" lon="2.12546">
        <ele>972.79998779297</ele>
        <time>2024-09-30T12:16:25.000Z</time>
      </trkpt>
      <trkpt lat="42.84154" lon="2.12557">
        <ele>972</ele>
        <time>2024-09-30T12:16:27.000Z</time>
      </trkpt>
      <trkpt lat="42.84148" lon="2.12572">
        <ele>971.79998779297</ele>
        <time>2024-09-30T12:16:30.000Z</time>
      </trkpt>
      <trkpt lat="42.8414" lon="2.12588">
        <ele>971</ele>
        <time>2024-09-30T12:16:34.000Z</time>
      </trkpt>
      <trkpt lat="42.84134" lon="2.12601">
        <ele>970.79998779297</ele>
        <time>2024-09-30T12:16:37.000Z</time>
      </trkpt>
      <trkpt lat="42.84131" lon="2.12607">
        <ele>971</ele>
        <time>2024-09-30T12:16:38.000Z</time>
      </trkpt>
      <trkpt lat="42.84123" lon="2.12629">
        <ele>970.59997558594</ele>
        <time>2024-09-30T12:16:42.000Z</time>
      </trkpt>
      <trkpt lat="42.84112" lon="2.12662">
        <ele>966.20001220703</ele>
        <time>2024-09-30T12:16:48.000Z</time>
      </trkpt>
      <trkpt lat="42.84104" lon="2.12689">
        <ele>966.40002441406</ele>
        <time>2024-09-30T12:16:53.000Z</time>
      </trkpt>
      <trkpt lat="42.841" lon="2.12707">
        <ele>967.20001220703</ele>
        <time>2024-09-30T12:16:56.000Z</time>
      </trkpt>
      <trkpt lat="42.84095" lon="2.12717">
        <ele>966</ele>
        <time>2024-09-30T12:16:58.000Z</time>
      </trkpt>
      <trkpt lat="42.84086" lon="2.12736">
        <ele>965</ele>
        <time>2024-09-30T12:17:02.000Z</time>
      </trkpt>
      <trkpt lat="42.84083" lon="2.12747">
        <ele>965.40002441406</ele>
        <time>2024-09-30T12:17:04.000Z</time>
      </trkpt>
      <trkpt lat="42.84073" lon="2.12766">
        <ele>964</ele>
        <time>2024-09-30T12:17:08.000Z</time>
      </trkpt>
      <trkpt lat="42.84065" lon="2.12784">
        <ele>963.59997558594</ele>
        <time>2024-09-30T12:17:12.000Z</time>
      </trkpt>
      <trkpt lat="42.8405" lon="2.12815">
        <ele>964.79998779297</ele>
        <time>2024-09-30T12:17:18.000Z</time>
      </trkpt>
      <trkpt lat="42.8404" lon="2.12837">
        <ele>967</ele>
        <time>2024-09-30T12:17:23.000Z</time>
      </trkpt>
      <trkpt lat="42.84032" lon="2.1286">
        <ele>970.59997558594</ele>
        <time>2024-09-30T12:17:29.000Z</time>
      </trkpt>
      <trkpt lat="42.84019" lon="2.12885">
        <ele>970.79998779297</ele>
        <time>2024-09-30T12:17:35.000Z</time>
      </trkpt>
      <trkpt lat="42.84007" lon="2.12902">
        <ele>969.40002441406</ele>
        <time>2024-09-30T12:17:40.000Z</time>
      </trkpt>
      <trkpt lat="42.84002" lon="2.12911">
        <ele>969.79998779297</ele>
        <time>2024-09-30T12:17:42.000Z</time>
      </trkpt>
      <trkpt lat="42.83992" lon="2.12924">
        <ele>969</ele>
        <time>2024-09-30T12:17:45.000Z</time>
      </trkpt>
      <trkpt lat="42.83982" lon="2.12938">
        <ele>967.20001220703</ele>
        <time>2024-09-30T12:17:49.000Z</time>
      </trkpt>
      <trkpt lat="42.83973" lon="2.12956">
        <ele>965.40002441406</ele>
        <time>2024-09-30T12:17:54.000Z</time>
      </trkpt>
      <trkpt lat="42.83961" lon="2.12973">
        <ele>964</ele>
        <time>2024-09-30T12:17:59.000Z</time>
      </trkpt>
      <trkpt lat="42.83954" lon="2.12987">
        <ele>962.79998779297</ele>
        <time>2024-09-30T12:18:03.000Z</time>
      </trkpt>
      <trkpt lat="42.83947" lon="2.12999">
        <ele>961.40002441406</ele>
        <time>2024-09-30T12:18:08.000Z</time>
      </trkpt>
      <trkpt lat="42.83946" lon="2.13">
        <ele>961.20001220703</ele>
        <time>2024-09-30T12:18:09.000Z</time>
      </trkpt>
      <trkpt lat="42.83946" lon="2.13">
        <ele>961.40002441406</ele>
        <time>2024-09-30T12:18:11.000Z</time>
      </trkpt>
      <trkpt lat="42.83946" lon="2.13008">
        <ele>961.59997558594</ele>
        <time>2024-09-30T12:20:35.000Z</time>
      </trkpt>
      <trkpt lat="42.83943" lon="2.13014">
        <ele>960.79998779297</ele>
        <time>2024-09-30T12:20:37.000Z</time>
      </trkpt>
      <trkpt lat="42.8394" lon="2.13032">
        <ele>959.20001220703</ele>
        <time>2024-09-30T12:20:41.000Z</time>
      </trkpt>
      <trkpt lat="42.83939" lon="2.13055">
        <ele>958</ele>
        <time>2024-09-30T12:20:46.000Z</time>
      </trkpt>
      <trkpt lat="42.83941" lon="2.13077">
        <ele>956.79998779297</ele>
        <time>2024-09-30T12:20:51.000Z</time>
      </trkpt>
      <trkpt lat="42.83941" lon="2.13081">
        <ele>956.79998779297</ele>
        <time>2024-09-30T12:20:54.000Z</time>
      </trkpt>
      <trkpt lat="42.8394" lon="2.13087">
        <ele>956.40002441406</ele>
        <time>2024-09-30T12:21:12.000Z</time>
      </trkpt>
      <trkpt lat="42.83938" lon="2.13105">
        <ele>954.79998779297</ele>
        <time>2024-09-30T12:21:17.000Z</time>
      </trkpt>
      <trkpt lat="42.83933" lon="2.13136">
        <ele>949.79998779297</ele>
        <time>2024-09-30T12:21:23.000Z</time>
      </trkpt>
      <trkpt lat="42.83933" lon="2.13141">
        <ele>949</ele>
        <time>2024-09-30T12:21:24.000Z</time>
      </trkpt>
      <trkpt lat="42.8393" lon="2.13156">
        <ele>946.79998779297</ele>
        <time>2024-09-30T12:21:27.000Z</time>
      </trkpt>
      <trkpt lat="42.83927" lon="2.13179">
        <ele>943.59997558594</ele>
        <time>2024-09-30T12:21:32.000Z</time>
      </trkpt>
      <trkpt lat="42.8393" lon="2.132">
        <ele>946.40002441406</ele>
        <time>2024-09-30T12:21:37.000Z</time>
      </trkpt>
      <trkpt lat="42.83932" lon="2.13236">
        <ele>950.59997558594</ele>
        <time>2024-09-30T12:21:44.000Z</time>
      </trkpt>
      <trkpt lat="42.8393" lon="2.1326">
        <ele>952.20001220703</ele>
        <time>2024-09-30T12:21:49.000Z</time>
      </trkpt>
      <trkpt lat="42.83925" lon="2.13278">
        <ele>951.40002441406</ele>
        <time>2024-09-30T12:21:55.000Z</time>
      </trkpt>
      <trkpt lat="42.83923" lon="2.13279">
        <ele>950.20001220703</ele>
        <time>2024-09-30T12:22:31.000Z</time>
      </trkpt>
      <trkpt lat="42.83923" lon="2.13286">
        <ele>950.40002441406</ele>
        <time>2024-09-30T12:22:33.000Z</time>
      </trkpt>
      <trkpt lat="42.83929" lon="2.13306">
        <ele>955.40002441406</ele>
        <time>2024-09-30T12:22:38.000Z</time>
      </trkpt>
      <trkpt lat="42.83938" lon="2.13334">
        <ele>961.59997558594</ele>
        <time>2024-09-30T12:22:44.000Z</time>
      </trkpt>
      <trkpt lat="42.83942" lon="2.13356">
        <ele>964.20001220703</ele>
        <time>2024-09-30T12:22:49.000Z</time>
      </trkpt>
      <trkpt lat="42.83942" lon="2.13375">
        <ele>965.59997558594</ele>
        <time>2024-09-30T12:22:53.000Z</time>
      </trkpt>
      <trkpt lat="42.8394" lon="2.13403">
        <ele>966.59997558594</ele>
        <time>2024-09-30T12:22:59.000Z</time>
      </trkpt>
      <trkpt lat="42.83934" lon="2.1343">
        <ele>967.59997558594</ele>
        <time>2024-09-30T12:23:05.000Z</time>
      </trkpt>
      <trkpt lat="42.83926" lon="2.13449">
        <ele>967.59997558594</ele>
        <time>2024-09-30T12:23:10.000Z</time>
      </trkpt>
      <trkpt lat="42.83919" lon="2.13468">
        <ele>968</ele>
        <time>2024-09-30T12:23:15.000Z</time>
      </trkpt>
      <trkpt lat="42.8391" lon="2.13486">
        <ele>968</ele>
        <time>2024-09-30T12:23:20.000Z</time>
      </trkpt>
      <trkpt lat="42.83897" lon="2.13501">
        <ele>966.59997558594</ele>
        <time>2024-09-30T12:23:25.000Z</time>
      </trkpt>
      <trkpt lat="42.83883" lon="2.13512">
        <ele>965.79998779297</ele>
        <time>2024-09-30T12:23:29.000Z</time>
      </trkpt>
      <trkpt lat="42.83863" lon="2.13528">
        <ele>965.20001220703</ele>
        <time>2024-09-30T12:23:35.000Z</time>
      </trkpt>
      <trkpt lat="42.83849" lon="2.13541">
        <ele>964.20001220703</ele>
        <time>2024-09-30T12:23:40.000Z</time>
      </trkpt>
      <trkpt lat="42.8384" lon="2.13553">
        <ele>963.20001220703</ele>
        <time>2024-09-30T12:23:44.000Z</time>
      </trkpt>
      <trkpt lat="42.83837" lon="2.13556">
        <ele>962.40002441406</ele>
        <time>2024-09-30T12:23:45.000Z</time>
      </trkpt>
      <trkpt lat="42.83823" lon="2.1358">
        <ele>960.20001220703</ele>
        <time>2024-09-30T12:23:51.000Z</time>
      </trkpt>
      <trkpt lat="42.83818" lon="2.13614">
        <ele>963.40002441406</ele>
        <time>2024-09-30T12:23:58.000Z</time>
      </trkpt>
      <trkpt lat="42.83818" lon="2.13637">
        <ele>967</ele>
        <time>2024-09-30T12:24:03.000Z</time>
      </trkpt>
      <trkpt lat="42.83814" lon="2.13661">
        <ele>970.79998779297</ele>
        <time>2024-09-30T12:24:08.000Z</time>
      </trkpt>
      <trkpt lat="42.83809" lon="2.1367">
        <ele>971.79998779297</ele>
        <time>2024-09-30T12:24:10.000Z</time>
      </trkpt>
      <trkpt lat="42.838" lon="2.1368">
        <ele>971.79998779297</ele>
        <time>2024-09-30T12:24:13.000Z</time>
      </trkpt>
      <trkpt lat="42.83786" lon="2.13688">
        <ele>969.20001220703</ele>
        <time>2024-09-30T12:24:18.000Z</time>
      </trkpt>
      <trkpt lat="42.83769" lon="2.13697">
        <ele>965.79998779297</ele>
        <time>2024-09-30T12:24:23.000Z</time>
      </trkpt>
      <trkpt lat="42.83755" lon="2.13698">
        <ele>959.40002441406</ele>
        <time>2024-09-30T12:24:27.000Z</time>
      </trkpt>
      <trkpt lat="42.83744" lon="2.13709">
        <ele>954.79998779297</ele>
        <time>2024-09-30T12:24:31.000Z</time>
      </trkpt>
      <trkpt lat="42.83741" lon="2.13721">
        <ele>955.20001220703</ele>
        <time>2024-09-30T12:24:35.000Z</time>
      </trkpt>
      <trkpt lat="42.83734" lon="2.13739">
        <ele>954</ele>
        <time>2024-09-30T12:24:40.000Z</time>
      </trkpt>
      <trkpt lat="42.83728" lon="2.13765">
        <ele>958.20001220703</ele>
        <time>2024-09-30T12:24:47.000Z</time>
      </trkpt>
      <trkpt lat="42.83724" lon="2.13794">
        <ele>964.40002441406</ele>
        <time>2024-09-30T12:24:54.000Z</time>
      </trkpt>
      <trkpt lat="42.83717" lon="2.13817">
        <ele>963.59997558594</ele>
        <time>2024-09-30T12:24:59.000Z</time>
      </trkpt>
      <trkpt lat="42.83706" lon="2.13834">
        <ele>960.20001220703</ele>
        <time>2024-09-30T12:25:04.000Z</time>
      </trkpt>
      <trkpt lat="42.83704" lon="2.13855">
        <ele>960.59997558594</ele>
        <time>2024-09-30T12:25:09.000Z</time>
      </trkpt>
      <trkpt lat="42.83701" lon="2.13864">
        <ele>959.40002441406</ele>
        <time>2024-09-30T12:25:13.000Z</time>
      </trkpt>
      <trkpt lat="42.83699" lon="2.13872">
        <ele>958.59997558594</ele>
        <time>2024-09-30T12:25:47.000Z</time>
      </trkpt>
      <trkpt lat="42.83697" lon="2.13878">
        <ele>958.40002441406</ele>
        <time>2024-09-30T12:25:49.000Z</time>
      </trkpt>
      <trkpt lat="42.83696" lon="2.13902">
        <ele>960.20001220703</ele>
        <time>2024-09-30T12:25:54.000Z</time>
      </trkpt>
      <trkpt lat="42.83695" lon="2.13907">
        <ele>959.79998779297</ele>
        <time>2024-09-30T12:25:55.000Z</time>
      </trkpt>
      <trkpt lat="42.83692" lon="2.13918">
        <ele>958.20001220703</ele>
        <time>2024-09-30T12:25:57.000Z</time>
      </trkpt>
      <trkpt lat="42.83688" lon="2.13929">
        <ele>956.20001220703</ele>
        <time>2024-09-30T12:25:59.000Z</time>
      </trkpt>
      <trkpt lat="42.83685" lon="2.13956">
        <ele>951.40002441406</ele>
        <time>2024-09-30T12:26:04.000Z</time>
      </trkpt>
      <trkpt lat="42.83689" lon="2.13975">
        <ele>949.59997558594</ele>
        <time>2024-09-30T12:26:08.000Z</time>
      </trkpt>
      <trkpt lat="42.837" lon="2.13995">
        <ele>951.40002441406</ele>
        <time>2024-09-30T12:26:13.000Z</time>
      </trkpt>
      <trkpt lat="42.83716" lon="2.1401">
        <ele>954.20001220703</ele>
        <time>2024-09-30T12:26:18.000Z</time>
      </trkpt>
      <trkpt lat="42.83733" lon="2.14016">
        <ele>959.20001220703</ele>
        <time>2024-09-30T12:26:23.000Z</time>
      </trkpt>
      <trkpt lat="42.83738" lon="2.14016">
        <ele>960.40002441406</ele>
        <time>2024-09-30T12:26:24.000Z</time>
      </trkpt>
      <trkpt lat="42.83745" lon="2.14017">
        <ele>962.40002441406</ele>
        <time>2024-09-30T12:26:26.000Z</time>
      </trkpt>
      <trkpt lat="42.83763" lon="2.14027">
        <ele>967</ele>
        <time>2024-09-30T12:26:31.000Z</time>
      </trkpt>
      <trkpt lat="42.83774" lon="2.14045">
        <ele>969.20001220703</ele>
        <time>2024-09-30T12:26:36.000Z</time>
      </trkpt>
      <trkpt lat="42.83778" lon="2.1406">
        <ele>970</ele>
        <time>2024-09-30T12:26:39.000Z</time>
      </trkpt>
      <trkpt lat="42.8378" lon="2.14071">
        <ele>969.40002441406</ele>
        <time>2024-09-30T12:26:41.000Z</time>
      </trkpt>
      <trkpt lat="42.83782" lon="2.14098">
        <ele>968.59997558594</ele>
        <time>2024-09-30T12:26:46.000Z</time>
      </trkpt>
      <trkpt lat="42.83789" lon="2.14127">
        <ele>972</ele>
        <time>2024-09-30T12:26:52.000Z</time>
      </trkpt>
      <trkpt lat="42.83787" lon="2.14166">
        <ele>971.79998779297</ele>
        <time>2024-09-30T12:26:59.000Z</time>
      </trkpt>
      <trkpt lat="42.83784" lon="2.14188">
        <ele>968.79998779297</ele>
        <time>2024-09-30T12:27:04.000Z</time>
      </trkpt>
      <trkpt lat="42.83781" lon="2.14221">
        <ele>966.40002441406</ele>
        <time>2024-09-30T12:27:11.000Z</time>
      </trkpt>
      <trkpt lat="42.83776" lon="2.14262">
        <ele>965.59997558594</ele>
        <time>2024-09-30T12:27:19.000Z</time>
      </trkpt>
      <trkpt lat="42.83768" lon="2.14303">
        <ele>963.79998779297</ele>
        <time>2024-09-30T12:27:27.000Z</time>
      </trkpt>
      <trkpt lat="42.83762" lon="2.14346">
        <ele>963</ele>
        <time>2024-09-30T12:27:35.000Z</time>
      </trkpt>
      <trkpt lat="42.83762" lon="2.14361">
        <ele>962.40002441406</ele>
        <time>2024-09-30T12:27:38.000Z</time>
      </trkpt>
      <trkpt lat="42.83762" lon="2.14378">
        <ele>961.79998779297</ele>
        <time>2024-09-30T12:27:41.000Z</time>
      </trkpt>
      <trkpt lat="42.83761" lon="2.14404">
        <ele>960.59997558594</ele>
        <time>2024-09-30T12:27:46.000Z</time>
      </trkpt>
      <trkpt lat="42.8377" lon="2.1442">
        <ele>961</ele>
        <time>2024-09-30T12:27:50.000Z</time>
      </trkpt>
      <trkpt lat="42.83789" lon="2.14431">
        <ele>964</ele>
        <time>2024-09-30T12:27:55.000Z</time>
      </trkpt>
      <trkpt lat="42.83807" lon="2.14453">
        <ele>966.20001220703</ele>
        <time>2024-09-30T12:28:01.000Z</time>
      </trkpt>
      <trkpt lat="42.83816" lon="2.14476">
        <ele>966.40002441406</ele>
        <time>2024-09-30T12:28:06.000Z</time>
      </trkpt>
      <trkpt lat="42.83816" lon="2.14479">
        <ele>966.40002441406</ele>
        <time>2024-09-30T12:28:07.000Z</time>
      </trkpt>
      <trkpt lat="42.83818" lon="2.14484">
        <ele>966.59997558594</ele>
        <time>2024-09-30T12:28:10.000Z</time>
      </trkpt>
      <trkpt lat="42.83818" lon="2.14484">
        <ele>966.59997558594</ele>
        <time>2024-09-30T12:28:11.000Z</time>
      </trkpt>
      <trkpt lat="42.83816" lon="2.14479">
        <ele>966.40002441406</ele>
        <time>2024-09-30T12:28:37.000Z</time>
      </trkpt>
      <trkpt lat="42.83818" lon="2.14485">
        <ele>966.79998779297</ele>
        <time>2024-09-30T12:28:39.000Z</time>
      </trkpt>
      <trkpt lat="42.83819" lon="2.14504">
        <ele>966</ele>
        <time>2024-09-30T12:28:43.000Z</time>
      </trkpt>
      <trkpt lat="42.83825" lon="2.14546">
        <ele>966</ele>
        <time>2024-09-30T12:28:50.000Z</time>
      </trkpt>
      <trkpt lat="42.8383" lon="2.1457">
        <ele>966.20001220703</ele>
        <time>2024-09-30T12:28:54.000Z</time>
      </trkpt>
      <trkpt lat="42.83831" lon="2.14582">
        <ele>966.20001220703</ele>
        <time>2024-09-30T12:28:56.000Z</time>
      </trkpt>
      <trkpt lat="42.83836" lon="2.1461">
        <ele>967.20001220703</ele>
        <time>2024-09-30T12:29:02.000Z</time>
      </trkpt>
      <trkpt lat="42.83839" lon="2.14622">
        <ele>967.59997558594</ele>
        <time>2024-09-30T12:29:06.000Z</time>
      </trkpt>
      <trkpt lat="42.83838" lon="2.14624">
        <ele>967.59997558594</ele>
        <time>2024-09-30T12:29:07.000Z</time>
      </trkpt>
      <trkpt lat="42.83834" lon="2.14629">
        <ele>967.59997558594</ele>
        <time>2024-09-30T12:29:10.000Z</time>
      </trkpt>
      <trkpt lat="42.8383" lon="2.1463">
        <ele>967.59997558594</ele>
        <time>2024-09-30T12:29:14.000Z</time>
      </trkpt>
      <trkpt lat="42.83836" lon="2.14631">
        <ele>967.79998779297</ele>
        <time>2024-09-30T12:35:32.000Z</time>
      </trkpt>
      <trkpt lat="42.8384" lon="2.14633">
        <ele>967.79998779297</ele>
        <time>2024-09-30T12:35:34.000Z</time>
      </trkpt>
      <trkpt lat="42.83851" lon="2.1464">
        <ele>968.40002441406</ele>
        <time>2024-09-30T12:35:39.000Z</time>
      </trkpt>
      <trkpt lat="42.83856" lon="2.14648">
        <ele>968.40002441406</ele>
        <time>2024-09-30T12:35:41.000Z</time>
      </trkpt>
      <trkpt lat="42.83862" lon="2.14662">
        <ele>968.59997558594</ele>
        <time>2024-09-30T12:35:44.000Z</time>
      </trkpt>
      <trkpt lat="42.83872" lon="2.14674">
        <ele>968.40002441406</ele>
        <time>2024-09-30T12:35:47.000Z</time>
      </trkpt>
      <trkpt lat="42.83882" lon="2.14685">
        <ele>967.20001220703</ele>
        <time>2024-09-30T12:35:50.000Z</time>
      </trkpt>
      <trkpt lat="42.83889" lon="2.14692">
        <ele>965.40002441406</ele>
        <time>2024-09-30T12:35:52.000Z</time>
      </trkpt>
      <trkpt lat="42.83899" lon="2.14709">
        <ele>961.79998779297</ele>
        <time>2024-09-30T12:35:56.000Z</time>
      </trkpt>
      <trkpt lat="42.83914" lon="2.14734">
        <ele>958.40002441406</ele>
        <time>2024-09-30T12:36:02.000Z</time>
      </trkpt>
      <trkpt lat="42.83917" lon="2.14739">
        <ele>957.79998779297</ele>
        <time>2024-09-30T12:36:03.000Z</time>
      </trkpt>
      <trkpt lat="42.83924" lon="2.14751">
        <ele>957.20001220703</ele>
        <time>2024-09-30T12:36:06.000Z</time>
      </trkpt>
      <trkpt lat="42.83936" lon="2.14765">
        <ele>957.20001220703</ele>
        <time>2024-09-30T12:36:10.000Z</time>
      </trkpt>
      <trkpt lat="42.83941" lon="2.14775">
        <ele>956.79998779297</ele>
        <time>2024-09-30T12:36:12.000Z</time>
      </trkpt>
      <trkpt lat="42.83943" lon="2.14781">
        <ele>956.40002441406</ele>
        <time>2024-09-30T12:36:13.000Z</time>
      </trkpt>
      <trkpt lat="42.83943" lon="2.14787">
        <ele>955.79998779297</ele>
        <time>2024-09-30T12:36:14.000Z</time>
      </trkpt>
      <trkpt lat="42.83941" lon="2.14799">
        <ele>954.59997558594</ele>
        <time>2024-09-30T12:36:16.000Z</time>
      </trkpt>
      <trkpt lat="42.8394" lon="2.14805">
        <ele>954.20001220703</ele>
        <time>2024-09-30T12:36:17.000Z</time>
      </trkpt>
      <trkpt lat="42.83937" lon="2.14815">
        <ele>953</ele>
        <time>2024-09-30T12:36:19.000Z</time>
      </trkpt>
      <trkpt lat="42.83933" lon="2.14824">
        <ele>951.20001220703</ele>
        <time>2024-09-30T12:36:21.000Z</time>
      </trkpt>
      <trkpt lat="42.83931" lon="2.14829">
        <ele>950.59997558594</ele>
        <time>2024-09-30T12:36:22.000Z</time>
      </trkpt>
      <trkpt lat="42.83926" lon="2.1485">
        <ele>949</ele>
        <time>2024-09-30T12:36:26.000Z</time>
      </trkpt>
      <trkpt lat="42.83926" lon="2.14863">
        <ele>949.40002441406</ele>
        <time>2024-09-30T12:36:28.000Z</time>
      </trkpt>
      <trkpt lat="42.83928" lon="2.14874">
        <ele>950.20001220703</ele>
        <time>2024-09-30T12:36:30.000Z</time>
      </trkpt>
      <trkpt lat="42.83933" lon="2.14895">
        <ele>950.20001220703</ele>
        <time>2024-09-30T12:36:34.000Z</time>
      </trkpt>
      <trkpt lat="42.83934" lon="2.149">
        <ele>950</ele>
        <time>2024-09-30T12:36:35.000Z</time>
      </trkpt>
      <trkpt lat="42.83935" lon="2.14912">
        <ele>949.20001220703</ele>
        <time>2024-09-30T12:36:37.000Z</time>
      </trkpt>
      <trkpt lat="42.83937" lon="2.14924">
        <ele>948.40002441406</ele>
        <time>2024-09-30T12:36:39.000Z</time>
      </trkpt>
      <trkpt lat="42.83938" lon="2.14936">
        <ele>947.40002441406</ele>
        <time>2024-09-30T12:36:41.000Z</time>
      </trkpt>
      <trkpt lat="42.8394" lon="2.1496">
        <ele>945.79998779297</ele>
        <time>2024-09-30T12:36:45.000Z</time>
      </trkpt>
      <trkpt lat="42.8394" lon="2.14973">
        <ele>944.79998779297</ele>
        <time>2024-09-30T12:36:47.000Z</time>
      </trkpt>
      <trkpt lat="42.8394" lon="2.14979">
        <ele>944.40002441406</ele>
        <time>2024-09-30T12:36:48.000Z</time>
      </trkpt>
      <trkpt lat="42.83942" lon="2.14995">
        <ele>943.59997558594</ele>
        <time>2024-09-30T12:36:51.000Z</time>
      </trkpt>
      <trkpt lat="42.83943" lon="2.15001">
        <ele>943</ele>
        <time>2024-09-30T12:36:52.000Z</time>
      </trkpt>
      <trkpt lat="42.83951" lon="2.15028">
        <ele>941.20001220703</ele>
        <time>2024-09-30T12:36:57.000Z</time>
      </trkpt>
      <trkpt lat="42.83952" lon="2.15049">
        <ele>940.59997558594</ele>
        <time>2024-09-30T12:37:01.000Z</time>
      </trkpt>
      <trkpt lat="42.83953" lon="2.15072">
        <ele>940</ele>
        <time>2024-09-30T12:37:06.000Z</time>
      </trkpt>
      <trkpt lat="42.83954" lon="2.15098">
        <ele>939.20001220703</ele>
        <time>2024-09-30T12:37:10.000Z</time>
      </trkpt>
      <trkpt lat="42.83953" lon="2.15109">
        <ele>937.79998779297</ele>
        <time>2024-09-30T12:37:12.000Z</time>
      </trkpt>
      <trkpt lat="42.83949" lon="2.15119">
        <ele>936</ele>
        <time>2024-09-30T12:37:14.000Z</time>
      </trkpt>
      <trkpt lat="42.83944" lon="2.15127">
        <ele>934.20001220703</ele>
        <time>2024-09-30T12:37:16.000Z</time>
      </trkpt>
      <trkpt lat="42.83942" lon="2.15137">
        <ele>933.20001220703</ele>
        <time>2024-09-30T12:37:18.000Z</time>
      </trkpt>
      <trkpt lat="42.83939" lon="2.15148">
        <ele>932</ele>
        <time>2024-09-30T12:37:20.000Z</time>
      </trkpt>
      <trkpt lat="42.83937" lon="2.15172">
        <ele>931.59997558594</ele>
        <time>2024-09-30T12:37:25.000Z</time>
      </trkpt>
      <trkpt lat="42.83932" lon="2.1519">
        <ele>929.79998779297</ele>
        <time>2024-09-30T12:37:30.000Z</time>
      </trkpt>
      <trkpt lat="42.83928" lon="2.15201">
        <ele>928.59997558594</ele>
        <time>2024-09-30T12:37:33.000Z</time>
      </trkpt>
      <trkpt lat="42.83914" lon="2.15224">
        <ele>926.20001220703</ele>
        <time>2024-09-30T12:37:38.000Z</time>
      </trkpt>
      <trkpt lat="42.83905" lon="2.15237">
        <ele>924.40002441406</ele>
        <time>2024-09-30T12:37:41.000Z</time>
      </trkpt>
      <trkpt lat="42.83902" lon="2.15242">
        <ele>924</ele>
        <time>2024-09-30T12:37:42.000Z</time>
      </trkpt>
      <trkpt lat="42.83895" lon="2.15259">
        <ele>923.40002441406</ele>
        <time>2024-09-30T12:37:46.000Z</time>
      </trkpt>
      <trkpt lat="42.83883" lon="2.15285">
        <ele>921.59997558594</ele>
        <time>2024-09-30T12:37:51.000Z</time>
      </trkpt>
      <trkpt lat="42.83876" lon="2.15297">
        <ele>920.20001220703</ele>
        <time>2024-09-30T12:37:53.000Z</time>
      </trkpt>
      <trkpt lat="42.83867" lon="2.15314">
        <ele>919.59997558594</ele>
        <time>2024-09-30T12:37:56.000Z</time>
      </trkpt>
      <trkpt lat="42.83862" lon="2.15324">
        <ele>919.20001220703</ele>
        <time>2024-09-30T12:37:58.000Z</time>
      </trkpt>
      <trkpt lat="42.83858" lon="2.15333">
        <ele>919</ele>
        <time>2024-09-30T12:38:00.000Z</time>
      </trkpt>
      <trkpt lat="42.83852" lon="2.15343">
        <ele>918.40002441406</ele>
        <time>2024-09-30T12:38:04.000Z</time>
      </trkpt>
      <trkpt lat="42.8385" lon="2.1535">
        <ele>918</ele>
        <time>2024-09-30T12:38:15.000Z</time>
      </trkpt>
      <trkpt lat="42.83848" lon="2.15356">
        <ele>918.59997558594</ele>
        <time>2024-09-30T12:38:17.000Z</time>
      </trkpt>
      <trkpt lat="42.83847" lon="2.15371">
        <ele>919</ele>
        <time>2024-09-30T12:38:23.000Z</time>
      </trkpt>
      <trkpt lat="42.83844" lon="2.15388">
        <ele>919</ele>
        <time>2024-09-30T12:38:29.000Z</time>
      </trkpt>
      <trkpt lat="42.83842" lon="2.15407">
        <ele>918.79998779297</ele>
        <time>2024-09-30T12:38:34.000Z</time>
      </trkpt>
      <trkpt lat="42.83836" lon="2.1543">
        <ele>918.59997558594</ele>
        <time>2024-09-30T12:38:39.000Z</time>
      </trkpt>
      <trkpt lat="42.83829" lon="2.15455">
        <ele>915.79998779297</ele>
        <time>2024-09-30T12:38:44.000Z</time>
      </trkpt>
      <trkpt lat="42.83827" lon="2.15461">
        <ele>915</ele>
        <time>2024-09-30T12:38:45.000Z</time>
      </trkpt>
      <trkpt lat="42.83825" lon="2.15466">
        <ele>914.59997558594</ele>
        <time>2024-09-30T12:38:46.000Z</time>
      </trkpt>
      <trkpt lat="42.83821" lon="2.15476">
        <ele>913.79998779297</ele>
        <time>2024-09-30T12:38:48.000Z</time>
      </trkpt>
      <trkpt lat="42.83818" lon="2.15488">
        <ele>912.79998779297</ele>
        <time>2024-09-30T12:38:50.000Z</time>
      </trkpt>
      <trkpt lat="42.83806" lon="2.15519">
        <ele>912.40002441406</ele>
        <time>2024-09-30T12:38:56.000Z</time>
      </trkpt>
      <trkpt lat="42.83803" lon="2.15528">
        <ele>912.59997558594</ele>
        <time>2024-09-30T12:39:00.000Z</time>
      </trkpt>
      <trkpt lat="42.838" lon="2.15541">
        <ele>912.40002441406</ele>
        <time>2024-09-30T12:39:06.000Z</time>
      </trkpt>
      <trkpt lat="42.83799" lon="2.15543">
        <ele>912</ele>
        <time>2024-09-30T12:39:08.000Z</time>
      </trkpt>
      <trkpt lat="42.83801" lon="2.15544">
        <ele>912.79998779297</ele>
        <time>2024-09-30T12:39:57.000Z</time>
      </trkpt>
      <trkpt lat="42.83802" lon="2.15542">
        <ele>913</ele>
        <time>2024-09-30T12:39:58.000Z</time>
      </trkpt>
      <trkpt lat="42.83804" lon="2.15538">
        <ele>913.59997558594</ele>
        <time>2024-09-30T12:40:00.000Z</time>
      </trkpt>
      <trkpt lat="42.83805" lon="2.15533">
        <ele>913.79998779297</ele>
        <time>2024-09-30T12:40:02.000Z</time>
      </trkpt>
      <trkpt lat="42.83813" lon="2.15516">
        <ele>914.40002441406</ele>
        <time>2024-09-30T12:40:08.000Z</time>
      </trkpt>
      <trkpt lat="42.83824" lon="2.15496">
        <ele>916.40002441406</ele>
        <time>2024-09-30T12:40:14.000Z</time>
      </trkpt>
      <trkpt lat="42.83828" lon="2.15479">
        <ele>916.40002441406</ele>
        <time>2024-09-30T12:40:19.000Z</time>
      </trkpt>
      <trkpt lat="42.8383" lon="2.15475">
        <ele>916.59997558594</ele>
        <time>2024-09-30T12:40:20.000Z</time>
      </trkpt>
      <trkpt lat="42.83835" lon="2.15465">
        <ele>917.59997558594</ele>
        <time>2024-09-30T12:40:23.000Z</time>
      </trkpt>
      <trkpt lat="42.83843" lon="2.15445">
        <ele>920.40002441406</ele>
        <time>2024-09-30T12:40:29.000Z</time>
      </trkpt>
      <trkpt lat="42.8385" lon="2.15431">
        <ele>922.79998779297</ele>
        <time>2024-09-30T12:40:33.000Z</time>
      </trkpt>
      <trkpt lat="42.83851" lon="2.15422">
        <ele>923</ele>
        <time>2024-09-30T12:40:35.000Z</time>
      </trkpt>
      <trkpt lat="42.83856" lon="2.154">
        <ele>923.40002441406</ele>
        <time>2024-09-30T12:40:41.000Z</time>
      </trkpt>
      <trkpt lat="42.83861" lon="2.15381">
        <ele>923.59997558594</ele>
        <time>2024-09-30T12:40:47.000Z</time>
      </trkpt>
      <trkpt lat="42.83874" lon="2.15364">
        <ele>924.59997558594</ele>
        <time>2024-09-30T12:40:53.000Z</time>
      </trkpt>
      <trkpt lat="42.83884" lon="2.1535">
        <ele>925.40002441406</ele>
        <time>2024-09-30T12:40:58.000Z</time>
      </trkpt>
      <trkpt lat="42.83902" lon="2.1533">
        <ele>929.40002441406</ele>
        <time>2024-09-30T12:41:06.000Z</time>
      </trkpt>
      <trkpt lat="42.8391" lon="2.15312">
        <ele>930.79998779297</ele>
        <time>2024-09-30T12:41:11.000Z</time>
      </trkpt>
      <trkpt lat="42.83918" lon="2.15293">
        <ele>932</ele>
        <time>2024-09-30T12:41:17.000Z</time>
      </trkpt>
      <trkpt lat="42.8393" lon="2.15265">
        <ele>932</ele>
        <time>2024-09-30T12:41:25.000Z</time>
      </trkpt>
      <trkpt lat="42.83938" lon="2.15247">
        <ele>933</ele>
        <time>2024-09-30T12:41:31.000Z</time>
      </trkpt>
      <trkpt lat="42.83949" lon="2.15231">
        <ele>934.59997558594</ele>
        <time>2024-09-30T12:41:37.000Z</time>
      </trkpt>
      <trkpt lat="42.8396" lon="2.15217">
        <ele>938.40002441406</ele>
        <time>2024-09-30T12:41:43.000Z</time>
      </trkpt>
      <trkpt lat="42.83969" lon="2.15202">
        <ele>940.59997558594</ele>
        <time>2024-09-30T12:41:48.000Z</time>
      </trkpt>
      <trkpt lat="42.83981" lon="2.15187">
        <ele>942</ele>
        <time>2024-09-30T12:41:54.000Z</time>
      </trkpt>
      <trkpt lat="42.83992" lon="2.15174">
        <ele>943.79998779297</ele>
        <time>2024-09-30T12:42:00.000Z</time>
      </trkpt>
      <trkpt lat="42.84004" lon="2.15164">
        <ele>945.40002441406</ele>
        <time>2024-09-30T12:42:06.000Z</time>
      </trkpt>
      <trkpt lat="42.84011" lon="2.15156">
        <ele>946.40002441406</ele>
        <time>2024-09-30T12:42:10.000Z</time>
      </trkpt>
      <trkpt lat="42.84022" lon="2.15147">
        <ele>949.40002441406</ele>
        <time>2024-09-30T12:42:16.000Z</time>
      </trkpt>
      <trkpt lat="42.84033" lon="2.15139">
        <ele>951.59997558594</ele>
        <time>2024-09-30T12:42:21.000Z</time>
      </trkpt>
      <trkpt lat="42.84043" lon="2.15128">
        <ele>954</ele>
        <time>2024-09-30T12:42:26.000Z</time>
      </trkpt>
      <trkpt lat="42.84043" lon="2.15124">
        <ele>954.20001220703</ele>
        <time>2024-09-30T12:42:27.000Z</time>
      </trkpt>
      <trkpt lat="42.84044" lon="2.15112">
        <ele>955.20001220703</ele>
        <time>2024-09-30T12:42:30.000Z</time>
      </trkpt>
      <trkpt lat="42.84044" lon="2.15109">
        <ele>955.40002441406</ele>
        <time>2024-09-30T12:42:31.000Z</time>
      </trkpt>
      <trkpt lat="42.84046" lon="2.15103">
        <ele>955.79998779297</ele>
        <time>2024-09-30T12:42:33.000Z</time>
      </trkpt>
      <trkpt lat="42.84045" lon="2.15099">
        <ele>956</ele>
        <time>2024-09-30T12:42:34.000Z</time>
      </trkpt>
      <trkpt lat="42.84046" lon="2.15093">
        <ele>956.40002441406</ele>
        <time>2024-09-30T12:42:36.000Z</time>
      </trkpt>
      <trkpt lat="42.84048" lon="2.15087">
        <ele>956.79998779297</ele>
        <time>2024-09-30T12:42:38.000Z</time>
      </trkpt>
      <trkpt lat="42.8405" lon="2.15084">
        <ele>957</ele>
        <time>2024-09-30T12:42:39.000Z</time>
      </trkpt>
      <trkpt lat="42.84053" lon="2.15078">
        <ele>957.40002441406</ele>
        <time>2024-09-30T12:42:41.000Z</time>
      </trkpt>
      <trkpt lat="42.84057" lon="2.15077">
        <ele>958</ele>
        <time>2024-09-30T12:42:43.000Z</time>
      </trkpt>
      <trkpt lat="42.8407" lon="2.15081">
        <ele>959.59997558594</ele>
        <time>2024-09-30T12:42:48.000Z</time>
      </trkpt>
      <trkpt lat="42.84076" lon="2.15091">
        <ele>960.40002441406</ele>
        <time>2024-09-30T12:42:52.000Z</time>
      </trkpt>
      <trkpt lat="42.84083" lon="2.15108">
        <ele>961</ele>
        <time>2024-09-30T12:42:58.000Z</time>
      </trkpt>
      <trkpt lat="42.84085" lon="2.15113">
        <ele>961.20001220703</ele>
        <time>2024-09-30T12:43:00.000Z</time>
      </trkpt>
      <trkpt lat="42.84088" lon="2.1512">
        <ele>961.40002441406</ele>
        <time>2024-09-30T12:43:03.000Z</time>
      </trkpt>
      <trkpt lat="42.84094" lon="2.15133">
        <ele>962.20001220703</ele>
        <time>2024-09-30T12:43:08.000Z</time>
      </trkpt>
      <trkpt lat="42.84101" lon="2.15145">
        <ele>963.40002441406</ele>
        <time>2024-09-30T12:43:13.000Z</time>
      </trkpt>
      <trkpt lat="42.84109" lon="2.15165">
        <ele>965</ele>
        <time>2024-09-30T12:43:20.000Z</time>
      </trkpt>
      <trkpt lat="42.84119" lon="2.15182">
        <ele>966.79998779297</ele>
        <time>2024-09-30T12:43:27.000Z</time>
      </trkpt>
      <trkpt lat="42.84122" lon="2.15187">
        <ele>967.20001220703</ele>
        <time>2024-09-30T12:43:29.000Z</time>
      </trkpt>
      <trkpt lat="42.84122" lon="2.15193">
        <ele>967.40002441406</ele>
        <time>2024-09-30T12:43:31.000Z</time>
      </trkpt>
      <trkpt lat="42.84121" lon="2.1521">
        <ele>968</ele>
        <time>2024-09-30T12:43:36.000Z</time>
      </trkpt>
      <trkpt lat="42.84121" lon="2.15213">
        <ele>968</ele>
        <time>2024-09-30T12:43:37.000Z</time>
      </trkpt>
      <trkpt lat="42.84125" lon="2.15222">
        <ele>969</ele>
        <time>2024-09-30T12:43:40.000Z</time>
      </trkpt>
      <trkpt lat="42.84132" lon="2.15234">
        <ele>970.40002441406</ele>
        <time>2024-09-30T12:43:45.000Z</time>
      </trkpt>
      <trkpt lat="42.84142" lon="2.15248">
        <ele>972</ele>
        <time>2024-09-30T12:43:51.000Z</time>
      </trkpt>
      <trkpt lat="42.84154" lon="2.15269">
        <ele>974.79998779297</ele>
        <time>2024-09-30T12:43:59.000Z</time>
      </trkpt>
      <trkpt lat="42.84161" lon="2.15275">
        <ele>976</ele>
        <time>2024-09-30T12:44:03.000Z</time>
      </trkpt>
      <trkpt lat="42.84171" lon="2.15277">
        <ele>977.59997558594</ele>
        <time>2024-09-30T12:44:08.000Z</time>
      </trkpt>
      <trkpt lat="42.84179" lon="2.15284">
        <ele>979.20001220703</ele>
        <time>2024-09-30T12:44:12.000Z</time>
      </trkpt>
      <trkpt lat="42.8418" lon="2.15287">
        <ele>979.40002441406</ele>
        <time>2024-09-30T12:44:13.000Z</time>
      </trkpt>
      <trkpt lat="42.84188" lon="2.15298">
        <ele>981.40002441406</ele>
        <time>2024-09-30T12:44:18.000Z</time>
      </trkpt>
      <trkpt lat="42.84189" lon="2.15301">
        <ele>982</ele>
        <time>2024-09-30T12:44:19.000Z</time>
      </trkpt>
      <trkpt lat="42.84192" lon="2.15311">
        <ele>984</ele>
        <time>2024-09-30T12:44:23.000Z</time>
      </trkpt>
      <trkpt lat="42.84201" lon="2.15333">
        <ele>988.59997558594</ele>
        <time>2024-09-30T12:44:30.000Z</time>
      </trkpt>
      <trkpt lat="42.84204" lon="2.15348">
        <ele>991.40002441406</ele>
        <time>2024-09-30T12:44:35.000Z</time>
      </trkpt>
      <trkpt lat="42.84203" lon="2.15366">
        <ele>993.40002441406</ele>
        <time>2024-09-30T12:44:40.000Z</time>
      </trkpt>
      <trkpt lat="42.84199" lon="2.15379">
        <ele>994.20001220703</ele>
        <time>2024-09-30T12:44:44.000Z</time>
      </trkpt>
      <trkpt lat="42.84194" lon="2.15387">
        <ele>994.20001220703</ele>
        <time>2024-09-30T12:44:47.000Z</time>
      </trkpt>
      <trkpt lat="42.84193" lon="2.15391">
        <ele>994.40002441406</ele>
        <time>2024-09-30T12:44:48.000Z</time>
      </trkpt>
      <trkpt lat="42.84184" lon="2.15409">
        <ele>995.20001220703</ele>
        <time>2024-09-30T12:44:53.000Z</time>
      </trkpt>
      <trkpt lat="42.84175" lon="2.15432">
        <ele>996.59997558594</ele>
        <time>2024-09-30T12:44:59.000Z</time>
      </trkpt>
      <trkpt lat="42.84175" lon="2.15446">
        <ele>997.79998779297</ele>
        <time>2024-09-30T12:45:04.000Z</time>
      </trkpt>
      <trkpt lat="42.84176" lon="2.15455">
        <ele>998.59997558594</ele>
        <time>2024-09-30T12:45:07.000Z</time>
      </trkpt>
      <trkpt lat="42.84176" lon="2.15458">
        <ele>998.59997558594</ele>
        <time>2024-09-30T12:45:08.000Z</time>
      </trkpt>
      <trkpt lat="42.84178" lon="2.15463">
        <ele>999.20001220703</ele>
        <time>2024-09-30T12:45:10.000Z</time>
      </trkpt>
      <trkpt lat="42.84178" lon="2.1547">
        <ele>999.79998779297</ele>
        <time>2024-09-30T12:45:12.000Z</time>
      </trkpt>
      <trkpt lat="42.84178" lon="2.15482">
        <ele>1000.799987793</ele>
        <time>2024-09-30T12:45:15.000Z</time>
      </trkpt>
      <trkpt lat="42.84179" lon="2.15486">
        <ele>1001.200012207</ele>
        <time>2024-09-30T12:45:16.000Z</time>
      </trkpt>
      <trkpt lat="42.84179" lon="2.15505">
        <ele>1002.4000244141</ele>
        <time>2024-09-30T12:45:21.000Z</time>
      </trkpt>
      <trkpt lat="42.84171" lon="2.15526">
        <ele>1004.200012207</ele>
        <time>2024-09-30T12:45:27.000Z</time>
      </trkpt>
      <trkpt lat="42.84163" lon="2.15539">
        <ele>1006</ele>
        <time>2024-09-30T12:45:31.000Z</time>
      </trkpt>
      <trkpt lat="42.84159" lon="2.1555">
        <ele>1006.200012207</ele>
        <time>2024-09-30T12:45:35.000Z</time>
      </trkpt>
      <trkpt lat="42.84157" lon="2.15564">
        <ele>1006.4000244141</ele>
        <time>2024-09-30T12:45:39.000Z</time>
      </trkpt>
      <trkpt lat="42.84153" lon="2.1558">
        <ele>1007</ele>
        <time>2024-09-30T12:45:44.000Z</time>
      </trkpt>
      <trkpt lat="42.84152" lon="2.156">
        <ele>1008.5999755859</ele>
        <time>2024-09-30T12:45:51.000Z</time>
      </trkpt>
      <trkpt lat="42.84151" lon="2.15602">
        <ele>1008.799987793</ele>
        <time>2024-09-30T12:45:52.000Z</time>
      </trkpt>
      <trkpt lat="42.84152" lon="2.15608">
        <ele>1009.5999755859</ele>
        <time>2024-09-30T12:45:56.000Z</time>
      </trkpt>
      <trkpt lat="42.84148" lon="2.15613">
        <ele>1011</ele>
        <time>2024-09-30T12:46:18.000Z</time>
      </trkpt>
      <trkpt lat="42.84145" lon="2.15618">
        <ele>1012.4000244141</ele>
        <time>2024-09-30T12:46:20.000Z</time>
      </trkpt>
      <trkpt lat="42.84139" lon="2.1563">
        <ele>1015</ele>
        <time>2024-09-30T12:46:25.000Z</time>
      </trkpt>
      <trkpt lat="42.84135" lon="2.1564">
        <ele>1017.4000244141</ele>
        <time>2024-09-30T12:46:30.000Z</time>
      </trkpt>
      <trkpt lat="42.84128" lon="2.1565">
        <ele>1019</ele>
        <time>2024-09-30T12:46:34.000Z</time>
      </trkpt>
      <trkpt lat="42.84123" lon="2.15666">
        <ele>1021.200012207</ele>
        <time>2024-09-30T12:46:39.000Z</time>
      </trkpt>
      <trkpt lat="42.84121" lon="2.15676">
        <ele>1022.799987793</ele>
        <time>2024-09-30T12:46:42.000Z</time>
      </trkpt>
      <trkpt lat="42.84119" lon="2.15681">
        <ele>1023.4000244141</ele>
        <time>2024-09-30T12:46:44.000Z</time>
      </trkpt>
      <trkpt lat="42.84117" lon="2.15693">
        <ele>1024</ele>
        <time>2024-09-30T12:46:48.000Z</time>
      </trkpt>
      <trkpt lat="42.84115" lon="2.15708">
        <ele>1024.4000244141</ele>
        <time>2024-09-30T12:46:53.000Z</time>
      </trkpt>
      <trkpt lat="42.84112" lon="2.15721">
        <ele>1025.1999511719</ele>
        <time>2024-09-30T12:46:57.000Z</time>
      </trkpt>
      <trkpt lat="42.84112" lon="2.15731">
        <ele>1026</ele>
        <time>2024-09-30T12:47:00.000Z</time>
      </trkpt>
      <trkpt lat="42.84113" lon="2.15735">
        <ele>1026.1999511719</ele>
        <time>2024-09-30T12:47:01.000Z</time>
      </trkpt>
      <trkpt lat="42.84113" lon="2.15743">
        <ele>1027</ele>
        <time>2024-09-30T12:47:03.000Z</time>
      </trkpt>
      <trkpt lat="42.84113" lon="2.15753">
        <ele>1028.5999755859</ele>
        <time>2024-09-30T12:47:06.000Z</time>
      </trkpt>
      <trkpt lat="42.84113" lon="2.15756">
        <ele>1029</ele>
        <time>2024-09-30T12:47:07.000Z</time>
      </trkpt>
      <trkpt lat="42.84113" lon="2.15763">
        <ele>1030</ele>
        <time>2024-09-30T12:47:09.000Z</time>
      </trkpt>
      <trkpt lat="42.84117" lon="2.15777">
        <ele>1032.4000244141</ele>
        <time>2024-09-30T12:47:13.000Z</time>
      </trkpt>
      <trkpt lat="42.84118" lon="2.15779">
        <ele>1032.8000488281</ele>
        <time>2024-09-30T12:47:14.000Z</time>
      </trkpt>
      <trkpt lat="42.84121" lon="2.15785">
        <ele>1034</ele>
        <time>2024-09-30T12:47:16.000Z</time>
      </trkpt>
      <trkpt lat="42.84123" lon="2.15791">
        <ele>1034.8000488281</ele>
        <time>2024-09-30T12:47:18.000Z</time>
      </trkpt>
      <trkpt lat="42.84127" lon="2.15809">
        <ele>1038.1999511719</ele>
        <time>2024-09-30T12:47:23.000Z</time>
      </trkpt>
      <trkpt lat="42.8413" lon="2.15817">
        <ele>1039.8000488281</ele>
        <time>2024-09-30T12:47:25.000Z</time>
      </trkpt>
      <trkpt lat="42.84131" lon="2.15823">
        <ele>1041</ele>
        <time>2024-09-30T12:47:27.000Z</time>
      </trkpt>
      <trkpt lat="42.84134" lon="2.15835">
        <ele>1043.4000244141</ele>
        <time>2024-09-30T12:47:31.000Z</time>
      </trkpt>
      <trkpt lat="42.84143" lon="2.15853">
        <ele>1046.1999511719</ele>
        <time>2024-09-30T12:47:37.000Z</time>
      </trkpt>
      <trkpt lat="42.84144" lon="2.15856">
        <ele>1046.5999755859</ele>
        <time>2024-09-30T12:47:38.000Z</time>
      </trkpt>
      <trkpt lat="42.84148" lon="2.15864">
        <ele>1047.8000488281</ele>
        <time>2024-09-30T12:47:41.000Z</time>
      </trkpt>
      <trkpt lat="42.84159" lon="2.15881">
        <ele>1048.4000244141</ele>
        <time>2024-09-30T12:47:47.000Z</time>
      </trkpt>
      <trkpt lat="42.84169" lon="2.15902">
        <ele>1050.1999511719</ele>
        <time>2024-09-30T12:47:53.000Z</time>
      </trkpt>
      <trkpt lat="42.84176" lon="2.15916">
        <ele>1052</ele>
        <time>2024-09-30T12:47:58.000Z</time>
      </trkpt>
      <trkpt lat="42.84181" lon="2.15934">
        <ele>1055.1999511719</ele>
        <time>2024-09-30T12:48:04.000Z</time>
      </trkpt>
      <trkpt lat="42.84185" lon="2.1594">
        <ele>1056.4000244141</ele>
        <time>2024-09-30T12:48:06.000Z</time>
      </trkpt>
      <trkpt lat="42.84189" lon="2.15947">
        <ele>1057.5999755859</ele>
        <time>2024-09-30T12:48:08.000Z</time>
      </trkpt>
      <trkpt lat="42.84191" lon="2.15956">
        <ele>1060.1999511719</ele>
        <time>2024-09-30T12:48:11.000Z</time>
      </trkpt>
      <trkpt lat="42.84192" lon="2.15959">
        <ele>1061</ele>
        <time>2024-09-30T12:48:12.000Z</time>
      </trkpt>
      <trkpt lat="42.84193" lon="2.15972">
        <ele>1064.1999511719</ele>
        <time>2024-09-30T12:48:16.000Z</time>
      </trkpt>
      <trkpt lat="42.84194" lon="2.15975">
        <ele>1064.8000488281</ele>
        <time>2024-09-30T12:48:17.000Z</time>
      </trkpt>
      <trkpt lat="42.84196" lon="2.15981">
        <ele>1066</ele>
        <time>2024-09-30T12:48:19.000Z</time>
      </trkpt>
      <trkpt lat="42.84199" lon="2.15989">
        <ele>1067.4000244141</ele>
        <time>2024-09-30T12:48:22.000Z</time>
      </trkpt>
      <trkpt lat="42.84205" lon="2.16">
        <ele>1068.5999755859</ele>
        <time>2024-09-30T12:48:25.000Z</time>
      </trkpt>
      <trkpt lat="42.84207" lon="2.16007">
        <ele>1069.4000244141</ele>
        <time>2024-09-30T12:48:27.000Z</time>
      </trkpt>
      <trkpt lat="42.84208" lon="2.1601">
        <ele>1069.8000488281</ele>
        <time>2024-09-30T12:48:28.000Z</time>
      </trkpt>
      <trkpt lat="42.8421" lon="2.16018">
        <ele>1070.8000488281</ele>
        <time>2024-09-30T12:48:30.000Z</time>
      </trkpt>
      <trkpt lat="42.8421" lon="2.16021">
        <ele>1071.4000244141</ele>
        <time>2024-09-30T12:48:31.000Z</time>
      </trkpt>
      <trkpt lat="42.84211" lon="2.16025">
        <ele>1071.8000488281</ele>
        <time>2024-09-30T12:48:32.000Z</time>
      </trkpt>
      <trkpt lat="42.84215" lon="2.16038">
        <ele>1072.1999511719</ele>
        <time>2024-09-30T12:48:36.000Z</time>
      </trkpt>
      <trkpt lat="42.84224" lon="2.16055">
        <ele>1073.4000244141</ele>
        <time>2024-09-30T12:48:42.000Z</time>
      </trkpt>
      <trkpt lat="42.84231" lon="2.16072">
        <ele>1075.5999755859</ele>
        <time>2024-09-30T12:48:47.000Z</time>
      </trkpt>
      <trkpt lat="42.84238" lon="2.16086">
        <ele>1077</ele>
        <time>2024-09-30T12:48:52.000Z</time>
      </trkpt>
      <trkpt lat="42.84245" lon="2.161">
        <ele>1077.8000488281</ele>
        <time>2024-09-30T12:48:57.000Z</time>
      </trkpt>
      <trkpt lat="42.84255" lon="2.16112">
        <ele>1077</ele>
        <time>2024-09-30T12:49:01.000Z</time>
      </trkpt>
      <trkpt lat="42.84264" lon="2.16122">
        <ele>1077.1999511719</ele>
        <time>2024-09-30T12:49:04.000Z</time>
      </trkpt>
      <trkpt lat="42.84265" lon="2.16129">
        <ele>1077.8000488281</ele>
        <time>2024-09-30T12:49:06.000Z</time>
      </trkpt>
      <trkpt lat="42.84266" lon="2.16131">
        <ele>1078</ele>
        <time>2024-09-30T12:49:07.000Z</time>
      </trkpt>
      <trkpt lat="42.84266" lon="2.16139">
        <ele>1078.4000244141</ele>
        <time>2024-09-30T12:49:09.000Z</time>
      </trkpt>
      <trkpt lat="42.84272" lon="2.16147">
        <ele>1078.5999755859</ele>
        <time>2024-09-30T12:49:13.000Z</time>
      </trkpt>
      <trkpt lat="42.84282" lon="2.16167">
        <ele>1078.5999755859</ele>
        <time>2024-09-30T12:49:19.000Z</time>
      </trkpt>
      <trkpt lat="42.84283" lon="2.16174">
        <ele>1078.4000244141</ele>
        <time>2024-09-30T12:49:21.000Z</time>
      </trkpt>
      <trkpt lat="42.84285" lon="2.16178">
        <ele>1078.1999511719</ele>
        <time>2024-09-30T12:49:23.000Z</time>
      </trkpt>
      <trkpt lat="42.84291" lon="2.16189">
        <ele>1078.4000244141</ele>
        <time>2024-09-30T12:49:28.000Z</time>
      </trkpt>
      <trkpt lat="42.84298" lon="2.16199">
        <ele>1079.1999511719</ele>
        <time>2024-09-30T12:49:32.000Z</time>
      </trkpt>
      <trkpt lat="42.84299" lon="2.162">
        <ele>1079.1999511719</ele>
        <time>2024-09-30T12:49:33.000Z</time>
      </trkpt>
      <trkpt lat="42.84299" lon="2.16204">
        <ele>1079.1999511719</ele>
        <time>2024-09-30T12:49:35.000Z</time>
      </trkpt>
      <trkpt lat="42.84301" lon="2.1621">
        <ele>1079.4000244141</ele>
        <time>2024-09-30T12:49:38.000Z</time>
      </trkpt>
      <trkpt lat="42.84304" lon="2.16212">
        <ele>1079.8000488281</ele>
        <time>2024-09-30T12:49:39.000Z</time>
      </trkpt>
      <trkpt lat="42.84311" lon="2.16223">
        <ele>1080.5999755859</ele>
        <time>2024-09-30T12:49:42.000Z</time>
      </trkpt>
      <trkpt lat="42.84312" lon="2.16226">
        <ele>1080.5999755859</ele>
        <time>2024-09-30T12:49:43.000Z</time>
      </trkpt>
      <trkpt lat="42.84312" lon="2.16235">
        <ele>1080.8000488281</ele>
        <time>2024-09-30T12:49:46.000Z</time>
      </trkpt>
      <trkpt lat="42.84305" lon="2.16245">
        <ele>1079.4000244141</ele>
        <time>2024-09-30T12:49:57.000Z</time>
      </trkpt>
      <trkpt lat="42.84298" lon="2.16261">
        <ele>1078.1999511719</ele>
        <time>2024-09-30T12:50:03.000Z</time>
      </trkpt>
      <trkpt lat="42.84298" lon="2.16264">
        <ele>1078.1999511719</ele>
        <time>2024-09-30T12:50:04.000Z</time>
      </trkpt>
      <trkpt lat="42.84298" lon="2.16267">
        <ele>1078.1999511719</ele>
        <time>2024-09-30T12:50:06.000Z</time>
      </trkpt>
      <trkpt lat="42.843" lon="2.16277">
        <ele>1078.4000244141</ele>
        <time>2024-09-30T12:50:10.000Z</time>
      </trkpt>
      <trkpt lat="42.843" lon="2.16279">
        <ele>1078.4000244141</ele>
        <time>2024-09-30T12:50:11.000Z</time>
      </trkpt>
      <trkpt lat="42.84297" lon="2.16289">
        <ele>1078</ele>
        <time>2024-09-30T12:50:14.000Z</time>
      </trkpt>
      <trkpt lat="42.84291" lon="2.16302">
        <ele>1077.1999511719</ele>
        <time>2024-09-30T12:50:16.000Z</time>
      </trkpt>
      <trkpt lat="42.84289" lon="2.16309">
        <ele>1076.5999755859</ele>
        <time>2024-09-30T12:50:17.000Z</time>
      </trkpt>
      <trkpt lat="42.84288" lon="2.16317">
        <ele>1076.4000244141</ele>
        <time>2024-09-30T12:50:18.000Z</time>
      </trkpt>
      <trkpt lat="42.84287" lon="2.16326">
        <ele>1076</ele>
        <time>2024-09-30T12:50:20.000Z</time>
      </trkpt>
      <trkpt lat="42.84283" lon="2.16334">
        <ele>1076.1999511719</ele>
        <time>2024-09-30T12:50:21.000Z</time>
      </trkpt>
      <trkpt lat="42.84281" lon="2.16348">
        <ele>1076.1999511719</ele>
        <time>2024-09-30T12:50:24.000Z</time>
      </trkpt>
      <trkpt lat="42.8428" lon="2.16353">
        <ele>1076.4000244141</ele>
        <time>2024-09-30T12:50:25.000Z</time>
      </trkpt>
      <trkpt lat="42.8428" lon="2.16364">
        <ele>1076.8000488281</ele>
        <time>2024-09-30T12:50:28.000Z</time>
      </trkpt>
      <trkpt lat="42.84282" lon="2.1638">
        <ele>1077.4000244141</ele>
        <time>2024-09-30T12:50:32.000Z</time>
      </trkpt>
      <trkpt lat="42.8428" lon="2.16398">
        <ele>1078.1999511719</ele>
        <time>2024-09-30T12:50:37.000Z</time>
      </trkpt>
      <trkpt lat="42.8428" lon="2.16401">
        <ele>1078.4000244141</ele>
        <time>2024-09-30T12:50:38.000Z</time>
      </trkpt>
      <trkpt lat="42.84278" lon="2.16405">
        <ele>1078.5999755859</ele>
        <time>2024-09-30T12:50:40.000Z</time>
      </trkpt>
      <trkpt lat="42.84276" lon="2.16414">
        <ele>1078.8000488281</ele>
        <time>2024-09-30T12:50:43.000Z</time>
      </trkpt>
      <trkpt lat="42.84276" lon="2.16416">
        <ele>1078.8000488281</ele>
        <time>2024-09-30T12:50:44.000Z</time>
      </trkpt>
      <trkpt lat="42.84276" lon="2.16419">
        <ele>1078.8000488281</ele>
        <time>2024-09-30T12:50:45.000Z</time>
      </trkpt>
      <trkpt lat="42.84276" lon="2.16428">
        <ele>1078.8000488281</ele>
        <time>2024-09-30T12:50:48.000Z</time>
      </trkpt>
      <trkpt lat="42.8428" lon="2.16442">
        <ele>1078.5999755859</ele>
        <time>2024-09-30T12:50:53.000Z</time>
      </trkpt>
      <trkpt lat="42.84282" lon="2.16458">
        <ele>1078.4000244141</ele>
        <time>2024-09-30T12:50:58.000Z</time>
      </trkpt>
      <trkpt lat="42.84283" lon="2.16464">
        <ele>1078.4000244141</ele>
        <time>2024-09-30T12:51:00.000Z</time>
      </trkpt>
      <trkpt lat="42.84284" lon="2.16471">
        <ele>1078.1999511719</ele>
        <time>2024-09-30T12:51:02.000Z</time>
      </trkpt>
      <trkpt lat="42.84285" lon="2.16489">
        <ele>1078.1999511719</ele>
        <time>2024-09-30T12:51:07.000Z</time>
      </trkpt>
      <trkpt lat="42.84287" lon="2.16502">
        <ele>1078</ele>
        <time>2024-09-30T12:51:11.000Z</time>
      </trkpt>
      <trkpt lat="42.84291" lon="2.16522">
        <ele>1078</ele>
        <time>2024-09-30T12:51:17.000Z</time>
      </trkpt>
      <trkpt lat="42.84294" lon="2.16542">
        <ele>1078</ele>
        <time>2024-09-30T12:51:22.000Z</time>
      </trkpt>
      <trkpt lat="42.84293" lon="2.16545">
        <ele>1078</ele>
        <time>2024-09-30T12:51:23.000Z</time>
      </trkpt>
      <trkpt lat="42.84292" lon="2.16548">
        <ele>1078</ele>
        <time>2024-09-30T12:51:24.000Z</time>
      </trkpt>
      <trkpt lat="42.84291" lon="2.16556">
        <ele>1078.4000244141</ele>
        <time>2024-09-30T12:51:26.000Z</time>
      </trkpt>
      <trkpt lat="42.84292" lon="2.1656">
        <ele>1078.5999755859</ele>
        <time>2024-09-30T12:51:27.000Z</time>
      </trkpt>
      <trkpt lat="42.84291" lon="2.16567">
        <ele>1078.8000488281</ele>
        <time>2024-09-30T12:51:29.000Z</time>
      </trkpt>
      <trkpt lat="42.84291" lon="2.1658">
        <ele>1079.1999511719</ele>
        <time>2024-09-30T12:51:32.000Z</time>
      </trkpt>
      <trkpt lat="42.84291" lon="2.16587">
        <ele>1079.1999511719</ele>
        <time>2024-09-30T12:51:34.000Z</time>
      </trkpt>
      <trkpt lat="42.84295" lon="2.16607">
        <ele>1079.1999511719</ele>
        <time>2024-09-30T12:51:39.000Z</time>
      </trkpt>
      <trkpt lat="42.84297" lon="2.16636">
        <ele>1078.4000244141</ele>
        <time>2024-09-30T12:51:46.000Z</time>
      </trkpt>
      <trkpt lat="42.84299" lon="2.16655">
        <ele>1077.5999755859</ele>
        <time>2024-09-30T12:51:51.000Z</time>
      </trkpt>
      <trkpt lat="42.84303" lon="2.16673">
        <ele>1076</ele>
        <time>2024-09-30T12:51:56.000Z</time>
      </trkpt>
      <trkpt lat="42.84306" lon="2.1669">
        <ele>1074.8000488281</ele>
        <time>2024-09-30T12:52:01.000Z</time>
      </trkpt>
      <trkpt lat="42.84307" lon="2.16693">
        <ele>1074.5999755859</ele>
        <time>2024-09-30T12:52:02.000Z</time>
      </trkpt>
      <trkpt lat="42.8431" lon="2.16719">
        <ele>1073</ele>
        <time>2024-09-30T12:52:10.000Z</time>
      </trkpt>
      <trkpt lat="42.84308" lon="2.16731">
        <ele>1072</ele>
        <time>2024-09-30T12:52:15.000Z</time>
      </trkpt>
      <trkpt lat="42.843" lon="2.16735">
        <ele>1070.4000244141</ele>
        <time>2024-09-30T12:52:20.000Z</time>
      </trkpt>
      <trkpt lat="42.84299" lon="2.16734">
        <ele>1070.4000244141</ele>
        <time>2024-09-30T12:52:21.000Z</time>
      </trkpt>
      <trkpt lat="42.84297" lon="2.16732">
        <ele>1070</ele>
        <time>2024-09-30T12:52:23.000Z</time>
      </trkpt>
      <trkpt lat="42.84292" lon="2.1673">
        <ele>1069.1999511719</ele>
        <time>2024-09-30T12:52:26.000Z</time>
      </trkpt>
      <trkpt lat="42.84276" lon="2.16733">
        <ele>1067</ele>
        <time>2024-09-30T12:52:32.000Z</time>
      </trkpt>
      <trkpt lat="42.84266" lon="2.16743">
        <ele>1065</ele>
        <time>2024-09-30T12:52:36.000Z</time>
      </trkpt>
      <trkpt lat="42.84262" lon="2.16762">
        <ele>1062.8000488281</ele>
        <time>2024-09-30T12:52:42.000Z</time>
      </trkpt>
      <trkpt lat="42.84264" lon="2.1678">
        <ele>1062.4000244141</ele>
        <time>2024-09-30T12:52:48.000Z</time>
      </trkpt>
      <trkpt lat="42.84268" lon="2.16799">
        <ele>1062.8000488281</ele>
        <time>2024-09-30T12:52:54.000Z</time>
      </trkpt>
      <trkpt lat="42.84275" lon="2.16816">
        <ele>1064.1999511719</ele>
        <time>2024-09-30T12:53:00.000Z</time>
      </trkpt>
      <trkpt lat="42.84277" lon="2.16822">
        <ele>1064.4000244141</ele>
        <time>2024-09-30T12:53:02.000Z</time>
      </trkpt>
      <trkpt lat="42.84279" lon="2.16833">
        <ele>1064.1999511719</ele>
        <time>2024-09-30T12:53:05.000Z</time>
      </trkpt>
      <trkpt lat="42.84279" lon="2.16858">
        <ele>1062.5999755859</ele>
        <time>2024-09-30T12:53:12.000Z</time>
      </trkpt>
      <trkpt lat="42.84282" lon="2.16878">
        <ele>1061.5999755859</ele>
        <time>2024-09-30T12:53:18.000Z</time>
      </trkpt>
      <trkpt lat="42.84286" lon="2.16895">
        <ele>1060.1999511719</ele>
        <time>2024-09-30T12:53:24.000Z</time>
      </trkpt>
      <trkpt lat="42.8429" lon="2.16912">
        <ele>1058.8000488281</ele>
        <time>2024-09-30T12:53:29.000Z</time>
      </trkpt>
      <trkpt lat="42.84295" lon="2.1693">
        <ele>1057</ele>
        <time>2024-09-30T12:53:34.000Z</time>
      </trkpt>
      <trkpt lat="42.84306" lon="2.16949">
        <ele>1056.8000488281</ele>
        <time>2024-09-30T12:53:39.000Z</time>
      </trkpt>
      <trkpt lat="42.84308" lon="2.1696">
        <ele>1056</ele>
        <time>2024-09-30T12:53:44.000Z</time>
      </trkpt>
      <trkpt lat="42.84309" lon="2.1698">
        <ele>1054.8000488281</ele>
        <time>2024-09-30T12:53:50.000Z</time>
      </trkpt>
      <trkpt lat="42.84309" lon="2.16992">
        <ele>1054</ele>
        <time>2024-09-30T12:53:54.000Z</time>
      </trkpt>
      <trkpt lat="42.8431" lon="2.16998">
        <ele>1053.8000488281</ele>
        <time>2024-09-30T12:53:56.000Z</time>
      </trkpt>
      <trkpt lat="42.84317" lon="2.17019">
        <ele>1053</ele>
        <time>2024-09-30T12:54:03.000Z</time>
      </trkpt>
      <trkpt lat="42.84318" lon="2.17026">
        <ele>1052.1999511719</ele>
        <time>2024-09-30T12:54:06.000Z</time>
      </trkpt>
      <trkpt lat="42.84318" lon="2.17032">
        <ele>1051.5999755859</ele>
        <time>2024-09-30T12:54:08.000Z</time>
      </trkpt>
      <trkpt lat="42.84309" lon="2.17041">
        <ele>1049.8000488281</ele>
        <time>2024-09-30T12:54:13.000Z</time>
      </trkpt>
      <trkpt lat="42.84298" lon="2.17039">
        <ele>1048</ele>
        <time>2024-09-30T12:54:18.000Z</time>
      </trkpt>
      <trkpt lat="42.84283" lon="2.17027">
        <ele>1046.5999755859</ele>
        <time>2024-09-30T12:54:23.000Z</time>
      </trkpt>
      <trkpt lat="42.84266" lon="2.17003">
        <ele>1043.8000488281</ele>
        <time>2024-09-30T12:54:29.000Z</time>
      </trkpt>
      <trkpt lat="42.84248" lon="2.16975">
        <ele>1041.5999755859</ele>
        <time>2024-09-30T12:54:36.000Z</time>
      </trkpt>
      <trkpt lat="42.84242" lon="2.1696">
        <ele>1041</ele>
        <time>2024-09-30T12:54:40.000Z</time>
      </trkpt>
      <trkpt lat="42.84231" lon="2.16939">
        <ele>1040.8000488281</ele>
        <time>2024-09-30T12:54:45.000Z</time>
      </trkpt>
      <trkpt lat="42.84223" lon="2.16924">
        <ele>1042.5999755859</ele>
        <time>2024-09-30T12:54:50.000Z</time>
      </trkpt>
      <trkpt lat="42.84221" lon="2.16922">
        <ele>1043</ele>
        <time>2024-09-30T12:54:51.000Z</time>
      </trkpt>
      <trkpt lat="42.84214" lon="2.16921">
        <ele>1043.1999511719</ele>
        <time>2024-09-30T12:54:54.000Z</time>
      </trkpt>
      <trkpt lat="42.84211" lon="2.16925">
        <ele>1042.8000488281</ele>
        <time>2024-09-30T12:54:56.000Z</time>
      </trkpt>
      <trkpt lat="42.8421" lon="2.16932">
        <ele>1042</ele>
        <time>2024-09-30T12:54:58.000Z</time>
      </trkpt>
      <trkpt lat="42.84217" lon="2.16948">
        <ele>1040.5999755859</ele>
        <time>2024-09-30T12:55:02.000Z</time>
      </trkpt>
      <trkpt lat="42.84225" lon="2.16966">
        <ele>1038</ele>
        <time>2024-09-30T12:55:07.000Z</time>
      </trkpt>
      <trkpt lat="42.84227" lon="2.16984">
        <ele>1035.8000488281</ele>
        <time>2024-09-30T12:55:12.000Z</time>
      </trkpt>
      <trkpt lat="42.84229" lon="2.17003">
        <ele>1034</ele>
        <time>2024-09-30T12:55:17.000Z</time>
      </trkpt>
      <trkpt lat="42.84233" lon="2.17028">
        <ele>1032.4000244141</ele>
        <time>2024-09-30T12:55:24.000Z</time>
      </trkpt>
      <trkpt lat="42.84237" lon="2.17046">
        <ele>1031.4000244141</ele>
        <time>2024-09-30T12:55:29.000Z</time>
      </trkpt>
      <trkpt lat="42.84236" lon="2.17068">
        <ele>1028.5999755859</ele>
        <time>2024-09-30T12:55:34.000Z</time>
      </trkpt>
      <trkpt lat="42.84231" lon="2.17088">
        <ele>1024.8000488281</ele>
        <time>2024-09-30T12:55:39.000Z</time>
      </trkpt>
      <trkpt lat="42.84229" lon="2.17091">
        <ele>1024.1999511719</ele>
        <time>2024-09-30T12:55:40.000Z</time>
      </trkpt>
      <trkpt lat="42.84221" lon="2.17095">
        <ele>1022.799987793</ele>
        <time>2024-09-30T12:55:43.000Z</time>
      </trkpt>
      <trkpt lat="42.84218" lon="2.17094">
        <ele>1022.5999755859</ele>
        <time>2024-09-30T12:55:44.000Z</time>
      </trkpt>
      <trkpt lat="42.84214" lon="2.1709">
        <ele>1022.5999755859</ele>
        <time>2024-09-30T12:55:46.000Z</time>
      </trkpt>
      <trkpt lat="42.84198" lon="2.17074">
        <ele>1023.5999755859</ele>
        <time>2024-09-30T12:55:51.000Z</time>
      </trkpt>
      <trkpt lat="42.84187" lon="2.17067">
        <ele>1025.4000244141</ele>
        <time>2024-09-30T12:55:55.000Z</time>
      </trkpt>
      <trkpt lat="42.8418" lon="2.17073">
        <ele>1025.5999755859</ele>
        <time>2024-09-30T12:55:58.000Z</time>
      </trkpt>
      <trkpt lat="42.84171" lon="2.17087">
        <ele>1026</ele>
        <time>2024-09-30T12:56:02.000Z</time>
      </trkpt>
      <trkpt lat="42.84165" lon="2.17105">
        <ele>1025.8000488281</ele>
        <time>2024-09-30T12:56:06.000Z</time>
      </trkpt>
      <trkpt lat="42.84163" lon="2.17125">
        <ele>1024</ele>
        <time>2024-09-30T12:56:11.000Z</time>
      </trkpt>
      <trkpt lat="42.84162" lon="2.17143">
        <ele>1021.5999755859</ele>
        <time>2024-09-30T12:56:16.000Z</time>
      </trkpt>
      <trkpt lat="42.84163" lon="2.17161">
        <ele>1018.5999755859</ele>
        <time>2024-09-30T12:56:20.000Z</time>
      </trkpt>
      <trkpt lat="42.8417" lon="2.17182">
        <ele>1015</ele>
        <time>2024-09-30T12:56:25.000Z</time>
      </trkpt>
      <trkpt lat="42.84171" lon="2.17202">
        <ele>1013.200012207</ele>
        <time>2024-09-30T12:56:29.000Z</time>
      </trkpt>
      <trkpt lat="42.84169" lon="2.17227">
        <ele>1012</ele>
        <time>2024-09-30T12:56:34.000Z</time>
      </trkpt>
      <trkpt lat="42.84167" lon="2.17237">
        <ele>1012.4000244141</ele>
        <time>2024-09-30T12:56:37.000Z</time>
      </trkpt>
      <trkpt lat="42.84167" lon="2.1724">
        <ele>1012.5999755859</ele>
        <time>2024-09-30T12:56:38.000Z</time>
      </trkpt>
      <trkpt lat="42.84162" lon="2.17253">
        <ele>1013</ele>
        <time>2024-09-30T12:56:42.000Z</time>
      </trkpt>
      <trkpt lat="42.84157" lon="2.17266">
        <ele>1015.4000244141</ele>
        <time>2024-09-30T12:56:47.000Z</time>
      </trkpt>
      <trkpt lat="42.84152" lon="2.17284">
        <ele>1017.200012207</ele>
        <time>2024-09-30T12:56:52.000Z</time>
      </trkpt>
      <trkpt lat="42.8415" lon="2.173">
        <ele>1018.4000244141</ele>
        <time>2024-09-30T12:56:56.000Z</time>
      </trkpt>
      <trkpt lat="42.84155" lon="2.17321">
        <ele>1017</ele>
        <time>2024-09-30T12:57:01.000Z</time>
      </trkpt>
      <trkpt lat="42.84155" lon="2.17339">
        <ele>1016.5999755859</ele>
        <time>2024-09-30T12:57:05.000Z</time>
      </trkpt>
      <trkpt lat="42.84156" lon="2.17366">
        <ele>1015.200012207</ele>
        <time>2024-09-30T12:57:11.000Z</time>
      </trkpt>
      <trkpt lat="42.8416" lon="2.17389">
        <ele>1013</ele>
        <time>2024-09-30T12:57:16.000Z</time>
      </trkpt>
      <trkpt lat="42.84163" lon="2.17419">
        <ele>1008.5999755859</ele>
        <time>2024-09-30T12:57:23.000Z</time>
      </trkpt>
      <trkpt lat="42.84164" lon="2.1743">
        <ele>1007</ele>
        <time>2024-09-30T12:57:26.000Z</time>
      </trkpt>
      <trkpt lat="42.84163" lon="2.17434">
        <ele>1006.5999755859</ele>
        <time>2024-09-30T12:57:27.000Z</time>
      </trkpt>
      <trkpt lat="42.84158" lon="2.17452">
        <ele>1004.5999755859</ele>
        <time>2024-09-30T12:57:32.000Z</time>
      </trkpt>
      <trkpt lat="42.84154" lon="2.17464">
        <ele>1003.5999755859</ele>
        <time>2024-09-30T12:57:36.000Z</time>
      </trkpt>
      <trkpt lat="42.84153" lon="2.17468">
        <ele>1003.4000244141</ele>
        <time>2024-09-30T12:57:38.000Z</time>
      </trkpt>
      <trkpt lat="42.84147" lon="2.17481">
        <ele>1004.5999755859</ele>
        <time>2024-09-30T12:57:42.000Z</time>
      </trkpt>
      <trkpt lat="42.84143" lon="2.17492">
        <ele>1005.5999755859</ele>
        <time>2024-09-30T12:57:46.000Z</time>
      </trkpt>
      <trkpt lat="42.84138" lon="2.17509">
        <ele>1008.4000244141</ele>
        <time>2024-09-30T12:57:50.000Z</time>
      </trkpt>
      <trkpt lat="42.84139" lon="2.17523">
        <ele>1008.4000244141</ele>
        <time>2024-09-30T12:57:53.000Z</time>
      </trkpt>
      <trkpt lat="42.84142" lon="2.17534">
        <ele>1007.200012207</ele>
        <time>2024-09-30T12:57:55.000Z</time>
      </trkpt>
      <trkpt lat="42.84148" lon="2.17547">
        <ele>1004.200012207</ele>
        <time>2024-09-30T12:57:59.000Z</time>
      </trkpt>
      <trkpt lat="42.84152" lon="2.17557">
        <ele>1001.799987793</ele>
        <time>2024-09-30T12:58:02.000Z</time>
      </trkpt>
      <trkpt lat="42.84154" lon="2.17569">
        <ele>999.40002441406</ele>
        <time>2024-09-30T12:58:06.000Z</time>
      </trkpt>
      <trkpt lat="42.84163" lon="2.17574">
        <ele>997.59997558594</ele>
        <time>2024-09-30T12:58:10.000Z</time>
      </trkpt>
      <trkpt lat="42.84178" lon="2.17572">
        <ele>996.20001220703</ele>
        <time>2024-09-30T12:58:16.000Z</time>
      </trkpt>
      <trkpt lat="42.84195" lon="2.17569">
        <ele>997.59997558594</ele>
        <time>2024-09-30T12:58:23.000Z</time>
      </trkpt>
      <trkpt lat="42.84205" lon="2.17568">
        <ele>998</ele>
        <time>2024-09-30T12:58:28.000Z</time>
      </trkpt>
      <trkpt lat="42.84206" lon="2.17568">
        <ele>998.20001220703</ele>
        <time>2024-09-30T12:58:29.000Z</time>
      </trkpt>
      <trkpt lat="42.84214" lon="2.17569">
        <ele>999</ele>
        <time>2024-09-30T12:58:32.000Z</time>
      </trkpt>
      <trkpt lat="42.84228" lon="2.1757">
        <ele>1000.5999755859</ele>
        <time>2024-09-30T12:58:38.000Z</time>
      </trkpt>
      <trkpt lat="42.8423" lon="2.1757">
        <ele>1000.799987793</ele>
        <time>2024-09-30T12:58:39.000Z</time>
      </trkpt>
      <trkpt lat="42.84238" lon="2.1757">
        <ele>1001.200012207</ele>
        <time>2024-09-30T12:58:42.000Z</time>
      </trkpt>
      <trkpt lat="42.84255" lon="2.17572">
        <ele>1001.799987793</ele>
        <time>2024-09-30T12:58:49.000Z</time>
      </trkpt>
      <trkpt lat="42.84275" lon="2.17575">
        <ele>1001</ele>
        <time>2024-09-30T12:58:56.000Z</time>
      </trkpt>
      <trkpt lat="42.84288" lon="2.17578">
        <ele>1000.200012207</ele>
        <time>2024-09-30T12:59:02.000Z</time>
      </trkpt>
      <trkpt lat="42.84304" lon="2.17579">
        <ele>1000.799987793</ele>
        <time>2024-09-30T12:59:09.000Z</time>
      </trkpt>
      <trkpt lat="42.84316" lon="2.17579">
        <ele>1001.200012207</ele>
        <time>2024-09-30T12:59:16.000Z</time>
      </trkpt>
      <trkpt lat="42.84317" lon="2.17578">
        <ele>1001</ele>
        <time>2024-09-30T12:59:17.000Z</time>
      </trkpt>
      <trkpt lat="42.84326" lon="2.17578">
        <ele>1000.5999755859</ele>
        <time>2024-09-30T12:59:25.000Z</time>
      </trkpt>
      <trkpt lat="42.84328" lon="2.17576">
        <ele>1000.5999755859</ele>
        <time>2024-09-30T12:59:28.000Z</time>
      </trkpt>
      <trkpt lat="42.8433" lon="2.17573">
        <ele>1000.4000244141</ele>
        <time>2024-09-30T13:02:15.000Z</time>
      </trkpt>
      <trkpt lat="42.84334" lon="2.17567">
        <ele>1000.4000244141</ele>
        <time>2024-09-30T13:02:18.000Z</time>
      </trkpt>
      <trkpt lat="42.84337" lon="2.17561">
        <ele>1000.200012207</ele>
        <time>2024-09-30T13:02:20.000Z</time>
      </trkpt>
      <trkpt lat="42.84343" lon="2.1754">
        <ele>1000.200012207</ele>
        <time>2024-09-30T13:02:26.000Z</time>
      </trkpt>
      <trkpt lat="42.84343" lon="2.1754">
        <ele>1000.200012207</ele>
        <time>2024-09-30T13:02:27.000Z</time>
      </trkpt>
      <trkpt lat="42.84345" lon="2.17535">
        <ele>1000</ele>
        <time>2024-09-30T13:02:55.000Z</time>
      </trkpt>
      <trkpt lat="42.84347" lon="2.17528">
        <ele>999.79998779297</ele>
        <time>2024-09-30T13:02:57.000Z</time>
      </trkpt>
      <trkpt lat="42.84358" lon="2.17504">
        <ele>999.59997558594</ele>
        <time>2024-09-30T13:03:04.000Z</time>
      </trkpt>
      <trkpt lat="42.84367" lon="2.17486">
        <ele>998.59997558594</ele>
        <time>2024-09-30T13:03:09.000Z</time>
      </trkpt>
      <trkpt lat="42.84374" lon="2.17465">
        <ele>998.79998779297</ele>
        <time>2024-09-30T13:03:14.000Z</time>
      </trkpt>
      <trkpt lat="42.84381" lon="2.17438">
        <ele>1001.4000244141</ele>
        <time>2024-09-30T13:03:21.000Z</time>
      </trkpt>
      <trkpt lat="42.84388" lon="2.17409">
        <ele>1004.799987793</ele>
        <time>2024-09-30T13:03:29.000Z</time>
      </trkpt>
      <trkpt lat="42.84394" lon="2.17389">
        <ele>1008.799987793</ele>
        <time>2024-09-30T13:03:35.000Z</time>
      </trkpt>
      <trkpt lat="42.84405" lon="2.17372">
        <ele>1009.799987793</ele>
        <time>2024-09-30T13:03:42.000Z</time>
      </trkpt>
      <trkpt lat="42.84416" lon="2.17361">
        <ele>1008.799987793</ele>
        <time>2024-09-30T13:03:47.000Z</time>
      </trkpt>
      <trkpt lat="42.84427" lon="2.17345">
        <ele>1012.5999755859</ele>
        <time>2024-09-30T13:03:53.000Z</time>
      </trkpt>
      <trkpt lat="42.84427" lon="2.17345">
        <ele>1013</ele>
        <time>2024-09-30T13:03:54.000Z</time>
      </trkpt>
      <trkpt lat="42.8443" lon="2.17341">
        <ele>1012.4000244141</ele>
        <time>2024-09-30T13:05:53.000Z</time>
      </trkpt>
      <trkpt lat="42.84433" lon="2.17337">
        <ele>1012.4000244141</ele>
        <time>2024-09-30T13:05:55.000Z</time>
      </trkpt>
      <trkpt lat="42.84443" lon="2.17321">
        <ele>1010.4000244141</ele>
        <time>2024-09-30T13:06:01.000Z</time>
      </trkpt>
      <trkpt lat="42.84445" lon="2.17317">
        <ele>1010.200012207</ele>
        <time>2024-09-30T13:06:03.000Z</time>
      </trkpt>
      <trkpt lat="42.84445" lon="2.17316">
        <ele>1009.799987793</ele>
        <time>2024-09-30T13:06:05.000Z</time>
      </trkpt>
      <trkpt lat="42.84449" lon="2.17312">
        <ele>1009</ele>
        <time>2024-09-30T13:07:10.000Z</time>
      </trkpt>
      <trkpt lat="42.84459" lon="2.17288">
        <ele>1009.5999755859</ele>
        <time>2024-09-30T13:07:18.000Z</time>
      </trkpt>
      <trkpt lat="42.84472" lon="2.17268">
        <ele>1005.200012207</ele>
        <time>2024-09-30T13:07:25.000Z</time>
      </trkpt>
      <trkpt lat="42.84481" lon="2.17252">
        <ele>998.59997558594</ele>
        <time>2024-09-30T13:07:31.000Z</time>
      </trkpt>
      <trkpt lat="42.84483" lon="2.17247">
        <ele>997</ele>
        <time>2024-09-30T13:07:33.000Z</time>
      </trkpt>
      <trkpt lat="42.84487" lon="2.17241">
        <ele>995.79998779297</ele>
        <time>2024-09-30T13:07:35.000Z</time>
      </trkpt>
      <trkpt lat="42.84494" lon="2.1723">
        <ele>996</ele>
        <time>2024-09-30T13:07:39.000Z</time>
      </trkpt>
      <trkpt lat="42.84504" lon="2.17206">
        <ele>993.20001220703</ele>
        <time>2024-09-30T13:07:45.000Z</time>
      </trkpt>
      <trkpt lat="42.8451" lon="2.17191">
        <ele>992.20001220703</ele>
        <time>2024-09-30T13:07:49.000Z</time>
      </trkpt>
      <trkpt lat="42.84512" lon="2.17188">
        <ele>992.40002441406</ele>
        <time>2024-09-30T13:07:50.000Z</time>
      </trkpt>
      <trkpt lat="42.84523" lon="2.1716">
        <ele>993</ele>
        <time>2024-09-30T13:07:57.000Z</time>
      </trkpt>
      <trkpt lat="42.84533" lon="2.1713">
        <ele>993</ele>
        <time>2024-09-30T13:08:04.000Z</time>
      </trkpt>
      <trkpt lat="42.84541" lon="2.17106">
        <ele>993</ele>
        <time>2024-09-30T13:08:10.000Z</time>
      </trkpt>
      <trkpt lat="42.84546" lon="2.17093">
        <ele>991.59997558594</ele>
        <time>2024-09-30T13:08:14.000Z</time>
      </trkpt>
      <trkpt lat="42.84548" lon="2.17091">
        <ele>991</ele>
        <time>2024-09-30T13:08:15.000Z</time>
      </trkpt>
      <trkpt lat="42.84556" lon="2.17072">
        <ele>987.40002441406</ele>
        <time>2024-09-30T13:08:20.000Z</time>
      </trkpt>
      <trkpt lat="42.84568" lon="2.17052">
        <ele>984</ele>
        <time>2024-09-30T13:08:26.000Z</time>
      </trkpt>
      <trkpt lat="42.84588" lon="2.1703">
        <ele>975.79998779297</ele>
        <time>2024-09-30T13:08:33.000Z</time>
      </trkpt>
      <trkpt lat="42.84603" lon="2.17014">
        <ele>970.20001220703</ele>
        <time>2024-09-30T13:08:38.000Z</time>
      </trkpt>
      <trkpt lat="42.84616" lon="2.17004">
        <ele>965.40002441406</ele>
        <time>2024-09-30T13:08:43.000Z</time>
      </trkpt>
      <trkpt lat="42.84624" lon="2.16999">
        <ele>961.40002441406</ele>
        <time>2024-09-30T13:08:47.000Z</time>
      </trkpt>
      <trkpt lat="42.84638" lon="2.16993">
        <ele>956.59997558594</ele>
        <time>2024-09-30T13:08:52.000Z</time>
      </trkpt>
      <trkpt lat="42.84645" lon="2.16989">
        <ele>954.20001220703</ele>
        <time>2024-09-30T13:08:56.000Z</time>
      </trkpt>
      <trkpt lat="42.84645" lon="2.16978">
        <ele>954.40002441406</ele>
        <time>2024-09-30T13:09:00.000Z</time>
      </trkpt>
      <trkpt lat="42.84635" lon="2.16954">
        <ele>958</ele>
        <time>2024-09-30T13:09:05.000Z</time>
      </trkpt>
      <trkpt lat="42.84629" lon="2.16944">
        <ele>960</ele>
        <time>2024-09-30T13:09:07.000Z</time>
      </trkpt>
      <trkpt lat="42.84616" lon="2.16924">
        <ele>964.40002441406</ele>
        <time>2024-09-30T13:09:11.000Z</time>
      </trkpt>
      <trkpt lat="42.8461" lon="2.16914">
        <ele>966.79998779297</ele>
        <time>2024-09-30T13:09:13.000Z</time>
      </trkpt>
      <trkpt lat="42.84603" lon="2.16902">
        <ele>968.40002441406</ele>
        <time>2024-09-30T13:09:15.000Z</time>
      </trkpt>
      <trkpt lat="42.846" lon="2.16896">
        <ele>969</ele>
        <time>2024-09-30T13:09:16.000Z</time>
      </trkpt>
      <trkpt lat="42.84591" lon="2.16878">
        <ele>969</ele>
        <time>2024-09-30T13:09:19.000Z</time>
      </trkpt>
      <trkpt lat="42.84589" lon="2.16872">
        <ele>967.40002441406</ele>
        <time>2024-09-30T13:09:20.000Z</time>
      </trkpt>
      <trkpt lat="42.84581" lon="2.16852">
        <ele>963</ele>
        <time>2024-09-30T13:09:23.000Z</time>
      </trkpt>
      <trkpt lat="42.8457" lon="2.1683">
        <ele>960.59997558594</ele>
        <time>2024-09-30T13:09:27.000Z</time>
      </trkpt>
      <trkpt lat="42.84565" lon="2.16818">
        <ele>959.40002441406</ele>
        <time>2024-09-30T13:09:29.000Z</time>
      </trkpt>
      <trkpt lat="42.8456" lon="2.16805">
        <ele>959</ele>
        <time>2024-09-30T13:09:31.000Z</time>
      </trkpt>
      <trkpt lat="42.84553" lon="2.16774">
        <ele>956.79998779297</ele>
        <time>2024-09-30T13:09:36.000Z</time>
      </trkpt>
      <trkpt lat="42.8455" lon="2.16759">
        <ele>955.40002441406</ele>
        <time>2024-09-30T13:09:39.000Z</time>
      </trkpt>
      <trkpt lat="42.84551" lon="2.16754">
        <ele>954.40002441406</ele>
        <time>2024-09-30T13:09:40.000Z</time>
      </trkpt>
      <trkpt lat="42.84552" lon="2.16731">
        <ele>952.20001220703</ele>
        <time>2024-09-30T13:09:44.000Z</time>
      </trkpt>
      <trkpt lat="42.84553" lon="2.16705">
        <ele>949.79998779297</ele>
        <time>2024-09-30T13:09:48.000Z</time>
      </trkpt>
      <trkpt lat="42.84556" lon="2.16677">
        <ele>946</ele>
        <time>2024-09-30T13:09:52.000Z</time>
      </trkpt>
      <trkpt lat="42.84556" lon="2.1667">
        <ele>946</ele>
        <time>2024-09-30T13:09:53.000Z</time>
      </trkpt>
      <trkpt lat="42.84557" lon="2.16662">
        <ele>946.20001220703</ele>
        <time>2024-09-30T13:09:54.000Z</time>
      </trkpt>
      <trkpt lat="42.84559" lon="2.16638">
        <ele>947</ele>
        <time>2024-09-30T13:09:57.000Z</time>
      </trkpt>
      <trkpt lat="42.8456" lon="2.1663">
        <ele>947.40002441406</ele>
        <time>2024-09-30T13:09:58.000Z</time>
      </trkpt>
      <trkpt lat="42.84563" lon="2.16601">
        <ele>946.20001220703</ele>
        <time>2024-09-30T13:10:02.000Z</time>
      </trkpt>
      <trkpt lat="42.84566" lon="2.16584">
        <ele>945</ele>
        <time>2024-09-30T13:10:04.000Z</time>
      </trkpt>
      <trkpt lat="42.84571" lon="2.16562">
        <ele>941.79998779297</ele>
        <time>2024-09-30T13:10:07.000Z</time>
      </trkpt>
      <trkpt lat="42.84574" lon="2.16547">
        <ele>940.20001220703</ele>
        <time>2024-09-30T13:10:09.000Z</time>
      </trkpt>
      <trkpt lat="42.84575" lon="2.16525">
        <ele>942.59997558594</ele>
        <time>2024-09-30T13:10:12.000Z</time>
      </trkpt>
      <trkpt lat="42.84578" lon="2.16513">
        <ele>944</ele>
        <time>2024-09-30T13:10:15.000Z</time>
      </trkpt>
      <trkpt lat="42.84581" lon="2.16512">
        <ele>943.20001220703</ele>
        <time>2024-09-30T13:10:16.000Z</time>
      </trkpt>
      <trkpt lat="42.84588" lon="2.16513">
        <ele>939.40002441406</ele>
        <time>2024-09-30T13:10:20.000Z</time>
      </trkpt>
      <trkpt lat="42.84588" lon="2.16512">
        <ele>939.59997558594</ele>
        <time>2024-09-30T13:10:21.000Z</time>
      </trkpt>
      <trkpt lat="42.84586" lon="2.1652">
        <ele>938</ele>
        <time>2024-09-30T13:10:29.000Z</time>
      </trkpt>
      <trkpt lat="42.84586" lon="2.16523">
        <ele>937.79998779297</ele>
        <time>2024-09-30T13:10:30.000Z</time>
      </trkpt>
      <trkpt lat="42.84582" lon="2.16541">
        <ele>936.79998779297</ele>
        <time>2024-09-30T13:10:35.000Z</time>
      </trkpt>
      <trkpt lat="42.84579" lon="2.16561">
        <ele>936.79998779297</ele>
        <time>2024-09-30T13:10:39.000Z</time>
      </trkpt>
      <trkpt lat="42.84577" lon="2.16585">
        <ele>939.40002441406</ele>
        <time>2024-09-30T13:10:44.000Z</time>
      </trkpt>
      <trkpt lat="42.84577" lon="2.16608">
        <ele>937.40002441406</ele>
        <time>2024-09-30T13:10:48.000Z</time>
      </trkpt>
      <trkpt lat="42.84578" lon="2.16657">
        <ele>930.79998779297</ele>
        <time>2024-09-30T13:10:55.000Z</time>
      </trkpt>
      <trkpt lat="42.84576" lon="2.16688">
        <ele>930.59997558594</ele>
        <time>2024-09-30T13:11:00.000Z</time>
      </trkpt>
      <trkpt lat="42.84578" lon="2.16715">
        <ele>931.40002441406</ele>
        <time>2024-09-30T13:11:05.000Z</time>
      </trkpt>
      <trkpt lat="42.84579" lon="2.16725">
        <ele>931.59997558594</ele>
        <time>2024-09-30T13:11:07.000Z</time>
      </trkpt>
      <trkpt lat="42.8458" lon="2.1673">
        <ele>932</ele>
        <time>2024-09-30T13:11:08.000Z</time>
      </trkpt>
      <trkpt lat="42.84585" lon="2.16744">
        <ele>929.59997558594</ele>
        <time>2024-09-30T13:11:11.000Z</time>
      </trkpt>
      <trkpt lat="42.84597" lon="2.16759">
        <ele>923.40002441406</ele>
        <time>2024-09-30T13:11:15.000Z</time>
      </trkpt>
      <trkpt lat="42.84607" lon="2.16774">
        <ele>921</ele>
        <time>2024-09-30T13:11:18.000Z</time>
      </trkpt>
      <trkpt lat="42.84615" lon="2.16783">
        <ele>919.59997558594</ele>
        <time>2024-09-30T13:11:20.000Z</time>
      </trkpt>
      <trkpt lat="42.84623" lon="2.16793">
        <ele>919.59997558594</ele>
        <time>2024-09-30T13:11:22.000Z</time>
      </trkpt>
      <trkpt lat="42.8463" lon="2.16803">
        <ele>920</ele>
        <time>2024-09-30T13:11:24.000Z</time>
      </trkpt>
      <trkpt lat="42.84642" lon="2.16816">
        <ele>918.79998779297</ele>
        <time>2024-09-30T13:11:27.000Z</time>
      </trkpt>
      <trkpt lat="42.84654" lon="2.16826">
        <ele>916.59997558594</ele>
        <time>2024-09-30T13:11:30.000Z</time>
      </trkpt>
      <trkpt lat="42.84671" lon="2.1684">
        <ele>911.59997558594</ele>
        <time>2024-09-30T13:11:35.000Z</time>
      </trkpt>
      <trkpt lat="42.84687" lon="2.16856">
        <ele>912.79998779297</ele>
        <time>2024-09-30T13:11:40.000Z</time>
      </trkpt>
      <trkpt lat="42.84692" lon="2.16853">
        <ele>910</ele>
        <time>2024-09-30T13:11:42.000Z</time>
      </trkpt>
      <trkpt lat="42.84693" lon="2.1685">
        <ele>908.20001220703</ele>
        <time>2024-09-30T13:11:43.000Z</time>
      </trkpt>
      <trkpt lat="42.84686" lon="2.16841">
        <ele>906.20001220703</ele>
        <time>2024-09-30T13:11:46.000Z</time>
      </trkpt>
      <trkpt lat="42.84674" lon="2.16832">
        <ele>906</ele>
        <time>2024-09-30T13:11:51.000Z</time>
      </trkpt>
      <trkpt lat="42.84662" lon="2.1682">
        <ele>908.59997558594</ele>
        <time>2024-09-30T13:11:55.000Z</time>
      </trkpt>
      <trkpt lat="42.84653" lon="2.1681">
        <ele>910.79998779297</ele>
        <time>2024-09-30T13:11:59.000Z</time>
      </trkpt>
      <trkpt lat="42.84641" lon="2.16795">
        <ele>912</ele>
        <time>2024-09-30T13:12:04.000Z</time>
      </trkpt>
      <trkpt lat="42.84628" lon="2.16772">
        <ele>908.59997558594</ele>
        <time>2024-09-30T13:12:09.000Z</time>
      </trkpt>
      <trkpt lat="42.84623" lon="2.16762">
        <ele>907.20001220703</ele>
        <time>2024-09-30T13:12:11.000Z</time>
      </trkpt>
      <trkpt lat="42.84617" lon="2.16744">
        <ele>905</ele>
        <time>2024-09-30T13:12:14.000Z</time>
      </trkpt>
      <trkpt lat="42.84613" lon="2.16722">
        <ele>903.40002441406</ele>
        <time>2024-09-30T13:12:18.000Z</time>
      </trkpt>
      <trkpt lat="42.84613" lon="2.16716">
        <ele>902.20001220703</ele>
        <time>2024-09-30T13:12:19.000Z</time>
      </trkpt>
      <trkpt lat="42.84613" lon="2.16709">
        <ele>901.59997558594</ele>
        <time>2024-09-30T13:12:20.000Z</time>
      </trkpt>
      <trkpt lat="42.84613" lon="2.16693">
        <ele>901.59997558594</ele>
        <time>2024-09-30T13:12:23.000Z</time>
      </trkpt>
      <trkpt lat="42.8462" lon="2.16669">
        <ele>898</ele>
        <time>2024-09-30T13:12:28.000Z</time>
      </trkpt>
      <trkpt lat="42.84632" lon="2.16641">
        <ele>891</ele>
        <time>2024-09-30T13:12:33.000Z</time>
      </trkpt>
      <trkpt lat="42.84644" lon="2.16607">
        <ele>889</ele>
        <time>2024-09-30T13:12:38.000Z</time>
      </trkpt>
      <trkpt lat="42.84646" lon="2.166">
        <ele>889</ele>
        <time>2024-09-30T13:12:39.000Z</time>
      </trkpt>
      <trkpt lat="42.8465" lon="2.16586">
        <ele>889.20001220703</ele>
        <time>2024-09-30T13:12:41.000Z</time>
      </trkpt>
      <trkpt lat="42.84652" lon="2.1658">
        <ele>889</ele>
        <time>2024-09-30T13:12:42.000Z</time>
      </trkpt>
      <trkpt lat="42.84656" lon="2.16561">
        <ele>890.79998779297</ele>
        <time>2024-09-30T13:12:45.000Z</time>
      </trkpt>
      <trkpt lat="42.84657" lon="2.16549">
        <ele>892.79998779297</ele>
        <time>2024-09-30T13:12:47.000Z</time>
      </trkpt>
      <trkpt lat="42.84663" lon="2.16533">
        <ele>892.59997558594</ele>
        <time>2024-09-30T13:12:50.000Z</time>
      </trkpt>
      <trkpt lat="42.84667" lon="2.1653">
        <ele>890.40002441406</ele>
        <time>2024-09-30T13:12:51.000Z</time>
      </trkpt>
      <trkpt lat="42.84672" lon="2.16527">
        <ele>888</ele>
        <time>2024-09-30T13:12:52.000Z</time>
      </trkpt>
      <trkpt lat="42.84685" lon="2.1652">
        <ele>880.40002441406</ele>
        <time>2024-09-30T13:12:55.000Z</time>
      </trkpt>
      <trkpt lat="42.84689" lon="2.16518">
        <ele>877.79998779297</ele>
        <time>2024-09-30T13:12:57.000Z</time>
      </trkpt>
      <trkpt lat="42.84691" lon="2.16517">
        <ele>876.20001220703</ele>
        <time>2024-09-30T13:12:59.000Z</time>
      </trkpt>
      <trkpt lat="42.84692" lon="2.16516">
        <ele>875.59997558594</ele>
        <time>2024-09-30T13:13:01.000Z</time>
      </trkpt>
      <trkpt lat="42.84695" lon="2.16512">
        <ele>875.40002441406</ele>
        <time>2024-09-30T13:13:15.000Z</time>
      </trkpt>
      <trkpt lat="42.84697" lon="2.1651">
        <ele>874.59997558594</ele>
        <time>2024-09-30T13:13:16.000Z</time>
      </trkpt>
      <trkpt lat="42.84708" lon="2.16495">
        <ele>870.59997558594</ele>
        <time>2024-09-30T13:13:23.000Z</time>
      </trkpt>
      <trkpt lat="42.84718" lon="2.16482">
        <ele>870.40002441406</ele>
        <time>2024-09-30T13:13:27.000Z</time>
      </trkpt>
      <trkpt lat="42.84722" lon="2.16475">
        <ele>869.40002441406</ele>
        <time>2024-09-30T13:13:29.000Z</time>
      </trkpt>
      <trkpt lat="42.84723" lon="2.16472">
        <ele>869</ele>
        <time>2024-09-30T13:13:30.000Z</time>
      </trkpt>
      <trkpt lat="42.84733" lon="2.16456">
        <ele>864.79998779297</ele>
        <time>2024-09-30T13:13:34.000Z</time>
      </trkpt>
      <trkpt lat="42.84736" lon="2.16453">
        <ele>864.40002441406</ele>
        <time>2024-09-30T13:13:35.000Z</time>
      </trkpt>
      <trkpt lat="42.84754" lon="2.16439">
        <ele>858.59997558594</ele>
        <time>2024-09-30T13:13:40.000Z</time>
      </trkpt>
      <trkpt lat="42.84769" lon="2.16419">
        <ele>855.79998779297</ele>
        <time>2024-09-30T13:13:46.000Z</time>
      </trkpt>
      <trkpt lat="42.84778" lon="2.16404">
        <ele>855</ele>
        <time>2024-09-30T13:13:52.000Z</time>
      </trkpt>
      <trkpt lat="42.84784" lon="2.16388">
        <ele>855.40002441406</ele>
        <time>2024-09-30T13:13:56.000Z</time>
      </trkpt>
      <trkpt lat="42.84785" lon="2.16384">
        <ele>856</ele>
        <time>2024-09-30T13:13:57.000Z</time>
      </trkpt>
      <trkpt lat="42.84793" lon="2.16365">
        <ele>855.40002441406</ele>
        <time>2024-09-30T13:14:02.000Z</time>
      </trkpt>
      <trkpt lat="42.84803" lon="2.16347">
        <ele>852</ele>
        <time>2024-09-30T13:14:07.000Z</time>
      </trkpt>
      <trkpt lat="42.84812" lon="2.16335">
        <ele>848.59997558594</ele>
        <time>2024-09-30T13:14:11.000Z</time>
      </trkpt>
      <trkpt lat="42.84826" lon="2.16317">
        <ele>848.20001220703</ele>
        <time>2024-09-30T13:14:16.000Z</time>
      </trkpt>
      <trkpt lat="42.84836" lon="2.16293">
        <ele>849.79998779297</ele>
        <time>2024-09-30T13:14:22.000Z</time>
      </trkpt>
      <trkpt lat="42.84848" lon="2.16269">
        <ele>845</ele>
        <time>2024-09-30T13:14:28.000Z</time>
      </trkpt>
      <trkpt lat="42.84854" lon="2.16257">
        <ele>844.40002441406</ele>
        <time>2024-09-30T13:14:31.000Z</time>
      </trkpt>
      <trkpt lat="42.84857" lon="2.16249">
        <ele>845</ele>
        <time>2024-09-30T13:14:33.000Z</time>
      </trkpt>
      <trkpt lat="42.84865" lon="2.16232">
        <ele>849</ele>
        <time>2024-09-30T13:14:37.000Z</time>
      </trkpt>
      <trkpt lat="42.84876" lon="2.16214">
        <ele>848.20001220703</ele>
        <time>2024-09-30T13:14:41.000Z</time>
      </trkpt>
      <trkpt lat="42.84894" lon="2.16193">
        <ele>841.20001220703</ele>
        <time>2024-09-30T13:14:46.000Z</time>
      </trkpt>
      <trkpt lat="42.8491" lon="2.1617">
        <ele>833.20001220703</ele>
        <time>2024-09-30T13:14:51.000Z</time>
      </trkpt>
      <trkpt lat="42.84916" lon="2.1616">
        <ele>832.59997558594</ele>
        <time>2024-09-30T13:14:53.000Z</time>
      </trkpt>
      <trkpt lat="42.84925" lon="2.16145">
        <ele>831</ele>
        <time>2024-09-30T13:14:56.000Z</time>
      </trkpt>
      <trkpt lat="42.84927" lon="2.1614">
        <ele>830.79998779297</ele>
        <time>2024-09-30T13:14:57.000Z</time>
      </trkpt>
      <trkpt lat="42.84939" lon="2.16117">
        <ele>831.20001220703</ele>
        <time>2024-09-30T13:15:02.000Z</time>
      </trkpt>
      <trkpt lat="42.84942" lon="2.16112">
        <ele>831.40002441406</ele>
        <time>2024-09-30T13:15:03.000Z</time>
      </trkpt>
      <trkpt lat="42.84948" lon="2.16103">
        <ele>831</ele>
        <time>2024-09-30T13:15:05.000Z</time>
      </trkpt>
      <trkpt lat="42.84952" lon="2.161">
        <ele>830.40002441406</ele>
        <time>2024-09-30T13:15:06.000Z</time>
      </trkpt>
      <trkpt lat="42.84959" lon="2.16091">
        <ele>827.40002441406</ele>
        <time>2024-09-30T13:15:08.000Z</time>
      </trkpt>
      <trkpt lat="42.84965" lon="2.16081">
        <ele>824.79998779297</ele>
        <time>2024-09-30T13:15:10.000Z</time>
      </trkpt>
      <trkpt lat="42.84968" lon="2.16076">
        <ele>824.20001220703</ele>
        <time>2024-09-30T13:15:11.000Z</time>
      </trkpt>
      <trkpt lat="42.84976" lon="2.16056">
        <ele>823</ele>
        <time>2024-09-30T13:15:15.000Z</time>
      </trkpt>
      <trkpt lat="42.84984" lon="2.16035">
        <ele>822.20001220703</ele>
        <time>2024-09-30T13:15:19.000Z</time>
      </trkpt>
      <trkpt lat="42.84995" lon="2.16012">
        <ele>820.40002441406</ele>
        <time>2024-09-30T13:15:23.000Z</time>
      </trkpt>
      <trkpt lat="42.84997" lon="2.16007">
        <ele>820.40002441406</ele>
        <time>2024-09-30T13:15:24.000Z</time>
      </trkpt>
      <trkpt lat="42.85005" lon="2.15993">
        <ele>821.40002441406</ele>
        <time>2024-09-30T13:15:27.000Z</time>
      </trkpt>
      <trkpt lat="42.85018" lon="2.15973">
        <ele>821.79998779297</ele>
        <time>2024-09-30T13:15:32.000Z</time>
      </trkpt>
      <trkpt lat="42.85034" lon="2.15957">
        <ele>819.20001220703</ele>
        <time>2024-09-30T13:15:36.000Z</time>
      </trkpt>
      <trkpt lat="42.85049" lon="2.15944">
        <ele>813.79998779297</ele>
        <time>2024-09-30T13:15:40.000Z</time>
      </trkpt>
      <trkpt lat="42.85061" lon="2.15929">
        <ele>809.59997558594</ele>
        <time>2024-09-30T13:15:44.000Z</time>
      </trkpt>
      <trkpt lat="42.85064" lon="2.15925">
        <ele>809.20001220703</ele>
        <time>2024-09-30T13:15:45.000Z</time>
      </trkpt>
      <trkpt lat="42.85077" lon="2.1591">
        <ele>809.59997558594</ele>
        <time>2024-09-30T13:15:49.000Z</time>
      </trkpt>
      <trkpt lat="42.85089" lon="2.159">
        <ele>809.20001220703</ele>
        <time>2024-09-30T13:15:52.000Z</time>
      </trkpt>
      <trkpt lat="42.85093" lon="2.15896">
        <ele>809</ele>
        <time>2024-09-30T13:15:53.000Z</time>
      </trkpt>
      <trkpt lat="42.85104" lon="2.15884">
        <ele>809.20001220703</ele>
        <time>2024-09-30T13:15:56.000Z</time>
      </trkpt>
      <trkpt lat="42.85111" lon="2.1588">
        <ele>807.59997558594</ele>
        <time>2024-09-30T13:15:58.000Z</time>
      </trkpt>
      <trkpt lat="42.85114" lon="2.1588">
        <ele>805.79998779297</ele>
        <time>2024-09-30T13:15:59.000Z</time>
      </trkpt>
      <trkpt lat="42.85116" lon="2.15882">
        <ele>804.40002441406</ele>
        <time>2024-09-30T13:16:00.000Z</time>
      </trkpt>
      <trkpt lat="42.85118" lon="2.15887">
        <ele>801.59997558594</ele>
        <time>2024-09-30T13:16:02.000Z</time>
      </trkpt>
      <trkpt lat="42.8512" lon="2.15888">
        <ele>800.40002441406</ele>
        <time>2024-09-30T13:16:04.000Z</time>
      </trkpt>
      <trkpt lat="42.85124" lon="2.15879">
        <ele>802.20001220703</ele>
        <time>2024-09-30T13:17:11.000Z</time>
      </trkpt>
      <trkpt lat="42.85123" lon="2.15884">
        <ele>800.79998779297</ele>
        <time>2024-09-30T13:17:13.000Z</time>
      </trkpt>
      <trkpt lat="42.8512" lon="2.15886">
        <ele>801</ele>
        <time>2024-09-30T13:17:15.000Z</time>
      </trkpt>
      <trkpt lat="42.85109" lon="2.15894">
        <ele>803.20001220703</ele>
        <time>2024-09-30T13:17:19.000Z</time>
      </trkpt>
      <trkpt lat="42.85106" lon="2.15897">
        <ele>803.20001220703</ele>
        <time>2024-09-30T13:17:20.000Z</time>
      </trkpt>
      <trkpt lat="42.85098" lon="2.15908">
        <ele>802</ele>
        <time>2024-09-30T13:17:23.000Z</time>
      </trkpt>
      <trkpt lat="42.85096" lon="2.15911">
        <ele>801.79998779297</ele>
        <time>2024-09-30T13:17:24.000Z</time>
      </trkpt>
      <trkpt lat="42.85092" lon="2.15922">
        <ele>799.79998779297</ele>
        <time>2024-09-30T13:17:27.000Z</time>
      </trkpt>
      <trkpt lat="42.85091" lon="2.15927">
        <ele>799.40002441406</ele>
        <time>2024-09-30T13:17:28.000Z</time>
      </trkpt>
      <trkpt lat="42.85085" lon="2.1594">
        <ele>797.20001220703</ele>
        <time>2024-09-30T13:17:31.000Z</time>
      </trkpt>
      <trkpt lat="42.85076" lon="2.15961">
        <ele>795.40002441406</ele>
        <time>2024-09-30T13:17:35.000Z</time>
      </trkpt>
      <trkpt lat="42.85073" lon="2.15967">
        <ele>794.40002441406</ele>
        <time>2024-09-30T13:17:36.000Z</time>
      </trkpt>
      <trkpt lat="42.85064" lon="2.15983">
        <ele>793.79998779297</ele>
        <time>2024-09-30T13:17:39.000Z</time>
      </trkpt>
      <trkpt lat="42.85051" lon="2.16013">
        <ele>790.59997558594</ele>
        <time>2024-09-30T13:17:44.000Z</time>
      </trkpt>
      <trkpt lat="42.85049" lon="2.16019">
        <ele>788.79998779297</ele>
        <time>2024-09-30T13:17:45.000Z</time>
      </trkpt>
      <trkpt lat="42.85044" lon="2.16033">
        <ele>787.79998779297</ele>
        <time>2024-09-30T13:17:47.000Z</time>
      </trkpt>
      <trkpt lat="42.85041" lon="2.16048">
        <ele>786.20001220703</ele>
        <time>2024-09-30T13:17:49.000Z</time>
      </trkpt>
      <trkpt lat="42.85033" lon="2.16095">
        <ele>784.40002441406</ele>
        <time>2024-09-30T13:17:55.000Z</time>
      </trkpt>
      <trkpt lat="42.85031" lon="2.16102">
        <ele>783.79998779297</ele>
        <time>2024-09-30T13:17:56.000Z</time>
      </trkpt>
      <trkpt lat="42.85024" lon="2.1613">
        <ele>779.59997558594</ele>
        <time>2024-09-30T13:18:00.000Z</time>
      </trkpt>
      <trkpt lat="42.85017" lon="2.16158">
        <ele>776.40002441406</ele>
        <time>2024-09-30T13:18:04.000Z</time>
      </trkpt>
      <trkpt lat="42.85014" lon="2.16172">
        <ele>774.79998779297</ele>
        <time>2024-09-30T13:18:06.000Z</time>
      </trkpt>
      <trkpt lat="42.85012" lon="2.16179">
        <ele>774.40002441406</ele>
        <time>2024-09-30T13:18:07.000Z</time>
      </trkpt>
      <trkpt lat="42.85006" lon="2.162">
        <ele>771.59997558594</ele>
        <time>2024-09-30T13:18:10.000Z</time>
      </trkpt>
      <trkpt lat="42.84994" lon="2.16241">
        <ele>766.40002441406</ele>
        <time>2024-09-30T13:18:15.000Z</time>
      </trkpt>
      <trkpt lat="42.8498" lon="2.1628">
        <ele>768.40002441406</ele>
        <time>2024-09-30T13:18:20.000Z</time>
      </trkpt>
      <trkpt lat="42.84971" lon="2.16311">
        <ele>767.59997558594</ele>
        <time>2024-09-30T13:18:24.000Z</time>
      </trkpt>
      <trkpt lat="42.84968" lon="2.16327">
        <ele>766.20001220703</ele>
        <time>2024-09-30T13:18:26.000Z</time>
      </trkpt>
      <trkpt lat="42.84966" lon="2.16349">
        <ele>762.59997558594</ele>
        <time>2024-09-30T13:18:29.000Z</time>
      </trkpt>
      <trkpt lat="42.84965" lon="2.16364">
        <ele>759.79998779297</ele>
        <time>2024-09-30T13:18:31.000Z</time>
      </trkpt>
      <trkpt lat="42.84962" lon="2.16379">
        <ele>756.40002441406</ele>
        <time>2024-09-30T13:18:33.000Z</time>
      </trkpt>
      <trkpt lat="42.84957" lon="2.16412">
        <ele>753.79998779297</ele>
        <time>2024-09-30T13:18:38.000Z</time>
      </trkpt>
      <trkpt lat="42.84947" lon="2.16455">
        <ele>746.79998779297</ele>
        <time>2024-09-30T13:18:45.000Z</time>
      </trkpt>
      <trkpt lat="42.8494" lon="2.16474">
        <ele>744.79998779297</ele>
        <time>2024-09-30T13:18:48.000Z</time>
      </trkpt>
      <trkpt lat="42.84926" lon="2.16509">
        <ele>742</ele>
        <time>2024-09-30T13:18:53.000Z</time>
      </trkpt>
      <trkpt lat="42.84924" lon="2.16516">
        <ele>741</ele>
        <time>2024-09-30T13:18:54.000Z</time>
      </trkpt>
      <trkpt lat="42.84912" lon="2.16548">
        <ele>737.79998779297</ele>
        <time>2024-09-30T13:18:59.000Z</time>
      </trkpt>
      <trkpt lat="42.8491" lon="2.16553">
        <ele>737.20001220703</ele>
        <time>2024-09-30T13:19:00.000Z</time>
      </trkpt>
      <trkpt lat="42.84901" lon="2.16564">
        <ele>738</ele>
        <time>2024-09-30T13:19:03.000Z</time>
      </trkpt>
      <trkpt lat="42.84891" lon="2.16576">
        <ele>740.59997558594</ele>
        <time>2024-09-30T13:19:06.000Z</time>
      </trkpt>
      <trkpt lat="42.84888" lon="2.16582">
        <ele>741.40002441406</ele>
        <time>2024-09-30T13:19:07.000Z</time>
      </trkpt>
      <trkpt lat="42.84881" lon="2.16593">
        <ele>742.20001220703</ele>
        <time>2024-09-30T13:19:09.000Z</time>
      </trkpt>
      <trkpt lat="42.84876" lon="2.16602">
        <ele>742.40002441406</ele>
        <time>2024-09-30T13:19:11.000Z</time>
      </trkpt>
      <trkpt lat="42.84869" lon="2.1662">
        <ele>744.79998779297</ele>
        <time>2024-09-30T13:19:14.000Z</time>
      </trkpt>
      <trkpt lat="42.84868" lon="2.16627">
        <ele>745.20001220703</ele>
        <time>2024-09-30T13:19:15.000Z</time>
      </trkpt>
      <trkpt lat="42.84865" lon="2.16646">
        <ele>746.20001220703</ele>
        <time>2024-09-30T13:19:17.000Z</time>
      </trkpt>
      <trkpt lat="42.84866" lon="2.16662">
        <ele>746.40002441406</ele>
        <time>2024-09-30T13:19:19.000Z</time>
      </trkpt>
      <trkpt lat="42.84868" lon="2.16667">
        <ele>746.40002441406</ele>
        <time>2024-09-30T13:19:20.000Z</time>
      </trkpt>
      <trkpt lat="42.84877" lon="2.16683">
        <ele>742.59997558594</ele>
        <time>2024-09-30T13:19:23.000Z</time>
      </trkpt>
      <trkpt lat="42.8488" lon="2.16688">
        <ele>741</ele>
        <time>2024-09-30T13:19:24.000Z</time>
      </trkpt>
      <trkpt lat="42.84896" lon="2.16716">
        <ele>733.40002441406</ele>
        <time>2024-09-30T13:19:29.000Z</time>
      </trkpt>
      <trkpt lat="42.84916" lon="2.16749">
        <ele>730</ele>
        <time>2024-09-30T13:19:34.000Z</time>
      </trkpt>
      <trkpt lat="42.84931" lon="2.16789">
        <ele>725.40002441406</ele>
        <time>2024-09-30T13:19:39.000Z</time>
      </trkpt>
      <trkpt lat="42.84933" lon="2.16797">
        <ele>723.79998779297</ele>
        <time>2024-09-30T13:19:40.000Z</time>
      </trkpt>
      <trkpt lat="42.84942" lon="2.1683">
        <ele>717.40002441406</ele>
        <time>2024-09-30T13:19:44.000Z</time>
      </trkpt>
      <trkpt lat="42.8495" lon="2.16867">
        <ele>711.40002441406</ele>
        <time>2024-09-30T13:19:49.000Z</time>
      </trkpt>
      <trkpt lat="42.84952" lon="2.16883">
        <ele>709.59997558594</ele>
        <time>2024-09-30T13:19:51.000Z</time>
      </trkpt>
      <trkpt lat="42.84956" lon="2.16925">
        <ele>706</ele>
        <time>2024-09-30T13:19:56.000Z</time>
      </trkpt>
      <trkpt lat="42.84956" lon="2.16941">
        <ele>705.59997558594</ele>
        <time>2024-09-30T13:19:58.000Z</time>
      </trkpt>
      <trkpt lat="42.84955" lon="2.16957">
        <ele>705.79998779297</ele>
        <time>2024-09-30T13:20:00.000Z</time>
      </trkpt>
      <trkpt lat="42.84955" lon="2.16964">
        <ele>705.59997558594</ele>
        <time>2024-09-30T13:20:01.000Z</time>
      </trkpt>
      <trkpt lat="42.84954" lon="2.16979">
        <ele>705.40002441406</ele>
        <time>2024-09-30T13:20:03.000Z</time>
      </trkpt>
      <trkpt lat="42.84953" lon="2.17">
        <ele>705.40002441406</ele>
        <time>2024-09-30T13:20:06.000Z</time>
      </trkpt>
      <trkpt lat="42.84951" lon="2.17039">
        <ele>703.59997558594</ele>
        <time>2024-09-30T13:20:11.000Z</time>
      </trkpt>
      <trkpt lat="42.84947" lon="2.17086">
        <ele>698.59997558594</ele>
        <time>2024-09-30T13:20:17.000Z</time>
      </trkpt>
      <trkpt lat="42.84946" lon="2.17094">
        <ele>698</ele>
        <time>2024-09-30T13:20:18.000Z</time>
      </trkpt>
      <trkpt lat="42.84941" lon="2.17117">
        <ele>695</ele>
        <time>2024-09-30T13:20:21.000Z</time>
      </trkpt>
      <trkpt lat="42.8494" lon="2.17125">
        <ele>694</ele>
        <time>2024-09-30T13:20:22.000Z</time>
      </trkpt>
      <trkpt lat="42.84934" lon="2.17156">
        <ele>690.40002441406</ele>
        <time>2024-09-30T13:20:26.000Z</time>
      </trkpt>
      <trkpt lat="42.84932" lon="2.17163">
        <ele>690</ele>
        <time>2024-09-30T13:20:27.000Z</time>
      </trkpt>
      <trkpt lat="42.84928" lon="2.17176">
        <ele>689.79998779297</ele>
        <time>2024-09-30T13:20:29.000Z</time>
      </trkpt>
      <trkpt lat="42.84925" lon="2.17189">
        <ele>688.59997558594</ele>
        <time>2024-09-30T13:20:31.000Z</time>
      </trkpt>
      <trkpt lat="42.84916" lon="2.17223">
        <ele>683.20001220703</ele>
        <time>2024-09-30T13:20:36.000Z</time>
      </trkpt>
      <trkpt lat="42.84907" lon="2.17253">
        <ele>678.40002441406</ele>
        <time>2024-09-30T13:20:41.000Z</time>
      </trkpt>
      <trkpt lat="42.84906" lon="2.17259">
        <ele>677.40002441406</ele>
        <time>2024-09-30T13:20:42.000Z</time>
      </trkpt>
      <trkpt lat="42.84897" lon="2.17283">
        <ele>675</ele>
        <time>2024-09-30T13:20:46.000Z</time>
      </trkpt>
      <trkpt lat="42.84895" lon="2.17289">
        <ele>674.79998779297</ele>
        <time>2024-09-30T13:20:47.000Z</time>
      </trkpt>
      <trkpt lat="42.84886" lon="2.17304">
        <ele>674.79998779297</ele>
        <time>2024-09-30T13:20:50.000Z</time>
      </trkpt>
      <trkpt lat="42.84868" lon="2.17339">
        <ele>675.20001220703</ele>
        <time>2024-09-30T13:20:56.000Z</time>
      </trkpt>
      <trkpt lat="42.84854" lon="2.17361">
        <ele>673.20001220703</ele>
        <time>2024-09-30T13:21:01.000Z</time>
      </trkpt>
      <trkpt lat="42.84847" lon="2.17376">
        <ele>672.20001220703</ele>
        <time>2024-09-30T13:21:05.000Z</time>
      </trkpt>
      <trkpt lat="42.84848" lon="2.17378">
        <ele>671</ele>
        <time>2024-09-30T13:21:06.000Z</time>
      </trkpt>
      <trkpt lat="42.84851" lon="2.17391">
        <ele>665.79998779297</ele>
        <time>2024-09-30T13:21:09.000Z</time>
      </trkpt>
      <trkpt lat="42.84847" lon="2.17407">
        <ele>664.20001220703</ele>
        <time>2024-09-30T13:21:10.000Z</time>
      </trkpt>
      <trkpt lat="42.84841" lon="2.17432">
        <ele>665.20001220703</ele>
        <time>2024-09-30T13:21:12.000Z</time>
      </trkpt>
      <trkpt lat="42.84839" lon="2.17449">
        <ele>663.79998779297</ele>
        <time>2024-09-30T13:21:14.000Z</time>
      </trkpt>
      <trkpt lat="42.84837" lon="2.17463">
        <ele>662</ele>
        <time>2024-09-30T13:21:16.000Z</time>
      </trkpt>
      <trkpt lat="42.84836" lon="2.17469">
        <ele>660</ele>
        <time>2024-09-30T13:21:17.000Z</time>
      </trkpt>
      <trkpt lat="42.84827" lon="2.1751">
        <ele>650.40002441406</ele>
        <time>2024-09-30T13:21:23.000Z</time>
      </trkpt>
      <trkpt lat="42.84823" lon="2.17522">
        <ele>648.40002441406</ele>
        <time>2024-09-30T13:21:25.000Z</time>
      </trkpt>
      <trkpt lat="42.84819" lon="2.17533">
        <ele>648</ele>
        <time>2024-09-30T13:21:27.000Z</time>
      </trkpt>
      <trkpt lat="42.8481" lon="2.17545">
        <ele>649.20001220703</ele>
        <time>2024-09-30T13:21:31.000Z</time>
      </trkpt>
      <trkpt lat="42.84799" lon="2.17566">
        <ele>650.40002441406</ele>
        <time>2024-09-30T13:21:36.000Z</time>
      </trkpt>
      <trkpt lat="42.84798" lon="2.1758">
        <ele>649</ele>
        <time>2024-09-30T13:21:39.000Z</time>
      </trkpt>
      <trkpt lat="42.84794" lon="2.17611">
        <ele>646.79998779297</ele>
        <time>2024-09-30T13:21:42.000Z</time>
      </trkpt>
      <trkpt lat="42.84796" lon="2.17634">
        <ele>644.59997558594</ele>
        <time>2024-09-30T13:21:45.000Z</time>
      </trkpt>
      <trkpt lat="42.84798" lon="2.17648">
        <ele>642.59997558594</ele>
        <time>2024-09-30T13:21:47.000Z</time>
      </trkpt>
      <trkpt lat="42.84799" lon="2.17656">
        <ele>642</ele>
        <time>2024-09-30T13:21:48.000Z</time>
      </trkpt>
      <trkpt lat="42.84801" lon="2.17682">
        <ele>638</ele>
        <time>2024-09-30T13:21:52.000Z</time>
      </trkpt>
      <trkpt lat="42.84802" lon="2.17689">
        <ele>636.79998779297</ele>
        <time>2024-09-30T13:21:53.000Z</time>
      </trkpt>
      <trkpt lat="42.84802" lon="2.17701">
        <ele>634.79998779297</ele>
        <time>2024-09-30T13:21:55.000Z</time>
      </trkpt>
      <trkpt lat="42.84801" lon="2.17707">
        <ele>634.20001220703</ele>
        <time>2024-09-30T13:21:56.000Z</time>
      </trkpt>
      <trkpt lat="42.84799" lon="2.17721">
        <ele>632.59997558594</ele>
        <time>2024-09-30T13:21:58.000Z</time>
      </trkpt>
      <trkpt lat="42.84796" lon="2.17735">
        <ele>631.40002441406</ele>
        <time>2024-09-30T13:22:00.000Z</time>
      </trkpt>
      <trkpt lat="42.84795" lon="2.17741">
        <ele>630.59997558594</ele>
        <time>2024-09-30T13:22:01.000Z</time>
      </trkpt>
      <trkpt lat="42.84794" lon="2.17755">
        <ele>630.40002441406</ele>
        <time>2024-09-30T13:22:03.000Z</time>
      </trkpt>
      <trkpt lat="42.84792" lon="2.1777">
        <ele>630.40002441406</ele>
        <time>2024-09-30T13:22:05.000Z</time>
      </trkpt>
      <trkpt lat="42.84792" lon="2.17779">
        <ele>630</ele>
        <time>2024-09-30T13:22:06.000Z</time>
      </trkpt>
      <trkpt lat="42.84791" lon="2.17803">
        <ele>630.40002441406</ele>
        <time>2024-09-30T13:22:09.000Z</time>
      </trkpt>
      <trkpt lat="42.84788" lon="2.17816">
        <ele>631</ele>
        <time>2024-09-30T13:22:11.000Z</time>
      </trkpt>
      <trkpt lat="42.84778" lon="2.17846">
        <ele>630.59997558594</ele>
        <time>2024-09-30T13:22:16.000Z</time>
      </trkpt>
      <trkpt lat="42.84776" lon="2.17855">
        <ele>630.40002441406</ele>
        <time>2024-09-30T13:22:18.000Z</time>
      </trkpt>
      <trkpt lat="42.84775" lon="2.17869">
        <ele>628.20001220703</ele>
        <time>2024-09-30T13:22:20.000Z</time>
      </trkpt>
      <trkpt lat="42.84773" lon="2.17885">
        <ele>626.40002441406</ele>
        <time>2024-09-30T13:22:22.000Z</time>
      </trkpt>
      <trkpt lat="42.8477" lon="2.17903">
        <ele>623.59997558594</ele>
        <time>2024-09-30T13:22:24.000Z</time>
      </trkpt>
      <trkpt lat="42.84767" lon="2.17911">
        <ele>623</ele>
        <time>2024-09-30T13:22:25.000Z</time>
      </trkpt>
      <trkpt lat="42.84765" lon="2.1792">
        <ele>623</ele>
        <time>2024-09-30T13:22:26.000Z</time>
      </trkpt>
      <trkpt lat="42.84759" lon="2.17931">
        <ele>624</ele>
        <time>2024-09-30T13:22:28.000Z</time>
      </trkpt>
      <trkpt lat="42.84758" lon="2.17942">
        <ele>623.40002441406</ele>
        <time>2024-09-30T13:22:30.000Z</time>
      </trkpt>
      <trkpt lat="42.84759" lon="2.17945">
        <ele>622.20001220703</ele>
        <time>2024-09-30T13:22:31.000Z</time>
      </trkpt>
      <trkpt lat="42.84763" lon="2.17947">
        <ele>619.40002441406</ele>
        <time>2024-09-30T13:22:33.000Z</time>
      </trkpt>
      <trkpt lat="42.84765" lon="2.17945">
        <ele>618.79998779297</ele>
        <time>2024-09-30T13:22:34.000Z</time>
      </trkpt>
      <trkpt lat="42.84765" lon="2.17942">
        <ele>618.79998779297</ele>
        <time>2024-09-30T13:22:35.000Z</time>
      </trkpt>
      <trkpt lat="42.84767" lon="2.17932">
        <ele>618.79998779297</ele>
        <time>2024-09-30T13:22:37.000Z</time>
      </trkpt>
      <trkpt lat="42.84769" lon="2.17919">
        <ele>620</ele>
        <time>2024-09-30T13:22:39.000Z</time>
      </trkpt>
      <trkpt lat="42.84773" lon="2.17906">
        <ele>620.79998779297</ele>
        <time>2024-09-30T13:22:41.000Z</time>
      </trkpt>
      <trkpt lat="42.8478" lon="2.17878">
        <ele>622.79998779297</ele>
        <time>2024-09-30T13:22:46.000Z</time>
      </trkpt>
      <trkpt lat="42.84785" lon="2.17865">
        <ele>622.40002441406</ele>
        <time>2024-09-30T13:22:49.000Z</time>
      </trkpt>
      <trkpt lat="42.84788" lon="2.1786">
        <ele>622</ele>
        <time>2024-09-30T13:22:50.000Z</time>
      </trkpt>
      <trkpt lat="42.84791" lon="2.17856">
        <ele>621.40002441406</ele>
        <time>2024-09-30T13:22:51.000Z</time>
      </trkpt>
      <trkpt lat="42.84803" lon="2.17845">
        <ele>617</ele>
        <time>2024-09-30T13:22:54.000Z</time>
      </trkpt>
      <trkpt lat="42.84816" lon="2.17835">
        <ele>610.79998779297</ele>
        <time>2024-09-30T13:22:57.000Z</time>
      </trkpt>
      <trkpt lat="42.8482" lon="2.17832">
        <ele>609</ele>
        <time>2024-09-30T13:22:58.000Z</time>
      </trkpt>
      <trkpt lat="42.84824" lon="2.17828">
        <ele>607.40002441406</ele>
        <time>2024-09-30T13:22:59.000Z</time>
      </trkpt>
      <trkpt lat="42.84829" lon="2.17817">
        <ele>605.59997558594</ele>
        <time>2024-09-30T13:23:01.000Z</time>
      </trkpt>
      <trkpt lat="42.84836" lon="2.17792">
        <ele>604.40002441406</ele>
        <time>2024-09-30T13:23:05.000Z</time>
      </trkpt>
      <trkpt lat="42.84837" lon="2.17786">
        <ele>604.79998779297</ele>
        <time>2024-09-30T13:23:06.000Z</time>
      </trkpt>
      <trkpt lat="42.84843" lon="2.17768">
        <ele>605.20001220703</ele>
        <time>2024-09-30T13:23:09.000Z</time>
      </trkpt>
      <trkpt lat="42.84845" lon="2.17763">
        <ele>604.79998779297</ele>
        <time>2024-09-30T13:23:10.000Z</time>
      </trkpt>
      <trkpt lat="42.8486" lon="2.17742">
        <ele>601</ele>
        <time>2024-09-30T13:23:15.000Z</time>
      </trkpt>
      <trkpt lat="42.84872" lon="2.17722">
        <ele>597.40002441406</ele>
        <time>2024-09-30T13:23:19.000Z</time>
      </trkpt>
      <trkpt lat="42.84874" lon="2.17717">
        <ele>596.79998779297</ele>
        <time>2024-09-30T13:23:20.000Z</time>
      </trkpt>
      <trkpt lat="42.84878" lon="2.17693">
        <ele>595</ele>
        <time>2024-09-30T13:23:24.000Z</time>
      </trkpt>
      <trkpt lat="42.84878" lon="2.17687">
        <ele>594.79998779297</ele>
        <time>2024-09-30T13:23:25.000Z</time>
      </trkpt>
      <trkpt lat="42.84878" lon="2.17681">
        <ele>595.40002441406</ele>
        <time>2024-09-30T13:23:26.000Z</time>
      </trkpt>
      <trkpt lat="42.84879" lon="2.17665">
        <ele>597.20001220703</ele>
        <time>2024-09-30T13:23:28.000Z</time>
      </trkpt>
      <trkpt lat="42.8488" lon="2.17657">
        <ele>598</ele>
        <time>2024-09-30T13:23:29.000Z</time>
      </trkpt>
      <trkpt lat="42.84882" lon="2.1765">
        <ele>599</ele>
        <time>2024-09-30T13:23:30.000Z</time>
      </trkpt>
      <trkpt lat="42.84889" lon="2.17639">
        <ele>599.20001220703</ele>
        <time>2024-09-30T13:23:32.000Z</time>
      </trkpt>
      <trkpt lat="42.84898" lon="2.17632">
        <ele>596.79998779297</ele>
        <time>2024-09-30T13:23:34.000Z</time>
      </trkpt>
      <trkpt lat="42.84907" lon="2.17632">
        <ele>593.20001220703</ele>
        <time>2024-09-30T13:23:36.000Z</time>
      </trkpt>
      <trkpt lat="42.84917" lon="2.17634">
        <ele>588.79998779297</ele>
        <time>2024-09-30T13:23:38.000Z</time>
      </trkpt>
      <trkpt lat="42.84931" lon="2.17637">
        <ele>582.79998779297</ele>
        <time>2024-09-30T13:23:41.000Z</time>
      </trkpt>
      <trkpt lat="42.84936" lon="2.17637">
        <ele>581.20001220703</ele>
        <time>2024-09-30T13:23:42.000Z</time>
      </trkpt>
      <trkpt lat="42.84945" lon="2.17632">
        <ele>578.79998779297</ele>
        <time>2024-09-30T13:23:44.000Z</time>
      </trkpt>
      <trkpt lat="42.84959" lon="2.17615">
        <ele>577.79998779297</ele>
        <time>2024-09-30T13:23:48.000Z</time>
      </trkpt>
      <trkpt lat="42.84965" lon="2.17604">
        <ele>578</ele>
        <time>2024-09-30T13:23:50.000Z</time>
      </trkpt>
      <trkpt lat="42.84971" lon="2.17593">
        <ele>578.40002441406</ele>
        <time>2024-09-30T13:23:52.000Z</time>
      </trkpt>
      <trkpt lat="42.84985" lon="2.17568">
        <ele>579</ele>
        <time>2024-09-30T13:23:57.000Z</time>
      </trkpt>
      <trkpt lat="42.84992" lon="2.17549">
        <ele>579.59997558594</ele>
        <time>2024-09-30T13:24:00.000Z</time>
      </trkpt>
      <trkpt lat="42.84999" lon="2.17541">
        <ele>579.79998779297</ele>
        <time>2024-09-30T13:24:02.000Z</time>
      </trkpt>
      <trkpt lat="42.85027" lon="2.17528">
        <ele>574.79998779297</ele>
        <time>2024-09-30T13:24:08.000Z</time>
      </trkpt>
      <trkpt lat="42.85048" lon="2.17517">
        <ele>570</ele>
        <time>2024-09-30T13:24:12.000Z</time>
      </trkpt>
      <trkpt lat="42.85071" lon="2.17499">
        <ele>562.79998779297</ele>
        <time>2024-09-30T13:24:17.000Z</time>
      </trkpt>
      <trkpt lat="42.85076" lon="2.17496">
        <ele>561.79998779297</ele>
        <time>2024-09-30T13:24:18.000Z</time>
      </trkpt>
      <trkpt lat="42.85092" lon="2.17479">
        <ele>558.40002441406</ele>
        <time>2024-09-30T13:24:22.000Z</time>
      </trkpt>
      <trkpt lat="42.85102" lon="2.17464">
        <ele>558.20001220703</ele>
        <time>2024-09-30T13:24:25.000Z</time>
      </trkpt>
      <trkpt lat="42.85107" lon="2.17453">
        <ele>557.59997558594</ele>
        <time>2024-09-30T13:24:27.000Z</time>
      </trkpt>
      <trkpt lat="42.85124" lon="2.17418">
        <ele>557</ele>
        <time>2024-09-30T13:24:33.000Z</time>
      </trkpt>
      <trkpt lat="42.85138" lon="2.17391">
        <ele>556.20001220703</ele>
        <time>2024-09-30T13:24:38.000Z</time>
      </trkpt>
      <trkpt lat="42.85141" lon="2.17387">
        <ele>556.20001220703</ele>
        <time>2024-09-30T13:24:39.000Z</time>
      </trkpt>
      <trkpt lat="42.85152" lon="2.17373">
        <ele>554.59997558594</ele>
        <time>2024-09-30T13:24:42.000Z</time>
      </trkpt>
      <trkpt lat="42.85176" lon="2.17348">
        <ele>549.20001220703</ele>
        <time>2024-09-30T13:24:48.000Z</time>
      </trkpt>
      <trkpt lat="42.85197" lon="2.17326">
        <ele>546.59997558594</ele>
        <time>2024-09-30T13:24:53.000Z</time>
      </trkpt>
      <trkpt lat="42.85219" lon="2.17304">
        <ele>542.20001220703</ele>
        <time>2024-09-30T13:24:59.000Z</time>
      </trkpt>
      <trkpt lat="42.85227" lon="2.17296">
        <ele>540.20001220703</ele>
        <time>2024-09-30T13:25:01.000Z</time>
      </trkpt>
      <trkpt lat="42.85237" lon="2.17281">
        <ele>539</ele>
        <time>2024-09-30T13:25:04.000Z</time>
      </trkpt>
      <trkpt lat="42.85255" lon="2.17246">
        <ele>536.79998779297</ele>
        <time>2024-09-30T13:25:10.000Z</time>
      </trkpt>
      <trkpt lat="42.8526" lon="2.17235">
        <ele>536.40002441406</ele>
        <time>2024-09-30T13:25:12.000Z</time>
      </trkpt>
      <trkpt lat="42.85263" lon="2.17224">
        <ele>536.40002441406</ele>
        <time>2024-09-30T13:25:14.000Z</time>
      </trkpt>
      <trkpt lat="42.85276" lon="2.17197">
        <ele>536.40002441406</ele>
        <time>2024-09-30T13:25:19.000Z</time>
      </trkpt>
      <trkpt lat="42.85284" lon="2.17185">
        <ele>535</ele>
        <time>2024-09-30T13:25:21.000Z</time>
      </trkpt>
      <trkpt lat="42.85296" lon="2.17171">
        <ele>532.59997558594</ele>
        <time>2024-09-30T13:25:24.000Z</time>
      </trkpt>
      <trkpt lat="42.8532" lon="2.17132">
        <ele>527.40002441406</ele>
        <time>2024-09-30T13:25:31.000Z</time>
      </trkpt>
      <trkpt lat="42.85339" lon="2.17099">
        <ele>522.59997558594</ele>
        <time>2024-09-30T13:25:37.000Z</time>
      </trkpt>
      <trkpt lat="42.85354" lon="2.17061">
        <ele>518.40002441406</ele>
        <time>2024-09-30T13:25:43.000Z</time>
      </trkpt>
      <trkpt lat="42.85365" lon="2.17024">
        <ele>518.20001220703</ele>
        <time>2024-09-30T13:25:48.000Z</time>
      </trkpt>
      <trkpt lat="42.85371" lon="2.17014">
        <ele>517.20001220703</ele>
        <time>2024-09-30T13:25:50.000Z</time>
      </trkpt>
      <trkpt lat="42.85375" lon="2.17011">
        <ele>516.20001220703</ele>
        <time>2024-09-30T13:25:51.000Z</time>
      </trkpt>
      <trkpt lat="42.85379" lon="2.17009">
        <ele>515.20001220703</ele>
        <time>2024-09-30T13:25:52.000Z</time>
      </trkpt>
      <trkpt lat="42.8539" lon="2.17008">
        <ele>512.20001220703</ele>
        <time>2024-09-30T13:25:55.000Z</time>
      </trkpt>
      <trkpt lat="42.85401" lon="2.17006">
        <ele>509.79998779297</ele>
        <time>2024-09-30T13:25:59.000Z</time>
      </trkpt>
      <trkpt lat="42.85405" lon="2.17">
        <ele>509.60000610352</ele>
        <time>2024-09-30T13:26:02.000Z</time>
      </trkpt>
      <trkpt lat="42.85406" lon="2.16994">
        <ele>510</ele>
        <time>2024-09-30T13:26:04.000Z</time>
      </trkpt>
      <trkpt lat="42.85407" lon="2.16973">
        <ele>511.20001220703</ele>
        <time>2024-09-30T13:26:10.000Z</time>
      </trkpt>
      <trkpt lat="42.85409" lon="2.16955">
        <ele>513.40002441406</ele>
        <time>2024-09-30T13:26:15.000Z</time>
      </trkpt>
      <trkpt lat="42.85411" lon="2.16943">
        <ele>514.59997558594</ele>
        <time>2024-09-30T13:26:19.000Z</time>
      </trkpt>
      <trkpt lat="42.85412" lon="2.16941">
        <ele>514.79998779297</ele>
        <time>2024-09-30T13:26:20.000Z</time>
      </trkpt>
      <trkpt lat="42.85412" lon="2.16939">
        <ele>515</ele>
        <time>2024-09-30T13:26:21.000Z</time>
      </trkpt>
      <trkpt lat="42.85412" lon="2.16934">
        <ele>515.79998779297</ele>
        <time>2024-09-30T13:26:23.000Z</time>
      </trkpt>
      <trkpt lat="42.85412" lon="2.16931">
        <ele>516.40002441406</ele>
        <time>2024-09-30T13:26:24.000Z</time>
      </trkpt>
      <trkpt lat="42.85414" lon="2.16916">
        <ele>518.40002441406</ele>
        <time>2024-09-30T13:26:29.000Z</time>
      </trkpt>
      <trkpt lat="42.85415" lon="2.16913">
        <ele>518.79998779297</ele>
        <time>2024-09-30T13:26:30.000Z</time>
      </trkpt>
      <trkpt lat="42.85416" lon="2.169">
        <ele>520</ele>
        <time>2024-09-30T13:26:36.000Z</time>
      </trkpt>
      <trkpt lat="42.85417" lon="2.16897">
        <ele>520.20001220703</ele>
        <time>2024-09-30T13:26:37.000Z</time>
      </trkpt>
      <trkpt lat="42.85418" lon="2.16888">
        <ele>520.59997558594</ele>
        <time>2024-09-30T13:26:40.000Z</time>
      </trkpt>
      <trkpt lat="42.85417" lon="2.16873">
        <ele>522.59997558594</ele>
        <time>2024-09-30T13:26:45.000Z</time>
      </trkpt>
      <trkpt lat="42.85412" lon="2.16855">
        <ele>525.40002441406</ele>
        <time>2024-09-30T13:26:50.000Z</time>
      </trkpt>
      <trkpt lat="42.85409" lon="2.16836">
        <ele>527.79998779297</ele>
        <time>2024-09-30T13:26:56.000Z</time>
      </trkpt>
      <trkpt lat="42.85407" lon="2.16807">
        <ele>530.40002441406</ele>
        <time>2024-09-30T13:27:03.000Z</time>
      </trkpt>
      <trkpt lat="42.85402" lon="2.16787">
        <ele>532.79998779297</ele>
        <time>2024-09-30T13:27:09.000Z</time>
      </trkpt>
      <trkpt lat="42.85399" lon="2.16767">
        <ele>534</ele>
        <time>2024-09-30T13:27:13.000Z</time>
      </trkpt>
      <trkpt lat="42.85398" lon="2.16751">
        <ele>534.20001220703</ele>
        <time>2024-09-30T13:27:18.000Z</time>
      </trkpt>
      <trkpt lat="42.85402" lon="2.16732">
        <ele>534.20001220703</ele>
        <time>2024-09-30T13:27:24.000Z</time>
      </trkpt>
      <trkpt lat="42.85408" lon="2.16711">
        <ele>536.59997558594</ele>
        <time>2024-09-30T13:27:31.000Z</time>
      </trkpt>
      <trkpt lat="42.85416" lon="2.16695">
        <ele>539.40002441406</ele>
        <time>2024-09-30T13:27:37.000Z</time>
      </trkpt>
      <trkpt lat="42.85426" lon="2.16671">
        <ele>543.79998779297</ele>
        <time>2024-09-30T13:27:44.000Z</time>
      </trkpt>
      <trkpt lat="42.85436" lon="2.1665">
        <ele>546.20001220703</ele>
        <time>2024-09-30T13:27:51.000Z</time>
      </trkpt>
      <trkpt lat="42.85438" lon="2.16648">
        <ele>546.20001220703</ele>
        <time>2024-09-30T13:27:52.000Z</time>
      </trkpt>
      <trkpt lat="42.85444" lon="2.16643">
        <ele>545.79998779297</ele>
        <time>2024-09-30T13:27:55.000Z</time>
      </trkpt>
      <trkpt lat="42.85454" lon="2.1663">
        <ele>546.79998779297</ele>
        <time>2024-09-30T13:28:01.000Z</time>
      </trkpt>
      <trkpt lat="42.85461" lon="2.16615">
        <ele>548.40002441406</ele>
        <time>2024-09-30T13:28:06.000Z</time>
      </trkpt>
      <trkpt lat="42.85468" lon="2.16595">
        <ele>551.59997558594</ele>
        <time>2024-09-30T13:28:11.000Z</time>
      </trkpt>
      <trkpt lat="42.85474" lon="2.16574">
        <ele>554.20001220703</ele>
        <time>2024-09-30T13:28:17.000Z</time>
      </trkpt>
      <trkpt lat="42.8548" lon="2.16553">
        <ele>555.59997558594</ele>
        <time>2024-09-30T13:28:24.000Z</time>
      </trkpt>
      <trkpt lat="42.85485" lon="2.16534">
        <ele>557.20001220703</ele>
        <time>2024-09-30T13:28:30.000Z</time>
      </trkpt>
      <trkpt lat="42.85489" lon="2.16519">
        <ele>558.40002441406</ele>
        <time>2024-09-30T13:28:35.000Z</time>
      </trkpt>
      <trkpt lat="42.85496" lon="2.16492">
        <ele>559</ele>
        <time>2024-09-30T13:28:40.000Z</time>
      </trkpt>
      <trkpt lat="42.85503" lon="2.16474">
        <ele>557.20001220703</ele>
        <time>2024-09-30T13:28:43.000Z</time>
      </trkpt>
      <trkpt lat="42.85508" lon="2.16463">
        <ele>555.79998779297</ele>
        <time>2024-09-30T13:28:45.000Z</time>
      </trkpt>
      <trkpt lat="42.8551" lon="2.16459">
        <ele>555.40002441406</ele>
        <time>2024-09-30T13:28:46.000Z</time>
      </trkpt>
      <trkpt lat="42.85518" lon="2.16444">
        <ele>555.20001220703</ele>
        <time>2024-09-30T13:28:50.000Z</time>
      </trkpt>
      <trkpt lat="42.85519" lon="2.16442">
        <ele>555.20001220703</ele>
        <time>2024-09-30T13:28:51.000Z</time>
      </trkpt>
      <trkpt lat="42.85523" lon="2.16428">
        <ele>555.20001220703</ele>
        <time>2024-09-30T13:28:55.000Z</time>
      </trkpt>
      <trkpt lat="42.85524" lon="2.16409">
        <ele>556.20001220703</ele>
        <time>2024-09-30T13:28:59.000Z</time>
      </trkpt>
      <trkpt lat="42.85529" lon="2.16397">
        <ele>556.20001220703</ele>
        <time>2024-09-30T13:29:03.000Z</time>
      </trkpt>
      <trkpt lat="42.85538" lon="2.16375">
        <ele>555.40002441406</ele>
        <time>2024-09-30T13:29:10.000Z</time>
      </trkpt>
      <trkpt lat="42.85543" lon="2.16365">
        <ele>554.79998779297</ele>
        <time>2024-09-30T13:29:14.000Z</time>
      </trkpt>
      <trkpt lat="42.85545" lon="2.16363">
        <ele>554.20001220703</ele>
        <time>2024-09-30T13:29:15.000Z</time>
      </trkpt>
      <trkpt lat="42.85553" lon="2.1636">
        <ele>551.59997558594</ele>
        <time>2024-09-30T13:29:18.000Z</time>
      </trkpt>
      <trkpt lat="42.85555" lon="2.16362">
        <ele>550.59997558594</ele>
        <time>2024-09-30T13:29:19.000Z</time>
      </trkpt>
      <trkpt lat="42.85557" lon="2.16364">
        <ele>549.79998779297</ele>
        <time>2024-09-30T13:29:20.000Z</time>
      </trkpt>
      <trkpt lat="42.85557" lon="2.16372">
        <ele>548.59997558594</ele>
        <time>2024-09-30T13:29:22.000Z</time>
      </trkpt>
      <trkpt lat="42.85562" lon="2.16391">
        <ele>545.79998779297</ele>
        <time>2024-09-30T13:29:27.000Z</time>
      </trkpt>
      <trkpt lat="42.85574" lon="2.16389">
        <ele>542.59997558594</ele>
        <time>2024-09-30T13:29:31.000Z</time>
      </trkpt>
      <trkpt lat="42.85595" lon="2.16371">
        <ele>538.59997558594</ele>
        <time>2024-09-30T13:29:37.000Z</time>
      </trkpt>
      <trkpt lat="42.8561" lon="2.16363">
        <ele>536.20001220703</ele>
        <time>2024-09-30T13:29:41.000Z</time>
      </trkpt>
      <trkpt lat="42.85624" lon="2.16346">
        <ele>535.20001220703</ele>
        <time>2024-09-30T13:29:46.000Z</time>
      </trkpt>
      <trkpt lat="42.85631" lon="2.16334">
        <ele>535.40002441406</ele>
        <time>2024-09-30T13:29:50.000Z</time>
      </trkpt>
      <trkpt lat="42.85639" lon="2.16325">
        <ele>533.40002441406</ele>
        <time>2024-09-30T13:29:54.000Z</time>
      </trkpt>
      <trkpt lat="42.85646" lon="2.16323">
        <ele>531.79998779297</ele>
        <time>2024-09-30T13:29:56.000Z</time>
      </trkpt>
      <trkpt lat="42.85649" lon="2.16325">
        <ele>531</ele>
        <time>2024-09-30T13:29:57.000Z</time>
      </trkpt>
      <trkpt lat="42.85657" lon="2.16341">
        <ele>529.59997558594</ele>
        <time>2024-09-30T13:30:01.000Z</time>
      </trkpt>
      <trkpt lat="42.85663" lon="2.16364">
        <ele>527</ele>
        <time>2024-09-30T13:30:06.000Z</time>
      </trkpt>
      <trkpt lat="42.85667" lon="2.1638">
        <ele>524.59997558594</ele>
        <time>2024-09-30T13:30:09.000Z</time>
      </trkpt>
      <trkpt lat="42.85666" lon="2.1639">
        <ele>523.40002441406</ele>
        <time>2024-09-30T13:30:11.000Z</time>
      </trkpt>
      <trkpt lat="42.85662" lon="2.16402">
        <ele>522</ele>
        <time>2024-09-30T13:30:14.000Z</time>
      </trkpt>
      <trkpt lat="42.85663" lon="2.16406">
        <ele>521.20001220703</ele>
        <time>2024-09-30T13:30:15.000Z</time>
      </trkpt>
      <trkpt lat="42.85666" lon="2.1641">
        <ele>519.79998779297</ele>
        <time>2024-09-30T13:30:17.000Z</time>
      </trkpt>
      <trkpt lat="42.85668" lon="2.16409">
        <ele>519.59997558594</ele>
        <time>2024-09-30T13:30:18.000Z</time>
      </trkpt>
      <trkpt lat="42.85678" lon="2.16399">
        <ele>519.79998779297</ele>
        <time>2024-09-30T13:30:22.000Z</time>
      </trkpt>
      <trkpt lat="42.85695" lon="2.16386">
        <ele>517.40002441406</ele>
        <time>2024-09-30T13:30:27.000Z</time>
      </trkpt>
      <trkpt lat="42.85712" lon="2.16373">
        <ele>515.40002441406</ele>
        <time>2024-09-30T13:30:32.000Z</time>
      </trkpt>
      <trkpt lat="42.85728" lon="2.16356">
        <ele>513</ele>
        <time>2024-09-30T13:30:37.000Z</time>
      </trkpt>
      <trkpt lat="42.85731" lon="2.16351">
        <ele>512.20001220703</ele>
        <time>2024-09-30T13:30:38.000Z</time>
      </trkpt>
      <trkpt lat="42.85744" lon="2.16332">
        <ele>508.79998779297</ele>
        <time>2024-09-30T13:30:43.000Z</time>
      </trkpt>
      <trkpt lat="42.85748" lon="2.16322">
        <ele>507.39999389648</ele>
        <time>2024-09-30T13:30:45.000Z</time>
      </trkpt>
      <trkpt lat="42.85752" lon="2.16312">
        <ele>506.20001220703</ele>
        <time>2024-09-30T13:30:47.000Z</time>
      </trkpt>
      <trkpt lat="42.85759" lon="2.16292">
        <ele>504.39999389648</ele>
        <time>2024-09-30T13:30:51.000Z</time>
      </trkpt>
      <trkpt lat="42.8576" lon="2.16286">
        <ele>504.39999389648</ele>
        <time>2024-09-30T13:30:52.000Z</time>
      </trkpt>
      <trkpt lat="42.85762" lon="2.16274">
        <ele>504.60000610352</ele>
        <time>2024-09-30T13:30:54.000Z</time>
      </trkpt>
      <trkpt lat="42.85761" lon="2.16254">
        <ele>505.79998779297</ele>
        <time>2024-09-30T13:30:57.000Z</time>
      </trkpt>
      <trkpt lat="42.85758" lon="2.16208">
        <ele>508.20001220703</ele>
        <time>2024-09-30T13:31:04.000Z</time>
      </trkpt>
      <trkpt lat="42.85757" lon="2.16202">
        <ele>508</ele>
        <time>2024-09-30T13:31:05.000Z</time>
      </trkpt>
      <trkpt lat="42.85753" lon="2.1619">
        <ele>508.39999389648</ele>
        <time>2024-09-30T13:31:07.000Z</time>
      </trkpt>
      <trkpt lat="42.85736" lon="2.16166">
        <ele>508.60000610352</ele>
        <time>2024-09-30T13:31:13.000Z</time>
      </trkpt>
      <trkpt lat="42.85735" lon="2.16163">
        <ele>508.39999389648</ele>
        <time>2024-09-30T13:31:14.000Z</time>
      </trkpt>
      <trkpt lat="42.85738" lon="2.16161">
        <ele>507.39999389648</ele>
        <time>2024-09-30T13:31:16.000Z</time>
      </trkpt>
      <trkpt lat="42.85746" lon="2.16164">
        <ele>506.60000610352</ele>
        <time>2024-09-30T13:31:19.000Z</time>
      </trkpt>
      <trkpt lat="42.85756" lon="2.16173">
        <ele>506</ele>
        <time>2024-09-30T13:31:22.000Z</time>
      </trkpt>
      <trkpt lat="42.85761" lon="2.16175">
        <ele>505.39999389648</ele>
        <time>2024-09-30T13:31:23.000Z</time>
      </trkpt>
      <trkpt lat="42.85774" lon="2.16179">
        <ele>502.60000610352</ele>
        <time>2024-09-30T13:31:26.000Z</time>
      </trkpt>
      <trkpt lat="42.85782" lon="2.16183">
        <ele>501.20001220703</ele>
        <time>2024-09-30T13:31:28.000Z</time>
      </trkpt>
      <trkpt lat="42.85791" lon="2.16187">
        <ele>499.39999389648</ele>
        <time>2024-09-30T13:31:30.000Z</time>
      </trkpt>
      <trkpt lat="42.85799" lon="2.16193">
        <ele>497.79998779297</ele>
        <time>2024-09-30T13:31:32.000Z</time>
      </trkpt>
      <trkpt lat="42.85803" lon="2.16196">
        <ele>497.20001220703</ele>
        <time>2024-09-30T13:31:33.000Z</time>
      </trkpt>
      <trkpt lat="42.85821" lon="2.16206">
        <ele>494</ele>
        <time>2024-09-30T13:31:38.000Z</time>
      </trkpt>
      <trkpt lat="42.85829" lon="2.16209">
        <ele>493</ele>
        <time>2024-09-30T13:31:40.000Z</time>
      </trkpt>
      <trkpt lat="42.85836" lon="2.16213">
        <ele>492.20001220703</ele>
        <time>2024-09-30T13:31:42.000Z</time>
      </trkpt>
      <trkpt lat="42.85852" lon="2.1623">
        <ele>489.39999389648</ele>
        <time>2024-09-30T13:31:47.000Z</time>
      </trkpt>
      <trkpt lat="42.85867" lon="2.16246">
        <ele>486.79998779297</ele>
        <time>2024-09-30T13:31:52.000Z</time>
      </trkpt>
      <trkpt lat="42.85874" lon="2.16263">
        <ele>485</ele>
        <time>2024-09-30T13:31:57.000Z</time>
      </trkpt>
      <trkpt lat="42.85878" lon="2.16271">
        <ele>483.60000610352</ele>
        <time>2024-09-30T13:31:59.000Z</time>
      </trkpt>
      <trkpt lat="42.85884" lon="2.16273">
        <ele>481.39999389648</ele>
        <time>2024-09-30T13:32:01.000Z</time>
      </trkpt>
      <trkpt lat="42.85897" lon="2.16269">
        <ele>477.39999389648</ele>
        <time>2024-09-30T13:32:05.000Z</time>
      </trkpt>
      <trkpt lat="42.85904" lon="2.16267">
        <ele>475.20001220703</ele>
        <time>2024-09-30T13:32:07.000Z</time>
      </trkpt>
      <trkpt lat="42.85913" lon="2.16265">
        <ele>472.79998779297</ele>
        <time>2024-09-30T13:32:09.000Z</time>
      </trkpt>
      <trkpt lat="42.85936" lon="2.16262">
        <ele>465.79998779297</ele>
        <time>2024-09-30T13:32:15.000Z</time>
      </trkpt>
      <trkpt lat="42.85943" lon="2.16262">
        <ele>463.60000610352</ele>
        <time>2024-09-30T13:32:17.000Z</time>
      </trkpt>
      <trkpt lat="42.8595" lon="2.16259">
        <ele>462.20001220703</ele>
        <time>2024-09-30T13:32:19.000Z</time>
      </trkpt>
      <trkpt lat="42.85962" lon="2.16243">
        <ele>461.60000610352</ele>
        <time>2024-09-30T13:32:24.000Z</time>
      </trkpt>
      <trkpt lat="42.85967" lon="2.16221">
        <ele>462</ele>
        <time>2024-09-30T13:32:29.000Z</time>
      </trkpt>
      <trkpt lat="42.8597" lon="2.16208">
        <ele>461.60000610352</ele>
        <time>2024-09-30T13:32:32.000Z</time>
      </trkpt>
      <trkpt lat="42.85973" lon="2.16205">
        <ele>461</ele>
        <time>2024-09-30T13:32:33.000Z</time>
      </trkpt>
      <trkpt lat="42.85976" lon="2.16203">
        <ele>460.60000610352</ele>
        <time>2024-09-30T13:32:34.000Z</time>
      </trkpt>
      <trkpt lat="42.85983" lon="2.16203">
        <ele>459.60000610352</ele>
        <time>2024-09-30T13:32:36.000Z</time>
      </trkpt>
      <trkpt lat="42.85997" lon="2.16206">
        <ele>458.20001220703</ele>
        <time>2024-09-30T13:32:40.000Z</time>
      </trkpt>
      <trkpt lat="42.86011" lon="2.16219">
        <ele>456</ele>
        <time>2024-09-30T13:32:45.000Z</time>
      </trkpt>
      <trkpt lat="42.86027" lon="2.16229">
        <ele>451.60000610352</ele>
        <time>2024-09-30T13:32:50.000Z</time>
      </trkpt>
      <trkpt lat="42.8603" lon="2.1623">
        <ele>451</ele>
        <time>2024-09-30T13:32:51.000Z</time>
      </trkpt>
      <trkpt lat="42.86038" lon="2.1623">
        <ele>449.39999389648</ele>
        <time>2024-09-30T13:32:54.000Z</time>
      </trkpt>
      <trkpt lat="42.86054" lon="2.16232">
        <ele>447.39999389648</ele>
        <time>2024-09-30T13:32:58.000Z</time>
      </trkpt>
      <trkpt lat="42.86067" lon="2.16236">
        <ele>445.20001220703</ele>
        <time>2024-09-30T13:33:02.000Z</time>
      </trkpt>
      <trkpt lat="42.86079" lon="2.16239">
        <ele>443.20001220703</ele>
        <time>2024-09-30T13:33:06.000Z</time>
      </trkpt>
      <trkpt lat="42.86083" lon="2.16239">
        <ele>442.60000610352</ele>
        <time>2024-09-30T13:33:09.000Z</time>
      </trkpt>
      <trkpt lat="42.86088" lon="2.16242">
        <ele>441.60000610352</ele>
        <time>2024-09-30T13:33:22.000Z</time>
      </trkpt>
      <trkpt lat="42.86098" lon="2.1625">
        <ele>439.60000610352</ele>
        <time>2024-09-30T13:33:26.000Z</time>
      </trkpt>
      <trkpt lat="42.86114" lon="2.16261">
        <ele>438</ele>
        <time>2024-09-30T13:33:31.000Z</time>
      </trkpt>
      <trkpt lat="42.86131" lon="2.16271">
        <ele>437.39999389648</ele>
        <time>2024-09-30T13:33:35.000Z</time>
      </trkpt>
      <trkpt lat="42.86152" lon="2.16283">
        <ele>436.79998779297</ele>
        <time>2024-09-30T13:33:40.000Z</time>
      </trkpt>
      <trkpt lat="42.86169" lon="2.16295">
        <ele>435.20001220703</ele>
        <time>2024-09-30T13:33:45.000Z</time>
      </trkpt>
      <trkpt lat="42.86199" lon="2.16316">
        <ele>429.79998779297</ele>
        <time>2024-09-30T13:33:53.000Z</time>
      </trkpt>
      <trkpt lat="42.86203" lon="2.16319">
        <ele>428.79998779297</ele>
        <time>2024-09-30T13:33:54.000Z</time>
      </trkpt>
      <trkpt lat="42.8622" lon="2.16333">
        <ele>427.39999389648</ele>
        <time>2024-09-30T13:33:58.000Z</time>
      </trkpt>
      <trkpt lat="42.8624" lon="2.1635">
        <ele>426.20001220703</ele>
        <time>2024-09-30T13:34:03.000Z</time>
      </trkpt>
      <trkpt lat="42.86247" lon="2.16358">
        <ele>425.79998779297</ele>
        <time>2024-09-30T13:34:05.000Z</time>
      </trkpt>
      <trkpt lat="42.8626" lon="2.16374">
        <ele>425.20001220703</ele>
        <time>2024-09-30T13:34:10.000Z</time>
      </trkpt>
      <trkpt lat="42.86269" lon="2.16393">
        <ele>423.79998779297</ele>
        <time>2024-09-30T13:34:15.000Z</time>
      </trkpt>
      <trkpt lat="42.86266" lon="2.16401">
        <ele>423</ele>
        <time>2024-09-30T13:34:17.000Z</time>
      </trkpt>
      <trkpt lat="42.86263" lon="2.16403">
        <ele>422.60000610352</ele>
        <time>2024-09-30T13:34:18.000Z</time>
      </trkpt>
      <trkpt lat="42.86255" lon="2.16407">
        <ele>421.79998779297</ele>
        <time>2024-09-30T13:34:20.000Z</time>
      </trkpt>
      <trkpt lat="42.86251" lon="2.16407">
        <ele>421.79998779297</ele>
        <time>2024-09-30T13:34:21.000Z</time>
      </trkpt>
      <trkpt lat="42.86242" lon="2.16405">
        <ele>421.60000610352</ele>
        <time>2024-09-30T13:34:23.000Z</time>
      </trkpt>
      <trkpt lat="42.86239" lon="2.16407">
        <ele>421.20001220703</ele>
        <time>2024-09-30T13:34:24.000Z</time>
      </trkpt>
      <trkpt lat="42.86237" lon="2.16415">
        <ele>419.79998779297</ele>
        <time>2024-09-30T13:34:26.000Z</time>
      </trkpt>
      <trkpt lat="42.86238" lon="2.16419">
        <ele>419</ele>
        <time>2024-09-30T13:34:27.000Z</time>
      </trkpt>
      <trkpt lat="42.86247" lon="2.16433">
        <ele>417</ele>
        <time>2024-09-30T13:34:31.000Z</time>
      </trkpt>
      <trkpt lat="42.86259" lon="2.16444">
        <ele>415.60000610352</ele>
        <time>2024-09-30T13:34:35.000Z</time>
      </trkpt>
      <trkpt lat="42.86272" lon="2.16455">
        <ele>413.39999389648</ele>
        <time>2024-09-30T13:34:39.000Z</time>
      </trkpt>
      <trkpt lat="42.86279" lon="2.16461">
        <ele>412.20001220703</ele>
        <time>2024-09-30T13:34:41.000Z</time>
      </trkpt>
      <trkpt lat="42.86293" lon="2.16472">
        <ele>410.20001220703</ele>
        <time>2024-09-30T13:34:45.000Z</time>
      </trkpt>
      <trkpt lat="42.86297" lon="2.16475">
        <ele>409.60000610352</ele>
        <time>2024-09-30T13:34:46.000Z</time>
      </trkpt>
      <trkpt lat="42.86311" lon="2.16482">
        <ele>408.60000610352</ele>
        <time>2024-09-30T13:34:50.000Z</time>
      </trkpt>
      <trkpt lat="42.86326" lon="2.16489">
        <ele>407.39999389648</ele>
        <time>2024-09-30T13:34:54.000Z</time>
      </trkpt>
      <trkpt lat="42.86344" lon="2.16497">
        <ele>406.20001220703</ele>
        <time>2024-09-30T13:34:59.000Z</time>
      </trkpt>
      <trkpt lat="42.86362" lon="2.16499">
        <ele>406</ele>
        <time>2024-09-30T13:35:04.000Z</time>
      </trkpt>
      <trkpt lat="42.86382" lon="2.16502">
        <ele>405.39999389648</ele>
        <time>2024-09-30T13:35:09.000Z</time>
      </trkpt>
      <trkpt lat="42.86398" lon="2.16505">
        <ele>404.39999389648</ele>
        <time>2024-09-30T13:35:13.000Z</time>
      </trkpt>
      <trkpt lat="42.86402" lon="2.16507">
        <ele>404</ele>
        <time>2024-09-30T13:35:14.000Z</time>
      </trkpt>
      <trkpt lat="42.86418" lon="2.16511">
        <ele>402.39999389648</ele>
        <time>2024-09-30T13:35:19.000Z</time>
      </trkpt>
      <trkpt lat="42.86434" lon="2.16515">
        <ele>400.39999389648</ele>
        <time>2024-09-30T13:35:24.000Z</time>
      </trkpt>
      <trkpt lat="42.86455" lon="2.16514">
        <ele>398</ele>
        <time>2024-09-30T13:35:30.000Z</time>
      </trkpt>
      <trkpt lat="42.86461" lon="2.16516">
        <ele>397.20001220703</ele>
        <time>2024-09-30T13:35:34.000Z</time>
      </trkpt>
      <trkpt lat="42.86461" lon="2.16516">
        <ele>397.20001220703</ele>
        <time>2024-09-30T13:35:35.000Z</time>
      </trkpt>
      <trkpt lat="42.86465" lon="2.1652">
        <ele>396.79998779297</ele>
        <time>2024-09-30T13:35:53.000Z</time>
      </trkpt>
      <trkpt lat="42.86469" lon="2.16522">
        <ele>396.39999389648</ele>
        <time>2024-09-30T13:35:55.000Z</time>
      </trkpt>
      <trkpt lat="42.86486" lon="2.16537">
        <ele>394.79998779297</ele>
        <time>2024-09-30T13:36:01.000Z</time>
      </trkpt>
      <trkpt lat="42.865" lon="2.16551">
        <ele>394.20001220703</ele>
        <time>2024-09-30T13:36:05.000Z</time>
      </trkpt>
      <trkpt lat="42.86505" lon="2.16561">
        <ele>393.60000610352</ele>
        <time>2024-09-30T13:36:07.000Z</time>
      </trkpt>
      <trkpt lat="42.86513" lon="2.16579">
        <ele>392.60000610352</ele>
        <time>2024-09-30T13:36:10.000Z</time>
      </trkpt>
      <trkpt lat="42.86516" lon="2.16592">
        <ele>391.79998779297</ele>
        <time>2024-09-30T13:36:12.000Z</time>
      </trkpt>
      <trkpt lat="42.8652" lon="2.16604">
        <ele>391</ele>
        <time>2024-09-30T13:36:14.000Z</time>
      </trkpt>
      <trkpt lat="42.86525" lon="2.16612">
        <ele>390.60000610352</ele>
        <time>2024-09-30T13:36:16.000Z</time>
      </trkpt>
      <trkpt lat="42.86536" lon="2.16632">
        <ele>389.79998779297</ele>
        <time>2024-09-30T13:36:21.000Z</time>
      </trkpt>
      <trkpt lat="42.86547" lon="2.16656">
        <ele>387.79998779297</ele>
        <time>2024-09-30T13:36:26.000Z</time>
      </trkpt>
      <trkpt lat="42.86553" lon="2.1667">
        <ele>386.20001220703</ele>
        <time>2024-09-30T13:36:30.000Z</time>
      </trkpt>
      <trkpt lat="42.86565" lon="2.16688">
        <ele>383.79998779297</ele>
        <time>2024-09-30T13:36:35.000Z</time>
      </trkpt>
      <trkpt lat="42.86568" lon="2.167">
        <ele>382.39999389648</ele>
        <time>2024-09-30T13:36:37.000Z</time>
      </trkpt>
      <trkpt lat="42.86569" lon="2.1671">
        <ele>381.39999389648</ele>
        <time>2024-09-30T13:36:39.000Z</time>
      </trkpt>
      <trkpt lat="42.86564" lon="2.1673">
        <ele>379.20001220703</ele>
        <time>2024-09-30T13:36:43.000Z</time>
      </trkpt>
      <trkpt lat="42.8656" lon="2.16741">
        <ele>378.39999389648</ele>
        <time>2024-09-30T13:36:45.000Z</time>
      </trkpt>
      <trkpt lat="42.86556" lon="2.16758">
        <ele>378</ele>
        <time>2024-09-30T13:36:48.000Z</time>
      </trkpt>
      <trkpt lat="42.86545" lon="2.16777">
        <ele>376</ele>
        <time>2024-09-30T13:36:52.000Z</time>
      </trkpt>
      <trkpt lat="42.86544" lon="2.16783">
        <ele>375.79998779297</ele>
        <time>2024-09-30T13:36:53.000Z</time>
      </trkpt>
      <trkpt lat="42.86548" lon="2.16793">
        <ele>374.79998779297</ele>
        <time>2024-09-30T13:36:55.000Z</time>
      </trkpt>
      <trkpt lat="42.86557" lon="2.16799">
        <ele>374</ele>
        <time>2024-09-30T13:36:57.000Z</time>
      </trkpt>
      <trkpt lat="42.86561" lon="2.168">
        <ele>373.79998779297</ele>
        <time>2024-09-30T13:36:58.000Z</time>
      </trkpt>
      <trkpt lat="42.86571" lon="2.16803">
        <ele>373.20001220703</ele>
        <time>2024-09-30T13:37:00.000Z</time>
      </trkpt>
      <trkpt lat="42.86588" lon="2.16812">
        <ele>372.60000610352</ele>
        <time>2024-09-30T13:37:03.000Z</time>
      </trkpt>
      <trkpt lat="42.86607" lon="2.16825">
        <ele>371</ele>
        <time>2024-09-30T13:37:07.000Z</time>
      </trkpt>
      <trkpt lat="42.86611" lon="2.16828">
        <ele>370.39999389648</ele>
        <time>2024-09-30T13:37:08.000Z</time>
      </trkpt>
      <trkpt lat="42.86628" lon="2.16846">
        <ele>368.39999389648</ele>
        <time>2024-09-30T13:37:12.000Z</time>
      </trkpt>
      <trkpt lat="42.86652" lon="2.16875">
        <ele>365.39999389648</ele>
        <time>2024-09-30T13:37:18.000Z</time>
      </trkpt>
      <trkpt lat="42.86661" lon="2.16878">
        <ele>364.39999389648</ele>
        <time>2024-09-30T13:37:20.000Z</time>
      </trkpt>
      <trkpt lat="42.86665" lon="2.16877">
        <ele>364.20001220703</ele>
        <time>2024-09-30T13:37:21.000Z</time>
      </trkpt>
      <trkpt lat="42.86682" lon="2.16865">
        <ele>363.79998779297</ele>
        <time>2024-09-30T13:37:25.000Z</time>
      </trkpt>
      <trkpt lat="42.86686" lon="2.16862">
        <ele>363.20001220703</ele>
        <time>2024-09-30T13:37:26.000Z</time>
      </trkpt>
      <trkpt lat="42.86696" lon="2.16849">
        <ele>362.39999389648</ele>
        <time>2024-09-30T13:37:30.000Z</time>
      </trkpt>
      <trkpt lat="42.86698" lon="2.16848">
        <ele>362</ele>
        <time>2024-09-30T13:37:32.000Z</time>
      </trkpt>
      <trkpt lat="42.86697" lon="2.16858">
        <ele>361.20001220703</ele>
        <time>2024-09-30T13:38:28.000Z</time>
      </trkpt>
      <trkpt lat="42.86685" lon="2.16873">
        <ele>361.79998779297</ele>
        <time>2024-09-30T13:38:33.000Z</time>
      </trkpt>
      <trkpt lat="42.86668" lon="2.16895">
        <ele>361.39999389648</ele>
        <time>2024-09-30T13:38:38.000Z</time>
      </trkpt>
      <trkpt lat="42.8666" lon="2.16912">
        <ele>360</ele>
        <time>2024-09-30T13:38:41.000Z</time>
      </trkpt>
      <trkpt lat="42.86656" lon="2.16924">
        <ele>358.39999389648</ele>
        <time>2024-09-30T13:38:43.000Z</time>
      </trkpt>
      <trkpt lat="42.86653" lon="2.16947">
        <ele>355.60000610352</ele>
        <time>2024-09-30T13:38:46.000Z</time>
      </trkpt>
      <trkpt lat="42.86651" lon="2.16955">
        <ele>354.79998779297</ele>
        <time>2024-09-30T13:38:47.000Z</time>
      </trkpt>
      <trkpt lat="42.86637" lon="2.17">
        <ele>351.60000610352</ele>
        <time>2024-09-30T13:38:53.000Z</time>
      </trkpt>
      <trkpt lat="42.86619" lon="2.17049">
        <ele>350.79998779297</ele>
        <time>2024-09-30T13:39:00.000Z</time>
      </trkpt>
      <trkpt lat="42.86618" lon="2.17055">
        <ele>350.20001220703</ele>
        <time>2024-09-30T13:39:02.000Z</time>
      </trkpt>
      <trkpt lat="42.86614" lon="2.1708">
        <ele>348.60000610352</ele>
        <time>2024-09-30T13:39:05.000Z</time>
      </trkpt>
      <trkpt lat="42.86604" lon="2.17114">
        <ele>347.39999389648</ele>
        <time>2024-09-30T13:39:10.000Z</time>
      </trkpt>
      <trkpt lat="42.86602" lon="2.17121">
        <ele>347.39999389648</ele>
        <time>2024-09-30T13:39:11.000Z</time>
      </trkpt>
      <trkpt lat="42.86598" lon="2.17145">
        <ele>346.60000610352</ele>
        <time>2024-09-30T13:39:14.000Z</time>
      </trkpt>
      <trkpt lat="42.86593" lon="2.17182">
        <ele>345</ele>
        <time>2024-09-30T13:39:19.000Z</time>
      </trkpt>
      <trkpt lat="42.8659" lon="2.17199">
        <ele>343.20001220703</ele>
        <time>2024-09-30T13:39:23.000Z</time>
      </trkpt>
      <trkpt lat="42.86596" lon="2.17211">
        <ele>342.39999389648</ele>
        <time>2024-09-30T13:39:27.000Z</time>
      </trkpt>
      <trkpt lat="42.86602" lon="2.17218">
        <ele>342.20001220703</ele>
        <time>2024-09-30T13:39:29.000Z</time>
      </trkpt>
      <trkpt lat="42.8661" lon="2.17222">
        <ele>342.20001220703</ele>
        <time>2024-09-30T13:39:31.000Z</time>
      </trkpt>
      <trkpt lat="42.86624" lon="2.17234">
        <ele>341.79998779297</ele>
        <time>2024-09-30T13:39:35.000Z</time>
      </trkpt>
      <trkpt lat="42.86639" lon="2.1725">
        <ele>340.60000610352</ele>
        <time>2024-09-30T13:39:39.000Z</time>
      </trkpt>
      <trkpt lat="42.86646" lon="2.17257">
        <ele>340.39999389648</ele>
        <time>2024-09-30T13:39:41.000Z</time>
      </trkpt>
      <trkpt lat="42.8665" lon="2.17261">
        <ele>340.20001220703</ele>
        <time>2024-09-30T13:39:42.000Z</time>
      </trkpt>
      <trkpt lat="42.8666" lon="2.17274">
        <ele>339.39999389648</ele>
        <time>2024-09-30T13:39:46.000Z</time>
      </trkpt>
      <trkpt lat="42.8667" lon="2.17288">
        <ele>338</ele>
        <time>2024-09-30T13:39:51.000Z</time>
      </trkpt>
      <trkpt lat="42.86681" lon="2.17302">
        <ele>336.60000610352</ele>
        <time>2024-09-30T13:39:56.000Z</time>
      </trkpt>
      <trkpt lat="42.86693" lon="2.17329">
        <ele>334.39999389648</ele>
        <time>2024-09-30T13:40:02.000Z</time>
      </trkpt>
      <trkpt lat="42.86705" lon="2.17357">
        <ele>333.79998779297</ele>
        <time>2024-09-30T13:40:07.000Z</time>
      </trkpt>
      <trkpt lat="42.86711" lon="2.17368">
        <ele>333.39999389648</ele>
        <time>2024-09-30T13:40:09.000Z</time>
      </trkpt>
      <trkpt lat="42.86741" lon="2.1741">
        <ele>332.60000610352</ele>
        <time>2024-09-30T13:40:18.000Z</time>
      </trkpt>
      <trkpt lat="42.86772" lon="2.17445">
        <ele>332</ele>
        <time>2024-09-30T13:40:27.000Z</time>
      </trkpt>
      <trkpt lat="42.86801" lon="2.17474">
        <ele>331.60000610352</ele>
        <time>2024-09-30T13:40:35.000Z</time>
      </trkpt>
      <trkpt lat="42.8682" lon="2.17496">
        <ele>330.79998779297</ele>
        <time>2024-09-30T13:40:41.000Z</time>
      </trkpt>
      <trkpt lat="42.86835" lon="2.1751">
        <ele>330.20001220703</ele>
        <time>2024-09-30T13:40:47.000Z</time>
      </trkpt>
      <trkpt lat="42.86844" lon="2.17518">
        <ele>330</ele>
        <time>2024-09-30T13:40:50.000Z</time>
      </trkpt>
      <trkpt lat="42.86847" lon="2.17522">
        <ele>329.79998779297</ele>
        <time>2024-09-30T13:40:51.000Z</time>
      </trkpt>
      <trkpt lat="42.86852" lon="2.17531">
        <ele>329.20001220703</ele>
        <time>2024-09-30T13:40:53.000Z</time>
      </trkpt>
      <trkpt lat="42.86859" lon="2.17546">
        <ele>328.39999389648</ele>
        <time>2024-09-30T13:40:56.000Z</time>
      </trkpt>
      <trkpt lat="42.86862" lon="2.17551">
        <ele>328.39999389648</ele>
        <time>2024-09-30T13:40:57.000Z</time>
      </trkpt>
      <trkpt lat="42.86874" lon="2.17574">
        <ele>327.79998779297</ele>
        <time>2024-09-30T13:41:02.000Z</time>
      </trkpt>
      <trkpt lat="42.86885" lon="2.17601">
        <ele>326.60000610352</ele>
        <time>2024-09-30T13:41:08.000Z</time>
      </trkpt>
      <trkpt lat="42.86896" lon="2.17618">
        <ele>325</ele>
        <time>2024-09-30T13:41:13.000Z</time>
      </trkpt>
      <trkpt lat="42.86907" lon="2.17639">
        <ele>323.39999389648</ele>
        <time>2024-09-30T13:41:18.000Z</time>
      </trkpt>
      <trkpt lat="42.86909" lon="2.17644">
        <ele>323.20001220703</ele>
        <time>2024-09-30T13:41:19.000Z</time>
      </trkpt>
      <trkpt lat="42.86914" lon="2.17653">
        <ele>322.60000610352</ele>
        <time>2024-09-30T13:41:21.000Z</time>
      </trkpt>
      <trkpt lat="42.86921" lon="2.17662">
        <ele>321.79998779297</ele>
        <time>2024-09-30T13:41:23.000Z</time>
      </trkpt>
      <trkpt lat="42.86935" lon="2.17673">
        <ele>321.20001220703</ele>
        <time>2024-09-30T13:41:27.000Z</time>
      </trkpt>
      <trkpt lat="42.86941" lon="2.17691">
        <ele>320.20001220703</ele>
        <time>2024-09-30T13:41:31.000Z</time>
      </trkpt>
      <trkpt lat="42.8694" lon="2.17716">
        <ele>318.79998779297</ele>
        <time>2024-09-30T13:41:36.000Z</time>
      </trkpt>
      <trkpt lat="42.8694" lon="2.1775">
        <ele>316</ele>
        <time>2024-09-30T13:41:42.000Z</time>
      </trkpt>
      <trkpt lat="42.86944" lon="2.17769">
        <ele>314.79998779297</ele>
        <time>2024-09-30T13:41:46.000Z</time>
      </trkpt>
      <trkpt lat="42.8696" lon="2.17784">
        <ele>313.39999389648</ele>
        <time>2024-09-30T13:41:51.000Z</time>
      </trkpt>
      <trkpt lat="42.86984" lon="2.17813">
        <ele>313</ele>
        <time>2024-09-30T13:41:59.000Z</time>
      </trkpt>
      <trkpt lat="42.87003" lon="2.1784">
        <ele>314.39999389648</ele>
        <time>2024-09-30T13:42:06.000Z</time>
      </trkpt>
      <trkpt lat="42.8702" lon="2.17855">
        <ele>315.39999389648</ele>
        <time>2024-09-30T13:42:12.000Z</time>
      </trkpt>
      <trkpt lat="42.87035" lon="2.17856">
        <ele>315.79998779297</ele>
        <time>2024-09-30T13:42:16.000Z</time>
      </trkpt>
      <trkpt lat="42.87048" lon="2.17859">
        <ele>315.20001220703</ele>
        <time>2024-09-30T13:42:20.000Z</time>
      </trkpt>
      <trkpt lat="42.87054" lon="2.17866">
        <ele>314.79998779297</ele>
        <time>2024-09-30T13:42:22.000Z</time>
      </trkpt>
      <trkpt lat="42.8706" lon="2.17875">
        <ele>314.39999389648</ele>
        <time>2024-09-30T13:42:24.000Z</time>
      </trkpt>
      <trkpt lat="42.87072" lon="2.17895">
        <ele>313</ele>
        <time>2024-09-30T13:42:29.000Z</time>
      </trkpt>
      <trkpt lat="42.87081" lon="2.17913">
        <ele>311.60000610352</ele>
        <time>2024-09-30T13:42:34.000Z</time>
      </trkpt>
      <trkpt lat="42.87084" lon="2.17918">
        <ele>311.20001220703</ele>
        <time>2024-09-30T13:42:35.000Z</time>
      </trkpt>
      <trkpt lat="42.87089" lon="2.17929">
        <ele>310.60000610352</ele>
        <time>2024-09-30T13:42:37.000Z</time>
      </trkpt>
      <trkpt lat="42.87092" lon="2.17935">
        <ele>310.20001220703</ele>
        <time>2024-09-30T13:42:38.000Z</time>
      </trkpt>
      <trkpt lat="42.87099" lon="2.17953">
        <ele>308.20001220703</ele>
        <time>2024-09-30T13:42:42.000Z</time>
      </trkpt>
      <trkpt lat="42.87109" lon="2.17974">
        <ele>304.39999389648</ele>
        <time>2024-09-30T13:42:47.000Z</time>
      </trkpt>
      <trkpt lat="42.87111" lon="2.17979">
        <ele>303.60000610352</ele>
        <time>2024-09-30T13:42:48.000Z</time>
      </trkpt>
      <trkpt lat="42.87114" lon="2.17996">
        <ele>301.79998779297</ele>
        <time>2024-09-30T13:42:51.000Z</time>
      </trkpt>
      <trkpt lat="42.87118" lon="2.18006">
        <ele>300</ele>
        <time>2024-09-30T13:42:53.000Z</time>
      </trkpt>
      <trkpt lat="42.87117" lon="2.18019">
        <ele>299.20001220703</ele>
        <time>2024-09-30T13:42:55.000Z</time>
      </trkpt>
      <trkpt lat="42.87113" lon="2.1803">
        <ele>299.60000610352</ele>
        <time>2024-09-30T13:42:57.000Z</time>
      </trkpt>
      <trkpt lat="42.87106" lon="2.18039">
        <ele>299.79998779297</ele>
        <time>2024-09-30T13:42:59.000Z</time>
      </trkpt>
      <trkpt lat="42.87097" lon="2.18058">
        <ele>297.79998779297</ele>
        <time>2024-09-30T13:43:03.000Z</time>
      </trkpt>
      <trkpt lat="42.87097" lon="2.18064">
        <ele>296.79998779297</ele>
        <time>2024-09-30T13:43:04.000Z</time>
      </trkpt>
      <trkpt lat="42.87097" lon="2.18069">
        <ele>295.79998779297</ele>
        <time>2024-09-30T13:43:05.000Z</time>
      </trkpt>
      <trkpt lat="42.871" lon="2.18073">
        <ele>295</ele>
        <time>2024-09-30T13:43:07.000Z</time>
      </trkpt>
      <trkpt lat="42.871" lon="2.18073">
        <ele>295</ele>
        <time>2024-09-30T13:43:08.000Z</time>
      </trkpt>
      <trkpt lat="42.87102" lon="2.18076">
        <ele>294.60000610352</ele>
        <time>2024-09-30T13:44:06.000Z</time>
      </trkpt>
      <trkpt lat="42.87104" lon="2.18077">
        <ele>294.60000610352</ele>
        <time>2024-09-30T13:44:07.000Z</time>
      </trkpt>
      <trkpt lat="42.87113" lon="2.18079">
        <ele>294.20001220703</ele>
        <time>2024-09-30T13:44:10.000Z</time>
      </trkpt>
      <trkpt lat="42.87116" lon="2.18077">
        <ele>294.20001220703</ele>
        <time>2024-09-30T13:44:11.000Z</time>
      </trkpt>
      <trkpt lat="42.87131" lon="2.18061">
        <ele>294.60000610352</ele>
        <time>2024-09-30T13:44:17.000Z</time>
      </trkpt>
      <trkpt lat="42.87135" lon="2.18064">
        <ele>294.20001220703</ele>
        <time>2024-09-30T13:44:19.000Z</time>
      </trkpt>
      <trkpt lat="42.87137" lon="2.18068">
        <ele>293.79998779297</ele>
        <time>2024-09-30T13:44:20.000Z</time>
      </trkpt>
      <trkpt lat="42.87147" lon="2.18093">
        <ele>292.39999389648</ele>
        <time>2024-09-30T13:44:25.000Z</time>
      </trkpt>
      <trkpt lat="42.87163" lon="2.18135">
        <ele>292.60000610352</ele>
        <time>2024-09-30T13:44:32.000Z</time>
      </trkpt>
      <trkpt lat="42.87167" lon="2.18146">
        <ele>292.39999389648</ele>
        <time>2024-09-30T13:44:34.000Z</time>
      </trkpt>
      <trkpt lat="42.87171" lon="2.18155">
        <ele>292.20001220703</ele>
        <time>2024-09-30T13:44:36.000Z</time>
      </trkpt>
      <trkpt lat="42.87166" lon="2.18164">
        <ele>291.79998779297</ele>
        <time>2024-09-30T13:44:39.000Z</time>
      </trkpt>
      <trkpt lat="42.87148" lon="2.18168">
        <ele>291.60000610352</ele>
        <time>2024-09-30T13:44:43.000Z</time>
      </trkpt>
      <trkpt lat="42.8711" lon="2.18171">
        <ele>292</ele>
        <time>2024-09-30T13:44:50.000Z</time>
      </trkpt>
      <trkpt lat="42.87092" lon="2.18171">
        <ele>292.20001220703</ele>
        <time>2024-09-30T13:44:53.000Z</time>
      </trkpt>
      <trkpt lat="42.87074" lon="2.18167">
        <ele>293</ele>
        <time>2024-09-30T13:44:56.000Z</time>
      </trkpt>
      <trkpt lat="42.87024" lon="2.18156">
        <ele>293.60000610352</ele>
        <time>2024-09-30T13:45:04.000Z</time>
      </trkpt>
      <trkpt lat="42.86982" lon="2.18155">
        <ele>293</ele>
        <time>2024-09-30T13:45:11.000Z</time>
      </trkpt>
      <trkpt lat="42.8697" lon="2.18156">
        <ele>292.60000610352</ele>
        <time>2024-09-30T13:45:13.000Z</time>
      </trkpt>
      <trkpt lat="42.86959" lon="2.18163">
        <ele>292</ele>
        <time>2024-09-30T13:45:15.000Z</time>
      </trkpt>
      <trkpt lat="42.86949" lon="2.18173">
        <ele>292.20001220703</ele>
        <time>2024-09-30T13:45:17.000Z</time>
      </trkpt>
      <trkpt lat="42.86942" lon="2.18187">
        <ele>292.39999389648</ele>
        <time>2024-09-30T13:45:19.000Z</time>
      </trkpt>
      <trkpt lat="42.86938" lon="2.18202">
        <ele>292.39999389648</ele>
        <time>2024-09-30T13:45:21.000Z</time>
      </trkpt>
      <trkpt lat="42.86938" lon="2.1821">
        <ele>292.20001220703</ele>
        <time>2024-09-30T13:45:22.000Z</time>
      </trkpt>
      <trkpt lat="42.86944" lon="2.1826">
        <ele>291.79998779297</ele>
        <time>2024-09-30T13:45:29.000Z</time>
      </trkpt>
      <trkpt lat="42.86949" lon="2.18302">
        <ele>291</ele>
        <time>2024-09-30T13:45:35.000Z</time>
      </trkpt>
      <trkpt lat="42.86951" lon="2.18309">
        <ele>291</ele>
        <time>2024-09-30T13:45:36.000Z</time>
      </trkpt>
      <trkpt lat="42.86958" lon="2.18333">
        <ele>291</ele>
        <time>2024-09-30T13:45:40.000Z</time>
      </trkpt>
      <trkpt lat="42.86959" lon="2.18339">
        <ele>291.20001220703</ele>
        <time>2024-09-30T13:45:41.000Z</time>
      </trkpt>
      <trkpt lat="42.86961" lon="2.18343">
        <ele>291.20001220703</ele>
        <time>2024-09-30T13:45:42.000Z</time>
      </trkpt>
      <trkpt lat="42.86969" lon="2.18349">
        <ele>290.79998779297</ele>
        <time>2024-09-30T13:45:44.000Z</time>
      </trkpt>
      <trkpt lat="42.86979" lon="2.18346">
        <ele>290</ele>
        <time>2024-09-30T13:45:46.000Z</time>
      </trkpt>
      <trkpt lat="42.86985" lon="2.18345">
        <ele>289.60000610352</ele>
        <time>2024-09-30T13:45:47.000Z</time>
      </trkpt>
      <trkpt lat="42.86995" lon="2.18345">
        <ele>289.20001220703</ele>
        <time>2024-09-30T13:45:49.000Z</time>
      </trkpt>
      <trkpt lat="42.86998" lon="2.18348">
        <ele>289.39999389648</ele>
        <time>2024-09-30T13:45:50.000Z</time>
      </trkpt>
      <trkpt lat="42.87" lon="2.18353">
        <ele>289.39999389648</ele>
        <time>2024-09-30T13:45:51.000Z</time>
      </trkpt>
      <trkpt lat="42.87006" lon="2.18372">
        <ele>288.39999389648</ele>
        <time>2024-09-30T13:45:54.000Z</time>
      </trkpt>
      <trkpt lat="42.87013" lon="2.1839">
        <ele>288</ele>
        <time>2024-09-30T13:45:57.000Z</time>
      </trkpt>
      <trkpt lat="42.87014" lon="2.18401">
        <ele>288</ele>
        <time>2024-09-30T13:45:59.000Z</time>
      </trkpt>
      <trkpt lat="42.87014" lon="2.18412">
        <ele>288</ele>
        <time>2024-09-30T13:46:02.000Z</time>
      </trkpt>
      <trkpt lat="42.87016" lon="2.18414">
        <ele>288</ele>
        <time>2024-09-30T13:46:03.000Z</time>
      </trkpt>
      <trkpt lat="42.87017" lon="2.18415">
        <ele>288</ele>
        <time>2024-09-30T13:46:04.000Z</time>
      </trkpt>
      <trkpt lat="42.87018" lon="2.18415">
        <ele>288</ele>
        <time>2024-09-30T13:46:06.000Z</time>
      </trkpt>
    </trkseg>
  </trk>
</gpx>